<?xml version="1.0" encoding="UTF-8" standalone="no" ?>
<gpx xmlns="http://www.topografix.com/GPX/1/1" xmlns:xsi="http://www.w3.org/2001/XMLSchema-instance" xsi:schemaLocation="http://www.topografix.com/GPX/1/1 http://www.topografix.com/GPX/1/1/gpx.xsd" version="1.1" creator="VisuGPX - https://www.visugpx.com">
  <metadata>
    <name>2017-08-01 Bike ride VTT-Amberieux-Saone O Quincieux O</name>
    <desc><![CDATA[2017-08-01 Bike ride VTT-Amberieux-Saone O Quincieux O]]></desc>
  </metadata>
  <wpt lat="45.92471" lon="4.7373">
    <ele>174</ele>
    <name><![CDATA[2017-08-01 14:46 (Start)]]></name>
  </wpt>
  <wpt lat="45.92458" lon="4.73709">
    <ele>174</ele>
    <name><![CDATA[2017-08-01 14:46 (End)]]></name>
    <desc><![CDATA[Created by Google My Tracks on Android  Name: 2017-08-01 14:46 Activity type: biking Description: - Total distance: 21.81 km (13.6 mi) Total time: 1:30:23 Moving time: 1:27:06 Average speed: 14.47 km/h (9.0 mi/h) Average moving speed: 15.02 km/h (9.3 mi/h) Max speed: 26.19 km/h (16.3 mi/h) Average pace: 4:09 min/km (6:40 min/mi) Average moving pace: 3:60 min/km (6:26 min/mi) Fastest pace: 2:17 min/km (3:41 min/mi) Max elevation: 194 m (636 ft) Min elevation: 160 m (525 ft) Elevation gain: 386 m (1266 ft) Max grade: 9 % Min grade: -76 % Recorded: 01/08/2017 14:46]]></desc>
  </wpt>
  <trk>
    <name><![CDATA[2017-08-01 14:46]]></name>
    <trkseg>
      <trkpt lat="45.92471" lon="4.7373">
        <ele>174</ele>
        <time>2017-08-01T12:46:50.839Z</time>
      </trkpt>
      <trkpt lat="45.92478" lon="4.73735">
        <ele>174</ele>
        <time>2017-08-01T12:47:02Z</time>
      </trkpt>
      <trkpt lat="45.92457" lon="4.73713">
        <ele>174</ele>
        <time>2017-08-01T12:47:03Z</time>
      </trkpt>
      <trkpt lat="45.92449" lon="4.73712">
        <ele>174</ele>
        <time>2017-08-01T12:47:08Z</time>
      </trkpt>
      <trkpt lat="45.92448" lon="4.73711">
        <ele>174</ele>
        <time>2017-08-01T12:47:09Z</time>
      </trkpt>
      <trkpt lat="45.92455" lon="4.73716">
        <ele>174</ele>
        <time>2017-08-01T12:47:20Z</time>
      </trkpt>
      <trkpt lat="45.92456" lon="4.73716">
        <ele>174</ele>
        <time>2017-08-01T12:47:21Z</time>
      </trkpt>
      <trkpt lat="45.92464" lon="4.73711">
        <ele>174</ele>
        <time>2017-08-01T12:47:44Z</time>
      </trkpt>
      <trkpt lat="45.92465" lon="4.7371">
        <ele>174</ele>
        <time>2017-08-01T12:47:45Z</time>
      </trkpt>
      <trkpt lat="45.92466" lon="4.73698">
        <ele>174</ele>
        <time>2017-08-01T12:47:50Z</time>
      </trkpt>
      <trkpt lat="45.92467" lon="4.73694">
        <ele>174</ele>
        <time>2017-08-01T12:47:51Z</time>
      </trkpt>
      <trkpt lat="45.92467" lon="4.73682">
        <ele>174</ele>
        <time>2017-08-01T12:47:56Z</time>
      </trkpt>
      <trkpt lat="45.92468" lon="4.73677">
        <ele>174</ele>
        <time>2017-08-01T12:47:57Z</time>
      </trkpt>
      <trkpt lat="45.92468" lon="4.73668">
        <ele>174</ele>
        <time>2017-08-01T12:47:59Z</time>
      </trkpt>
      <trkpt lat="45.92469" lon="4.73663">
        <ele>174</ele>
        <time>2017-08-01T12:48:00Z</time>
      </trkpt>
      <trkpt lat="45.92475" lon="4.73654">
        <ele>174</ele>
        <time>2017-08-01T12:48:02Z</time>
      </trkpt>
      <trkpt lat="45.92478" lon="4.73651">
        <ele>174</ele>
        <time>2017-08-01T12:48:03Z</time>
      </trkpt>
      <trkpt lat="45.92486" lon="4.73649">
        <ele>174</ele>
        <time>2017-08-01T12:48:05Z</time>
      </trkpt>
      <trkpt lat="45.9249" lon="4.73649">
        <ele>174</ele>
        <time>2017-08-01T12:48:06Z</time>
      </trkpt>
      <trkpt lat="45.92495" lon="4.73647">
        <ele>174</ele>
        <time>2017-08-01T12:48:07Z</time>
      </trkpt>
      <trkpt lat="45.92499" lon="4.73646">
        <ele>174</ele>
        <time>2017-08-01T12:48:08Z</time>
      </trkpt>
      <trkpt lat="45.92508" lon="4.73646">
        <ele>174</ele>
        <time>2017-08-01T12:48:10Z</time>
      </trkpt>
      <trkpt lat="45.92513" lon="4.73646">
        <ele>174</ele>
        <time>2017-08-01T12:48:11Z</time>
      </trkpt>
      <trkpt lat="45.92521" lon="4.73644">
        <ele>173</ele>
        <time>2017-08-01T12:48:13Z</time>
      </trkpt>
      <trkpt lat="45.92525" lon="4.73643">
        <ele>173</ele>
        <time>2017-08-01T12:48:14Z</time>
      </trkpt>
      <trkpt lat="45.92533" lon="4.73641">
        <ele>173</ele>
        <time>2017-08-01T12:48:16Z</time>
      </trkpt>
      <trkpt lat="45.92538" lon="4.73641">
        <ele>173</ele>
        <time>2017-08-01T12:48:17Z</time>
      </trkpt>
      <trkpt lat="45.92543" lon="4.7364">
        <ele>173</ele>
        <time>2017-08-01T12:48:18Z</time>
      </trkpt>
      <trkpt lat="45.92547" lon="4.73639">
        <ele>173</ele>
        <time>2017-08-01T12:48:19Z</time>
      </trkpt>
      <trkpt lat="45.92552" lon="4.73638">
        <ele>173</ele>
        <time>2017-08-01T12:48:20Z</time>
      </trkpt>
      <trkpt lat="45.92557" lon="4.73637">
        <ele>173</ele>
        <time>2017-08-01T12:48:21Z</time>
      </trkpt>
      <trkpt lat="45.92562" lon="4.73637">
        <ele>173</ele>
        <time>2017-08-01T12:48:22Z</time>
      </trkpt>
      <trkpt lat="45.92567" lon="4.73636">
        <ele>173</ele>
        <time>2017-08-01T12:48:23Z</time>
      </trkpt>
      <trkpt lat="45.92572" lon="4.73635">
        <ele>173</ele>
        <time>2017-08-01T12:48:24Z</time>
      </trkpt>
      <trkpt lat="45.92576" lon="4.73635">
        <ele>172</ele>
        <time>2017-08-01T12:48:25Z</time>
      </trkpt>
      <trkpt lat="45.92581" lon="4.73632">
        <ele>173</ele>
        <time>2017-08-01T12:48:26Z</time>
      </trkpt>
      <trkpt lat="45.92587" lon="4.73631">
        <ele>172</ele>
        <time>2017-08-01T12:48:27Z</time>
      </trkpt>
      <trkpt lat="45.92592" lon="4.7363">
        <ele>172</ele>
        <time>2017-08-01T12:48:28Z</time>
      </trkpt>
      <trkpt lat="45.92596" lon="4.73629">
        <ele>172</ele>
        <time>2017-08-01T12:48:29Z</time>
      </trkpt>
      <trkpt lat="45.92604" lon="4.73628">
        <ele>173</ele>
        <time>2017-08-01T12:48:31Z</time>
      </trkpt>
      <trkpt lat="45.92608" lon="4.73628">
        <ele>173</ele>
        <time>2017-08-01T12:48:32Z</time>
      </trkpt>
      <trkpt lat="45.92616" lon="4.73631">
        <ele>173</ele>
        <time>2017-08-01T12:48:34Z</time>
      </trkpt>
      <trkpt lat="45.92619" lon="4.73636">
        <ele>173</ele>
        <time>2017-08-01T12:48:35Z</time>
      </trkpt>
      <trkpt lat="45.92624" lon="4.73646">
        <ele>173</ele>
        <time>2017-08-01T12:48:37Z</time>
      </trkpt>
      <trkpt lat="45.92627" lon="4.7365">
        <ele>173</ele>
        <time>2017-08-01T12:48:38Z</time>
      </trkpt>
      <trkpt lat="45.92632" lon="4.73661">
        <ele>173</ele>
        <time>2017-08-01T12:48:40Z</time>
      </trkpt>
      <trkpt lat="45.92635" lon="4.73667">
        <ele>173</ele>
        <time>2017-08-01T12:48:41Z</time>
      </trkpt>
      <trkpt lat="45.92638" lon="4.73673">
        <ele>173</ele>
        <time>2017-08-01T12:48:42Z</time>
      </trkpt>
      <trkpt lat="45.92642" lon="4.73678">
        <ele>173</ele>
        <time>2017-08-01T12:48:43Z</time>
      </trkpt>
      <trkpt lat="45.92646" lon="4.73683">
        <ele>173</ele>
        <time>2017-08-01T12:48:44Z</time>
      </trkpt>
      <trkpt lat="45.9265" lon="4.73688">
        <ele>173</ele>
        <time>2017-08-01T12:48:45Z</time>
      </trkpt>
      <trkpt lat="45.92654" lon="4.73692">
        <ele>173</ele>
        <time>2017-08-01T12:48:46Z</time>
      </trkpt>
      <trkpt lat="45.92659" lon="4.73696">
        <ele>173</ele>
        <time>2017-08-01T12:48:47Z</time>
      </trkpt>
      <trkpt lat="45.92663" lon="4.73699">
        <ele>173</ele>
        <time>2017-08-01T12:48:48Z</time>
      </trkpt>
      <trkpt lat="45.92668" lon="4.73703">
        <ele>174</ele>
        <time>2017-08-01T12:48:49Z</time>
      </trkpt>
      <trkpt lat="45.92673" lon="4.73706">
        <ele>174</ele>
        <time>2017-08-01T12:48:50Z</time>
      </trkpt>
      <trkpt lat="45.92677" lon="4.73707">
        <ele>173</ele>
        <time>2017-08-01T12:48:51Z</time>
      </trkpt>
      <trkpt lat="45.92682" lon="4.7371">
        <ele>173</ele>
        <time>2017-08-01T12:48:52Z</time>
      </trkpt>
      <trkpt lat="45.92687" lon="4.73711">
        <ele>173</ele>
        <time>2017-08-01T12:48:53Z</time>
      </trkpt>
      <trkpt lat="45.92691" lon="4.73713">
        <ele>173</ele>
        <time>2017-08-01T12:48:54Z</time>
      </trkpt>
      <trkpt lat="45.92696" lon="4.73714">
        <ele>173</ele>
        <time>2017-08-01T12:48:55Z</time>
      </trkpt>
      <trkpt lat="45.92701" lon="4.73714">
        <ele>173</ele>
        <time>2017-08-01T12:48:56Z</time>
      </trkpt>
      <trkpt lat="45.92706" lon="4.73715">
        <ele>173</ele>
        <time>2017-08-01T12:48:57Z</time>
      </trkpt>
      <trkpt lat="45.92712" lon="4.73716">
        <ele>173</ele>
        <time>2017-08-01T12:48:58Z</time>
      </trkpt>
      <trkpt lat="45.92717" lon="4.73716">
        <ele>173</ele>
        <time>2017-08-01T12:48:59Z</time>
      </trkpt>
      <trkpt lat="45.92722" lon="4.73717">
        <ele>173</ele>
        <time>2017-08-01T12:49:00Z</time>
      </trkpt>
      <trkpt lat="45.92727" lon="4.73717">
        <ele>173</ele>
        <time>2017-08-01T12:49:01Z</time>
      </trkpt>
      <trkpt lat="45.92732" lon="4.73718">
        <ele>173</ele>
        <time>2017-08-01T12:49:02Z</time>
      </trkpt>
      <trkpt lat="45.92737" lon="4.73719">
        <ele>173</ele>
        <time>2017-08-01T12:49:03Z</time>
      </trkpt>
      <trkpt lat="45.92745" lon="4.73719">
        <ele>173</ele>
        <time>2017-08-01T12:49:05Z</time>
      </trkpt>
      <trkpt lat="45.92749" lon="4.73719">
        <ele>173</ele>
        <time>2017-08-01T12:49:06Z</time>
      </trkpt>
      <trkpt lat="45.92757" lon="4.7372">
        <ele>172</ele>
        <time>2017-08-01T12:49:08Z</time>
      </trkpt>
      <trkpt lat="45.92763" lon="4.73719">
        <ele>172</ele>
        <time>2017-08-01T12:49:09Z</time>
      </trkpt>
      <trkpt lat="45.92768" lon="4.73719">
        <ele>172</ele>
        <time>2017-08-01T12:49:10Z</time>
      </trkpt>
      <trkpt lat="45.92772" lon="4.73722">
        <ele>172</ele>
        <time>2017-08-01T12:49:11Z</time>
      </trkpt>
      <trkpt lat="45.92779" lon="4.73728">
        <ele>172</ele>
        <time>2017-08-01T12:49:13Z</time>
      </trkpt>
      <trkpt lat="45.92782" lon="4.73733">
        <ele>172</ele>
        <time>2017-08-01T12:49:14Z</time>
      </trkpt>
      <trkpt lat="45.92784" lon="4.73738">
        <ele>172</ele>
        <time>2017-08-01T12:49:15Z</time>
      </trkpt>
      <trkpt lat="45.92787" lon="4.73744">
        <ele>172</ele>
        <time>2017-08-01T12:49:16Z</time>
      </trkpt>
      <trkpt lat="45.92791" lon="4.73751">
        <ele>173</ele>
        <time>2017-08-01T12:49:17Z</time>
      </trkpt>
      <trkpt lat="45.92795" lon="4.73755">
        <ele>173</ele>
        <time>2017-08-01T12:49:18Z</time>
      </trkpt>
      <trkpt lat="45.92799" lon="4.73758">
        <ele>173</ele>
        <time>2017-08-01T12:49:19Z</time>
      </trkpt>
      <trkpt lat="45.92803" lon="4.73761">
        <ele>173</ele>
        <time>2017-08-01T12:49:20Z</time>
      </trkpt>
      <trkpt lat="45.92807" lon="4.73764">
        <ele>173</ele>
        <time>2017-08-01T12:49:21Z</time>
      </trkpt>
      <trkpt lat="45.92812" lon="4.73767">
        <ele>173</ele>
        <time>2017-08-01T12:49:22Z</time>
      </trkpt>
      <trkpt lat="45.92816" lon="4.7377">
        <ele>173</ele>
        <time>2017-08-01T12:49:23Z</time>
      </trkpt>
      <trkpt lat="45.9282" lon="4.73774">
        <ele>173</ele>
        <time>2017-08-01T12:49:24Z</time>
      </trkpt>
      <trkpt lat="45.92825" lon="4.73777">
        <ele>173</ele>
        <time>2017-08-01T12:49:25Z</time>
      </trkpt>
      <trkpt lat="45.9283" lon="4.73781">
        <ele>173</ele>
        <time>2017-08-01T12:49:26Z</time>
      </trkpt>
      <trkpt lat="45.92835" lon="4.73785">
        <ele>173</ele>
        <time>2017-08-01T12:49:27Z</time>
      </trkpt>
      <trkpt lat="45.92839" lon="4.73787">
        <ele>173</ele>
        <time>2017-08-01T12:49:28Z</time>
      </trkpt>
      <trkpt lat="45.92844" lon="4.7379">
        <ele>173</ele>
        <time>2017-08-01T12:49:29Z</time>
      </trkpt>
      <trkpt lat="45.92848" lon="4.73793">
        <ele>173</ele>
        <time>2017-08-01T12:49:30Z</time>
      </trkpt>
      <trkpt lat="45.92855" lon="4.73801">
        <ele>173</ele>
        <time>2017-08-01T12:49:32Z</time>
      </trkpt>
      <trkpt lat="45.92857" lon="4.73806">
        <ele>173</ele>
        <time>2017-08-01T12:49:33Z</time>
      </trkpt>
      <trkpt lat="45.9286" lon="4.73818">
        <ele>173</ele>
        <time>2017-08-01T12:49:35Z</time>
      </trkpt>
      <trkpt lat="45.92861" lon="4.73824">
        <ele>173</ele>
        <time>2017-08-01T12:49:36Z</time>
      </trkpt>
      <trkpt lat="45.92863" lon="4.73831">
        <ele>173</ele>
        <time>2017-08-01T12:49:37Z</time>
      </trkpt>
      <trkpt lat="45.92865" lon="4.73838">
        <ele>173</ele>
        <time>2017-08-01T12:49:38Z</time>
      </trkpt>
      <trkpt lat="45.92867" lon="4.73845">
        <ele>173</ele>
        <time>2017-08-01T12:49:39Z</time>
      </trkpt>
      <trkpt lat="45.92869" lon="4.73852">
        <ele>173</ele>
        <time>2017-08-01T12:49:40Z</time>
      </trkpt>
      <trkpt lat="45.9287" lon="4.73859">
        <ele>173</ele>
        <time>2017-08-01T12:49:41Z</time>
      </trkpt>
      <trkpt lat="45.92872" lon="4.73866">
        <ele>173</ele>
        <time>2017-08-01T12:49:42Z</time>
      </trkpt>
      <trkpt lat="45.92874" lon="4.73874">
        <ele>173</ele>
        <time>2017-08-01T12:49:43Z</time>
      </trkpt>
      <trkpt lat="45.92876" lon="4.73883">
        <ele>173</ele>
        <time>2017-08-01T12:49:44Z</time>
      </trkpt>
      <trkpt lat="45.92877" lon="4.73891">
        <ele>173</ele>
        <time>2017-08-01T12:49:45Z</time>
      </trkpt>
      <trkpt lat="45.9288" lon="4.739">
        <ele>173</ele>
        <time>2017-08-01T12:49:46Z</time>
      </trkpt>
      <trkpt lat="45.92882" lon="4.73909">
        <ele>173</ele>
        <time>2017-08-01T12:49:47Z</time>
      </trkpt>
      <trkpt lat="45.92883" lon="4.73918">
        <ele>172</ele>
        <time>2017-08-01T12:49:48Z</time>
      </trkpt>
      <trkpt lat="45.92885" lon="4.73928">
        <ele>172</ele>
        <time>2017-08-01T12:49:49Z</time>
      </trkpt>
      <trkpt lat="45.92885" lon="4.73936">
        <ele>172</ele>
        <time>2017-08-01T12:49:50Z</time>
      </trkpt>
      <trkpt lat="45.92885" lon="4.73945">
        <ele>172</ele>
        <time>2017-08-01T12:49:51Z</time>
      </trkpt>
      <trkpt lat="45.92886" lon="4.73953">
        <ele>172</ele>
        <time>2017-08-01T12:49:52Z</time>
      </trkpt>
      <trkpt lat="45.92886" lon="4.73961">
        <ele>172</ele>
        <time>2017-08-01T12:49:53Z</time>
      </trkpt>
      <trkpt lat="45.92886" lon="4.73968">
        <ele>172</ele>
        <time>2017-08-01T12:49:54Z</time>
      </trkpt>
      <trkpt lat="45.92886" lon="4.73975">
        <ele>172</ele>
        <time>2017-08-01T12:49:55Z</time>
      </trkpt>
      <trkpt lat="45.92886" lon="4.73981">
        <ele>172</ele>
        <time>2017-08-01T12:49:56Z</time>
      </trkpt>
      <trkpt lat="45.92883" lon="4.73993">
        <ele>172</ele>
        <time>2017-08-01T12:49:58Z</time>
      </trkpt>
      <trkpt lat="45.92881" lon="4.74">
        <ele>172</ele>
        <time>2017-08-01T12:49:59Z</time>
      </trkpt>
      <trkpt lat="45.9288" lon="4.74007">
        <ele>172</ele>
        <time>2017-08-01T12:50:00Z</time>
      </trkpt>
      <trkpt lat="45.92879" lon="4.74014">
        <ele>172</ele>
        <time>2017-08-01T12:50:01Z</time>
      </trkpt>
      <trkpt lat="45.92879" lon="4.74022">
        <ele>172</ele>
        <time>2017-08-01T12:50:02Z</time>
      </trkpt>
      <trkpt lat="45.9288" lon="4.74029">
        <ele>172</ele>
        <time>2017-08-01T12:50:03Z</time>
      </trkpt>
      <trkpt lat="45.92883" lon="4.74035">
        <ele>172</ele>
        <time>2017-08-01T12:50:04Z</time>
      </trkpt>
      <trkpt lat="45.92887" lon="4.74041">
        <ele>172</ele>
        <time>2017-08-01T12:50:05Z</time>
      </trkpt>
      <trkpt lat="45.92892" lon="4.74045">
        <ele>172</ele>
        <time>2017-08-01T12:50:06Z</time>
      </trkpt>
      <trkpt lat="45.92896" lon="4.74049">
        <ele>172</ele>
        <time>2017-08-01T12:50:07Z</time>
      </trkpt>
      <trkpt lat="45.929" lon="4.74052">
        <ele>172</ele>
        <time>2017-08-01T12:50:08Z</time>
      </trkpt>
      <trkpt lat="45.92904" lon="4.74056">
        <ele>172</ele>
        <time>2017-08-01T12:50:09Z</time>
      </trkpt>
      <trkpt lat="45.92908" lon="4.7406">
        <ele>172</ele>
        <time>2017-08-01T12:50:10Z</time>
      </trkpt>
      <trkpt lat="45.92911" lon="4.74065">
        <ele>173</ele>
        <time>2017-08-01T12:50:11Z</time>
      </trkpt>
      <trkpt lat="45.92914" lon="4.74076">
        <ele>173</ele>
        <time>2017-08-01T12:50:13Z</time>
      </trkpt>
      <trkpt lat="45.92914" lon="4.74082">
        <ele>173</ele>
        <time>2017-08-01T12:50:14Z</time>
      </trkpt>
      <trkpt lat="45.92912" lon="4.74092">
        <ele>173</ele>
        <time>2017-08-01T12:50:16Z</time>
      </trkpt>
      <trkpt lat="45.9291" lon="4.74096">
        <ele>172</ele>
        <time>2017-08-01T12:50:17Z</time>
      </trkpt>
      <trkpt lat="45.92906" lon="4.74104">
        <ele>172</ele>
        <time>2017-08-01T12:50:19Z</time>
      </trkpt>
      <trkpt lat="45.92903" lon="4.74108">
        <ele>172</ele>
        <time>2017-08-01T12:50:20Z</time>
      </trkpt>
      <trkpt lat="45.92898" lon="4.74115">
        <ele>172</ele>
        <time>2017-08-01T12:50:22Z</time>
      </trkpt>
      <trkpt lat="45.92895" lon="4.74118">
        <ele>172</ele>
        <time>2017-08-01T12:50:23Z</time>
      </trkpt>
      <trkpt lat="45.9289" lon="4.74125">
        <ele>172</ele>
        <time>2017-08-01T12:50:25Z</time>
      </trkpt>
      <trkpt lat="45.92888" lon="4.74129">
        <ele>172</ele>
        <time>2017-08-01T12:50:26Z</time>
      </trkpt>
      <trkpt lat="45.92886" lon="4.74139">
        <ele>172</ele>
        <time>2017-08-01T12:50:28Z</time>
      </trkpt>
      <trkpt lat="45.92885" lon="4.74144">
        <ele>172</ele>
        <time>2017-08-01T12:50:29Z</time>
      </trkpt>
      <trkpt lat="45.92885" lon="4.74154">
        <ele>172</ele>
        <time>2017-08-01T12:50:31Z</time>
      </trkpt>
      <trkpt lat="45.92886" lon="4.74159">
        <ele>172</ele>
        <time>2017-08-01T12:50:32Z</time>
      </trkpt>
      <trkpt lat="45.9289" lon="4.74168">
        <ele>171</ele>
        <time>2017-08-01T12:50:34Z</time>
      </trkpt>
      <trkpt lat="45.92893" lon="4.74171">
        <ele>171</ele>
        <time>2017-08-01T12:50:35Z</time>
      </trkpt>
      <trkpt lat="45.92899" lon="4.74176">
        <ele>172</ele>
        <time>2017-08-01T12:50:37Z</time>
      </trkpt>
      <trkpt lat="45.92903" lon="4.74179">
        <ele>172</ele>
        <time>2017-08-01T12:50:38Z</time>
      </trkpt>
      <trkpt lat="45.9291" lon="4.74182">
        <ele>172</ele>
        <time>2017-08-01T12:50:40Z</time>
      </trkpt>
      <trkpt lat="45.92914" lon="4.74185">
        <ele>172</ele>
        <time>2017-08-01T12:50:41Z</time>
      </trkpt>
      <trkpt lat="45.92922" lon="4.7419">
        <ele>171</ele>
        <time>2017-08-01T12:50:43Z</time>
      </trkpt>
      <trkpt lat="45.92925" lon="4.74193">
        <ele>171</ele>
        <time>2017-08-01T12:50:44Z</time>
      </trkpt>
      <trkpt lat="45.92932" lon="4.74197">
        <ele>170</ele>
        <time>2017-08-01T12:50:46Z</time>
      </trkpt>
      <trkpt lat="45.92936" lon="4.74199">
        <ele>170</ele>
        <time>2017-08-01T12:50:47Z</time>
      </trkpt>
      <trkpt lat="45.92943" lon="4.74203">
        <ele>170</ele>
        <time>2017-08-01T12:50:49Z</time>
      </trkpt>
      <trkpt lat="45.92947" lon="4.74205">
        <ele>170</ele>
        <time>2017-08-01T12:50:50Z</time>
      </trkpt>
      <trkpt lat="45.92955" lon="4.74208">
        <ele>170</ele>
        <time>2017-08-01T12:50:52Z</time>
      </trkpt>
      <trkpt lat="45.92959" lon="4.74208">
        <ele>170</ele>
        <time>2017-08-01T12:50:53Z</time>
      </trkpt>
      <trkpt lat="45.92967" lon="4.74204">
        <ele>170</ele>
        <time>2017-08-01T12:50:55Z</time>
      </trkpt>
      <trkpt lat="45.92971" lon="4.74201">
        <ele>170</ele>
        <time>2017-08-01T12:50:56Z</time>
      </trkpt>
      <trkpt lat="45.92974" lon="4.74196">
        <ele>170</ele>
        <time>2017-08-01T12:50:57Z</time>
      </trkpt>
      <trkpt lat="45.92976" lon="4.74189">
        <ele>170</ele>
        <time>2017-08-01T12:50:58Z</time>
      </trkpt>
      <trkpt lat="45.92978" lon="4.74183">
        <ele>170</ele>
        <time>2017-08-01T12:50:59Z</time>
      </trkpt>
      <trkpt lat="45.9298" lon="4.74175">
        <ele>170</ele>
        <time>2017-08-01T12:51:00Z</time>
      </trkpt>
      <trkpt lat="45.92982" lon="4.74168">
        <ele>169</ele>
        <time>2017-08-01T12:51:01Z</time>
      </trkpt>
      <trkpt lat="45.92984" lon="4.74159">
        <ele>170</ele>
        <time>2017-08-01T12:51:02Z</time>
      </trkpt>
      <trkpt lat="45.92986" lon="4.74151">
        <ele>170</ele>
        <time>2017-08-01T12:51:03Z</time>
      </trkpt>
      <trkpt lat="45.92989" lon="4.74142">
        <ele>171</ele>
        <time>2017-08-01T12:51:04Z</time>
      </trkpt>
      <trkpt lat="45.92992" lon="4.74132">
        <ele>171</ele>
        <time>2017-08-01T12:51:05Z</time>
      </trkpt>
      <trkpt lat="45.92994" lon="4.74123">
        <ele>171</ele>
        <time>2017-08-01T12:51:06Z</time>
      </trkpt>
      <trkpt lat="45.92997" lon="4.74112">
        <ele>171</ele>
        <time>2017-08-01T12:51:07Z</time>
      </trkpt>
      <trkpt lat="45.92999" lon="4.74101">
        <ele>171</ele>
        <time>2017-08-01T12:51:08Z</time>
      </trkpt>
      <trkpt lat="45.93" lon="4.7409">
        <ele>171</ele>
        <time>2017-08-01T12:51:09Z</time>
      </trkpt>
      <trkpt lat="45.93" lon="4.74078">
        <ele>171</ele>
        <time>2017-08-01T12:51:10Z</time>
      </trkpt>
      <trkpt lat="45.93" lon="4.74067">
        <ele>171</ele>
        <time>2017-08-01T12:51:11Z</time>
      </trkpt>
      <trkpt lat="45.92999" lon="4.74056">
        <ele>171</ele>
        <time>2017-08-01T12:51:12Z</time>
      </trkpt>
      <trkpt lat="45.93" lon="4.74046">
        <ele>171</ele>
        <time>2017-08-01T12:51:13Z</time>
      </trkpt>
      <trkpt lat="45.93001" lon="4.74036">
        <ele>170</ele>
        <time>2017-08-01T12:51:14Z</time>
      </trkpt>
      <trkpt lat="45.93003" lon="4.74027">
        <ele>170</ele>
        <time>2017-08-01T12:51:15Z</time>
      </trkpt>
      <trkpt lat="45.93006" lon="4.74019">
        <ele>170</ele>
        <time>2017-08-01T12:51:16Z</time>
      </trkpt>
      <trkpt lat="45.9301" lon="4.74012">
        <ele>170</ele>
        <time>2017-08-01T12:51:17Z</time>
      </trkpt>
      <trkpt lat="45.93015" lon="4.74007">
        <ele>170</ele>
        <time>2017-08-01T12:51:18Z</time>
      </trkpt>
      <trkpt lat="45.93021" lon="4.74003">
        <ele>170</ele>
        <time>2017-08-01T12:51:19Z</time>
      </trkpt>
      <trkpt lat="45.93027" lon="4.74002">
        <ele>170</ele>
        <time>2017-08-01T12:51:20Z</time>
      </trkpt>
      <trkpt lat="45.93032" lon="4.74002">
        <ele>169</ele>
        <time>2017-08-01T12:51:21Z</time>
      </trkpt>
      <trkpt lat="45.93038" lon="4.74004">
        <ele>169</ele>
        <time>2017-08-01T12:51:22Z</time>
      </trkpt>
      <trkpt lat="45.93043" lon="4.74006">
        <ele>169</ele>
        <time>2017-08-01T12:51:23Z</time>
      </trkpt>
      <trkpt lat="45.93048" lon="4.74008">
        <ele>169</ele>
        <time>2017-08-01T12:51:24Z</time>
      </trkpt>
      <trkpt lat="45.93053" lon="4.7401">
        <ele>169</ele>
        <time>2017-08-01T12:51:25Z</time>
      </trkpt>
      <trkpt lat="45.93059" lon="4.74011">
        <ele>169</ele>
        <time>2017-08-01T12:51:26Z</time>
      </trkpt>
      <trkpt lat="45.93064" lon="4.74013">
        <ele>169</ele>
        <time>2017-08-01T12:51:27Z</time>
      </trkpt>
      <trkpt lat="45.93069" lon="4.74016">
        <ele>169</ele>
        <time>2017-08-01T12:51:28Z</time>
      </trkpt>
      <trkpt lat="45.93074" lon="4.74017">
        <ele>169</ele>
        <time>2017-08-01T12:51:29Z</time>
      </trkpt>
      <trkpt lat="45.93079" lon="4.74018">
        <ele>169</ele>
        <time>2017-08-01T12:51:30Z</time>
      </trkpt>
      <trkpt lat="45.93088" lon="4.74019">
        <ele>168</ele>
        <time>2017-08-01T12:51:32Z</time>
      </trkpt>
      <trkpt lat="45.93093" lon="4.74019">
        <ele>168</ele>
        <time>2017-08-01T12:51:33Z</time>
      </trkpt>
      <trkpt lat="45.93098" lon="4.74021">
        <ele>168</ele>
        <time>2017-08-01T12:51:34Z</time>
      </trkpt>
      <trkpt lat="45.93103" lon="4.74022">
        <ele>168</ele>
        <time>2017-08-01T12:51:35Z</time>
      </trkpt>
      <trkpt lat="45.93109" lon="4.74023">
        <ele>168</ele>
        <time>2017-08-01T12:51:36Z</time>
      </trkpt>
      <trkpt lat="45.93114" lon="4.74025">
        <ele>168</ele>
        <time>2017-08-01T12:51:37Z</time>
      </trkpt>
      <trkpt lat="45.9312" lon="4.74027">
        <ele>168</ele>
        <time>2017-08-01T12:51:38Z</time>
      </trkpt>
      <trkpt lat="45.93125" lon="4.74029">
        <ele>168</ele>
        <time>2017-08-01T12:51:39Z</time>
      </trkpt>
      <trkpt lat="45.9313" lon="4.74032">
        <ele>168</ele>
        <time>2017-08-01T12:51:40Z</time>
      </trkpt>
      <trkpt lat="45.93136" lon="4.74035">
        <ele>168</ele>
        <time>2017-08-01T12:51:41Z</time>
      </trkpt>
      <trkpt lat="45.93141" lon="4.74039">
        <ele>168</ele>
        <time>2017-08-01T12:51:42Z</time>
      </trkpt>
      <trkpt lat="45.93146" lon="4.74042">
        <ele>168</ele>
        <time>2017-08-01T12:51:43Z</time>
      </trkpt>
      <trkpt lat="45.93151" lon="4.74046">
        <ele>168</ele>
        <time>2017-08-01T12:51:44Z</time>
      </trkpt>
      <trkpt lat="45.93155" lon="4.7405">
        <ele>168</ele>
        <time>2017-08-01T12:51:45Z</time>
      </trkpt>
      <trkpt lat="45.9316" lon="4.74054">
        <ele>168</ele>
        <time>2017-08-01T12:51:46Z</time>
      </trkpt>
      <trkpt lat="45.93164" lon="4.74059">
        <ele>168</ele>
        <time>2017-08-01T12:51:47Z</time>
      </trkpt>
      <trkpt lat="45.93169" lon="4.74063">
        <ele>168</ele>
        <time>2017-08-01T12:51:48Z</time>
      </trkpt>
      <trkpt lat="45.93173" lon="4.74068">
        <ele>168</ele>
        <time>2017-08-01T12:51:49Z</time>
      </trkpt>
      <trkpt lat="45.93178" lon="4.74074">
        <ele>168</ele>
        <time>2017-08-01T12:51:50Z</time>
      </trkpt>
      <trkpt lat="45.93183" lon="4.74079">
        <ele>168</ele>
        <time>2017-08-01T12:51:51Z</time>
      </trkpt>
      <trkpt lat="45.93188" lon="4.74084">
        <ele>168</ele>
        <time>2017-08-01T12:51:52Z</time>
      </trkpt>
      <trkpt lat="45.93193" lon="4.74089">
        <ele>167</ele>
        <time>2017-08-01T12:51:53Z</time>
      </trkpt>
      <trkpt lat="45.93198" lon="4.74094">
        <ele>167</ele>
        <time>2017-08-01T12:51:54Z</time>
      </trkpt>
      <trkpt lat="45.93203" lon="4.74098">
        <ele>167</ele>
        <time>2017-08-01T12:51:55Z</time>
      </trkpt>
      <trkpt lat="45.93208" lon="4.74103">
        <ele>167</ele>
        <time>2017-08-01T12:51:56Z</time>
      </trkpt>
      <trkpt lat="45.93213" lon="4.74106">
        <ele>167</ele>
        <time>2017-08-01T12:51:57Z</time>
      </trkpt>
      <trkpt lat="45.93218" lon="4.7411">
        <ele>167</ele>
        <time>2017-08-01T12:51:58Z</time>
      </trkpt>
      <trkpt lat="45.93222" lon="4.74114">
        <ele>167</ele>
        <time>2017-08-01T12:51:59Z</time>
      </trkpt>
      <trkpt lat="45.93227" lon="4.74116">
        <ele>167</ele>
        <time>2017-08-01T12:52:00Z</time>
      </trkpt>
      <trkpt lat="45.93231" lon="4.74116">
        <ele>167</ele>
        <time>2017-08-01T12:52:01Z</time>
      </trkpt>
      <trkpt lat="45.93236" lon="4.74115">
        <ele>167</ele>
        <time>2017-08-01T12:52:02Z</time>
      </trkpt>
      <trkpt lat="45.9324" lon="4.74113">
        <ele>167</ele>
        <time>2017-08-01T12:52:03Z</time>
      </trkpt>
      <trkpt lat="45.93244" lon="4.7411">
        <ele>167</ele>
        <time>2017-08-01T12:52:04Z</time>
      </trkpt>
      <trkpt lat="45.93248" lon="4.74105">
        <ele>167</ele>
        <time>2017-08-01T12:52:05Z</time>
      </trkpt>
      <trkpt lat="45.93251" lon="4.74099">
        <ele>167</ele>
        <time>2017-08-01T12:52:06Z</time>
      </trkpt>
      <trkpt lat="45.93254" lon="4.74093">
        <ele>167</ele>
        <time>2017-08-01T12:52:07Z</time>
      </trkpt>
      <trkpt lat="45.93257" lon="4.74086">
        <ele>167</ele>
        <time>2017-08-01T12:52:08Z</time>
      </trkpt>
      <trkpt lat="45.9326" lon="4.74081">
        <ele>167</ele>
        <time>2017-08-01T12:52:09Z</time>
      </trkpt>
      <trkpt lat="45.93265" lon="4.7407">
        <ele>167</ele>
        <time>2017-08-01T12:52:11Z</time>
      </trkpt>
      <trkpt lat="45.93267" lon="4.74065">
        <ele>168</ele>
        <time>2017-08-01T12:52:12Z</time>
      </trkpt>
      <trkpt lat="45.93273" lon="4.74055">
        <ele>168</ele>
        <time>2017-08-01T12:52:14Z</time>
      </trkpt>
      <trkpt lat="45.93275" lon="4.74049">
        <ele>168</ele>
        <time>2017-08-01T12:52:15Z</time>
      </trkpt>
      <trkpt lat="45.93278" lon="4.74043">
        <ele>168</ele>
        <time>2017-08-01T12:52:16Z</time>
      </trkpt>
      <trkpt lat="45.93281" lon="4.74038">
        <ele>168</ele>
        <time>2017-08-01T12:52:17Z</time>
      </trkpt>
      <trkpt lat="45.93286" lon="4.74028">
        <ele>168</ele>
        <time>2017-08-01T12:52:19Z</time>
      </trkpt>
      <trkpt lat="45.93289" lon="4.74023">
        <ele>168</ele>
        <time>2017-08-01T12:52:20Z</time>
      </trkpt>
      <trkpt lat="45.93294" lon="4.74013">
        <ele>168</ele>
        <time>2017-08-01T12:52:22Z</time>
      </trkpt>
      <trkpt lat="45.93297" lon="4.74007">
        <ele>168</ele>
        <time>2017-08-01T12:52:23Z</time>
      </trkpt>
      <trkpt lat="45.933" lon="4.74001">
        <ele>168</ele>
        <time>2017-08-01T12:52:24Z</time>
      </trkpt>
      <trkpt lat="45.93303" lon="4.73995">
        <ele>168</ele>
        <time>2017-08-01T12:52:25Z</time>
      </trkpt>
      <trkpt lat="45.93306" lon="4.7399">
        <ele>168</ele>
        <time>2017-08-01T12:52:26Z</time>
      </trkpt>
      <trkpt lat="45.93309" lon="4.73984">
        <ele>168</ele>
        <time>2017-08-01T12:52:27Z</time>
      </trkpt>
      <trkpt lat="45.93311" lon="4.73978">
        <ele>168</ele>
        <time>2017-08-01T12:52:28Z</time>
      </trkpt>
      <trkpt lat="45.93315" lon="4.73972">
        <ele>168</ele>
        <time>2017-08-01T12:52:29Z</time>
      </trkpt>
      <trkpt lat="45.93318" lon="4.73966">
        <ele>168</ele>
        <time>2017-08-01T12:52:30Z</time>
      </trkpt>
      <trkpt lat="45.93321" lon="4.7396">
        <ele>168</ele>
        <time>2017-08-01T12:52:31Z</time>
      </trkpt>
      <trkpt lat="45.93324" lon="4.73955">
        <ele>168</ele>
        <time>2017-08-01T12:52:32Z</time>
      </trkpt>
      <trkpt lat="45.93327" lon="4.7395">
        <ele>168</ele>
        <time>2017-08-01T12:52:33Z</time>
      </trkpt>
      <trkpt lat="45.93332" lon="4.7394">
        <ele>168</ele>
        <time>2017-08-01T12:52:35Z</time>
      </trkpt>
      <trkpt lat="45.93335" lon="4.73934">
        <ele>168</ele>
        <time>2017-08-01T12:52:36Z</time>
      </trkpt>
      <trkpt lat="45.93338" lon="4.73929">
        <ele>168</ele>
        <time>2017-08-01T12:52:37Z</time>
      </trkpt>
      <trkpt lat="45.93341" lon="4.73923">
        <ele>168</ele>
        <time>2017-08-01T12:52:38Z</time>
      </trkpt>
      <trkpt lat="45.93344" lon="4.73918">
        <ele>168</ele>
        <time>2017-08-01T12:52:39Z</time>
      </trkpt>
      <trkpt lat="45.93348" lon="4.73912">
        <ele>168</ele>
        <time>2017-08-01T12:52:40Z</time>
      </trkpt>
      <trkpt lat="45.93351" lon="4.73907">
        <ele>168</ele>
        <time>2017-08-01T12:52:41Z</time>
      </trkpt>
      <trkpt lat="45.93354" lon="4.73902">
        <ele>168</ele>
        <time>2017-08-01T12:52:42Z</time>
      </trkpt>
      <trkpt lat="45.9336" lon="4.73894">
        <ele>168</ele>
        <time>2017-08-01T12:52:44Z</time>
      </trkpt>
      <trkpt lat="45.93364" lon="4.7389">
        <ele>168</ele>
        <time>2017-08-01T12:52:45Z</time>
      </trkpt>
      <trkpt lat="45.93368" lon="4.73885">
        <ele>168</ele>
        <time>2017-08-01T12:52:46Z</time>
      </trkpt>
      <trkpt lat="45.93372" lon="4.73881">
        <ele>168</ele>
        <time>2017-08-01T12:52:47Z</time>
      </trkpt>
      <trkpt lat="45.93376" lon="4.73877">
        <ele>168</ele>
        <time>2017-08-01T12:52:48Z</time>
      </trkpt>
      <trkpt lat="45.9338" lon="4.73873">
        <ele>169</ele>
        <time>2017-08-01T12:52:49Z</time>
      </trkpt>
      <trkpt lat="45.93387" lon="4.73868">
        <ele>169</ele>
        <time>2017-08-01T12:52:51Z</time>
      </trkpt>
      <trkpt lat="45.93391" lon="4.73866">
        <ele>169</ele>
        <time>2017-08-01T12:52:52Z</time>
      </trkpt>
      <trkpt lat="45.93399" lon="4.73861">
        <ele>169</ele>
        <time>2017-08-01T12:52:54Z</time>
      </trkpt>
      <trkpt lat="45.93404" lon="4.73858">
        <ele>169</ele>
        <time>2017-08-01T12:52:55Z</time>
      </trkpt>
      <trkpt lat="45.93408" lon="4.73855">
        <ele>169</ele>
        <time>2017-08-01T12:52:56Z</time>
      </trkpt>
      <trkpt lat="45.93412" lon="4.73853">
        <ele>169</ele>
        <time>2017-08-01T12:52:57Z</time>
      </trkpt>
      <trkpt lat="45.93417" lon="4.7385">
        <ele>169</ele>
        <time>2017-08-01T12:52:58Z</time>
      </trkpt>
      <trkpt lat="45.93421" lon="4.73847">
        <ele>169</ele>
        <time>2017-08-01T12:52:59Z</time>
      </trkpt>
      <trkpt lat="45.93426" lon="4.73845">
        <ele>169</ele>
        <time>2017-08-01T12:53:00Z</time>
      </trkpt>
      <trkpt lat="45.9343" lon="4.73843">
        <ele>169</ele>
        <time>2017-08-01T12:53:01Z</time>
      </trkpt>
      <trkpt lat="45.93438" lon="4.73838">
        <ele>169</ele>
        <time>2017-08-01T12:53:03Z</time>
      </trkpt>
      <trkpt lat="45.93442" lon="4.73836">
        <ele>169</ele>
        <time>2017-08-01T12:53:04Z</time>
      </trkpt>
      <trkpt lat="45.93446" lon="4.73834">
        <ele>169</ele>
        <time>2017-08-01T12:53:05Z</time>
      </trkpt>
      <trkpt lat="45.9345" lon="4.73832">
        <ele>169</ele>
        <time>2017-08-01T12:53:06Z</time>
      </trkpt>
      <trkpt lat="45.93455" lon="4.7383">
        <ele>169</ele>
        <time>2017-08-01T12:53:07Z</time>
      </trkpt>
      <trkpt lat="45.9346" lon="4.73828">
        <ele>169</ele>
        <time>2017-08-01T12:53:08Z</time>
      </trkpt>
      <trkpt lat="45.93464" lon="4.73825">
        <ele>169</ele>
        <time>2017-08-01T12:53:09Z</time>
      </trkpt>
      <trkpt lat="45.93469" lon="4.73824">
        <ele>169</ele>
        <time>2017-08-01T12:53:10Z</time>
      </trkpt>
      <trkpt lat="45.93473" lon="4.73822">
        <ele>169</ele>
        <time>2017-08-01T12:53:11Z</time>
      </trkpt>
      <trkpt lat="45.93478" lon="4.73821">
        <ele>169</ele>
        <time>2017-08-01T12:53:12Z</time>
      </trkpt>
      <trkpt lat="45.93483" lon="4.73819">
        <ele>169</ele>
        <time>2017-08-01T12:53:13Z</time>
      </trkpt>
      <trkpt lat="45.93487" lon="4.73817">
        <ele>169</ele>
        <time>2017-08-01T12:53:14Z</time>
      </trkpt>
      <trkpt lat="45.93495" lon="4.73811">
        <ele>169</ele>
        <time>2017-08-01T12:53:16Z</time>
      </trkpt>
      <trkpt lat="45.93499" lon="4.73808">
        <ele>169</ele>
        <time>2017-08-01T12:53:17Z</time>
      </trkpt>
      <trkpt lat="45.93503" lon="4.73805">
        <ele>169</ele>
        <time>2017-08-01T12:53:18Z</time>
      </trkpt>
      <trkpt lat="45.93507" lon="4.73801">
        <ele>169</ele>
        <time>2017-08-01T12:53:19Z</time>
      </trkpt>
      <trkpt lat="45.93511" lon="4.73797">
        <ele>169</ele>
        <time>2017-08-01T12:53:20Z</time>
      </trkpt>
      <trkpt lat="45.93515" lon="4.73794">
        <ele>169</ele>
        <time>2017-08-01T12:53:21Z</time>
      </trkpt>
      <trkpt lat="45.93518" lon="4.73789">
        <ele>169</ele>
        <time>2017-08-01T12:53:22Z</time>
      </trkpt>
      <trkpt lat="45.93522" lon="4.73785">
        <ele>169</ele>
        <time>2017-08-01T12:53:23Z</time>
      </trkpt>
      <trkpt lat="45.93529" lon="4.73778">
        <ele>169</ele>
        <time>2017-08-01T12:53:25Z</time>
      </trkpt>
      <trkpt lat="45.93532" lon="4.73774">
        <ele>169</ele>
        <time>2017-08-01T12:53:26Z</time>
      </trkpt>
      <trkpt lat="45.93536" lon="4.7377">
        <ele>169</ele>
        <time>2017-08-01T12:53:27Z</time>
      </trkpt>
      <trkpt lat="45.9354" lon="4.73766">
        <ele>169</ele>
        <time>2017-08-01T12:53:28Z</time>
      </trkpt>
      <trkpt lat="45.93544" lon="4.73762">
        <ele>169</ele>
        <time>2017-08-01T12:53:29Z</time>
      </trkpt>
      <trkpt lat="45.93548" lon="4.73757">
        <ele>169</ele>
        <time>2017-08-01T12:53:30Z</time>
      </trkpt>
      <trkpt lat="45.93552" lon="4.73753">
        <ele>169</ele>
        <time>2017-08-01T12:53:31Z</time>
      </trkpt>
      <trkpt lat="45.93557" lon="4.73749">
        <ele>169</ele>
        <time>2017-08-01T12:53:32Z</time>
      </trkpt>
      <trkpt lat="45.93561" lon="4.73744">
        <ele>169</ele>
        <time>2017-08-01T12:53:33Z</time>
      </trkpt>
      <trkpt lat="45.93564" lon="4.7374">
        <ele>169</ele>
        <time>2017-08-01T12:53:34Z</time>
      </trkpt>
      <trkpt lat="45.93571" lon="4.73732">
        <ele>169</ele>
        <time>2017-08-01T12:53:36Z</time>
      </trkpt>
      <trkpt lat="45.93575" lon="4.73729">
        <ele>169</ele>
        <time>2017-08-01T12:53:37Z</time>
      </trkpt>
      <trkpt lat="45.93578" lon="4.73725">
        <ele>169</ele>
        <time>2017-08-01T12:53:38Z</time>
      </trkpt>
      <trkpt lat="45.93582" lon="4.7372">
        <ele>169</ele>
        <time>2017-08-01T12:53:39Z</time>
      </trkpt>
      <trkpt lat="45.93585" lon="4.73715">
        <ele>169</ele>
        <time>2017-08-01T12:53:40Z</time>
      </trkpt>
      <trkpt lat="45.93587" lon="4.73708">
        <ele>169</ele>
        <time>2017-08-01T12:53:41Z</time>
      </trkpt>
      <trkpt lat="45.93589" lon="4.73702">
        <ele>169</ele>
        <time>2017-08-01T12:53:42Z</time>
      </trkpt>
      <trkpt lat="45.93589" lon="4.73695">
        <ele>169</ele>
        <time>2017-08-01T12:53:43Z</time>
      </trkpt>
      <trkpt lat="45.93589" lon="4.73688">
        <ele>169</ele>
        <time>2017-08-01T12:53:44Z</time>
      </trkpt>
      <trkpt lat="45.93589" lon="4.73681">
        <ele>169</ele>
        <time>2017-08-01T12:53:45Z</time>
      </trkpt>
      <trkpt lat="45.93588" lon="4.73668">
        <ele>168</ele>
        <time>2017-08-01T12:53:47Z</time>
      </trkpt>
      <trkpt lat="45.93587" lon="4.73662">
        <ele>168</ele>
        <time>2017-08-01T12:53:48Z</time>
      </trkpt>
      <trkpt lat="45.93587" lon="4.73654">
        <ele>168</ele>
        <time>2017-08-01T12:53:49Z</time>
      </trkpt>
      <trkpt lat="45.93586" lon="4.73647">
        <ele>168</ele>
        <time>2017-08-01T12:53:50Z</time>
      </trkpt>
      <trkpt lat="45.93585" lon="4.7364">
        <ele>168</ele>
        <time>2017-08-01T12:53:51Z</time>
      </trkpt>
      <trkpt lat="45.93584" lon="4.73633">
        <ele>168</ele>
        <time>2017-08-01T12:53:52Z</time>
      </trkpt>
      <trkpt lat="45.93584" lon="4.73626">
        <ele>168</ele>
        <time>2017-08-01T12:53:53Z</time>
      </trkpt>
      <trkpt lat="45.93584" lon="4.73618">
        <ele>168</ele>
        <time>2017-08-01T12:53:54Z</time>
      </trkpt>
      <trkpt lat="45.93583" lon="4.7361">
        <ele>168</ele>
        <time>2017-08-01T12:53:55Z</time>
      </trkpt>
      <trkpt lat="45.93583" lon="4.73602">
        <ele>168</ele>
        <time>2017-08-01T12:53:56Z</time>
      </trkpt>
      <trkpt lat="45.93582" lon="4.73594">
        <ele>168</ele>
        <time>2017-08-01T12:53:57Z</time>
      </trkpt>
      <trkpt lat="45.93581" lon="4.73586">
        <ele>168</ele>
        <time>2017-08-01T12:53:58Z</time>
      </trkpt>
      <trkpt lat="45.9358" lon="4.73579">
        <ele>168</ele>
        <time>2017-08-01T12:53:59Z</time>
      </trkpt>
      <trkpt lat="45.93579" lon="4.73572">
        <ele>168</ele>
        <time>2017-08-01T12:54:00Z</time>
      </trkpt>
      <trkpt lat="45.93578" lon="4.73565">
        <ele>168</ele>
        <time>2017-08-01T12:54:01Z</time>
      </trkpt>
      <trkpt lat="45.93577" lon="4.73559">
        <ele>168</ele>
        <time>2017-08-01T12:54:02Z</time>
      </trkpt>
      <trkpt lat="45.93575" lon="4.73546">
        <ele>168</ele>
        <time>2017-08-01T12:54:04Z</time>
      </trkpt>
      <trkpt lat="45.93574" lon="4.7354">
        <ele>169</ele>
        <time>2017-08-01T12:54:05Z</time>
      </trkpt>
      <trkpt lat="45.93572" lon="4.73533">
        <ele>169</ele>
        <time>2017-08-01T12:54:06Z</time>
      </trkpt>
      <trkpt lat="45.93571" lon="4.73526">
        <ele>168</ele>
        <time>2017-08-01T12:54:07Z</time>
      </trkpt>
      <trkpt lat="45.93569" lon="4.73519">
        <ele>168</ele>
        <time>2017-08-01T12:54:08Z</time>
      </trkpt>
      <trkpt lat="45.93567" lon="4.73512">
        <ele>168</ele>
        <time>2017-08-01T12:54:09Z</time>
      </trkpt>
      <trkpt lat="45.93565" lon="4.73504">
        <ele>168</ele>
        <time>2017-08-01T12:54:10Z</time>
      </trkpt>
      <trkpt lat="45.93563" lon="4.73497">
        <ele>169</ele>
        <time>2017-08-01T12:54:11Z</time>
      </trkpt>
      <trkpt lat="45.93561" lon="4.73491">
        <ele>169</ele>
        <time>2017-08-01T12:54:12Z</time>
      </trkpt>
      <trkpt lat="45.93559" lon="4.73485">
        <ele>169</ele>
        <time>2017-08-01T12:54:13Z</time>
      </trkpt>
      <trkpt lat="45.93557" lon="4.73478">
        <ele>169</ele>
        <time>2017-08-01T12:54:14Z</time>
      </trkpt>
      <trkpt lat="45.93555" lon="4.73471">
        <ele>169</ele>
        <time>2017-08-01T12:54:15Z</time>
      </trkpt>
      <trkpt lat="45.93553" lon="4.73464">
        <ele>169</ele>
        <time>2017-08-01T12:54:16Z</time>
      </trkpt>
      <trkpt lat="45.93551" lon="4.73457">
        <ele>169</ele>
        <time>2017-08-01T12:54:17Z</time>
      </trkpt>
      <trkpt lat="45.93549" lon="4.7345">
        <ele>169</ele>
        <time>2017-08-01T12:54:18Z</time>
      </trkpt>
      <trkpt lat="45.93548" lon="4.73442">
        <ele>169</ele>
        <time>2017-08-01T12:54:19Z</time>
      </trkpt>
      <trkpt lat="45.93546" lon="4.73435">
        <ele>169</ele>
        <time>2017-08-01T12:54:20Z</time>
      </trkpt>
      <trkpt lat="45.93545" lon="4.73428">
        <ele>169</ele>
        <time>2017-08-01T12:54:21Z</time>
      </trkpt>
      <trkpt lat="45.93543" lon="4.73422">
        <ele>169</ele>
        <time>2017-08-01T12:54:22Z</time>
      </trkpt>
      <trkpt lat="45.93542" lon="4.73415">
        <ele>169</ele>
        <time>2017-08-01T12:54:23Z</time>
      </trkpt>
      <trkpt lat="45.93541" lon="4.73403">
        <ele>169</ele>
        <time>2017-08-01T12:54:25Z</time>
      </trkpt>
      <trkpt lat="45.9354" lon="4.73396">
        <ele>169</ele>
        <time>2017-08-01T12:54:26Z</time>
      </trkpt>
      <trkpt lat="45.93538" lon="4.7339">
        <ele>169</ele>
        <time>2017-08-01T12:54:27Z</time>
      </trkpt>
      <trkpt lat="45.93536" lon="4.73382">
        <ele>169</ele>
        <time>2017-08-01T12:54:28Z</time>
      </trkpt>
      <trkpt lat="45.93535" lon="4.73375">
        <ele>169</ele>
        <time>2017-08-01T12:54:29Z</time>
      </trkpt>
      <trkpt lat="45.93534" lon="4.73368">
        <ele>169</ele>
        <time>2017-08-01T12:54:30Z</time>
      </trkpt>
      <trkpt lat="45.93533" lon="4.73362">
        <ele>169</ele>
        <time>2017-08-01T12:54:31Z</time>
      </trkpt>
      <trkpt lat="45.93532" lon="4.73355">
        <ele>169</ele>
        <time>2017-08-01T12:54:32Z</time>
      </trkpt>
      <trkpt lat="45.93529" lon="4.73343">
        <ele>169</ele>
        <time>2017-08-01T12:54:34Z</time>
      </trkpt>
      <trkpt lat="45.93528" lon="4.73337">
        <ele>169</ele>
        <time>2017-08-01T12:54:35Z</time>
      </trkpt>
      <trkpt lat="45.93525" lon="4.73326">
        <ele>169</ele>
        <time>2017-08-01T12:54:37Z</time>
      </trkpt>
      <trkpt lat="45.93524" lon="4.73319">
        <ele>169</ele>
        <time>2017-08-01T12:54:38Z</time>
      </trkpt>
      <trkpt lat="45.93523" lon="4.73313">
        <ele>169</ele>
        <time>2017-08-01T12:54:39Z</time>
      </trkpt>
      <trkpt lat="45.93522" lon="4.73305">
        <ele>169</ele>
        <time>2017-08-01T12:54:40Z</time>
      </trkpt>
      <trkpt lat="45.93521" lon="4.73298">
        <ele>169</ele>
        <time>2017-08-01T12:54:41Z</time>
      </trkpt>
      <trkpt lat="45.9352" lon="4.7329">
        <ele>169</ele>
        <time>2017-08-01T12:54:42Z</time>
      </trkpt>
      <trkpt lat="45.93519" lon="4.73283">
        <ele>169</ele>
        <time>2017-08-01T12:54:43Z</time>
      </trkpt>
      <trkpt lat="45.93517" lon="4.73277">
        <ele>169</ele>
        <time>2017-08-01T12:54:44Z</time>
      </trkpt>
      <trkpt lat="45.93515" lon="4.73265">
        <ele>169</ele>
        <time>2017-08-01T12:54:46Z</time>
      </trkpt>
      <trkpt lat="45.93514" lon="4.73259">
        <ele>169</ele>
        <time>2017-08-01T12:54:47Z</time>
      </trkpt>
      <trkpt lat="45.93512" lon="4.73252">
        <ele>169</ele>
        <time>2017-08-01T12:54:48Z</time>
      </trkpt>
      <trkpt lat="45.93511" lon="4.73245">
        <ele>169</ele>
        <time>2017-08-01T12:54:49Z</time>
      </trkpt>
      <trkpt lat="45.9351" lon="4.73238">
        <ele>169</ele>
        <time>2017-08-01T12:54:50Z</time>
      </trkpt>
      <trkpt lat="45.93508" lon="4.73231">
        <ele>169</ele>
        <time>2017-08-01T12:54:51Z</time>
      </trkpt>
      <trkpt lat="45.93507" lon="4.73223">
        <ele>169</ele>
        <time>2017-08-01T12:54:52Z</time>
      </trkpt>
      <trkpt lat="45.93506" lon="4.73216">
        <ele>169</ele>
        <time>2017-08-01T12:54:53Z</time>
      </trkpt>
      <trkpt lat="45.93504" lon="4.73209">
        <ele>169</ele>
        <time>2017-08-01T12:54:54Z</time>
      </trkpt>
      <trkpt lat="45.93503" lon="4.73202">
        <ele>169</ele>
        <time>2017-08-01T12:54:55Z</time>
      </trkpt>
      <trkpt lat="45.935" lon="4.73191">
        <ele>169</ele>
        <time>2017-08-01T12:54:57Z</time>
      </trkpt>
      <trkpt lat="45.93499" lon="4.73185">
        <ele>169</ele>
        <time>2017-08-01T12:54:58Z</time>
      </trkpt>
      <trkpt lat="45.93495" lon="4.73174">
        <ele>170</ele>
        <time>2017-08-01T12:55:00Z</time>
      </trkpt>
      <trkpt lat="45.93493" lon="4.73168">
        <ele>170</ele>
        <time>2017-08-01T12:55:01Z</time>
      </trkpt>
      <trkpt lat="45.93491" lon="4.73161">
        <ele>170</ele>
        <time>2017-08-01T12:55:02Z</time>
      </trkpt>
      <trkpt lat="45.93489" lon="4.73155">
        <ele>170</ele>
        <time>2017-08-01T12:55:03Z</time>
      </trkpt>
      <trkpt lat="45.93487" lon="4.73147">
        <ele>170</ele>
        <time>2017-08-01T12:55:04Z</time>
      </trkpt>
      <trkpt lat="45.93487" lon="4.7314">
        <ele>170</ele>
        <time>2017-08-01T12:55:05Z</time>
      </trkpt>
      <trkpt lat="45.93486" lon="4.73132">
        <ele>170</ele>
        <time>2017-08-01T12:55:06Z</time>
      </trkpt>
      <trkpt lat="45.93486" lon="4.73125">
        <ele>170</ele>
        <time>2017-08-01T12:55:07Z</time>
      </trkpt>
      <trkpt lat="45.93486" lon="4.73118">
        <ele>170</ele>
        <time>2017-08-01T12:55:08Z</time>
      </trkpt>
      <trkpt lat="45.93485" lon="4.73111">
        <ele>170</ele>
        <time>2017-08-01T12:55:09Z</time>
      </trkpt>
      <trkpt lat="45.93484" lon="4.73105">
        <ele>170</ele>
        <time>2017-08-01T12:55:10Z</time>
      </trkpt>
      <trkpt lat="45.93484" lon="4.73098">
        <ele>170</ele>
        <time>2017-08-01T12:55:11Z</time>
      </trkpt>
      <trkpt lat="45.93484" lon="4.73091">
        <ele>170</ele>
        <time>2017-08-01T12:55:12Z</time>
      </trkpt>
      <trkpt lat="45.93484" lon="4.73083">
        <ele>170</ele>
        <time>2017-08-01T12:55:13Z</time>
      </trkpt>
      <trkpt lat="45.93484" lon="4.73075">
        <ele>170</ele>
        <time>2017-08-01T12:55:14Z</time>
      </trkpt>
      <trkpt lat="45.93485" lon="4.73068">
        <ele>170</ele>
        <time>2017-08-01T12:55:15Z</time>
      </trkpt>
      <trkpt lat="45.93485" lon="4.7306">
        <ele>170</ele>
        <time>2017-08-01T12:55:16Z</time>
      </trkpt>
      <trkpt lat="45.93485" lon="4.73051">
        <ele>170</ele>
        <time>2017-08-01T12:55:17Z</time>
      </trkpt>
      <trkpt lat="45.93485" lon="4.73044">
        <ele>170</ele>
        <time>2017-08-01T12:55:18Z</time>
      </trkpt>
      <trkpt lat="45.93486" lon="4.73037">
        <ele>170</ele>
        <time>2017-08-01T12:55:19Z</time>
      </trkpt>
      <trkpt lat="45.93486" lon="4.7303">
        <ele>170</ele>
        <time>2017-08-01T12:55:20Z</time>
      </trkpt>
      <trkpt lat="45.93487" lon="4.73023">
        <ele>170</ele>
        <time>2017-08-01T12:55:21Z</time>
      </trkpt>
      <trkpt lat="45.93487" lon="4.73016">
        <ele>170</ele>
        <time>2017-08-01T12:55:22Z</time>
      </trkpt>
      <trkpt lat="45.93487" lon="4.73009">
        <ele>170</ele>
        <time>2017-08-01T12:55:23Z</time>
      </trkpt>
      <trkpt lat="45.93488" lon="4.73001">
        <ele>170</ele>
        <time>2017-08-01T12:55:24Z</time>
      </trkpt>
      <trkpt lat="45.93488" lon="4.72993">
        <ele>170</ele>
        <time>2017-08-01T12:55:25Z</time>
      </trkpt>
      <trkpt lat="45.9349" lon="4.72985">
        <ele>170</ele>
        <time>2017-08-01T12:55:26Z</time>
      </trkpt>
      <trkpt lat="45.93491" lon="4.72978">
        <ele>171</ele>
        <time>2017-08-01T12:55:27Z</time>
      </trkpt>
      <trkpt lat="45.93492" lon="4.7297">
        <ele>171</ele>
        <time>2017-08-01T12:55:28Z</time>
      </trkpt>
      <trkpt lat="45.93494" lon="4.72964">
        <ele>171</ele>
        <time>2017-08-01T12:55:29Z</time>
      </trkpt>
      <trkpt lat="45.93497" lon="4.72953">
        <ele>171</ele>
        <time>2017-08-01T12:55:31Z</time>
      </trkpt>
      <trkpt lat="45.93498" lon="4.72947">
        <ele>171</ele>
        <time>2017-08-01T12:55:32Z</time>
      </trkpt>
      <trkpt lat="45.93501" lon="4.72935">
        <ele>171</ele>
        <time>2017-08-01T12:55:34Z</time>
      </trkpt>
      <trkpt lat="45.93503" lon="4.72929">
        <ele>171</ele>
        <time>2017-08-01T12:55:35Z</time>
      </trkpt>
      <trkpt lat="45.93505" lon="4.72923">
        <ele>171</ele>
        <time>2017-08-01T12:55:36Z</time>
      </trkpt>
      <trkpt lat="45.93508" lon="4.72919">
        <ele>171</ele>
        <time>2017-08-01T12:55:37Z</time>
      </trkpt>
      <trkpt lat="45.93512" lon="4.72915">
        <ele>172</ele>
        <time>2017-08-01T12:55:38Z</time>
      </trkpt>
      <trkpt lat="45.93516" lon="4.72911">
        <ele>172</ele>
        <time>2017-08-01T12:55:39Z</time>
      </trkpt>
      <trkpt lat="45.9352" lon="4.72906">
        <ele>172</ele>
        <time>2017-08-01T12:55:40Z</time>
      </trkpt>
      <trkpt lat="45.93524" lon="4.72901">
        <ele>172</ele>
        <time>2017-08-01T12:55:41Z</time>
      </trkpt>
      <trkpt lat="45.93528" lon="4.72896">
        <ele>172</ele>
        <time>2017-08-01T12:55:42Z</time>
      </trkpt>
      <trkpt lat="45.93532" lon="4.72892">
        <ele>172</ele>
        <time>2017-08-01T12:55:43Z</time>
      </trkpt>
      <trkpt lat="45.93536" lon="4.72888">
        <ele>172</ele>
        <time>2017-08-01T12:55:44Z</time>
      </trkpt>
      <trkpt lat="45.9354" lon="4.72883">
        <ele>172</ele>
        <time>2017-08-01T12:55:45Z</time>
      </trkpt>
      <trkpt lat="45.93547" lon="4.72876">
        <ele>172</ele>
        <time>2017-08-01T12:55:47Z</time>
      </trkpt>
      <trkpt lat="45.9355" lon="4.72872">
        <ele>172</ele>
        <time>2017-08-01T12:55:48Z</time>
      </trkpt>
      <trkpt lat="45.93556" lon="4.72867">
        <ele>172</ele>
        <time>2017-08-01T12:55:50Z</time>
      </trkpt>
      <trkpt lat="45.93559" lon="4.72863">
        <ele>172</ele>
        <time>2017-08-01T12:55:51Z</time>
      </trkpt>
      <trkpt lat="45.93566" lon="4.72856">
        <ele>172</ele>
        <time>2017-08-01T12:55:53Z</time>
      </trkpt>
      <trkpt lat="45.93569" lon="4.72853">
        <ele>172</ele>
        <time>2017-08-01T12:55:54Z</time>
      </trkpt>
      <trkpt lat="45.93575" lon="4.72847">
        <ele>172</ele>
        <time>2017-08-01T12:55:56Z</time>
      </trkpt>
      <trkpt lat="45.93579" lon="4.72844">
        <ele>172</ele>
        <time>2017-08-01T12:55:57Z</time>
      </trkpt>
      <trkpt lat="45.93587" lon="4.72837">
        <ele>172</ele>
        <time>2017-08-01T12:55:59Z</time>
      </trkpt>
      <trkpt lat="45.9359" lon="4.72835">
        <ele>172</ele>
        <time>2017-08-01T12:56:00Z</time>
      </trkpt>
      <trkpt lat="45.93597" lon="4.72829">
        <ele>173</ele>
        <time>2017-08-01T12:56:02Z</time>
      </trkpt>
      <trkpt lat="45.936" lon="4.72827">
        <ele>173</ele>
        <time>2017-08-01T12:56:03Z</time>
      </trkpt>
      <trkpt lat="45.93608" lon="4.72821">
        <ele>173</ele>
        <time>2017-08-01T12:56:05Z</time>
      </trkpt>
      <trkpt lat="45.93612" lon="4.72818">
        <ele>173</ele>
        <time>2017-08-01T12:56:06Z</time>
      </trkpt>
      <trkpt lat="45.93619" lon="4.72812">
        <ele>173</ele>
        <time>2017-08-01T12:56:08Z</time>
      </trkpt>
      <trkpt lat="45.93622" lon="4.7281">
        <ele>173</ele>
        <time>2017-08-01T12:56:09Z</time>
      </trkpt>
      <trkpt lat="45.93629" lon="4.72805">
        <ele>173</ele>
        <time>2017-08-01T12:56:11Z</time>
      </trkpt>
      <trkpt lat="45.93632" lon="4.72802">
        <ele>173</ele>
        <time>2017-08-01T12:56:12Z</time>
      </trkpt>
      <trkpt lat="45.93637" lon="4.72799">
        <ele>173</ele>
        <time>2017-08-01T12:56:13Z</time>
      </trkpt>
      <trkpt lat="45.93641" lon="4.72796">
        <ele>173</ele>
        <time>2017-08-01T12:56:14Z</time>
      </trkpt>
      <trkpt lat="45.93648" lon="4.7279">
        <ele>173</ele>
        <time>2017-08-01T12:56:16Z</time>
      </trkpt>
      <trkpt lat="45.93651" lon="4.72788">
        <ele>173</ele>
        <time>2017-08-01T12:56:17Z</time>
      </trkpt>
      <trkpt lat="45.93657" lon="4.72784">
        <ele>173</ele>
        <time>2017-08-01T12:56:19Z</time>
      </trkpt>
      <trkpt lat="45.93661" lon="4.72782">
        <ele>173</ele>
        <time>2017-08-01T12:56:20Z</time>
      </trkpt>
      <trkpt lat="45.93668" lon="4.72776">
        <ele>172</ele>
        <time>2017-08-01T12:56:22Z</time>
      </trkpt>
      <trkpt lat="45.93672" lon="4.72771">
        <ele>173</ele>
        <time>2017-08-01T12:56:23Z</time>
      </trkpt>
      <trkpt lat="45.93677" lon="4.72767">
        <ele>173</ele>
        <time>2017-08-01T12:56:24Z</time>
      </trkpt>
      <trkpt lat="45.9368" lon="4.72765">
        <ele>173</ele>
        <time>2017-08-01T12:56:25Z</time>
      </trkpt>
      <trkpt lat="45.93684" lon="4.72761">
        <ele>173</ele>
        <time>2017-08-01T12:56:26Z</time>
      </trkpt>
      <trkpt lat="45.93689" lon="4.72757">
        <ele>172</ele>
        <time>2017-08-01T12:56:27Z</time>
      </trkpt>
      <trkpt lat="45.93693" lon="4.72753">
        <ele>172</ele>
        <time>2017-08-01T12:56:28Z</time>
      </trkpt>
      <trkpt lat="45.93697" lon="4.72749">
        <ele>173</ele>
        <time>2017-08-01T12:56:29Z</time>
      </trkpt>
      <trkpt lat="45.93701" lon="4.72745">
        <ele>173</ele>
        <time>2017-08-01T12:56:30Z</time>
      </trkpt>
      <trkpt lat="45.93705" lon="4.72741">
        <ele>173</ele>
        <time>2017-08-01T12:56:31Z</time>
      </trkpt>
      <trkpt lat="45.93709" lon="4.72737">
        <ele>173</ele>
        <time>2017-08-01T12:56:32Z</time>
      </trkpt>
      <trkpt lat="45.93713" lon="4.72734">
        <ele>173</ele>
        <time>2017-08-01T12:56:33Z</time>
      </trkpt>
      <trkpt lat="45.93721" lon="4.72727">
        <ele>173</ele>
        <time>2017-08-01T12:56:35Z</time>
      </trkpt>
      <trkpt lat="45.93724" lon="4.72724">
        <ele>173</ele>
        <time>2017-08-01T12:56:36Z</time>
      </trkpt>
      <trkpt lat="45.93731" lon="4.72717">
        <ele>173</ele>
        <time>2017-08-01T12:56:38Z</time>
      </trkpt>
      <trkpt lat="45.93735" lon="4.72713">
        <ele>173</ele>
        <time>2017-08-01T12:56:39Z</time>
      </trkpt>
      <trkpt lat="45.93739" lon="4.7271">
        <ele>173</ele>
        <time>2017-08-01T12:56:40Z</time>
      </trkpt>
      <trkpt lat="45.93742" lon="4.72706">
        <ele>173</ele>
        <time>2017-08-01T12:56:41Z</time>
      </trkpt>
      <trkpt lat="45.93749" lon="4.72699">
        <ele>173</ele>
        <time>2017-08-01T12:56:43Z</time>
      </trkpt>
      <trkpt lat="45.93753" lon="4.72696">
        <ele>172</ele>
        <time>2017-08-01T12:56:44Z</time>
      </trkpt>
      <trkpt lat="45.9376" lon="4.72688">
        <ele>172</ele>
        <time>2017-08-01T12:56:46Z</time>
      </trkpt>
      <trkpt lat="45.93763" lon="4.72684">
        <ele>173</ele>
        <time>2017-08-01T12:56:47Z</time>
      </trkpt>
      <trkpt lat="45.9377" lon="4.72676">
        <ele>173</ele>
        <time>2017-08-01T12:56:49Z</time>
      </trkpt>
      <trkpt lat="45.93773" lon="4.72672">
        <ele>172</ele>
        <time>2017-08-01T12:56:50Z</time>
      </trkpt>
      <trkpt lat="45.93776" lon="4.72667">
        <ele>172</ele>
        <time>2017-08-01T12:56:51Z</time>
      </trkpt>
      <trkpt lat="45.9378" lon="4.72663">
        <ele>173</ele>
        <time>2017-08-01T12:56:52Z</time>
      </trkpt>
      <trkpt lat="45.93783" lon="4.72658">
        <ele>173</ele>
        <time>2017-08-01T12:56:53Z</time>
      </trkpt>
      <trkpt lat="45.93786" lon="4.72654">
        <ele>173</ele>
        <time>2017-08-01T12:56:54Z</time>
      </trkpt>
      <trkpt lat="45.93793" lon="4.72647">
        <ele>173</ele>
        <time>2017-08-01T12:56:56Z</time>
      </trkpt>
      <trkpt lat="45.93796" lon="4.72642">
        <ele>173</ele>
        <time>2017-08-01T12:56:57Z</time>
      </trkpt>
      <trkpt lat="45.93802" lon="4.72634">
        <ele>173</ele>
        <time>2017-08-01T12:56:59Z</time>
      </trkpt>
      <trkpt lat="45.93804" lon="4.72631">
        <ele>173</ele>
        <time>2017-08-01T12:57:00Z</time>
      </trkpt>
      <trkpt lat="45.93809" lon="4.72623">
        <ele>173</ele>
        <time>2017-08-01T12:57:02Z</time>
      </trkpt>
      <trkpt lat="45.93812" lon="4.72618">
        <ele>173</ele>
        <time>2017-08-01T12:57:03Z</time>
      </trkpt>
      <trkpt lat="45.93816" lon="4.72609">
        <ele>173</ele>
        <time>2017-08-01T12:57:05Z</time>
      </trkpt>
      <trkpt lat="45.93816" lon="4.72604">
        <ele>173</ele>
        <time>2017-08-01T12:57:06Z</time>
      </trkpt>
      <trkpt lat="45.93814" lon="4.72594">
        <ele>174</ele>
        <time>2017-08-01T12:57:08Z</time>
      </trkpt>
      <trkpt lat="45.93811" lon="4.72591">
        <ele>174</ele>
        <time>2017-08-01T12:57:09Z</time>
      </trkpt>
      <trkpt lat="45.93805" lon="4.72585">
        <ele>174</ele>
        <time>2017-08-01T12:57:12Z</time>
      </trkpt>
      <trkpt lat="45.93802" lon="4.72582">
        <ele>174</ele>
        <time>2017-08-01T12:57:13Z</time>
      </trkpt>
      <trkpt lat="45.93794" lon="4.72579">
        <ele>174</ele>
        <time>2017-08-01T12:57:16Z</time>
      </trkpt>
      <trkpt lat="45.93791" lon="4.72579">
        <ele>174</ele>
        <time>2017-08-01T12:57:17Z</time>
      </trkpt>
      <trkpt lat="45.93786" lon="4.7257">
        <ele>174</ele>
        <time>2017-08-01T12:57:21Z</time>
      </trkpt>
      <trkpt lat="45.93783" lon="4.72553">
        <ele>173</ele>
        <time>2017-08-01T12:57:22Z</time>
      </trkpt>
      <trkpt lat="45.93775" lon="4.72545">
        <ele>173</ele>
        <time>2017-08-01T12:57:23Z</time>
      </trkpt>
      <trkpt lat="45.93769" lon="4.72541">
        <ele>173</ele>
        <time>2017-08-01T12:57:24Z</time>
      </trkpt>
      <trkpt lat="45.93763" lon="4.72538">
        <ele>173</ele>
        <time>2017-08-01T12:57:25Z</time>
      </trkpt>
      <trkpt lat="45.93758" lon="4.72534">
        <ele>173</ele>
        <time>2017-08-01T12:57:26Z</time>
      </trkpt>
      <trkpt lat="45.93753" lon="4.72531">
        <ele>173</ele>
        <time>2017-08-01T12:57:27Z</time>
      </trkpt>
      <trkpt lat="45.93748" lon="4.72528">
        <ele>172</ele>
        <time>2017-08-01T12:57:28Z</time>
      </trkpt>
      <trkpt lat="45.93744" lon="4.72525">
        <ele>172</ele>
        <time>2017-08-01T12:57:29Z</time>
      </trkpt>
      <trkpt lat="45.93736" lon="4.72521">
        <ele>172</ele>
        <time>2017-08-01T12:57:31Z</time>
      </trkpt>
      <trkpt lat="45.93733" lon="4.72516">
        <ele>171</ele>
        <time>2017-08-01T12:57:32Z</time>
      </trkpt>
      <trkpt lat="45.9373" lon="4.72512">
        <ele>171</ele>
        <time>2017-08-01T12:57:33Z</time>
      </trkpt>
      <trkpt lat="45.93726" lon="4.72508">
        <ele>171</ele>
        <time>2017-08-01T12:57:34Z</time>
      </trkpt>
      <trkpt lat="45.93721" lon="4.72504">
        <ele>171</ele>
        <time>2017-08-01T12:57:35Z</time>
      </trkpt>
      <trkpt lat="45.93718" lon="4.725">
        <ele>171</ele>
        <time>2017-08-01T12:57:36Z</time>
      </trkpt>
      <trkpt lat="45.9371" lon="4.72493">
        <ele>171</ele>
        <time>2017-08-01T12:57:38Z</time>
      </trkpt>
      <trkpt lat="45.93707" lon="4.72489">
        <ele>171</ele>
        <time>2017-08-01T12:57:39Z</time>
      </trkpt>
      <trkpt lat="45.937" lon="4.72483">
        <ele>171</ele>
        <time>2017-08-01T12:57:41Z</time>
      </trkpt>
      <trkpt lat="45.93697" lon="4.7248">
        <ele>171</ele>
        <time>2017-08-01T12:57:42Z</time>
      </trkpt>
      <trkpt lat="45.93693" lon="4.72476">
        <ele>171</ele>
        <time>2017-08-01T12:57:43Z</time>
      </trkpt>
      <trkpt lat="45.93689" lon="4.72472">
        <ele>171</ele>
        <time>2017-08-01T12:57:44Z</time>
      </trkpt>
      <trkpt lat="45.93685" lon="4.72468">
        <ele>171</ele>
        <time>2017-08-01T12:57:45Z</time>
      </trkpt>
      <trkpt lat="45.93682" lon="4.72464">
        <ele>171</ele>
        <time>2017-08-01T12:57:46Z</time>
      </trkpt>
      <trkpt lat="45.93678" lon="4.7246">
        <ele>171</ele>
        <time>2017-08-01T12:57:47Z</time>
      </trkpt>
      <trkpt lat="45.93674" lon="4.72456">
        <ele>171</ele>
        <time>2017-08-01T12:57:48Z</time>
      </trkpt>
      <trkpt lat="45.93666" lon="4.72455">
        <ele>172</ele>
        <time>2017-08-01T12:57:50Z</time>
      </trkpt>
      <trkpt lat="45.93663" lon="4.72458">
        <ele>172</ele>
        <time>2017-08-01T12:57:51Z</time>
      </trkpt>
      <trkpt lat="45.93658" lon="4.72468">
        <ele>172</ele>
        <time>2017-08-01T12:57:53Z</time>
      </trkpt>
      <trkpt lat="45.93655" lon="4.72473">
        <ele>172</ele>
        <time>2017-08-01T12:57:54Z</time>
      </trkpt>
      <trkpt lat="45.93652" lon="4.72479">
        <ele>172</ele>
        <time>2017-08-01T12:57:55Z</time>
      </trkpt>
      <trkpt lat="45.9365" lon="4.72484">
        <ele>171</ele>
        <time>2017-08-01T12:57:56Z</time>
      </trkpt>
      <trkpt lat="45.93644" lon="4.72493">
        <ele>171</ele>
        <time>2017-08-01T12:57:58Z</time>
      </trkpt>
      <trkpt lat="45.9364" lon="4.72498">
        <ele>172</ele>
        <time>2017-08-01T12:57:59Z</time>
      </trkpt>
      <trkpt lat="45.93634" lon="4.72507">
        <ele>172</ele>
        <time>2017-08-01T12:58:01Z</time>
      </trkpt>
      <trkpt lat="45.93632" lon="4.72512">
        <ele>172</ele>
        <time>2017-08-01T12:58:02Z</time>
      </trkpt>
      <trkpt lat="45.93627" lon="4.72521">
        <ele>172</ele>
        <time>2017-08-01T12:58:04Z</time>
      </trkpt>
      <trkpt lat="45.93625" lon="4.72528">
        <ele>172</ele>
        <time>2017-08-01T12:58:05Z</time>
      </trkpt>
      <trkpt lat="45.93621" lon="4.72533">
        <ele>172</ele>
        <time>2017-08-01T12:58:06Z</time>
      </trkpt>
      <trkpt lat="45.93617" lon="4.7254">
        <ele>172</ele>
        <time>2017-08-01T12:58:07Z</time>
      </trkpt>
      <trkpt lat="45.93613" lon="4.72547">
        <ele>172</ele>
        <time>2017-08-01T12:58:08Z</time>
      </trkpt>
      <trkpt lat="45.9361" lon="4.72553">
        <ele>172</ele>
        <time>2017-08-01T12:58:09Z</time>
      </trkpt>
      <trkpt lat="45.93606" lon="4.72558">
        <ele>172</ele>
        <time>2017-08-01T12:58:10Z</time>
      </trkpt>
      <trkpt lat="45.93601" lon="4.72559">
        <ele>172</ele>
        <time>2017-08-01T12:58:11Z</time>
      </trkpt>
      <trkpt lat="45.93596" lon="4.72557">
        <ele>172</ele>
        <time>2017-08-01T12:58:12Z</time>
      </trkpt>
      <trkpt lat="45.93593" lon="4.72553">
        <ele>172</ele>
        <time>2017-08-01T12:58:13Z</time>
      </trkpt>
      <trkpt lat="45.93589" lon="4.72549">
        <ele>172</ele>
        <time>2017-08-01T12:58:14Z</time>
      </trkpt>
      <trkpt lat="45.93585" lon="4.72545">
        <ele>172</ele>
        <time>2017-08-01T12:58:15Z</time>
      </trkpt>
      <trkpt lat="45.93581" lon="4.72539">
        <ele>172</ele>
        <time>2017-08-01T12:58:16Z</time>
      </trkpt>
      <trkpt lat="45.93579" lon="4.72532">
        <ele>172</ele>
        <time>2017-08-01T12:58:17Z</time>
      </trkpt>
      <trkpt lat="45.93576" lon="4.72525">
        <ele>172</ele>
        <time>2017-08-01T12:58:18Z</time>
      </trkpt>
      <trkpt lat="45.93573" lon="4.72518">
        <ele>172</ele>
        <time>2017-08-01T12:58:19Z</time>
      </trkpt>
      <trkpt lat="45.93569" lon="4.72511">
        <ele>172</ele>
        <time>2017-08-01T12:58:20Z</time>
      </trkpt>
      <trkpt lat="45.93566" lon="4.72504">
        <ele>172</ele>
        <time>2017-08-01T12:58:21Z</time>
      </trkpt>
      <trkpt lat="45.93563" lon="4.72498">
        <ele>172</ele>
        <time>2017-08-01T12:58:22Z</time>
      </trkpt>
      <trkpt lat="45.93561" lon="4.72492">
        <ele>172</ele>
        <time>2017-08-01T12:58:23Z</time>
      </trkpt>
      <trkpt lat="45.93557" lon="4.72486">
        <ele>172</ele>
        <time>2017-08-01T12:58:24Z</time>
      </trkpt>
      <trkpt lat="45.93555" lon="4.72481">
        <ele>172</ele>
        <time>2017-08-01T12:58:25Z</time>
      </trkpt>
      <trkpt lat="45.9355" lon="4.72471">
        <ele>172</ele>
        <time>2017-08-01T12:58:27Z</time>
      </trkpt>
      <trkpt lat="45.93548" lon="4.72466">
        <ele>172</ele>
        <time>2017-08-01T12:58:28Z</time>
      </trkpt>
      <trkpt lat="45.93547" lon="4.72455">
        <ele>172</ele>
        <time>2017-08-01T12:58:30Z</time>
      </trkpt>
      <trkpt lat="45.93547" lon="4.72449">
        <ele>172</ele>
        <time>2017-08-01T12:58:31Z</time>
      </trkpt>
      <trkpt lat="45.93547" lon="4.72443">
        <ele>172</ele>
        <time>2017-08-01T12:58:32Z</time>
      </trkpt>
      <trkpt lat="45.93547" lon="4.72436">
        <ele>172</ele>
        <time>2017-08-01T12:58:33Z</time>
      </trkpt>
      <trkpt lat="45.93547" lon="4.72429">
        <ele>172</ele>
        <time>2017-08-01T12:58:34Z</time>
      </trkpt>
      <trkpt lat="45.93547" lon="4.72422">
        <ele>172</ele>
        <time>2017-08-01T12:58:35Z</time>
      </trkpt>
      <trkpt lat="45.93545" lon="4.72415">
        <ele>173</ele>
        <time>2017-08-01T12:58:36Z</time>
      </trkpt>
      <trkpt lat="45.93544" lon="4.72406">
        <ele>173</ele>
        <time>2017-08-01T12:58:37Z</time>
      </trkpt>
      <trkpt lat="45.93542" lon="4.724">
        <ele>173</ele>
        <time>2017-08-01T12:58:38Z</time>
      </trkpt>
      <trkpt lat="45.9354" lon="4.72393">
        <ele>173</ele>
        <time>2017-08-01T12:58:39Z</time>
      </trkpt>
      <trkpt lat="45.93537" lon="4.72382">
        <ele>173</ele>
        <time>2017-08-01T12:58:41Z</time>
      </trkpt>
      <trkpt lat="45.93535" lon="4.72377">
        <ele>173</ele>
        <time>2017-08-01T12:58:42Z</time>
      </trkpt>
      <trkpt lat="45.93532" lon="4.72369">
        <ele>173</ele>
        <time>2017-08-01T12:58:44Z</time>
      </trkpt>
      <trkpt lat="45.9353" lon="4.72365">
        <ele>173</ele>
        <time>2017-08-01T12:58:45Z</time>
      </trkpt>
      <trkpt lat="45.93525" lon="4.72356">
        <ele>173</ele>
        <time>2017-08-01T12:58:47Z</time>
      </trkpt>
      <trkpt lat="45.93522" lon="4.72351">
        <ele>173</ele>
        <time>2017-08-01T12:58:48Z</time>
      </trkpt>
      <trkpt lat="45.93518" lon="4.72342">
        <ele>173</ele>
        <time>2017-08-01T12:58:50Z</time>
      </trkpt>
      <trkpt lat="45.93517" lon="4.72338">
        <ele>173</ele>
        <time>2017-08-01T12:58:51Z</time>
      </trkpt>
      <trkpt lat="45.9352" lon="4.72327">
        <ele>173</ele>
        <time>2017-08-01T12:58:54Z</time>
      </trkpt>
      <trkpt lat="45.93521" lon="4.72323">
        <ele>173</ele>
        <time>2017-08-01T12:58:55Z</time>
      </trkpt>
      <trkpt lat="45.93524" lon="4.72311">
        <ele>173</ele>
        <time>2017-08-01T12:58:58Z</time>
      </trkpt>
      <trkpt lat="45.93526" lon="4.72306">
        <ele>173</ele>
        <time>2017-08-01T12:58:59Z</time>
      </trkpt>
      <trkpt lat="45.9353" lon="4.72296">
        <ele>172</ele>
        <time>2017-08-01T12:59:01Z</time>
      </trkpt>
      <trkpt lat="45.93532" lon="4.72291">
        <ele>172</ele>
        <time>2017-08-01T12:59:02Z</time>
      </trkpt>
      <trkpt lat="45.93536" lon="4.7228">
        <ele>172</ele>
        <time>2017-08-01T12:59:04Z</time>
      </trkpt>
      <trkpt lat="45.93538" lon="4.72276">
        <ele>172</ele>
        <time>2017-08-01T12:59:05Z</time>
      </trkpt>
      <trkpt lat="45.93542" lon="4.72267">
        <ele>172</ele>
        <time>2017-08-01T12:59:07Z</time>
      </trkpt>
      <trkpt lat="45.93544" lon="4.72262">
        <ele>172</ele>
        <time>2017-08-01T12:59:08Z</time>
      </trkpt>
      <trkpt lat="45.93547" lon="4.72253">
        <ele>172</ele>
        <time>2017-08-01T12:59:10Z</time>
      </trkpt>
      <trkpt lat="45.93549" lon="4.72249">
        <ele>172</ele>
        <time>2017-08-01T12:59:11Z</time>
      </trkpt>
      <trkpt lat="45.93553" lon="4.7224">
        <ele>172</ele>
        <time>2017-08-01T12:59:13Z</time>
      </trkpt>
      <trkpt lat="45.93557" lon="4.72236">
        <ele>173</ele>
        <time>2017-08-01T12:59:14Z</time>
      </trkpt>
      <trkpt lat="45.93564" lon="4.72237">
        <ele>173</ele>
        <time>2017-08-01T12:59:16Z</time>
      </trkpt>
      <trkpt lat="45.93568" lon="4.72238">
        <ele>173</ele>
        <time>2017-08-01T12:59:17Z</time>
      </trkpt>
      <trkpt lat="45.93575" lon="4.72245">
        <ele>173</ele>
        <time>2017-08-01T12:59:20Z</time>
      </trkpt>
      <trkpt lat="45.93576" lon="4.72247">
        <ele>173</ele>
        <time>2017-08-01T12:59:21Z</time>
      </trkpt>
      <trkpt lat="45.93585" lon="4.72248">
        <ele>173</ele>
        <time>2017-08-01T12:59:27Z</time>
      </trkpt>
      <trkpt lat="45.93587" lon="4.7225">
        <ele>173</ele>
        <time>2017-08-01T12:59:28Z</time>
      </trkpt>
      <trkpt lat="45.93594" lon="4.72256">
        <ele>173</ele>
        <time>2017-08-01T12:59:30Z</time>
      </trkpt>
      <trkpt lat="45.93598" lon="4.72261">
        <ele>173</ele>
        <time>2017-08-01T12:59:31Z</time>
      </trkpt>
      <trkpt lat="45.93606" lon="4.72265">
        <ele>173</ele>
        <time>2017-08-01T12:59:33Z</time>
      </trkpt>
      <trkpt lat="45.93609" lon="4.72267">
        <ele>172</ele>
        <time>2017-08-01T12:59:34Z</time>
      </trkpt>
      <trkpt lat="45.93615" lon="4.72273">
        <ele>172</ele>
        <time>2017-08-01T12:59:36Z</time>
      </trkpt>
      <trkpt lat="45.93618" lon="4.72276">
        <ele>172</ele>
        <time>2017-08-01T12:59:37Z</time>
      </trkpt>
      <trkpt lat="45.93625" lon="4.72283">
        <ele>172</ele>
        <time>2017-08-01T12:59:39Z</time>
      </trkpt>
      <trkpt lat="45.93628" lon="4.72285">
        <ele>172</ele>
        <time>2017-08-01T12:59:40Z</time>
      </trkpt>
      <trkpt lat="45.93635" lon="4.7229">
        <ele>172</ele>
        <time>2017-08-01T12:59:42Z</time>
      </trkpt>
      <trkpt lat="45.93639" lon="4.72293">
        <ele>172</ele>
        <time>2017-08-01T12:59:43Z</time>
      </trkpt>
      <trkpt lat="45.93643" lon="4.72295">
        <ele>172</ele>
        <time>2017-08-01T12:59:44Z</time>
      </trkpt>
      <trkpt lat="45.93648" lon="4.72299">
        <ele>172</ele>
        <time>2017-08-01T12:59:45Z</time>
      </trkpt>
      <trkpt lat="45.93653" lon="4.72304">
        <ele>172</ele>
        <time>2017-08-01T12:59:46Z</time>
      </trkpt>
      <trkpt lat="45.93657" lon="4.72308">
        <ele>172</ele>
        <time>2017-08-01T12:59:47Z</time>
      </trkpt>
      <trkpt lat="45.93661" lon="4.72311">
        <ele>172</ele>
        <time>2017-08-01T12:59:48Z</time>
      </trkpt>
      <trkpt lat="45.93666" lon="4.72314">
        <ele>172</ele>
        <time>2017-08-01T12:59:49Z</time>
      </trkpt>
      <trkpt lat="45.9367" lon="4.72318">
        <ele>171</ele>
        <time>2017-08-01T12:59:50Z</time>
      </trkpt>
      <trkpt lat="45.93674" lon="4.72323">
        <ele>171</ele>
        <time>2017-08-01T12:59:51Z</time>
      </trkpt>
      <trkpt lat="45.93678" lon="4.72328">
        <ele>171</ele>
        <time>2017-08-01T12:59:52Z</time>
      </trkpt>
      <trkpt lat="45.93681" lon="4.72332">
        <ele>171</ele>
        <time>2017-08-01T12:59:53Z</time>
      </trkpt>
      <trkpt lat="45.93687" lon="4.72338">
        <ele>171</ele>
        <time>2017-08-01T12:59:55Z</time>
      </trkpt>
      <trkpt lat="45.93689" lon="4.72341">
        <ele>171</ele>
        <time>2017-08-01T12:59:56Z</time>
      </trkpt>
      <trkpt lat="45.93692" lon="4.72343">
        <ele>171</ele>
        <time>2017-08-01T12:59:57Z</time>
      </trkpt>
      <trkpt lat="45.93698" lon="4.72349">
        <ele>171</ele>
        <time>2017-08-01T12:59:58Z</time>
      </trkpt>
      <trkpt lat="45.93703" lon="4.72353">
        <ele>171</ele>
        <time>2017-08-01T12:59:59Z</time>
      </trkpt>
      <trkpt lat="45.93707" lon="4.72356">
        <ele>171</ele>
        <time>2017-08-01T13:00:00Z</time>
      </trkpt>
      <trkpt lat="45.93711" lon="4.72361">
        <ele>172</ele>
        <time>2017-08-01T13:00:01Z</time>
      </trkpt>
      <trkpt lat="45.93717" lon="4.72366">
        <ele>172</ele>
        <time>2017-08-01T13:00:02Z</time>
      </trkpt>
      <trkpt lat="45.93721" lon="4.72372">
        <ele>172</ele>
        <time>2017-08-01T13:00:03Z</time>
      </trkpt>
      <trkpt lat="45.93724" lon="4.72375">
        <ele>171</ele>
        <time>2017-08-01T13:00:04Z</time>
      </trkpt>
      <trkpt lat="45.93728" lon="4.72379">
        <ele>171</ele>
        <time>2017-08-01T13:00:05Z</time>
      </trkpt>
      <trkpt lat="45.93731" lon="4.72384">
        <ele>171</ele>
        <time>2017-08-01T13:00:06Z</time>
      </trkpt>
      <trkpt lat="45.93735" lon="4.72389">
        <ele>171</ele>
        <time>2017-08-01T13:00:07Z</time>
      </trkpt>
      <trkpt lat="45.93738" lon="4.72393">
        <ele>171</ele>
        <time>2017-08-01T13:00:08Z</time>
      </trkpt>
      <trkpt lat="45.93743" lon="4.72397">
        <ele>171</ele>
        <time>2017-08-01T13:00:09Z</time>
      </trkpt>
      <trkpt lat="45.93747" lon="4.72401">
        <ele>171</ele>
        <time>2017-08-01T13:00:10Z</time>
      </trkpt>
      <trkpt lat="45.93752" lon="4.72406">
        <ele>171</ele>
        <time>2017-08-01T13:00:11Z</time>
      </trkpt>
      <trkpt lat="45.93755" lon="4.72409">
        <ele>171</ele>
        <time>2017-08-01T13:00:12Z</time>
      </trkpt>
      <trkpt lat="45.9376" lon="4.72415">
        <ele>171</ele>
        <time>2017-08-01T13:00:13Z</time>
      </trkpt>
      <trkpt lat="45.93766" lon="4.72419">
        <ele>171</ele>
        <time>2017-08-01T13:00:14Z</time>
      </trkpt>
      <trkpt lat="45.93771" lon="4.72424">
        <ele>171</ele>
        <time>2017-08-01T13:00:15Z</time>
      </trkpt>
      <trkpt lat="45.93776" lon="4.7243">
        <ele>171</ele>
        <time>2017-08-01T13:00:16Z</time>
      </trkpt>
      <trkpt lat="45.9378" lon="4.72435">
        <ele>172</ele>
        <time>2017-08-01T13:00:17Z</time>
      </trkpt>
      <trkpt lat="45.93785" lon="4.7244">
        <ele>172</ele>
        <time>2017-08-01T13:00:18Z</time>
      </trkpt>
      <trkpt lat="45.9379" lon="4.72444">
        <ele>172</ele>
        <time>2017-08-01T13:00:19Z</time>
      </trkpt>
      <trkpt lat="45.93795" lon="4.72449">
        <ele>172</ele>
        <time>2017-08-01T13:00:20Z</time>
      </trkpt>
      <trkpt lat="45.93799" lon="4.72453">
        <ele>172</ele>
        <time>2017-08-01T13:00:21Z</time>
      </trkpt>
      <trkpt lat="45.93803" lon="4.72457">
        <ele>172</ele>
        <time>2017-08-01T13:00:22Z</time>
      </trkpt>
      <trkpt lat="45.93807" lon="4.7246">
        <ele>172</ele>
        <time>2017-08-01T13:00:23Z</time>
      </trkpt>
      <trkpt lat="45.93811" lon="4.72464">
        <ele>172</ele>
        <time>2017-08-01T13:00:24Z</time>
      </trkpt>
      <trkpt lat="45.93816" lon="4.72468">
        <ele>172</ele>
        <time>2017-08-01T13:00:25Z</time>
      </trkpt>
      <trkpt lat="45.93821" lon="4.72472">
        <ele>172</ele>
        <time>2017-08-01T13:00:26Z</time>
      </trkpt>
      <trkpt lat="45.93825" lon="4.72476">
        <ele>173</ele>
        <time>2017-08-01T13:00:27Z</time>
      </trkpt>
      <trkpt lat="45.93829" lon="4.7248">
        <ele>173</ele>
        <time>2017-08-01T13:00:28Z</time>
      </trkpt>
      <trkpt lat="45.93833" lon="4.72483">
        <ele>173</ele>
        <time>2017-08-01T13:00:29Z</time>
      </trkpt>
      <trkpt lat="45.93837" lon="4.72487">
        <ele>173</ele>
        <time>2017-08-01T13:00:30Z</time>
      </trkpt>
      <trkpt lat="45.93845" lon="4.72492">
        <ele>173</ele>
        <time>2017-08-01T13:00:32Z</time>
      </trkpt>
      <trkpt lat="45.93849" lon="4.72496">
        <ele>173</ele>
        <time>2017-08-01T13:00:33Z</time>
      </trkpt>
      <trkpt lat="45.93853" lon="4.72499">
        <ele>173</ele>
        <time>2017-08-01T13:00:34Z</time>
      </trkpt>
      <trkpt lat="45.9386" lon="4.72499">
        <ele>173</ele>
        <time>2017-08-01T13:00:35Z</time>
      </trkpt>
      <trkpt lat="45.93865" lon="4.72515">
        <ele>173</ele>
        <time>2017-08-01T13:00:36Z</time>
      </trkpt>
      <trkpt lat="45.9387" lon="4.72518">
        <ele>173</ele>
        <time>2017-08-01T13:00:37Z</time>
      </trkpt>
      <trkpt lat="45.93876" lon="4.72517">
        <ele>173</ele>
        <time>2017-08-01T13:00:38Z</time>
      </trkpt>
      <trkpt lat="45.93881" lon="4.72515">
        <ele>173</ele>
        <time>2017-08-01T13:00:39Z</time>
      </trkpt>
      <trkpt lat="45.93886" lon="4.72511">
        <ele>173</ele>
        <time>2017-08-01T13:00:40Z</time>
      </trkpt>
      <trkpt lat="45.9389" lon="4.72506">
        <ele>173</ele>
        <time>2017-08-01T13:00:41Z</time>
      </trkpt>
      <trkpt lat="45.93894" lon="4.72501">
        <ele>172</ele>
        <time>2017-08-01T13:00:42Z</time>
      </trkpt>
      <trkpt lat="45.93898" lon="4.72497">
        <ele>172</ele>
        <time>2017-08-01T13:00:43Z</time>
      </trkpt>
      <trkpt lat="45.93902" lon="4.72492">
        <ele>172</ele>
        <time>2017-08-01T13:00:44Z</time>
      </trkpt>
      <trkpt lat="45.93905" lon="4.72488">
        <ele>172</ele>
        <time>2017-08-01T13:00:45Z</time>
      </trkpt>
      <trkpt lat="45.93909" lon="4.72483">
        <ele>172</ele>
        <time>2017-08-01T13:00:46Z</time>
      </trkpt>
      <trkpt lat="45.93914" lon="4.72478">
        <ele>172</ele>
        <time>2017-08-01T13:00:47Z</time>
      </trkpt>
      <trkpt lat="45.93918" lon="4.72472">
        <ele>171</ele>
        <time>2017-08-01T13:00:48Z</time>
      </trkpt>
      <trkpt lat="45.93923" lon="4.72467">
        <ele>171</ele>
        <time>2017-08-01T13:00:49Z</time>
      </trkpt>
      <trkpt lat="45.93927" lon="4.72461">
        <ele>171</ele>
        <time>2017-08-01T13:00:50Z</time>
      </trkpt>
      <trkpt lat="45.93931" lon="4.72455">
        <ele>171</ele>
        <time>2017-08-01T13:00:51Z</time>
      </trkpt>
      <trkpt lat="45.93936" lon="4.72449">
        <ele>171</ele>
        <time>2017-08-01T13:00:52Z</time>
      </trkpt>
      <trkpt lat="45.9394" lon="4.72444">
        <ele>171</ele>
        <time>2017-08-01T13:00:53Z</time>
      </trkpt>
      <trkpt lat="45.93944" lon="4.72439">
        <ele>171</ele>
        <time>2017-08-01T13:00:54Z</time>
      </trkpt>
      <trkpt lat="45.93948" lon="4.72435">
        <ele>171</ele>
        <time>2017-08-01T13:00:55Z</time>
      </trkpt>
      <trkpt lat="45.93952" lon="4.7243">
        <ele>171</ele>
        <time>2017-08-01T13:00:56Z</time>
      </trkpt>
      <trkpt lat="45.93956" lon="4.72426">
        <ele>171</ele>
        <time>2017-08-01T13:00:57Z</time>
      </trkpt>
      <trkpt lat="45.9396" lon="4.72421">
        <ele>171</ele>
        <time>2017-08-01T13:00:58Z</time>
      </trkpt>
      <trkpt lat="45.93964" lon="4.72416">
        <ele>171</ele>
        <time>2017-08-01T13:00:59Z</time>
      </trkpt>
      <trkpt lat="45.93968" lon="4.72411">
        <ele>171</ele>
        <time>2017-08-01T13:01:00Z</time>
      </trkpt>
      <trkpt lat="45.93972" lon="4.72406">
        <ele>171</ele>
        <time>2017-08-01T13:01:01Z</time>
      </trkpt>
      <trkpt lat="45.93977" lon="4.72401">
        <ele>171</ele>
        <time>2017-08-01T13:01:02Z</time>
      </trkpt>
      <trkpt lat="45.93981" lon="4.72396">
        <ele>171</ele>
        <time>2017-08-01T13:01:03Z</time>
      </trkpt>
      <trkpt lat="45.93986" lon="4.7239">
        <ele>171</ele>
        <time>2017-08-01T13:01:04Z</time>
      </trkpt>
      <trkpt lat="45.93991" lon="4.72384">
        <ele>171</ele>
        <time>2017-08-01T13:01:05Z</time>
      </trkpt>
      <trkpt lat="45.93996" lon="4.72378">
        <ele>171</ele>
        <time>2017-08-01T13:01:06Z</time>
      </trkpt>
      <trkpt lat="45.94001" lon="4.72372">
        <ele>171</ele>
        <time>2017-08-01T13:01:07Z</time>
      </trkpt>
      <trkpt lat="45.94005" lon="4.72366">
        <ele>171</ele>
        <time>2017-08-01T13:01:08Z</time>
      </trkpt>
      <trkpt lat="45.94009" lon="4.72361">
        <ele>171</ele>
        <time>2017-08-01T13:01:09Z</time>
      </trkpt>
      <trkpt lat="45.94013" lon="4.72357">
        <ele>171</ele>
        <time>2017-08-01T13:01:10Z</time>
      </trkpt>
      <trkpt lat="45.94017" lon="4.72352">
        <ele>171</ele>
        <time>2017-08-01T13:01:11Z</time>
      </trkpt>
      <trkpt lat="45.94021" lon="4.72348">
        <ele>171</ele>
        <time>2017-08-01T13:01:12Z</time>
      </trkpt>
      <trkpt lat="45.94025" lon="4.72344">
        <ele>171</ele>
        <time>2017-08-01T13:01:13Z</time>
      </trkpt>
      <trkpt lat="45.94028" lon="4.72339">
        <ele>171</ele>
        <time>2017-08-01T13:01:14Z</time>
      </trkpt>
      <trkpt lat="45.94032" lon="4.72333">
        <ele>171</ele>
        <time>2017-08-01T13:01:15Z</time>
      </trkpt>
      <trkpt lat="45.94036" lon="4.72328">
        <ele>171</ele>
        <time>2017-08-01T13:01:16Z</time>
      </trkpt>
      <trkpt lat="45.9404" lon="4.72324">
        <ele>171</ele>
        <time>2017-08-01T13:01:17Z</time>
      </trkpt>
      <trkpt lat="45.94044" lon="4.72319">
        <ele>171</ele>
        <time>2017-08-01T13:01:18Z</time>
      </trkpt>
      <trkpt lat="45.94048" lon="4.72314">
        <ele>171</ele>
        <time>2017-08-01T13:01:19Z</time>
      </trkpt>
      <trkpt lat="45.94052" lon="4.72308">
        <ele>171</ele>
        <time>2017-08-01T13:01:20Z</time>
      </trkpt>
      <trkpt lat="45.94056" lon="4.72303">
        <ele>171</ele>
        <time>2017-08-01T13:01:21Z</time>
      </trkpt>
      <trkpt lat="45.9406" lon="4.72298">
        <ele>171</ele>
        <time>2017-08-01T13:01:22Z</time>
      </trkpt>
      <trkpt lat="45.94064" lon="4.72293">
        <ele>171</ele>
        <time>2017-08-01T13:01:23Z</time>
      </trkpt>
      <trkpt lat="45.94068" lon="4.72287">
        <ele>171</ele>
        <time>2017-08-01T13:01:24Z</time>
      </trkpt>
      <trkpt lat="45.94073" lon="4.72282">
        <ele>171</ele>
        <time>2017-08-01T13:01:25Z</time>
      </trkpt>
      <trkpt lat="45.94078" lon="4.72278">
        <ele>171</ele>
        <time>2017-08-01T13:01:26Z</time>
      </trkpt>
      <trkpt lat="45.94084" lon="4.72274">
        <ele>171</ele>
        <time>2017-08-01T13:01:27Z</time>
      </trkpt>
      <trkpt lat="45.9409" lon="4.72272">
        <ele>171</ele>
        <time>2017-08-01T13:01:28Z</time>
      </trkpt>
      <trkpt lat="45.94096" lon="4.72271">
        <ele>171</ele>
        <time>2017-08-01T13:01:29Z</time>
      </trkpt>
      <trkpt lat="45.94102" lon="4.7227">
        <ele>171</ele>
        <time>2017-08-01T13:01:30Z</time>
      </trkpt>
      <trkpt lat="45.94108" lon="4.7227">
        <ele>171</ele>
        <time>2017-08-01T13:01:31Z</time>
      </trkpt>
      <trkpt lat="45.94113" lon="4.72271">
        <ele>171</ele>
        <time>2017-08-01T13:01:32Z</time>
      </trkpt>
      <trkpt lat="45.94118" lon="4.72271">
        <ele>171</ele>
        <time>2017-08-01T13:01:33Z</time>
      </trkpt>
      <trkpt lat="45.94123" lon="4.72274">
        <ele>171</ele>
        <time>2017-08-01T13:01:34Z</time>
      </trkpt>
      <trkpt lat="45.94128" lon="4.72277">
        <ele>171</ele>
        <time>2017-08-01T13:01:35Z</time>
      </trkpt>
      <trkpt lat="45.94133" lon="4.7228">
        <ele>171</ele>
        <time>2017-08-01T13:01:36Z</time>
      </trkpt>
      <trkpt lat="45.94139" lon="4.72282">
        <ele>171</ele>
        <time>2017-08-01T13:01:37Z</time>
      </trkpt>
      <trkpt lat="45.94144" lon="4.72285">
        <ele>171</ele>
        <time>2017-08-01T13:01:38Z</time>
      </trkpt>
      <trkpt lat="45.9415" lon="4.72287">
        <ele>171</ele>
        <time>2017-08-01T13:01:39Z</time>
      </trkpt>
      <trkpt lat="45.94155" lon="4.72288">
        <ele>171</ele>
        <time>2017-08-01T13:01:40Z</time>
      </trkpt>
      <trkpt lat="45.94161" lon="4.7229">
        <ele>171</ele>
        <time>2017-08-01T13:01:41Z</time>
      </trkpt>
      <trkpt lat="45.94166" lon="4.72291">
        <ele>171</ele>
        <time>2017-08-01T13:01:42Z</time>
      </trkpt>
      <trkpt lat="45.94171" lon="4.72291">
        <ele>171</ele>
        <time>2017-08-01T13:01:43Z</time>
      </trkpt>
      <trkpt lat="45.94175" lon="4.72291">
        <ele>171</ele>
        <time>2017-08-01T13:01:44Z</time>
      </trkpt>
      <trkpt lat="45.9418" lon="4.72291">
        <ele>171</ele>
        <time>2017-08-01T13:01:45Z</time>
      </trkpt>
      <trkpt lat="45.94185" lon="4.72292">
        <ele>171</ele>
        <time>2017-08-01T13:01:46Z</time>
      </trkpt>
      <trkpt lat="45.9419" lon="4.72292">
        <ele>171</ele>
        <time>2017-08-01T13:01:47Z</time>
      </trkpt>
      <trkpt lat="45.94195" lon="4.72292">
        <ele>171</ele>
        <time>2017-08-01T13:01:48Z</time>
      </trkpt>
      <trkpt lat="45.942" lon="4.72292">
        <ele>171</ele>
        <time>2017-08-01T13:01:49Z</time>
      </trkpt>
      <trkpt lat="45.94206" lon="4.72293">
        <ele>171</ele>
        <time>2017-08-01T13:01:50Z</time>
      </trkpt>
      <trkpt lat="45.94211" lon="4.72292">
        <ele>171</ele>
        <time>2017-08-01T13:01:51Z</time>
      </trkpt>
      <trkpt lat="45.94215" lon="4.72292">
        <ele>171</ele>
        <time>2017-08-01T13:01:52Z</time>
      </trkpt>
      <trkpt lat="45.9422" lon="4.72291">
        <ele>171</ele>
        <time>2017-08-01T13:01:53Z</time>
      </trkpt>
      <trkpt lat="45.94224" lon="4.72291">
        <ele>171</ele>
        <time>2017-08-01T13:01:54Z</time>
      </trkpt>
      <trkpt lat="45.94233" lon="4.72289">
        <ele>171</ele>
        <time>2017-08-01T13:01:56Z</time>
      </trkpt>
      <trkpt lat="45.94237" lon="4.72288">
        <ele>171</ele>
        <time>2017-08-01T13:01:57Z</time>
      </trkpt>
      <trkpt lat="45.94242" lon="4.72287">
        <ele>171</ele>
        <time>2017-08-01T13:01:58Z</time>
      </trkpt>
      <trkpt lat="45.94247" lon="4.72285">
        <ele>171</ele>
        <time>2017-08-01T13:01:59Z</time>
      </trkpt>
      <trkpt lat="45.94251" lon="4.72283">
        <ele>171</ele>
        <time>2017-08-01T13:02:00Z</time>
      </trkpt>
      <trkpt lat="45.94255" lon="4.72281">
        <ele>171</ele>
        <time>2017-08-01T13:02:01Z</time>
      </trkpt>
      <trkpt lat="45.94263" lon="4.72278">
        <ele>171</ele>
        <time>2017-08-01T13:02:03Z</time>
      </trkpt>
      <trkpt lat="45.94268" lon="4.72276">
        <ele>171</ele>
        <time>2017-08-01T13:02:04Z</time>
      </trkpt>
      <trkpt lat="45.94275" lon="4.72275">
        <ele>171</ele>
        <time>2017-08-01T13:02:06Z</time>
      </trkpt>
      <trkpt lat="45.94278" lon="4.72278">
        <ele>171</ele>
        <time>2017-08-01T13:02:07Z</time>
      </trkpt>
      <trkpt lat="45.94282" lon="4.72287">
        <ele>171</ele>
        <time>2017-08-01T13:02:09Z</time>
      </trkpt>
      <trkpt lat="45.94284" lon="4.72294">
        <ele>171</ele>
        <time>2017-08-01T13:02:10Z</time>
      </trkpt>
      <trkpt lat="45.94287" lon="4.723">
        <ele>171</ele>
        <time>2017-08-01T13:02:11Z</time>
      </trkpt>
      <trkpt lat="45.9429" lon="4.72307">
        <ele>171</ele>
        <time>2017-08-01T13:02:12Z</time>
      </trkpt>
      <trkpt lat="45.94293" lon="4.72313">
        <ele>171</ele>
        <time>2017-08-01T13:02:13Z</time>
      </trkpt>
      <trkpt lat="45.94296" lon="4.7232">
        <ele>171</ele>
        <time>2017-08-01T13:02:14Z</time>
      </trkpt>
      <trkpt lat="45.94299" lon="4.72326">
        <ele>171</ele>
        <time>2017-08-01T13:02:15Z</time>
      </trkpt>
      <trkpt lat="45.94302" lon="4.72332">
        <ele>171</ele>
        <time>2017-08-01T13:02:16Z</time>
      </trkpt>
      <trkpt lat="45.94304" lon="4.72338">
        <ele>172</ele>
        <time>2017-08-01T13:02:17Z</time>
      </trkpt>
      <trkpt lat="45.94307" lon="4.72344">
        <ele>172</ele>
        <time>2017-08-01T13:02:18Z</time>
      </trkpt>
      <trkpt lat="45.94309" lon="4.7235">
        <ele>172</ele>
        <time>2017-08-01T13:02:19Z</time>
      </trkpt>
      <trkpt lat="45.94312" lon="4.72356">
        <ele>172</ele>
        <time>2017-08-01T13:02:20Z</time>
      </trkpt>
      <trkpt lat="45.94314" lon="4.72363">
        <ele>172</ele>
        <time>2017-08-01T13:02:21Z</time>
      </trkpt>
      <trkpt lat="45.94317" lon="4.72369">
        <ele>172</ele>
        <time>2017-08-01T13:02:22Z</time>
      </trkpt>
      <trkpt lat="45.9432" lon="4.72375">
        <ele>172</ele>
        <time>2017-08-01T13:02:23Z</time>
      </trkpt>
      <trkpt lat="45.94323" lon="4.7238">
        <ele>172</ele>
        <time>2017-08-01T13:02:24Z</time>
      </trkpt>
      <trkpt lat="45.94326" lon="4.72386">
        <ele>172</ele>
        <time>2017-08-01T13:02:25Z</time>
      </trkpt>
      <trkpt lat="45.94329" lon="4.72392">
        <ele>172</ele>
        <time>2017-08-01T13:02:26Z</time>
      </trkpt>
      <trkpt lat="45.94332" lon="4.72399">
        <ele>173</ele>
        <time>2017-08-01T13:02:27Z</time>
      </trkpt>
      <trkpt lat="45.94335" lon="4.72406">
        <ele>173</ele>
        <time>2017-08-01T13:02:28Z</time>
      </trkpt>
      <trkpt lat="45.94338" lon="4.72414">
        <ele>173</ele>
        <time>2017-08-01T13:02:29Z</time>
      </trkpt>
      <trkpt lat="45.94341" lon="4.7242">
        <ele>173</ele>
        <time>2017-08-01T13:02:30Z</time>
      </trkpt>
      <trkpt lat="45.94344" lon="4.72427">
        <ele>173</ele>
        <time>2017-08-01T13:02:31Z</time>
      </trkpt>
      <trkpt lat="45.94347" lon="4.72433">
        <ele>173</ele>
        <time>2017-08-01T13:02:32Z</time>
      </trkpt>
      <trkpt lat="45.9435" lon="4.72439">
        <ele>173</ele>
        <time>2017-08-01T13:02:33Z</time>
      </trkpt>
      <trkpt lat="45.94352" lon="4.72445">
        <ele>173</ele>
        <time>2017-08-01T13:02:34Z</time>
      </trkpt>
      <trkpt lat="45.94355" lon="4.72452">
        <ele>173</ele>
        <time>2017-08-01T13:02:35Z</time>
      </trkpt>
      <trkpt lat="45.94357" lon="4.72458">
        <ele>173</ele>
        <time>2017-08-01T13:02:36Z</time>
      </trkpt>
      <trkpt lat="45.9436" lon="4.72465">
        <ele>173</ele>
        <time>2017-08-01T13:02:37Z</time>
      </trkpt>
      <trkpt lat="45.94362" lon="4.72471">
        <ele>173</ele>
        <time>2017-08-01T13:02:38Z</time>
      </trkpt>
      <trkpt lat="45.94365" lon="4.72478">
        <ele>173</ele>
        <time>2017-08-01T13:02:39Z</time>
      </trkpt>
      <trkpt lat="45.94368" lon="4.72485">
        <ele>173</ele>
        <time>2017-08-01T13:02:40Z</time>
      </trkpt>
      <trkpt lat="45.9437" lon="4.7249">
        <ele>173</ele>
        <time>2017-08-01T13:02:41Z</time>
      </trkpt>
      <trkpt lat="45.94372" lon="4.72496">
        <ele>173</ele>
        <time>2017-08-01T13:02:42Z</time>
      </trkpt>
      <trkpt lat="45.94374" lon="4.72502">
        <ele>173</ele>
        <time>2017-08-01T13:02:43Z</time>
      </trkpt>
      <trkpt lat="45.94376" lon="4.72509">
        <ele>174</ele>
        <time>2017-08-01T13:02:44Z</time>
      </trkpt>
      <trkpt lat="45.94378" lon="4.72516">
        <ele>174</ele>
        <time>2017-08-01T13:02:45Z</time>
      </trkpt>
      <trkpt lat="45.9438" lon="4.72523">
        <ele>174</ele>
        <time>2017-08-01T13:02:46Z</time>
      </trkpt>
      <trkpt lat="45.94383" lon="4.72531">
        <ele>174</ele>
        <time>2017-08-01T13:02:47Z</time>
      </trkpt>
      <trkpt lat="45.94385" lon="4.72539">
        <ele>174</ele>
        <time>2017-08-01T13:02:48Z</time>
      </trkpt>
      <trkpt lat="45.94386" lon="4.72547">
        <ele>173</ele>
        <time>2017-08-01T13:02:49Z</time>
      </trkpt>
      <trkpt lat="45.94388" lon="4.72555">
        <ele>173</ele>
        <time>2017-08-01T13:02:50Z</time>
      </trkpt>
      <trkpt lat="45.94389" lon="4.72563">
        <ele>173</ele>
        <time>2017-08-01T13:02:51Z</time>
      </trkpt>
      <trkpt lat="45.9439" lon="4.72571">
        <ele>173</ele>
        <time>2017-08-01T13:02:52Z</time>
      </trkpt>
      <trkpt lat="45.94391" lon="4.72578">
        <ele>173</ele>
        <time>2017-08-01T13:02:53Z</time>
      </trkpt>
      <trkpt lat="45.94392" lon="4.72586">
        <ele>173</ele>
        <time>2017-08-01T13:02:54Z</time>
      </trkpt>
      <trkpt lat="45.94393" lon="4.72593">
        <ele>173</ele>
        <time>2017-08-01T13:02:55Z</time>
      </trkpt>
      <trkpt lat="45.94394" lon="4.72599">
        <ele>173</ele>
        <time>2017-08-01T13:02:56Z</time>
      </trkpt>
      <trkpt lat="45.94396" lon="4.72612">
        <ele>173</ele>
        <time>2017-08-01T13:02:58Z</time>
      </trkpt>
      <trkpt lat="45.94397" lon="4.72618">
        <ele>173</ele>
        <time>2017-08-01T13:02:59Z</time>
      </trkpt>
      <trkpt lat="45.94399" lon="4.72625">
        <ele>174</ele>
        <time>2017-08-01T13:03:00Z</time>
      </trkpt>
      <trkpt lat="45.94399" lon="4.72632">
        <ele>174</ele>
        <time>2017-08-01T13:03:01Z</time>
      </trkpt>
      <trkpt lat="45.94401" lon="4.7264">
        <ele>174</ele>
        <time>2017-08-01T13:03:02Z</time>
      </trkpt>
      <trkpt lat="45.94402" lon="4.72647">
        <ele>174</ele>
        <time>2017-08-01T13:03:03Z</time>
      </trkpt>
      <trkpt lat="45.94403" lon="4.72655">
        <ele>174</ele>
        <time>2017-08-01T13:03:04Z</time>
      </trkpt>
      <trkpt lat="45.94403" lon="4.72662">
        <ele>174</ele>
        <time>2017-08-01T13:03:05Z</time>
      </trkpt>
      <trkpt lat="45.94403" lon="4.7267">
        <ele>173</ele>
        <time>2017-08-01T13:03:06Z</time>
      </trkpt>
      <trkpt lat="45.94404" lon="4.72679">
        <ele>173</ele>
        <time>2017-08-01T13:03:07Z</time>
      </trkpt>
      <trkpt lat="45.94405" lon="4.72688">
        <ele>173</ele>
        <time>2017-08-01T13:03:08Z</time>
      </trkpt>
      <trkpt lat="45.94406" lon="4.72696">
        <ele>172</ele>
        <time>2017-08-01T13:03:09Z</time>
      </trkpt>
      <trkpt lat="45.94407" lon="4.72704">
        <ele>172</ele>
        <time>2017-08-01T13:03:10Z</time>
      </trkpt>
      <trkpt lat="45.94408" lon="4.72711">
        <ele>172</ele>
        <time>2017-08-01T13:03:11Z</time>
      </trkpt>
      <trkpt lat="45.94409" lon="4.72718">
        <ele>172</ele>
        <time>2017-08-01T13:03:12Z</time>
      </trkpt>
      <trkpt lat="45.94409" lon="4.72725">
        <ele>172</ele>
        <time>2017-08-01T13:03:13Z</time>
      </trkpt>
      <trkpt lat="45.9441" lon="4.72732">
        <ele>172</ele>
        <time>2017-08-01T13:03:14Z</time>
      </trkpt>
      <trkpt lat="45.94412" lon="4.7274">
        <ele>171</ele>
        <time>2017-08-01T13:03:15Z</time>
      </trkpt>
      <trkpt lat="45.94414" lon="4.72748">
        <ele>171</ele>
        <time>2017-08-01T13:03:16Z</time>
      </trkpt>
      <trkpt lat="45.94415" lon="4.72755">
        <ele>170</ele>
        <time>2017-08-01T13:03:17Z</time>
      </trkpt>
      <trkpt lat="45.94416" lon="4.72763">
        <ele>170</ele>
        <time>2017-08-01T13:03:18Z</time>
      </trkpt>
      <trkpt lat="45.94418" lon="4.7277">
        <ele>169</ele>
        <time>2017-08-01T13:03:19Z</time>
      </trkpt>
      <trkpt lat="45.94419" lon="4.72777">
        <ele>168</ele>
        <time>2017-08-01T13:03:20Z</time>
      </trkpt>
      <trkpt lat="45.9442" lon="4.72784">
        <ele>168</ele>
        <time>2017-08-01T13:03:21Z</time>
      </trkpt>
      <trkpt lat="45.94421" lon="4.72791">
        <ele>168</ele>
        <time>2017-08-01T13:03:22Z</time>
      </trkpt>
      <trkpt lat="45.94422" lon="4.72798">
        <ele>167</ele>
        <time>2017-08-01T13:03:23Z</time>
      </trkpt>
      <trkpt lat="45.94423" lon="4.72805">
        <ele>167</ele>
        <time>2017-08-01T13:03:24Z</time>
      </trkpt>
      <trkpt lat="45.94424" lon="4.72812">
        <ele>167</ele>
        <time>2017-08-01T13:03:25Z</time>
      </trkpt>
      <trkpt lat="45.94424" lon="4.72819">
        <ele>167</ele>
        <time>2017-08-01T13:03:26Z</time>
      </trkpt>
      <trkpt lat="45.94425" lon="4.72826">
        <ele>167</ele>
        <time>2017-08-01T13:03:27Z</time>
      </trkpt>
      <trkpt lat="45.94426" lon="4.72833">
        <ele>166</ele>
        <time>2017-08-01T13:03:28Z</time>
      </trkpt>
      <trkpt lat="45.94427" lon="4.7284">
        <ele>166</ele>
        <time>2017-08-01T13:03:29Z</time>
      </trkpt>
      <trkpt lat="45.94429" lon="4.72847">
        <ele>166</ele>
        <time>2017-08-01T13:03:30Z</time>
      </trkpt>
      <trkpt lat="45.9443" lon="4.72854">
        <ele>166</ele>
        <time>2017-08-01T13:03:31Z</time>
      </trkpt>
      <trkpt lat="45.9443" lon="4.72861">
        <ele>166</ele>
        <time>2017-08-01T13:03:32Z</time>
      </trkpt>
      <trkpt lat="45.94431" lon="4.72868">
        <ele>166</ele>
        <time>2017-08-01T13:03:33Z</time>
      </trkpt>
      <trkpt lat="45.94432" lon="4.72875">
        <ele>166</ele>
        <time>2017-08-01T13:03:34Z</time>
      </trkpt>
      <trkpt lat="45.94433" lon="4.72881">
        <ele>166</ele>
        <time>2017-08-01T13:03:35Z</time>
      </trkpt>
      <trkpt lat="45.94436" lon="4.72893">
        <ele>166</ele>
        <time>2017-08-01T13:03:37Z</time>
      </trkpt>
      <trkpt lat="45.94437" lon="4.72899">
        <ele>166</ele>
        <time>2017-08-01T13:03:38Z</time>
      </trkpt>
      <trkpt lat="45.94439" lon="4.72911">
        <ele>166</ele>
        <time>2017-08-01T13:03:40Z</time>
      </trkpt>
      <trkpt lat="45.9444" lon="4.72917">
        <ele>167</ele>
        <time>2017-08-01T13:03:41Z</time>
      </trkpt>
      <trkpt lat="45.9444" lon="4.72923">
        <ele>167</ele>
        <time>2017-08-01T13:03:42Z</time>
      </trkpt>
      <trkpt lat="45.94442" lon="4.7293">
        <ele>167</ele>
        <time>2017-08-01T13:03:43Z</time>
      </trkpt>
      <trkpt lat="45.94443" lon="4.72937">
        <ele>167</ele>
        <time>2017-08-01T13:03:44Z</time>
      </trkpt>
      <trkpt lat="45.94443" lon="4.72945">
        <ele>167</ele>
        <time>2017-08-01T13:03:45Z</time>
      </trkpt>
      <trkpt lat="45.94444" lon="4.72953">
        <ele>167</ele>
        <time>2017-08-01T13:03:46Z</time>
      </trkpt>
      <trkpt lat="45.94445" lon="4.7296">
        <ele>167</ele>
        <time>2017-08-01T13:03:47Z</time>
      </trkpt>
      <trkpt lat="45.94447" lon="4.72968">
        <ele>167</ele>
        <time>2017-08-01T13:03:48Z</time>
      </trkpt>
      <trkpt lat="45.94448" lon="4.72976">
        <ele>167</ele>
        <time>2017-08-01T13:03:49Z</time>
      </trkpt>
      <trkpt lat="45.9445" lon="4.72984">
        <ele>167</ele>
        <time>2017-08-01T13:03:50Z</time>
      </trkpt>
      <trkpt lat="45.94451" lon="4.72992">
        <ele>167</ele>
        <time>2017-08-01T13:03:51Z</time>
      </trkpt>
      <trkpt lat="45.94452" lon="4.73">
        <ele>167</ele>
        <time>2017-08-01T13:03:52Z</time>
      </trkpt>
      <trkpt lat="45.94453" lon="4.73008">
        <ele>169</ele>
        <time>2017-08-01T13:03:53Z</time>
      </trkpt>
      <trkpt lat="45.94454" lon="4.73017">
        <ele>169</ele>
        <time>2017-08-01T13:03:54Z</time>
      </trkpt>
      <trkpt lat="45.94455" lon="4.73025">
        <ele>169</ele>
        <time>2017-08-01T13:03:55Z</time>
      </trkpt>
      <trkpt lat="45.94456" lon="4.73034">
        <ele>169</ele>
        <time>2017-08-01T13:03:56Z</time>
      </trkpt>
      <trkpt lat="45.94458" lon="4.73043">
        <ele>169</ele>
        <time>2017-08-01T13:03:57Z</time>
      </trkpt>
      <trkpt lat="45.94459" lon="4.73051">
        <ele>170</ele>
        <time>2017-08-01T13:03:58Z</time>
      </trkpt>
      <trkpt lat="45.9446" lon="4.7306">
        <ele>170</ele>
        <time>2017-08-01T13:03:59Z</time>
      </trkpt>
      <trkpt lat="45.94462" lon="4.73068">
        <ele>170</ele>
        <time>2017-08-01T13:04:00Z</time>
      </trkpt>
      <trkpt lat="45.94464" lon="4.73075">
        <ele>170</ele>
        <time>2017-08-01T13:04:01Z</time>
      </trkpt>
      <trkpt lat="45.94468" lon="4.73079">
        <ele>170</ele>
        <time>2017-08-01T13:04:02Z</time>
      </trkpt>
      <trkpt lat="45.94473" lon="4.73081">
        <ele>170</ele>
        <time>2017-08-01T13:04:03Z</time>
      </trkpt>
      <trkpt lat="45.94479" lon="4.73082">
        <ele>171</ele>
        <time>2017-08-01T13:04:04Z</time>
      </trkpt>
      <trkpt lat="45.94485" lon="4.73083">
        <ele>171</ele>
        <time>2017-08-01T13:04:05Z</time>
      </trkpt>
      <trkpt lat="45.94491" lon="4.73087">
        <ele>172</ele>
        <time>2017-08-01T13:04:06Z</time>
      </trkpt>
      <trkpt lat="45.94497" lon="4.7309">
        <ele>172</ele>
        <time>2017-08-01T13:04:07Z</time>
      </trkpt>
      <trkpt lat="45.94503" lon="4.73094">
        <ele>172</ele>
        <time>2017-08-01T13:04:08Z</time>
      </trkpt>
      <trkpt lat="45.94509" lon="4.73097">
        <ele>172</ele>
        <time>2017-08-01T13:04:09Z</time>
      </trkpt>
      <trkpt lat="45.94514" lon="4.731">
        <ele>172</ele>
        <time>2017-08-01T13:04:10Z</time>
      </trkpt>
      <trkpt lat="45.9452" lon="4.73102">
        <ele>173</ele>
        <time>2017-08-01T13:04:11Z</time>
      </trkpt>
      <trkpt lat="45.94524" lon="4.73105">
        <ele>173</ele>
        <time>2017-08-01T13:04:12Z</time>
      </trkpt>
      <trkpt lat="45.94529" lon="4.73107">
        <ele>173</ele>
        <time>2017-08-01T13:04:13Z</time>
      </trkpt>
      <trkpt lat="45.94537" lon="4.73111">
        <ele>173</ele>
        <time>2017-08-01T13:04:15Z</time>
      </trkpt>
      <trkpt lat="45.9454" lon="4.73113">
        <ele>173</ele>
        <time>2017-08-01T13:04:16Z</time>
      </trkpt>
      <trkpt lat="45.94547" lon="4.73114">
        <ele>173</ele>
        <time>2017-08-01T13:04:18Z</time>
      </trkpt>
      <trkpt lat="45.9455" lon="4.73113">
        <ele>173</ele>
        <time>2017-08-01T13:04:19Z</time>
      </trkpt>
      <trkpt lat="45.94552" lon="4.73101">
        <ele>173</ele>
        <time>2017-08-01T13:04:22Z</time>
      </trkpt>
      <trkpt lat="45.94551" lon="4.73096">
        <ele>172</ele>
        <time>2017-08-01T13:04:23Z</time>
      </trkpt>
      <trkpt lat="45.9455" lon="4.73086">
        <ele>172</ele>
        <time>2017-08-01T13:04:25Z</time>
      </trkpt>
      <trkpt lat="45.9455" lon="4.73079">
        <ele>172</ele>
        <time>2017-08-01T13:04:26Z</time>
      </trkpt>
      <trkpt lat="45.94549" lon="4.73072">
        <ele>172</ele>
        <time>2017-08-01T13:04:27Z</time>
      </trkpt>
      <trkpt lat="45.94549" lon="4.73065">
        <ele>172</ele>
        <time>2017-08-01T13:04:28Z</time>
      </trkpt>
      <trkpt lat="45.94549" lon="4.73058">
        <ele>172</ele>
        <time>2017-08-01T13:04:29Z</time>
      </trkpt>
      <trkpt lat="45.94549" lon="4.73052">
        <ele>172</ele>
        <time>2017-08-01T13:04:30Z</time>
      </trkpt>
      <trkpt lat="45.94549" lon="4.73045">
        <ele>172</ele>
        <time>2017-08-01T13:04:31Z</time>
      </trkpt>
      <trkpt lat="45.94549" lon="4.73039">
        <ele>171</ele>
        <time>2017-08-01T13:04:32Z</time>
      </trkpt>
      <trkpt lat="45.94545" lon="4.7303">
        <ele>171</ele>
        <time>2017-08-01T13:04:34Z</time>
      </trkpt>
      <trkpt lat="45.94542" lon="4.73026">
        <ele>171</ele>
        <time>2017-08-01T13:04:35Z</time>
      </trkpt>
      <trkpt lat="45.94537" lon="4.73018">
        <ele>171</ele>
        <time>2017-08-01T13:04:37Z</time>
      </trkpt>
      <trkpt lat="45.94535" lon="4.73016">
        <ele>171</ele>
        <time>2017-08-01T13:04:38Z</time>
      </trkpt>
      <trkpt lat="45.94529" lon="4.73015">
        <ele>171</ele>
        <time>2017-08-01T13:04:42Z</time>
      </trkpt>
      <trkpt lat="45.94526" lon="4.73014">
        <ele>171</ele>
        <time>2017-08-01T13:04:43Z</time>
      </trkpt>
      <trkpt lat="45.9452" lon="4.73012">
        <ele>171</ele>
        <time>2017-08-01T13:04:45Z</time>
      </trkpt>
      <trkpt lat="45.94515" lon="4.73011">
        <ele>171</ele>
        <time>2017-08-01T13:04:46Z</time>
      </trkpt>
      <trkpt lat="45.9451" lon="4.73012">
        <ele>171</ele>
        <time>2017-08-01T13:04:47Z</time>
      </trkpt>
      <trkpt lat="45.94505" lon="4.73013">
        <ele>171</ele>
        <time>2017-08-01T13:04:48Z</time>
      </trkpt>
      <trkpt lat="45.94501" lon="4.73014">
        <ele>171</ele>
        <time>2017-08-01T13:04:49Z</time>
      </trkpt>
      <trkpt lat="45.94496" lon="4.73015">
        <ele>170</ele>
        <time>2017-08-01T13:04:50Z</time>
      </trkpt>
      <trkpt lat="45.94491" lon="4.73016">
        <ele>170</ele>
        <time>2017-08-01T13:04:51Z</time>
      </trkpt>
      <trkpt lat="45.94486" lon="4.73016">
        <ele>170</ele>
        <time>2017-08-01T13:04:52Z</time>
      </trkpt>
      <trkpt lat="45.94477" lon="4.73016">
        <ele>170</ele>
        <time>2017-08-01T13:04:54Z</time>
      </trkpt>
      <trkpt lat="45.94473" lon="4.73016">
        <ele>170</ele>
        <time>2017-08-01T13:04:55Z</time>
      </trkpt>
      <trkpt lat="45.94464" lon="4.73016">
        <ele>169</ele>
        <time>2017-08-01T13:04:57Z</time>
      </trkpt>
      <trkpt lat="45.9446" lon="4.73017">
        <ele>169</ele>
        <time>2017-08-01T13:04:58Z</time>
      </trkpt>
      <trkpt lat="45.94455" lon="4.73017">
        <ele>169</ele>
        <time>2017-08-01T13:04:59Z</time>
      </trkpt>
      <trkpt lat="45.9445" lon="4.73019">
        <ele>169</ele>
        <time>2017-08-01T13:05:00Z</time>
      </trkpt>
      <trkpt lat="45.94446" lon="4.73024">
        <ele>169</ele>
        <time>2017-08-01T13:05:01Z</time>
      </trkpt>
      <trkpt lat="45.94441" lon="4.73028">
        <ele>169</ele>
        <time>2017-08-01T13:05:02Z</time>
      </trkpt>
      <trkpt lat="45.94437" lon="4.73033">
        <ele>169</ele>
        <time>2017-08-01T13:05:03Z</time>
      </trkpt>
      <trkpt lat="45.94432" lon="4.73038">
        <ele>169</ele>
        <time>2017-08-01T13:05:04Z</time>
      </trkpt>
      <trkpt lat="45.94428" lon="4.73043">
        <ele>169</ele>
        <time>2017-08-01T13:05:05Z</time>
      </trkpt>
      <trkpt lat="45.94424" lon="4.73047">
        <ele>169</ele>
        <time>2017-08-01T13:05:06Z</time>
      </trkpt>
      <trkpt lat="45.94421" lon="4.73053">
        <ele>169</ele>
        <time>2017-08-01T13:05:07Z</time>
      </trkpt>
      <trkpt lat="45.94417" lon="4.73057">
        <ele>169</ele>
        <time>2017-08-01T13:05:08Z</time>
      </trkpt>
      <trkpt lat="45.94411" lon="4.73064">
        <ele>168</ele>
        <time>2017-08-01T13:05:10Z</time>
      </trkpt>
      <trkpt lat="45.94408" lon="4.73068">
        <ele>168</ele>
        <time>2017-08-01T13:05:11Z</time>
      </trkpt>
      <trkpt lat="45.94405" lon="4.73072">
        <ele>168</ele>
        <time>2017-08-01T13:05:12Z</time>
      </trkpt>
      <trkpt lat="45.944" lon="4.73075">
        <ele>168</ele>
        <time>2017-08-01T13:05:13Z</time>
      </trkpt>
      <trkpt lat="45.94395" lon="4.73079">
        <ele>168</ele>
        <time>2017-08-01T13:05:14Z</time>
      </trkpt>
      <trkpt lat="45.9439" lon="4.73083">
        <ele>167</ele>
        <time>2017-08-01T13:05:15Z</time>
      </trkpt>
      <trkpt lat="45.94386" lon="4.73087">
        <ele>169</ele>
        <time>2017-08-01T13:05:16Z</time>
      </trkpt>
      <trkpt lat="45.94382" lon="4.7309">
        <ele>169</ele>
        <time>2017-08-01T13:05:17Z</time>
      </trkpt>
      <trkpt lat="45.94377" lon="4.73094">
        <ele>169</ele>
        <time>2017-08-01T13:05:18Z</time>
      </trkpt>
      <trkpt lat="45.94374" lon="4.73098">
        <ele>169</ele>
        <time>2017-08-01T13:05:19Z</time>
      </trkpt>
      <trkpt lat="45.9437" lon="4.73102">
        <ele>169</ele>
        <time>2017-08-01T13:05:20Z</time>
      </trkpt>
      <trkpt lat="45.94366" lon="4.73106">
        <ele>169</ele>
        <time>2017-08-01T13:05:21Z</time>
      </trkpt>
      <trkpt lat="45.94361" lon="4.73109">
        <ele>169</ele>
        <time>2017-08-01T13:05:22Z</time>
      </trkpt>
      <trkpt lat="45.94358" lon="4.73114">
        <ele>169</ele>
        <time>2017-08-01T13:05:23Z</time>
      </trkpt>
      <trkpt lat="45.94353" lon="4.73118">
        <ele>169</ele>
        <time>2017-08-01T13:05:24Z</time>
      </trkpt>
      <trkpt lat="45.94349" lon="4.73121">
        <ele>169</ele>
        <time>2017-08-01T13:05:25Z</time>
      </trkpt>
      <trkpt lat="45.94344" lon="4.73124">
        <ele>169</ele>
        <time>2017-08-01T13:05:26Z</time>
      </trkpt>
      <trkpt lat="45.94341" lon="4.73127">
        <ele>169</ele>
        <time>2017-08-01T13:05:27Z</time>
      </trkpt>
      <trkpt lat="45.94334" lon="4.73133">
        <ele>169</ele>
        <time>2017-08-01T13:05:29Z</time>
      </trkpt>
      <trkpt lat="45.9433" lon="4.73137">
        <ele>168</ele>
        <time>2017-08-01T13:05:30Z</time>
      </trkpt>
      <trkpt lat="45.94323" lon="4.73144">
        <ele>168</ele>
        <time>2017-08-01T13:05:32Z</time>
      </trkpt>
      <trkpt lat="45.94319" lon="4.73148">
        <ele>168</ele>
        <time>2017-08-01T13:05:33Z</time>
      </trkpt>
      <trkpt lat="45.94313" lon="4.73155">
        <ele>168</ele>
        <time>2017-08-01T13:05:35Z</time>
      </trkpt>
      <trkpt lat="45.94309" lon="4.73158">
        <ele>168</ele>
        <time>2017-08-01T13:05:36Z</time>
      </trkpt>
      <trkpt lat="45.94303" lon="4.73164">
        <ele>168</ele>
        <time>2017-08-01T13:05:38Z</time>
      </trkpt>
      <trkpt lat="45.94299" lon="4.73166">
        <ele>168</ele>
        <time>2017-08-01T13:05:39Z</time>
      </trkpt>
      <trkpt lat="45.94292" lon="4.73173">
        <ele>170</ele>
        <time>2017-08-01T13:05:41Z</time>
      </trkpt>
      <trkpt lat="45.94289" lon="4.73176">
        <ele>170</ele>
        <time>2017-08-01T13:05:42Z</time>
      </trkpt>
      <trkpt lat="45.94287" lon="4.73178">
        <ele>170</ele>
        <time>2017-08-01T13:05:43Z</time>
      </trkpt>
      <trkpt lat="45.94285" lon="4.73179">
        <ele>170</ele>
        <time>2017-08-01T13:05:44Z</time>
      </trkpt>
      <trkpt lat="45.94284" lon="4.73179">
        <ele>170</ele>
        <time>2017-08-01T13:05:45Z</time>
      </trkpt>
      <trkpt lat="45.94283" lon="4.73178">
        <ele>170</ele>
        <time>2017-08-01T13:05:46Z</time>
      </trkpt>
      <trkpt lat="45.94275" lon="4.73184">
        <ele>169</ele>
        <time>2017-08-01T13:05:49Z</time>
      </trkpt>
      <trkpt lat="45.94271" lon="4.73186">
        <ele>169</ele>
        <time>2017-08-01T13:05:50Z</time>
      </trkpt>
      <trkpt lat="45.94267" lon="4.7319">
        <ele>169</ele>
        <time>2017-08-01T13:05:51Z</time>
      </trkpt>
      <trkpt lat="45.94263" lon="4.73193">
        <ele>169</ele>
        <time>2017-08-01T13:05:52Z</time>
      </trkpt>
      <trkpt lat="45.94259" lon="4.73197">
        <ele>169</ele>
        <time>2017-08-01T13:05:53Z</time>
      </trkpt>
      <trkpt lat="45.94255" lon="4.73201">
        <ele>170</ele>
        <time>2017-08-01T13:05:54Z</time>
      </trkpt>
      <trkpt lat="45.9425" lon="4.73204">
        <ele>170</ele>
        <time>2017-08-01T13:05:55Z</time>
      </trkpt>
      <trkpt lat="45.94246" lon="4.73207">
        <ele>169</ele>
        <time>2017-08-01T13:05:56Z</time>
      </trkpt>
      <trkpt lat="45.94242" lon="4.7321">
        <ele>169</ele>
        <time>2017-08-01T13:05:57Z</time>
      </trkpt>
      <trkpt lat="45.94238" lon="4.73213">
        <ele>169</ele>
        <time>2017-08-01T13:05:58Z</time>
      </trkpt>
      <trkpt lat="45.94234" lon="4.73217">
        <ele>169</ele>
        <time>2017-08-01T13:05:59Z</time>
      </trkpt>
      <trkpt lat="45.9423" lon="4.73221">
        <ele>169</ele>
        <time>2017-08-01T13:06:00Z</time>
      </trkpt>
      <trkpt lat="45.94225" lon="4.73224">
        <ele>169</ele>
        <time>2017-08-01T13:06:01Z</time>
      </trkpt>
      <trkpt lat="45.94221" lon="4.73227">
        <ele>169</ele>
        <time>2017-08-01T13:06:02Z</time>
      </trkpt>
      <trkpt lat="45.94217" lon="4.7323">
        <ele>169</ele>
        <time>2017-08-01T13:06:03Z</time>
      </trkpt>
      <trkpt lat="45.94212" lon="4.73233">
        <ele>169</ele>
        <time>2017-08-01T13:06:04Z</time>
      </trkpt>
      <trkpt lat="45.94208" lon="4.73236">
        <ele>169</ele>
        <time>2017-08-01T13:06:05Z</time>
      </trkpt>
      <trkpt lat="45.94204" lon="4.73239">
        <ele>169</ele>
        <time>2017-08-01T13:06:06Z</time>
      </trkpt>
      <trkpt lat="45.942" lon="4.73243">
        <ele>169</ele>
        <time>2017-08-01T13:06:07Z</time>
      </trkpt>
      <trkpt lat="45.94196" lon="4.73247">
        <ele>169</ele>
        <time>2017-08-01T13:06:08Z</time>
      </trkpt>
      <trkpt lat="45.9419" lon="4.73253">
        <ele>172</ele>
        <time>2017-08-01T13:06:10Z</time>
      </trkpt>
      <trkpt lat="45.94187" lon="4.73256">
        <ele>172</ele>
        <time>2017-08-01T13:06:11Z</time>
      </trkpt>
      <trkpt lat="45.9418" lon="4.73263">
        <ele>172</ele>
        <time>2017-08-01T13:06:13Z</time>
      </trkpt>
      <trkpt lat="45.94176" lon="4.73266">
        <ele>172</ele>
        <time>2017-08-01T13:06:14Z</time>
      </trkpt>
      <trkpt lat="45.94171" lon="4.73269">
        <ele>172</ele>
        <time>2017-08-01T13:06:15Z</time>
      </trkpt>
      <trkpt lat="45.94168" lon="4.73274">
        <ele>172</ele>
        <time>2017-08-01T13:06:16Z</time>
      </trkpt>
      <trkpt lat="45.94164" lon="4.7328">
        <ele>170</ele>
        <time>2017-08-01T13:06:17Z</time>
      </trkpt>
      <trkpt lat="45.9416" lon="4.73284">
        <ele>170</ele>
        <time>2017-08-01T13:06:18Z</time>
      </trkpt>
      <trkpt lat="45.94155" lon="4.73289">
        <ele>170</ele>
        <time>2017-08-01T13:06:19Z</time>
      </trkpt>
      <trkpt lat="45.94152" lon="4.73293">
        <ele>170</ele>
        <time>2017-08-01T13:06:20Z</time>
      </trkpt>
      <trkpt lat="45.94146" lon="4.73302">
        <ele>171</ele>
        <time>2017-08-01T13:06:22Z</time>
      </trkpt>
      <trkpt lat="45.94143" lon="4.73307">
        <ele>171</ele>
        <time>2017-08-01T13:06:23Z</time>
      </trkpt>
      <trkpt lat="45.94139" lon="4.73311">
        <ele>171</ele>
        <time>2017-08-01T13:06:24Z</time>
      </trkpt>
      <trkpt lat="45.94135" lon="4.73316">
        <ele>171</ele>
        <time>2017-08-01T13:06:25Z</time>
      </trkpt>
      <trkpt lat="45.94132" lon="4.73321">
        <ele>171</ele>
        <time>2017-08-01T13:06:26Z</time>
      </trkpt>
      <trkpt lat="45.94129" lon="4.73326">
        <ele>171</ele>
        <time>2017-08-01T13:06:27Z</time>
      </trkpt>
      <trkpt lat="45.94123" lon="4.73334">
        <ele>173</ele>
        <time>2017-08-01T13:06:29Z</time>
      </trkpt>
      <trkpt lat="45.9412" lon="4.73339">
        <ele>173</ele>
        <time>2017-08-01T13:06:30Z</time>
      </trkpt>
      <trkpt lat="45.94117" lon="4.73344">
        <ele>173</ele>
        <time>2017-08-01T13:06:31Z</time>
      </trkpt>
      <trkpt lat="45.94113" lon="4.73349">
        <ele>173</ele>
        <time>2017-08-01T13:06:32Z</time>
      </trkpt>
      <trkpt lat="45.94109" lon="4.73354">
        <ele>173</ele>
        <time>2017-08-01T13:06:33Z</time>
      </trkpt>
      <trkpt lat="45.94106" lon="4.73358">
        <ele>173</ele>
        <time>2017-08-01T13:06:34Z</time>
      </trkpt>
      <trkpt lat="45.94103" lon="4.73363">
        <ele>173</ele>
        <time>2017-08-01T13:06:35Z</time>
      </trkpt>
      <trkpt lat="45.941" lon="4.73368">
        <ele>173</ele>
        <time>2017-08-01T13:06:36Z</time>
      </trkpt>
      <trkpt lat="45.94094" lon="4.73377">
        <ele>174</ele>
        <time>2017-08-01T13:06:38Z</time>
      </trkpt>
      <trkpt lat="45.94091" lon="4.73383">
        <ele>174</ele>
        <time>2017-08-01T13:06:39Z</time>
      </trkpt>
      <trkpt lat="45.94088" lon="4.73388">
        <ele>174</ele>
        <time>2017-08-01T13:06:40Z</time>
      </trkpt>
      <trkpt lat="45.94084" lon="4.73393">
        <ele>174</ele>
        <time>2017-08-01T13:06:41Z</time>
      </trkpt>
      <trkpt lat="45.9408" lon="4.73399">
        <ele>172</ele>
        <time>2017-08-01T13:06:42Z</time>
      </trkpt>
      <trkpt lat="45.94077" lon="4.73404">
        <ele>172</ele>
        <time>2017-08-01T13:06:43Z</time>
      </trkpt>
      <trkpt lat="45.94073" lon="4.73409">
        <ele>172</ele>
        <time>2017-08-01T13:06:44Z</time>
      </trkpt>
      <trkpt lat="45.9407" lon="4.73413">
        <ele>172</ele>
        <time>2017-08-01T13:06:45Z</time>
      </trkpt>
      <trkpt lat="45.94066" lon="4.73418">
        <ele>172</ele>
        <time>2017-08-01T13:06:46Z</time>
      </trkpt>
      <trkpt lat="45.94063" lon="4.73423">
        <ele>172</ele>
        <time>2017-08-01T13:06:47Z</time>
      </trkpt>
      <trkpt lat="45.9406" lon="4.73428">
        <ele>172</ele>
        <time>2017-08-01T13:06:48Z</time>
      </trkpt>
      <trkpt lat="45.94056" lon="4.73434">
        <ele>172</ele>
        <time>2017-08-01T13:06:49Z</time>
      </trkpt>
      <trkpt lat="45.94053" lon="4.73441">
        <ele>172</ele>
        <time>2017-08-01T13:06:50Z</time>
      </trkpt>
      <trkpt lat="45.9405" lon="4.73446">
        <ele>171</ele>
        <time>2017-08-01T13:06:51Z</time>
      </trkpt>
      <trkpt lat="45.94046" lon="4.73451">
        <ele>171</ele>
        <time>2017-08-01T13:06:52Z</time>
      </trkpt>
      <trkpt lat="45.94044" lon="4.73457">
        <ele>171</ele>
        <time>2017-08-01T13:06:53Z</time>
      </trkpt>
      <trkpt lat="45.94039" lon="4.73467">
        <ele>171</ele>
        <time>2017-08-01T13:06:55Z</time>
      </trkpt>
      <trkpt lat="45.94037" lon="4.73472">
        <ele>171</ele>
        <time>2017-08-01T13:06:56Z</time>
      </trkpt>
      <trkpt lat="45.94035" lon="4.73478">
        <ele>171</ele>
        <time>2017-08-01T13:06:57Z</time>
      </trkpt>
      <trkpt lat="45.94032" lon="4.73484">
        <ele>171</ele>
        <time>2017-08-01T13:06:58Z</time>
      </trkpt>
      <trkpt lat="45.94029" lon="4.7349">
        <ele>171</ele>
        <time>2017-08-01T13:06:59Z</time>
      </trkpt>
      <trkpt lat="45.94026" lon="4.73495">
        <ele>170</ele>
        <time>2017-08-01T13:07:00Z</time>
      </trkpt>
      <trkpt lat="45.94023" lon="4.735">
        <ele>170</ele>
        <time>2017-08-01T13:07:01Z</time>
      </trkpt>
      <trkpt lat="45.9402" lon="4.73505">
        <ele>171</ele>
        <time>2017-08-01T13:07:02Z</time>
      </trkpt>
      <trkpt lat="45.94014" lon="4.73515">
        <ele>171</ele>
        <time>2017-08-01T13:07:04Z</time>
      </trkpt>
      <trkpt lat="45.94012" lon="4.7352">
        <ele>171</ele>
        <time>2017-08-01T13:07:05Z</time>
      </trkpt>
      <trkpt lat="45.94007" lon="4.73529">
        <ele>171</ele>
        <time>2017-08-01T13:07:07Z</time>
      </trkpt>
      <trkpt lat="45.94005" lon="4.73534">
        <ele>171</ele>
        <time>2017-08-01T13:07:08Z</time>
      </trkpt>
      <trkpt lat="45.94003" lon="4.7354">
        <ele>171</ele>
        <time>2017-08-01T13:07:09Z</time>
      </trkpt>
      <trkpt lat="45.94" lon="4.73545">
        <ele>168</ele>
        <time>2017-08-01T13:07:10Z</time>
      </trkpt>
      <trkpt lat="45.93998" lon="4.73551">
        <ele>168</ele>
        <time>2017-08-01T13:07:11Z</time>
      </trkpt>
      <trkpt lat="45.93996" lon="4.73557">
        <ele>168</ele>
        <time>2017-08-01T13:07:12Z</time>
      </trkpt>
      <trkpt lat="45.93992" lon="4.73567">
        <ele>168</ele>
        <time>2017-08-01T13:07:14Z</time>
      </trkpt>
      <trkpt lat="45.9399" lon="4.73572">
        <ele>168</ele>
        <time>2017-08-01T13:07:15Z</time>
      </trkpt>
      <trkpt lat="45.93988" lon="4.73578">
        <ele>168</ele>
        <time>2017-08-01T13:07:16Z</time>
      </trkpt>
      <trkpt lat="45.93986" lon="4.73584">
        <ele>169</ele>
        <time>2017-08-01T13:07:17Z</time>
      </trkpt>
      <trkpt lat="45.93984" lon="4.73592">
        <ele>169</ele>
        <time>2017-08-01T13:07:18Z</time>
      </trkpt>
      <trkpt lat="45.93982" lon="4.73599">
        <ele>169</ele>
        <time>2017-08-01T13:07:19Z</time>
      </trkpt>
      <trkpt lat="45.9398" lon="4.73605">
        <ele>169</ele>
        <time>2017-08-01T13:07:20Z</time>
      </trkpt>
      <trkpt lat="45.93978" lon="4.73612">
        <ele>170</ele>
        <time>2017-08-01T13:07:21Z</time>
      </trkpt>
      <trkpt lat="45.93976" lon="4.73618">
        <ele>170</ele>
        <time>2017-08-01T13:07:22Z</time>
      </trkpt>
      <trkpt lat="45.93974" lon="4.73624">
        <ele>170</ele>
        <time>2017-08-01T13:07:23Z</time>
      </trkpt>
      <trkpt lat="45.93971" lon="4.73634">
        <ele>170</ele>
        <time>2017-08-01T13:07:25Z</time>
      </trkpt>
      <trkpt lat="45.93969" lon="4.7364">
        <ele>170</ele>
        <time>2017-08-01T13:07:26Z</time>
      </trkpt>
      <trkpt lat="45.93968" lon="4.73647">
        <ele>170</ele>
        <time>2017-08-01T13:07:27Z</time>
      </trkpt>
      <trkpt lat="45.93966" lon="4.73654">
        <ele>170</ele>
        <time>2017-08-01T13:07:28Z</time>
      </trkpt>
      <trkpt lat="45.93965" lon="4.7366">
        <ele>171</ele>
        <time>2017-08-01T13:07:29Z</time>
      </trkpt>
      <trkpt lat="45.93964" lon="4.73666">
        <ele>171</ele>
        <time>2017-08-01T13:07:30Z</time>
      </trkpt>
      <trkpt lat="45.93962" lon="4.73678">
        <ele>172</ele>
        <time>2017-08-01T13:07:32Z</time>
      </trkpt>
      <trkpt lat="45.93961" lon="4.73684">
        <ele>172</ele>
        <time>2017-08-01T13:07:33Z</time>
      </trkpt>
      <trkpt lat="45.9396" lon="4.7369">
        <ele>172</ele>
        <time>2017-08-01T13:07:34Z</time>
      </trkpt>
      <trkpt lat="45.9396" lon="4.73697">
        <ele>172</ele>
        <time>2017-08-01T13:07:35Z</time>
      </trkpt>
      <trkpt lat="45.93958" lon="4.7371">
        <ele>172</ele>
        <time>2017-08-01T13:07:37Z</time>
      </trkpt>
      <trkpt lat="45.93957" lon="4.73715">
        <ele>172</ele>
        <time>2017-08-01T13:07:38Z</time>
      </trkpt>
      <trkpt lat="45.93957" lon="4.73722">
        <ele>172</ele>
        <time>2017-08-01T13:07:39Z</time>
      </trkpt>
      <trkpt lat="45.93956" lon="4.73729">
        <ele>172</ele>
        <time>2017-08-01T13:07:40Z</time>
      </trkpt>
      <trkpt lat="45.93955" lon="4.73736">
        <ele>172</ele>
        <time>2017-08-01T13:07:41Z</time>
      </trkpt>
      <trkpt lat="45.93953" lon="4.73743">
        <ele>172</ele>
        <time>2017-08-01T13:07:42Z</time>
      </trkpt>
      <trkpt lat="45.93953" lon="4.7375">
        <ele>172</ele>
        <time>2017-08-01T13:07:43Z</time>
      </trkpt>
      <trkpt lat="45.93952" lon="4.73757">
        <ele>172</ele>
        <time>2017-08-01T13:07:44Z</time>
      </trkpt>
      <trkpt lat="45.93951" lon="4.73764">
        <ele>172</ele>
        <time>2017-08-01T13:07:45Z</time>
      </trkpt>
      <trkpt lat="45.9395" lon="4.73769">
        <ele>172</ele>
        <time>2017-08-01T13:07:46Z</time>
      </trkpt>
      <trkpt lat="45.93949" lon="4.73782">
        <ele>172</ele>
        <time>2017-08-01T13:07:48Z</time>
      </trkpt>
      <trkpt lat="45.93948" lon="4.73789">
        <ele>172</ele>
        <time>2017-08-01T13:07:49Z</time>
      </trkpt>
      <trkpt lat="45.93947" lon="4.73796">
        <ele>172</ele>
        <time>2017-08-01T13:07:50Z</time>
      </trkpt>
      <trkpt lat="45.93946" lon="4.73803">
        <ele>172</ele>
        <time>2017-08-01T13:07:51Z</time>
      </trkpt>
      <trkpt lat="45.93946" lon="4.73811">
        <ele>172</ele>
        <time>2017-08-01T13:07:52Z</time>
      </trkpt>
      <trkpt lat="45.93945" lon="4.73819">
        <ele>172</ele>
        <time>2017-08-01T13:07:53Z</time>
      </trkpt>
      <trkpt lat="45.93944" lon="4.73826">
        <ele>172</ele>
        <time>2017-08-01T13:07:54Z</time>
      </trkpt>
      <trkpt lat="45.93943" lon="4.73833">
        <ele>171</ele>
        <time>2017-08-01T13:07:55Z</time>
      </trkpt>
      <trkpt lat="45.93943" lon="4.73841">
        <ele>171</ele>
        <time>2017-08-01T13:07:56Z</time>
      </trkpt>
      <trkpt lat="45.93942" lon="4.73847">
        <ele>171</ele>
        <time>2017-08-01T13:07:57Z</time>
      </trkpt>
      <trkpt lat="45.93941" lon="4.73854">
        <ele>172</ele>
        <time>2017-08-01T13:07:58Z</time>
      </trkpt>
      <trkpt lat="45.93941" lon="4.7386">
        <ele>172</ele>
        <time>2017-08-01T13:07:59Z</time>
      </trkpt>
      <trkpt lat="45.9394" lon="4.73867">
        <ele>172</ele>
        <time>2017-08-01T13:08:00Z</time>
      </trkpt>
      <trkpt lat="45.93939" lon="4.73873">
        <ele>172</ele>
        <time>2017-08-01T13:08:01Z</time>
      </trkpt>
      <trkpt lat="45.93939" lon="4.7388">
        <ele>172</ele>
        <time>2017-08-01T13:08:02Z</time>
      </trkpt>
      <trkpt lat="45.93938" lon="4.73888">
        <ele>172</ele>
        <time>2017-08-01T13:08:03Z</time>
      </trkpt>
      <trkpt lat="45.93938" lon="4.73895">
        <ele>172</ele>
        <time>2017-08-01T13:08:04Z</time>
      </trkpt>
      <trkpt lat="45.93937" lon="4.73902">
        <ele>172</ele>
        <time>2017-08-01T13:08:05Z</time>
      </trkpt>
      <trkpt lat="45.93936" lon="4.73914">
        <ele>172</ele>
        <time>2017-08-01T13:08:07Z</time>
      </trkpt>
      <trkpt lat="45.93935" lon="4.7392">
        <ele>171</ele>
        <time>2017-08-01T13:08:08Z</time>
      </trkpt>
      <trkpt lat="45.93934" lon="4.73932">
        <ele>172</ele>
        <time>2017-08-01T13:08:10Z</time>
      </trkpt>
      <trkpt lat="45.93934" lon="4.73939">
        <ele>172</ele>
        <time>2017-08-01T13:08:11Z</time>
      </trkpt>
      <trkpt lat="45.93933" lon="4.73946">
        <ele>172</ele>
        <time>2017-08-01T13:08:12Z</time>
      </trkpt>
      <trkpt lat="45.93932" lon="4.73954">
        <ele>172</ele>
        <time>2017-08-01T13:08:13Z</time>
      </trkpt>
      <trkpt lat="45.9393" lon="4.73961">
        <ele>172</ele>
        <time>2017-08-01T13:08:14Z</time>
      </trkpt>
      <trkpt lat="45.9393" lon="4.73967">
        <ele>172</ele>
        <time>2017-08-01T13:08:15Z</time>
      </trkpt>
      <trkpt lat="45.93928" lon="4.73975">
        <ele>172</ele>
        <time>2017-08-01T13:08:16Z</time>
      </trkpt>
      <trkpt lat="45.93927" lon="4.73981">
        <ele>172</ele>
        <time>2017-08-01T13:08:17Z</time>
      </trkpt>
      <trkpt lat="45.93926" lon="4.73987">
        <ele>172</ele>
        <time>2017-08-01T13:08:18Z</time>
      </trkpt>
      <trkpt lat="45.93926" lon="4.73994">
        <ele>172</ele>
        <time>2017-08-01T13:08:19Z</time>
      </trkpt>
      <trkpt lat="45.93924" lon="4.74006">
        <ele>172</ele>
        <time>2017-08-01T13:08:21Z</time>
      </trkpt>
      <trkpt lat="45.93923" lon="4.74012">
        <ele>171</ele>
        <time>2017-08-01T13:08:22Z</time>
      </trkpt>
      <trkpt lat="45.93921" lon="4.74025">
        <ele>171</ele>
        <time>2017-08-01T13:08:24Z</time>
      </trkpt>
      <trkpt lat="45.9392" lon="4.7403">
        <ele>171</ele>
        <time>2017-08-01T13:08:25Z</time>
      </trkpt>
      <trkpt lat="45.9392" lon="4.74043">
        <ele>171</ele>
        <time>2017-08-01T13:08:27Z</time>
      </trkpt>
      <trkpt lat="45.93919" lon="4.74049">
        <ele>171</ele>
        <time>2017-08-01T13:08:28Z</time>
      </trkpt>
      <trkpt lat="45.93919" lon="4.74057">
        <ele>171</ele>
        <time>2017-08-01T13:08:29Z</time>
      </trkpt>
      <trkpt lat="45.93918" lon="4.74065">
        <ele>170</ele>
        <time>2017-08-01T13:08:30Z</time>
      </trkpt>
      <trkpt lat="45.93918" lon="4.74073">
        <ele>170</ele>
        <time>2017-08-01T13:08:31Z</time>
      </trkpt>
      <trkpt lat="45.93918" lon="4.74081">
        <ele>170</ele>
        <time>2017-08-01T13:08:32Z</time>
      </trkpt>
      <trkpt lat="45.93918" lon="4.7409">
        <ele>170</ele>
        <time>2017-08-01T13:08:33Z</time>
      </trkpt>
      <trkpt lat="45.93917" lon="4.74098">
        <ele>169</ele>
        <time>2017-08-01T13:08:34Z</time>
      </trkpt>
      <trkpt lat="45.93917" lon="4.74105">
        <ele>169</ele>
        <time>2017-08-01T13:08:35Z</time>
      </trkpt>
      <trkpt lat="45.93917" lon="4.74112">
        <ele>170</ele>
        <time>2017-08-01T13:08:36Z</time>
      </trkpt>
      <trkpt lat="45.93916" lon="4.74118">
        <ele>170</ele>
        <time>2017-08-01T13:08:37Z</time>
      </trkpt>
      <trkpt lat="45.93915" lon="4.74125">
        <ele>170</ele>
        <time>2017-08-01T13:08:38Z</time>
      </trkpt>
      <trkpt lat="45.93914" lon="4.74137">
        <ele>169</ele>
        <time>2017-08-01T13:08:40Z</time>
      </trkpt>
      <trkpt lat="45.93913" lon="4.74144">
        <ele>169</ele>
        <time>2017-08-01T13:08:41Z</time>
      </trkpt>
      <trkpt lat="45.93913" lon="4.74151">
        <ele>169</ele>
        <time>2017-08-01T13:08:42Z</time>
      </trkpt>
      <trkpt lat="45.93912" lon="4.74159">
        <ele>169</ele>
        <time>2017-08-01T13:08:43Z</time>
      </trkpt>
      <trkpt lat="45.93912" lon="4.74166">
        <ele>168</ele>
        <time>2017-08-01T13:08:44Z</time>
      </trkpt>
      <trkpt lat="45.93912" lon="4.74174">
        <ele>168</ele>
        <time>2017-08-01T13:08:45Z</time>
      </trkpt>
      <trkpt lat="45.93911" lon="4.74181">
        <ele>169</ele>
        <time>2017-08-01T13:08:46Z</time>
      </trkpt>
      <trkpt lat="45.93911" lon="4.74188">
        <ele>169</ele>
        <time>2017-08-01T13:08:47Z</time>
      </trkpt>
      <trkpt lat="45.93911" lon="4.74195">
        <ele>169</ele>
        <time>2017-08-01T13:08:48Z</time>
      </trkpt>
      <trkpt lat="45.93911" lon="4.74202">
        <ele>169</ele>
        <time>2017-08-01T13:08:49Z</time>
      </trkpt>
      <trkpt lat="45.9391" lon="4.74209">
        <ele>169</ele>
        <time>2017-08-01T13:08:50Z</time>
      </trkpt>
      <trkpt lat="45.9391" lon="4.74215">
        <ele>169</ele>
        <time>2017-08-01T13:08:51Z</time>
      </trkpt>
      <trkpt lat="45.93909" lon="4.74228">
        <ele>170</ele>
        <time>2017-08-01T13:08:53Z</time>
      </trkpt>
      <trkpt lat="45.93908" lon="4.74234">
        <ele>170</ele>
        <time>2017-08-01T13:08:54Z</time>
      </trkpt>
      <trkpt lat="45.93908" lon="4.74241">
        <ele>170</ele>
        <time>2017-08-01T13:08:55Z</time>
      </trkpt>
      <trkpt lat="45.93907" lon="4.74248">
        <ele>170</ele>
        <time>2017-08-01T13:08:56Z</time>
      </trkpt>
      <trkpt lat="45.93907" lon="4.74255">
        <ele>170</ele>
        <time>2017-08-01T13:08:57Z</time>
      </trkpt>
      <trkpt lat="45.93906" lon="4.74262">
        <ele>170</ele>
        <time>2017-08-01T13:08:58Z</time>
      </trkpt>
      <trkpt lat="45.93906" lon="4.74269">
        <ele>170</ele>
        <time>2017-08-01T13:08:59Z</time>
      </trkpt>
      <trkpt lat="45.93905" lon="4.74275">
        <ele>170</ele>
        <time>2017-08-01T13:09:00Z</time>
      </trkpt>
      <trkpt lat="45.93905" lon="4.74288">
        <ele>170</ele>
        <time>2017-08-01T13:09:02Z</time>
      </trkpt>
      <trkpt lat="45.93905" lon="4.74294">
        <ele>170</ele>
        <time>2017-08-01T13:09:03Z</time>
      </trkpt>
      <trkpt lat="45.93906" lon="4.74306">
        <ele>170</ele>
        <time>2017-08-01T13:09:05Z</time>
      </trkpt>
      <trkpt lat="45.93906" lon="4.74313">
        <ele>170</ele>
        <time>2017-08-01T13:09:06Z</time>
      </trkpt>
      <trkpt lat="45.93905" lon="4.7432">
        <ele>170</ele>
        <time>2017-08-01T13:09:07Z</time>
      </trkpt>
      <trkpt lat="45.93905" lon="4.74327">
        <ele>170</ele>
        <time>2017-08-01T13:09:08Z</time>
      </trkpt>
      <trkpt lat="45.93905" lon="4.74334">
        <ele>170</ele>
        <time>2017-08-01T13:09:09Z</time>
      </trkpt>
      <trkpt lat="45.93905" lon="4.74341">
        <ele>170</ele>
        <time>2017-08-01T13:09:10Z</time>
      </trkpt>
      <trkpt lat="45.93905" lon="4.74348">
        <ele>171</ele>
        <time>2017-08-01T13:09:11Z</time>
      </trkpt>
      <trkpt lat="45.93905" lon="4.74354">
        <ele>171</ele>
        <time>2017-08-01T13:09:12Z</time>
      </trkpt>
      <trkpt lat="45.93905" lon="4.74367">
        <ele>171</ele>
        <time>2017-08-01T13:09:14Z</time>
      </trkpt>
      <trkpt lat="45.93905" lon="4.74372">
        <ele>171</ele>
        <time>2017-08-01T13:09:15Z</time>
      </trkpt>
      <trkpt lat="45.93906" lon="4.74384">
        <ele>171</ele>
        <time>2017-08-01T13:09:17Z</time>
      </trkpt>
      <trkpt lat="45.93906" lon="4.7439">
        <ele>171</ele>
        <time>2017-08-01T13:09:18Z</time>
      </trkpt>
      <trkpt lat="45.93907" lon="4.74402">
        <ele>171</ele>
        <time>2017-08-01T13:09:20Z</time>
      </trkpt>
      <trkpt lat="45.93907" lon="4.74408">
        <ele>171</ele>
        <time>2017-08-01T13:09:21Z</time>
      </trkpt>
      <trkpt lat="45.93907" lon="4.74415">
        <ele>171</ele>
        <time>2017-08-01T13:09:22Z</time>
      </trkpt>
      <trkpt lat="45.93907" lon="4.74421">
        <ele>171</ele>
        <time>2017-08-01T13:09:23Z</time>
      </trkpt>
      <trkpt lat="45.93908" lon="4.74434">
        <ele>171</ele>
        <time>2017-08-01T13:09:25Z</time>
      </trkpt>
      <trkpt lat="45.93908" lon="4.74439">
        <ele>171</ele>
        <time>2017-08-01T13:09:26Z</time>
      </trkpt>
      <trkpt lat="45.93909" lon="4.7445">
        <ele>171</ele>
        <time>2017-08-01T13:09:28Z</time>
      </trkpt>
      <trkpt lat="45.93909" lon="4.74456">
        <ele>171</ele>
        <time>2017-08-01T13:09:29Z</time>
      </trkpt>
      <trkpt lat="45.93909" lon="4.74463">
        <ele>171</ele>
        <time>2017-08-01T13:09:30Z</time>
      </trkpt>
      <trkpt lat="45.93909" lon="4.7447">
        <ele>171</ele>
        <time>2017-08-01T13:09:31Z</time>
      </trkpt>
      <trkpt lat="45.9391" lon="4.74477">
        <ele>171</ele>
        <time>2017-08-01T13:09:32Z</time>
      </trkpt>
      <trkpt lat="45.9391" lon="4.74484">
        <ele>171</ele>
        <time>2017-08-01T13:09:33Z</time>
      </trkpt>
      <trkpt lat="45.9391" lon="4.74495">
        <ele>170</ele>
        <time>2017-08-01T13:09:35Z</time>
      </trkpt>
      <trkpt lat="45.9391" lon="4.74501">
        <ele>170</ele>
        <time>2017-08-01T13:09:36Z</time>
      </trkpt>
      <trkpt lat="45.93909" lon="4.74514">
        <ele>170</ele>
        <time>2017-08-01T13:09:38Z</time>
      </trkpt>
      <trkpt lat="45.93909" lon="4.74521">
        <ele>170</ele>
        <time>2017-08-01T13:09:39Z</time>
      </trkpt>
      <trkpt lat="45.93908" lon="4.74533">
        <ele>170</ele>
        <time>2017-08-01T13:09:41Z</time>
      </trkpt>
      <trkpt lat="45.93908" lon="4.74539">
        <ele>170</ele>
        <time>2017-08-01T13:09:42Z</time>
      </trkpt>
      <trkpt lat="45.93906" lon="4.74551">
        <ele>170</ele>
        <time>2017-08-01T13:09:44Z</time>
      </trkpt>
      <trkpt lat="45.93905" lon="4.74558">
        <ele>170</ele>
        <time>2017-08-01T13:09:45Z</time>
      </trkpt>
      <trkpt lat="45.93903" lon="4.74569">
        <ele>170</ele>
        <time>2017-08-01T13:09:47Z</time>
      </trkpt>
      <trkpt lat="45.93902" lon="4.74574">
        <ele>170</ele>
        <time>2017-08-01T13:09:48Z</time>
      </trkpt>
      <trkpt lat="45.93901" lon="4.74585">
        <ele>170</ele>
        <time>2017-08-01T13:09:50Z</time>
      </trkpt>
      <trkpt lat="45.93899" lon="4.7459">
        <ele>170</ele>
        <time>2017-08-01T13:09:51Z</time>
      </trkpt>
      <trkpt lat="45.93898" lon="4.74596">
        <ele>170</ele>
        <time>2017-08-01T13:09:52Z</time>
      </trkpt>
      <trkpt lat="45.93896" lon="4.74603">
        <ele>170</ele>
        <time>2017-08-01T13:09:53Z</time>
      </trkpt>
      <trkpt lat="45.93894" lon="4.74609">
        <ele>170</ele>
        <time>2017-08-01T13:09:54Z</time>
      </trkpt>
      <trkpt lat="45.93892" lon="4.74616">
        <ele>170</ele>
        <time>2017-08-01T13:09:55Z</time>
      </trkpt>
      <trkpt lat="45.9389" lon="4.74623">
        <ele>170</ele>
        <time>2017-08-01T13:09:56Z</time>
      </trkpt>
      <trkpt lat="45.93888" lon="4.74629">
        <ele>170</ele>
        <time>2017-08-01T13:09:57Z</time>
      </trkpt>
      <trkpt lat="45.93886" lon="4.74636">
        <ele>170</ele>
        <time>2017-08-01T13:09:58Z</time>
      </trkpt>
      <trkpt lat="45.93884" lon="4.74642">
        <ele>170</ele>
        <time>2017-08-01T13:09:59Z</time>
      </trkpt>
      <trkpt lat="45.93882" lon="4.74648">
        <ele>170</ele>
        <time>2017-08-01T13:10:00Z</time>
      </trkpt>
      <trkpt lat="45.9388" lon="4.74653">
        <ele>170</ele>
        <time>2017-08-01T13:10:01Z</time>
      </trkpt>
      <trkpt lat="45.93878" lon="4.74659">
        <ele>170</ele>
        <time>2017-08-01T13:10:02Z</time>
      </trkpt>
      <trkpt lat="45.93876" lon="4.74666">
        <ele>170</ele>
        <time>2017-08-01T13:10:03Z</time>
      </trkpt>
      <trkpt lat="45.93874" lon="4.74672">
        <ele>170</ele>
        <time>2017-08-01T13:10:04Z</time>
      </trkpt>
      <trkpt lat="45.93871" lon="4.74679">
        <ele>170</ele>
        <time>2017-08-01T13:10:05Z</time>
      </trkpt>
      <trkpt lat="45.93869" lon="4.74686">
        <ele>170</ele>
        <time>2017-08-01T13:10:06Z</time>
      </trkpt>
      <trkpt lat="45.93867" lon="4.74692">
        <ele>170</ele>
        <time>2017-08-01T13:10:07Z</time>
      </trkpt>
      <trkpt lat="45.93864" lon="4.74698">
        <ele>169</ele>
        <time>2017-08-01T13:10:08Z</time>
      </trkpt>
      <trkpt lat="45.93862" lon="4.74704">
        <ele>169</ele>
        <time>2017-08-01T13:10:09Z</time>
      </trkpt>
      <trkpt lat="45.93858" lon="4.74714">
        <ele>169</ele>
        <time>2017-08-01T13:10:11Z</time>
      </trkpt>
      <trkpt lat="45.93856" lon="4.74719">
        <ele>169</ele>
        <time>2017-08-01T13:10:12Z</time>
      </trkpt>
      <trkpt lat="45.93852" lon="4.74729">
        <ele>169</ele>
        <time>2017-08-01T13:10:14Z</time>
      </trkpt>
      <trkpt lat="45.9385" lon="4.74733">
        <ele>169</ele>
        <time>2017-08-01T13:10:15Z</time>
      </trkpt>
      <trkpt lat="45.93845" lon="4.74743">
        <ele>169</ele>
        <time>2017-08-01T13:10:17Z</time>
      </trkpt>
      <trkpt lat="45.93842" lon="4.74747">
        <ele>168</ele>
        <time>2017-08-01T13:10:18Z</time>
      </trkpt>
      <trkpt lat="45.9384" lon="4.74753">
        <ele>168</ele>
        <time>2017-08-01T13:10:19Z</time>
      </trkpt>
      <trkpt lat="45.93837" lon="4.74758">
        <ele>168</ele>
        <time>2017-08-01T13:10:20Z</time>
      </trkpt>
      <trkpt lat="45.93834" lon="4.74764">
        <ele>168</ele>
        <time>2017-08-01T13:10:21Z</time>
      </trkpt>
      <trkpt lat="45.93832" lon="4.74769">
        <ele>168</ele>
        <time>2017-08-01T13:10:22Z</time>
      </trkpt>
      <trkpt lat="45.93828" lon="4.74779">
        <ele>167</ele>
        <time>2017-08-01T13:10:24Z</time>
      </trkpt>
      <trkpt lat="45.93826" lon="4.74783">
        <ele>167</ele>
        <time>2017-08-01T13:10:25Z</time>
      </trkpt>
      <trkpt lat="45.9382" lon="4.74792">
        <ele>167</ele>
        <time>2017-08-01T13:10:27Z</time>
      </trkpt>
      <trkpt lat="45.93818" lon="4.74798">
        <ele>167</ele>
        <time>2017-08-01T13:10:28Z</time>
      </trkpt>
      <trkpt lat="45.93815" lon="4.74803">
        <ele>167</ele>
        <time>2017-08-01T13:10:29Z</time>
      </trkpt>
      <trkpt lat="45.93811" lon="4.74809">
        <ele>167</ele>
        <time>2017-08-01T13:10:30Z</time>
      </trkpt>
      <trkpt lat="45.93808" lon="4.74815">
        <ele>167</ele>
        <time>2017-08-01T13:10:31Z</time>
      </trkpt>
      <trkpt lat="45.93805" lon="4.7482">
        <ele>167</ele>
        <time>2017-08-01T13:10:32Z</time>
      </trkpt>
      <trkpt lat="45.93799" lon="4.74829">
        <ele>167</ele>
        <time>2017-08-01T13:10:34Z</time>
      </trkpt>
      <trkpt lat="45.93796" lon="4.74834">
        <ele>168</ele>
        <time>2017-08-01T13:10:35Z</time>
      </trkpt>
      <trkpt lat="45.93793" lon="4.7484">
        <ele>168</ele>
        <time>2017-08-01T13:10:36Z</time>
      </trkpt>
      <trkpt lat="45.9379" lon="4.74845">
        <ele>168</ele>
        <time>2017-08-01T13:10:37Z</time>
      </trkpt>
      <trkpt lat="45.93787" lon="4.7485">
        <ele>168</ele>
        <time>2017-08-01T13:10:38Z</time>
      </trkpt>
      <trkpt lat="45.93784" lon="4.74857">
        <ele>168</ele>
        <time>2017-08-01T13:10:39Z</time>
      </trkpt>
      <trkpt lat="45.93781" lon="4.74863">
        <ele>168</ele>
        <time>2017-08-01T13:10:40Z</time>
      </trkpt>
      <trkpt lat="45.93778" lon="4.74869">
        <ele>168</ele>
        <time>2017-08-01T13:10:41Z</time>
      </trkpt>
      <trkpt lat="45.93775" lon="4.74874">
        <ele>168</ele>
        <time>2017-08-01T13:10:42Z</time>
      </trkpt>
      <trkpt lat="45.93771" lon="4.74879">
        <ele>169</ele>
        <time>2017-08-01T13:10:43Z</time>
      </trkpt>
      <trkpt lat="45.93768" lon="4.74884">
        <ele>169</ele>
        <time>2017-08-01T13:10:44Z</time>
      </trkpt>
      <trkpt lat="45.93765" lon="4.74889">
        <ele>169</ele>
        <time>2017-08-01T13:10:45Z</time>
      </trkpt>
      <trkpt lat="45.9376" lon="4.74899">
        <ele>169</ele>
        <time>2017-08-01T13:10:47Z</time>
      </trkpt>
      <trkpt lat="45.93757" lon="4.74905">
        <ele>170</ele>
        <time>2017-08-01T13:10:48Z</time>
      </trkpt>
      <trkpt lat="45.93754" lon="4.74911">
        <ele>170</ele>
        <time>2017-08-01T13:10:49Z</time>
      </trkpt>
      <trkpt lat="45.93752" lon="4.74918">
        <ele>171</ele>
        <time>2017-08-01T13:10:50Z</time>
      </trkpt>
      <trkpt lat="45.93749" lon="4.74924">
        <ele>170</ele>
        <time>2017-08-01T13:10:51Z</time>
      </trkpt>
      <trkpt lat="45.93746" lon="4.74931">
        <ele>170</ele>
        <time>2017-08-01T13:10:52Z</time>
      </trkpt>
      <trkpt lat="45.93744" lon="4.74938">
        <ele>169</ele>
        <time>2017-08-01T13:10:53Z</time>
      </trkpt>
      <trkpt lat="45.93741" lon="4.74945">
        <ele>169</ele>
        <time>2017-08-01T13:10:54Z</time>
      </trkpt>
      <trkpt lat="45.93739" lon="4.74951">
        <ele>169</ele>
        <time>2017-08-01T13:10:55Z</time>
      </trkpt>
      <trkpt lat="45.93736" lon="4.74957">
        <ele>169</ele>
        <time>2017-08-01T13:10:56Z</time>
      </trkpt>
      <trkpt lat="45.93731" lon="4.74967">
        <ele>168</ele>
        <time>2017-08-01T13:10:58Z</time>
      </trkpt>
      <trkpt lat="45.93728" lon="4.74973">
        <ele>168</ele>
        <time>2017-08-01T13:10:59Z</time>
      </trkpt>
      <trkpt lat="45.93723" lon="4.74984">
        <ele>168</ele>
        <time>2017-08-01T13:11:01Z</time>
      </trkpt>
      <trkpt lat="45.93721" lon="4.74989">
        <ele>168</ele>
        <time>2017-08-01T13:11:02Z</time>
      </trkpt>
      <trkpt lat="45.93717" lon="4.74998">
        <ele>168</ele>
        <time>2017-08-01T13:11:04Z</time>
      </trkpt>
      <trkpt lat="45.93715" lon="4.75002">
        <ele>168</ele>
        <time>2017-08-01T13:11:05Z</time>
      </trkpt>
      <trkpt lat="45.93711" lon="4.75011">
        <ele>167</ele>
        <time>2017-08-01T13:11:07Z</time>
      </trkpt>
      <trkpt lat="45.93709" lon="4.75016">
        <ele>167</ele>
        <time>2017-08-01T13:11:08Z</time>
      </trkpt>
      <trkpt lat="45.93704" lon="4.75027">
        <ele>167</ele>
        <time>2017-08-01T13:11:10Z</time>
      </trkpt>
      <trkpt lat="45.93702" lon="4.75032">
        <ele>167</ele>
        <time>2017-08-01T13:11:11Z</time>
      </trkpt>
      <trkpt lat="45.93697" lon="4.75041">
        <ele>167</ele>
        <time>2017-08-01T13:11:13Z</time>
      </trkpt>
      <trkpt lat="45.93695" lon="4.75044">
        <ele>167</ele>
        <time>2017-08-01T13:11:14Z</time>
      </trkpt>
      <trkpt lat="45.9369" lon="4.75053">
        <ele>167</ele>
        <time>2017-08-01T13:11:16Z</time>
      </trkpt>
      <trkpt lat="45.93688" lon="4.75059">
        <ele>167</ele>
        <time>2017-08-01T13:11:17Z</time>
      </trkpt>
      <trkpt lat="45.93686" lon="4.75065">
        <ele>167</ele>
        <time>2017-08-01T13:11:18Z</time>
      </trkpt>
      <trkpt lat="45.93683" lon="4.75071">
        <ele>167</ele>
        <time>2017-08-01T13:11:19Z</time>
      </trkpt>
      <trkpt lat="45.93679" lon="4.75082">
        <ele>167</ele>
        <time>2017-08-01T13:11:21Z</time>
      </trkpt>
      <trkpt lat="45.93676" lon="4.75087">
        <ele>167</ele>
        <time>2017-08-01T13:11:22Z</time>
      </trkpt>
      <trkpt lat="45.93672" lon="4.75096">
        <ele>168</ele>
        <time>2017-08-01T13:11:24Z</time>
      </trkpt>
      <trkpt lat="45.93669" lon="4.75101">
        <ele>168</ele>
        <time>2017-08-01T13:11:25Z</time>
      </trkpt>
      <trkpt lat="45.93666" lon="4.75106">
        <ele>167</ele>
        <time>2017-08-01T13:11:26Z</time>
      </trkpt>
      <trkpt lat="45.93663" lon="4.75112">
        <ele>167</ele>
        <time>2017-08-01T13:11:27Z</time>
      </trkpt>
      <trkpt lat="45.93659" lon="4.75123">
        <ele>168</ele>
        <time>2017-08-01T13:11:29Z</time>
      </trkpt>
      <trkpt lat="45.93656" lon="4.75128">
        <ele>168</ele>
        <time>2017-08-01T13:11:30Z</time>
      </trkpt>
      <trkpt lat="45.93652" lon="4.75138">
        <ele>168</ele>
        <time>2017-08-01T13:11:32Z</time>
      </trkpt>
      <trkpt lat="45.9365" lon="4.75143">
        <ele>168</ele>
        <time>2017-08-01T13:11:33Z</time>
      </trkpt>
      <trkpt lat="45.93648" lon="4.75148">
        <ele>168</ele>
        <time>2017-08-01T13:11:34Z</time>
      </trkpt>
      <trkpt lat="45.93645" lon="4.75154">
        <ele>168</ele>
        <time>2017-08-01T13:11:35Z</time>
      </trkpt>
      <trkpt lat="45.93643" lon="4.75161">
        <ele>168</ele>
        <time>2017-08-01T13:11:36Z</time>
      </trkpt>
      <trkpt lat="45.93641" lon="4.75167">
        <ele>168</ele>
        <time>2017-08-01T13:11:37Z</time>
      </trkpt>
      <trkpt lat="45.93637" lon="4.75178">
        <ele>168</ele>
        <time>2017-08-01T13:11:39Z</time>
      </trkpt>
      <trkpt lat="45.93635" lon="4.75183">
        <ele>168</ele>
        <time>2017-08-01T13:11:40Z</time>
      </trkpt>
      <trkpt lat="45.93632" lon="4.75194">
        <ele>168</ele>
        <time>2017-08-01T13:11:42Z</time>
      </trkpt>
      <trkpt lat="45.9363" lon="4.752">
        <ele>168</ele>
        <time>2017-08-01T13:11:43Z</time>
      </trkpt>
      <trkpt lat="45.93629" lon="4.75206">
        <ele>168</ele>
        <time>2017-08-01T13:11:44Z</time>
      </trkpt>
      <trkpt lat="45.93626" lon="4.75213">
        <ele>167</ele>
        <time>2017-08-01T13:11:45Z</time>
      </trkpt>
      <trkpt lat="45.93625" lon="4.75219">
        <ele>167</ele>
        <time>2017-08-01T13:11:46Z</time>
      </trkpt>
      <trkpt lat="45.93622" lon="4.75226">
        <ele>167</ele>
        <time>2017-08-01T13:11:47Z</time>
      </trkpt>
      <trkpt lat="45.9362" lon="4.75232">
        <ele>167</ele>
        <time>2017-08-01T13:11:48Z</time>
      </trkpt>
      <trkpt lat="45.93618" lon="4.75237">
        <ele>167</ele>
        <time>2017-08-01T13:11:49Z</time>
      </trkpt>
      <trkpt lat="45.93614" lon="4.75247">
        <ele>167</ele>
        <time>2017-08-01T13:11:51Z</time>
      </trkpt>
      <trkpt lat="45.93612" lon="4.7525">
        <ele>168</ele>
        <time>2017-08-01T13:11:52Z</time>
      </trkpt>
      <trkpt lat="45.93609" lon="4.75261">
        <ele>168</ele>
        <time>2017-08-01T13:11:54Z</time>
      </trkpt>
      <trkpt lat="45.93608" lon="4.75265">
        <ele>168</ele>
        <time>2017-08-01T13:11:55Z</time>
      </trkpt>
      <trkpt lat="45.93607" lon="4.75276">
        <ele>168</ele>
        <time>2017-08-01T13:11:57Z</time>
      </trkpt>
      <trkpt lat="45.93606" lon="4.75282">
        <ele>168</ele>
        <time>2017-08-01T13:11:58Z</time>
      </trkpt>
      <trkpt lat="45.93605" lon="4.7529">
        <ele>168</ele>
        <time>2017-08-01T13:11:59Z</time>
      </trkpt>
      <trkpt lat="45.93604" lon="4.75297">
        <ele>168</ele>
        <time>2017-08-01T13:12:00Z</time>
      </trkpt>
      <trkpt lat="45.93602" lon="4.75304">
        <ele>169</ele>
        <time>2017-08-01T13:12:01Z</time>
      </trkpt>
      <trkpt lat="45.93602" lon="4.75311">
        <ele>169</ele>
        <time>2017-08-01T13:12:02Z</time>
      </trkpt>
      <trkpt lat="45.93598" lon="4.75321">
        <ele>169</ele>
        <time>2017-08-01T13:12:04Z</time>
      </trkpt>
      <trkpt lat="45.93597" lon="4.75327">
        <ele>169</ele>
        <time>2017-08-01T13:12:05Z</time>
      </trkpt>
      <trkpt lat="45.93595" lon="4.75333">
        <ele>169</ele>
        <time>2017-08-01T13:12:06Z</time>
      </trkpt>
      <trkpt lat="45.93593" lon="4.7534">
        <ele>170</ele>
        <time>2017-08-01T13:12:07Z</time>
      </trkpt>
      <trkpt lat="45.93592" lon="4.75346">
        <ele>169</ele>
        <time>2017-08-01T13:12:08Z</time>
      </trkpt>
      <trkpt lat="45.93592" lon="4.75353">
        <ele>169</ele>
        <time>2017-08-01T13:12:09Z</time>
      </trkpt>
      <trkpt lat="45.9359" lon="4.75365">
        <ele>169</ele>
        <time>2017-08-01T13:12:11Z</time>
      </trkpt>
      <trkpt lat="45.93589" lon="4.7537">
        <ele>169</ele>
        <time>2017-08-01T13:12:12Z</time>
      </trkpt>
      <trkpt lat="45.93589" lon="4.75382">
        <ele>169</ele>
        <time>2017-08-01T13:12:14Z</time>
      </trkpt>
      <trkpt lat="45.93589" lon="4.75387">
        <ele>169</ele>
        <time>2017-08-01T13:12:15Z</time>
      </trkpt>
      <trkpt lat="45.93589" lon="4.75399">
        <ele>169</ele>
        <time>2017-08-01T13:12:17Z</time>
      </trkpt>
      <trkpt lat="45.93588" lon="4.75406">
        <ele>168</ele>
        <time>2017-08-01T13:12:18Z</time>
      </trkpt>
      <trkpt lat="45.93587" lon="4.75413">
        <ele>168</ele>
        <time>2017-08-01T13:12:19Z</time>
      </trkpt>
      <trkpt lat="45.93586" lon="4.75419">
        <ele>168</ele>
        <time>2017-08-01T13:12:20Z</time>
      </trkpt>
      <trkpt lat="45.93583" lon="4.75429">
        <ele>168</ele>
        <time>2017-08-01T13:12:22Z</time>
      </trkpt>
      <trkpt lat="45.93581" lon="4.75436">
        <ele>168</ele>
        <time>2017-08-01T13:12:23Z</time>
      </trkpt>
      <trkpt lat="45.93578" lon="4.75444">
        <ele>168</ele>
        <time>2017-08-01T13:12:24Z</time>
      </trkpt>
      <trkpt lat="45.93577" lon="4.7545">
        <ele>168</ele>
        <time>2017-08-01T13:12:25Z</time>
      </trkpt>
      <trkpt lat="45.93574" lon="4.7546">
        <ele>168</ele>
        <time>2017-08-01T13:12:27Z</time>
      </trkpt>
      <trkpt lat="45.93573" lon="4.75468">
        <ele>168</ele>
        <time>2017-08-01T13:12:28Z</time>
      </trkpt>
      <trkpt lat="45.93572" lon="4.7548">
        <ele>168</ele>
        <time>2017-08-01T13:12:30Z</time>
      </trkpt>
      <trkpt lat="45.93571" lon="4.75486">
        <ele>169</ele>
        <time>2017-08-01T13:12:31Z</time>
      </trkpt>
      <trkpt lat="45.9357" lon="4.75493">
        <ele>169</ele>
        <time>2017-08-01T13:12:32Z</time>
      </trkpt>
      <trkpt lat="45.9357" lon="4.75501">
        <ele>169</ele>
        <time>2017-08-01T13:12:33Z</time>
      </trkpt>
      <trkpt lat="45.93569" lon="4.75508">
        <ele>169</ele>
        <time>2017-08-01T13:12:34Z</time>
      </trkpt>
      <trkpt lat="45.93569" lon="4.75514">
        <ele>169</ele>
        <time>2017-08-01T13:12:35Z</time>
      </trkpt>
      <trkpt lat="45.93567" lon="4.75526">
        <ele>169</ele>
        <time>2017-08-01T13:12:37Z</time>
      </trkpt>
      <trkpt lat="45.93566" lon="4.75531">
        <ele>169</ele>
        <time>2017-08-01T13:12:38Z</time>
      </trkpt>
      <trkpt lat="45.93564" lon="4.75543">
        <ele>169</ele>
        <time>2017-08-01T13:12:40Z</time>
      </trkpt>
      <trkpt lat="45.93563" lon="4.75549">
        <ele>169</ele>
        <time>2017-08-01T13:12:41Z</time>
      </trkpt>
      <trkpt lat="45.93562" lon="4.75555">
        <ele>169</ele>
        <time>2017-08-01T13:12:42Z</time>
      </trkpt>
      <trkpt lat="45.9356" lon="4.75561">
        <ele>169</ele>
        <time>2017-08-01T13:12:43Z</time>
      </trkpt>
      <trkpt lat="45.93558" lon="4.75573">
        <ele>169</ele>
        <time>2017-08-01T13:12:45Z</time>
      </trkpt>
      <trkpt lat="45.93557" lon="4.75579">
        <ele>170</ele>
        <time>2017-08-01T13:12:46Z</time>
      </trkpt>
      <trkpt lat="45.93554" lon="4.75589">
        <ele>170</ele>
        <time>2017-08-01T13:12:48Z</time>
      </trkpt>
      <trkpt lat="45.93554" lon="4.75594">
        <ele>170</ele>
        <time>2017-08-01T13:12:49Z</time>
      </trkpt>
      <trkpt lat="45.93552" lon="4.75605">
        <ele>170</ele>
        <time>2017-08-01T13:12:51Z</time>
      </trkpt>
      <trkpt lat="45.93551" lon="4.75611">
        <ele>170</ele>
        <time>2017-08-01T13:12:52Z</time>
      </trkpt>
      <trkpt lat="45.93548" lon="4.75623">
        <ele>170</ele>
        <time>2017-08-01T13:12:54Z</time>
      </trkpt>
      <trkpt lat="45.93546" lon="4.75628">
        <ele>170</ele>
        <time>2017-08-01T13:12:55Z</time>
      </trkpt>
      <trkpt lat="45.93544" lon="4.75638">
        <ele>170</ele>
        <time>2017-08-01T13:12:57Z</time>
      </trkpt>
      <trkpt lat="45.93543" lon="4.75644">
        <ele>170</ele>
        <time>2017-08-01T13:12:58Z</time>
      </trkpt>
      <trkpt lat="45.9354" lon="4.75654">
        <ele>170</ele>
        <time>2017-08-01T13:13:00Z</time>
      </trkpt>
      <trkpt lat="45.93538" lon="4.7566">
        <ele>169</ele>
        <time>2017-08-01T13:13:01Z</time>
      </trkpt>
      <trkpt lat="45.93537" lon="4.75666">
        <ele>169</ele>
        <time>2017-08-01T13:13:02Z</time>
      </trkpt>
      <trkpt lat="45.93536" lon="4.75672">
        <ele>170</ele>
        <time>2017-08-01T13:13:03Z</time>
      </trkpt>
      <trkpt lat="45.93535" lon="4.75679">
        <ele>170</ele>
        <time>2017-08-01T13:13:04Z</time>
      </trkpt>
      <trkpt lat="45.93533" lon="4.75685">
        <ele>169</ele>
        <time>2017-08-01T13:13:05Z</time>
      </trkpt>
      <trkpt lat="45.93532" lon="4.75697">
        <ele>169</ele>
        <time>2017-08-01T13:13:07Z</time>
      </trkpt>
      <trkpt lat="45.93531" lon="4.75702">
        <ele>169</ele>
        <time>2017-08-01T13:13:08Z</time>
      </trkpt>
      <trkpt lat="45.93529" lon="4.75713">
        <ele>169</ele>
        <time>2017-08-01T13:13:10Z</time>
      </trkpt>
      <trkpt lat="45.93528" lon="4.75718">
        <ele>169</ele>
        <time>2017-08-01T13:13:11Z</time>
      </trkpt>
      <trkpt lat="45.93525" lon="4.75727">
        <ele>169</ele>
        <time>2017-08-01T13:13:13Z</time>
      </trkpt>
      <trkpt lat="45.93524" lon="4.75731">
        <ele>169</ele>
        <time>2017-08-01T13:13:14Z</time>
      </trkpt>
      <trkpt lat="45.93521" lon="4.75738">
        <ele>169</ele>
        <time>2017-08-01T13:13:16Z</time>
      </trkpt>
      <trkpt lat="45.9352" lon="4.75743">
        <ele>168</ele>
        <time>2017-08-01T13:13:17Z</time>
      </trkpt>
      <trkpt lat="45.93518" lon="4.75752">
        <ele>168</ele>
        <time>2017-08-01T13:13:19Z</time>
      </trkpt>
      <trkpt lat="45.93518" lon="4.75758">
        <ele>168</ele>
        <time>2017-08-01T13:13:20Z</time>
      </trkpt>
      <trkpt lat="45.93517" lon="4.75764">
        <ele>168</ele>
        <time>2017-08-01T13:13:21Z</time>
      </trkpt>
      <trkpt lat="45.93516" lon="4.75771">
        <ele>168</ele>
        <time>2017-08-01T13:13:22Z</time>
      </trkpt>
      <trkpt lat="45.93516" lon="4.75783">
        <ele>169</ele>
        <time>2017-08-01T13:13:24Z</time>
      </trkpt>
      <trkpt lat="45.93516" lon="4.75788">
        <ele>169</ele>
        <time>2017-08-01T13:13:25Z</time>
      </trkpt>
      <trkpt lat="45.93515" lon="4.75795">
        <ele>169</ele>
        <time>2017-08-01T13:13:26Z</time>
      </trkpt>
      <trkpt lat="45.93516" lon="4.75805">
        <ele>169</ele>
        <time>2017-08-01T13:13:27Z</time>
      </trkpt>
      <trkpt lat="45.93518" lon="4.75817">
        <ele>168</ele>
        <time>2017-08-01T13:13:29Z</time>
      </trkpt>
      <trkpt lat="45.93519" lon="4.75823">
        <ele>168</ele>
        <time>2017-08-01T13:13:30Z</time>
      </trkpt>
      <trkpt lat="45.9352" lon="4.75833">
        <ele>168</ele>
        <time>2017-08-01T13:13:32Z</time>
      </trkpt>
      <trkpt lat="45.93521" lon="4.7584">
        <ele>168</ele>
        <time>2017-08-01T13:13:33Z</time>
      </trkpt>
      <trkpt lat="45.93523" lon="4.75849">
        <ele>168</ele>
        <time>2017-08-01T13:13:34Z</time>
      </trkpt>
      <trkpt lat="45.93525" lon="4.75858">
        <ele>168</ele>
        <time>2017-08-01T13:13:35Z</time>
      </trkpt>
      <trkpt lat="45.93527" lon="4.75866">
        <ele>168</ele>
        <time>2017-08-01T13:13:36Z</time>
      </trkpt>
      <trkpt lat="45.9353" lon="4.75873">
        <ele>168</ele>
        <time>2017-08-01T13:13:37Z</time>
      </trkpt>
      <trkpt lat="45.93532" lon="4.75881">
        <ele>168</ele>
        <time>2017-08-01T13:13:38Z</time>
      </trkpt>
      <trkpt lat="45.93533" lon="4.75888">
        <ele>168</ele>
        <time>2017-08-01T13:13:39Z</time>
      </trkpt>
      <trkpt lat="45.93536" lon="4.75899">
        <ele>168</ele>
        <time>2017-08-01T13:13:41Z</time>
      </trkpt>
      <trkpt lat="45.93538" lon="4.75905">
        <ele>168</ele>
        <time>2017-08-01T13:13:42Z</time>
      </trkpt>
      <trkpt lat="45.93542" lon="4.75915">
        <ele>168</ele>
        <time>2017-08-01T13:13:44Z</time>
      </trkpt>
      <trkpt lat="45.93545" lon="4.75921">
        <ele>168</ele>
        <time>2017-08-01T13:13:45Z</time>
      </trkpt>
      <trkpt lat="45.93547" lon="4.75929">
        <ele>169</ele>
        <time>2017-08-01T13:13:46Z</time>
      </trkpt>
      <trkpt lat="45.93549" lon="4.75937">
        <ele>169</ele>
        <time>2017-08-01T13:13:47Z</time>
      </trkpt>
      <trkpt lat="45.93552" lon="4.75943">
        <ele>169</ele>
        <time>2017-08-01T13:13:48Z</time>
      </trkpt>
      <trkpt lat="45.93554" lon="4.7595">
        <ele>169</ele>
        <time>2017-08-01T13:13:49Z</time>
      </trkpt>
      <trkpt lat="45.93558" lon="4.75962">
        <ele>169</ele>
        <time>2017-08-01T13:13:51Z</time>
      </trkpt>
      <trkpt lat="45.9356" lon="4.75967">
        <ele>169</ele>
        <time>2017-08-01T13:13:52Z</time>
      </trkpt>
      <trkpt lat="45.93564" lon="4.75977">
        <ele>169</ele>
        <time>2017-08-01T13:13:54Z</time>
      </trkpt>
      <trkpt lat="45.93567" lon="4.75982">
        <ele>170</ele>
        <time>2017-08-01T13:13:55Z</time>
      </trkpt>
      <trkpt lat="45.93569" lon="4.75988">
        <ele>170</ele>
        <time>2017-08-01T13:13:56Z</time>
      </trkpt>
      <trkpt lat="45.93571" lon="4.75995">
        <ele>171</ele>
        <time>2017-08-01T13:13:57Z</time>
      </trkpt>
      <trkpt lat="45.93574" lon="4.76002">
        <ele>171</ele>
        <time>2017-08-01T13:13:58Z</time>
      </trkpt>
      <trkpt lat="45.93575" lon="4.76009">
        <ele>171</ele>
        <time>2017-08-01T13:13:59Z</time>
      </trkpt>
      <trkpt lat="45.93577" lon="4.76015">
        <ele>170</ele>
        <time>2017-08-01T13:14:00Z</time>
      </trkpt>
      <trkpt lat="45.93579" lon="4.76021">
        <ele>170</ele>
        <time>2017-08-01T13:14:01Z</time>
      </trkpt>
      <trkpt lat="45.93581" lon="4.76026">
        <ele>170</ele>
        <time>2017-08-01T13:14:02Z</time>
      </trkpt>
      <trkpt lat="45.93584" lon="4.76032">
        <ele>170</ele>
        <time>2017-08-01T13:14:03Z</time>
      </trkpt>
      <trkpt lat="45.93586" lon="4.76039">
        <ele>170</ele>
        <time>2017-08-01T13:14:04Z</time>
      </trkpt>
      <trkpt lat="45.93588" lon="4.76046">
        <ele>170</ele>
        <time>2017-08-01T13:14:05Z</time>
      </trkpt>
      <trkpt lat="45.93592" lon="4.76057">
        <ele>170</ele>
        <time>2017-08-01T13:14:07Z</time>
      </trkpt>
      <trkpt lat="45.93594" lon="4.76062">
        <ele>170</ele>
        <time>2017-08-01T13:14:08Z</time>
      </trkpt>
      <trkpt lat="45.93597" lon="4.76071">
        <ele>170</ele>
        <time>2017-08-01T13:14:10Z</time>
      </trkpt>
      <trkpt lat="45.93599" lon="4.76076">
        <ele>170</ele>
        <time>2017-08-01T13:14:11Z</time>
      </trkpt>
      <trkpt lat="45.93602" lon="4.76085">
        <ele>170</ele>
        <time>2017-08-01T13:14:13Z</time>
      </trkpt>
      <trkpt lat="45.93604" lon="4.7609">
        <ele>170</ele>
        <time>2017-08-01T13:14:14Z</time>
      </trkpt>
      <trkpt lat="45.93607" lon="4.761">
        <ele>170</ele>
        <time>2017-08-01T13:14:16Z</time>
      </trkpt>
      <trkpt lat="45.93609" lon="4.76105">
        <ele>170</ele>
        <time>2017-08-01T13:14:17Z</time>
      </trkpt>
      <trkpt lat="45.93612" lon="4.76115">
        <ele>169</ele>
        <time>2017-08-01T13:14:19Z</time>
      </trkpt>
      <trkpt lat="45.93614" lon="4.76121">
        <ele>169</ele>
        <time>2017-08-01T13:14:20Z</time>
      </trkpt>
      <trkpt lat="45.93618" lon="4.76132">
        <ele>169</ele>
        <time>2017-08-01T13:14:22Z</time>
      </trkpt>
      <trkpt lat="45.9362" lon="4.76138">
        <ele>169</ele>
        <time>2017-08-01T13:14:23Z</time>
      </trkpt>
      <trkpt lat="45.93622" lon="4.76144">
        <ele>169</ele>
        <time>2017-08-01T13:14:24Z</time>
      </trkpt>
      <trkpt lat="45.93625" lon="4.76152">
        <ele>169</ele>
        <time>2017-08-01T13:14:25Z</time>
      </trkpt>
      <trkpt lat="45.93628" lon="4.76159">
        <ele>169</ele>
        <time>2017-08-01T13:14:26Z</time>
      </trkpt>
      <trkpt lat="45.9363" lon="4.76166">
        <ele>170</ele>
        <time>2017-08-01T13:14:27Z</time>
      </trkpt>
      <trkpt lat="45.93632" lon="4.76173">
        <ele>169</ele>
        <time>2017-08-01T13:14:28Z</time>
      </trkpt>
      <trkpt lat="45.93634" lon="4.76179">
        <ele>169</ele>
        <time>2017-08-01T13:14:29Z</time>
      </trkpt>
      <trkpt lat="45.93637" lon="4.7619">
        <ele>169</ele>
        <time>2017-08-01T13:14:31Z</time>
      </trkpt>
      <trkpt lat="45.93639" lon="4.76197">
        <ele>169</ele>
        <time>2017-08-01T13:14:32Z</time>
      </trkpt>
      <trkpt lat="45.93641" lon="4.76203">
        <ele>169</ele>
        <time>2017-08-01T13:14:33Z</time>
      </trkpt>
      <trkpt lat="45.93642" lon="4.76209">
        <ele>169</ele>
        <time>2017-08-01T13:14:34Z</time>
      </trkpt>
      <trkpt lat="45.93646" lon="4.7622">
        <ele>169</ele>
        <time>2017-08-01T13:14:36Z</time>
      </trkpt>
      <trkpt lat="45.93648" lon="4.76225">
        <ele>169</ele>
        <time>2017-08-01T13:14:37Z</time>
      </trkpt>
      <trkpt lat="45.93651" lon="4.76232">
        <ele>169</ele>
        <time>2017-08-01T13:14:38Z</time>
      </trkpt>
      <trkpt lat="45.93653" lon="4.76238">
        <ele>169</ele>
        <time>2017-08-01T13:14:39Z</time>
      </trkpt>
      <trkpt lat="45.93656" lon="4.76245">
        <ele>169</ele>
        <time>2017-08-01T13:14:40Z</time>
      </trkpt>
      <trkpt lat="45.93658" lon="4.76251">
        <ele>169</ele>
        <time>2017-08-01T13:14:41Z</time>
      </trkpt>
      <trkpt lat="45.93661" lon="4.76261">
        <ele>169</ele>
        <time>2017-08-01T13:14:43Z</time>
      </trkpt>
      <trkpt lat="45.93663" lon="4.76267">
        <ele>169</ele>
        <time>2017-08-01T13:14:44Z</time>
      </trkpt>
      <trkpt lat="45.93666" lon="4.76276">
        <ele>169</ele>
        <time>2017-08-01T13:14:46Z</time>
      </trkpt>
      <trkpt lat="45.93668" lon="4.76281">
        <ele>170</ele>
        <time>2017-08-01T13:14:47Z</time>
      </trkpt>
      <trkpt lat="45.93671" lon="4.76291">
        <ele>170</ele>
        <time>2017-08-01T13:14:49Z</time>
      </trkpt>
      <trkpt lat="45.93673" lon="4.76298">
        <ele>170</ele>
        <time>2017-08-01T13:14:50Z</time>
      </trkpt>
      <trkpt lat="45.93675" lon="4.76304">
        <ele>170</ele>
        <time>2017-08-01T13:14:51Z</time>
      </trkpt>
      <trkpt lat="45.93677" lon="4.7631">
        <ele>170</ele>
        <time>2017-08-01T13:14:52Z</time>
      </trkpt>
      <trkpt lat="45.93681" lon="4.76318">
        <ele>170</ele>
        <time>2017-08-01T13:14:54Z</time>
      </trkpt>
      <trkpt lat="45.93682" lon="4.76322">
        <ele>170</ele>
        <time>2017-08-01T13:14:55Z</time>
      </trkpt>
      <trkpt lat="45.93686" lon="4.76329">
        <ele>170</ele>
        <time>2017-08-01T13:14:57Z</time>
      </trkpt>
      <trkpt lat="45.93689" lon="4.76334">
        <ele>169</ele>
        <time>2017-08-01T13:14:58Z</time>
      </trkpt>
      <trkpt lat="45.93691" lon="4.76339">
        <ele>169</ele>
        <time>2017-08-01T13:14:59Z</time>
      </trkpt>
      <trkpt lat="45.93693" lon="4.76345">
        <ele>169</ele>
        <time>2017-08-01T13:15:00Z</time>
      </trkpt>
      <trkpt lat="45.93695" lon="4.76352">
        <ele>169</ele>
        <time>2017-08-01T13:15:01Z</time>
      </trkpt>
      <trkpt lat="45.93697" lon="4.76358">
        <ele>169</ele>
        <time>2017-08-01T13:15:02Z</time>
      </trkpt>
      <trkpt lat="45.93701" lon="4.76368">
        <ele>169</ele>
        <time>2017-08-01T13:15:04Z</time>
      </trkpt>
      <trkpt lat="45.93703" lon="4.76372">
        <ele>169</ele>
        <time>2017-08-01T13:15:05Z</time>
      </trkpt>
      <trkpt lat="45.93706" lon="4.76382">
        <ele>169</ele>
        <time>2017-08-01T13:15:07Z</time>
      </trkpt>
      <trkpt lat="45.93708" lon="4.76388">
        <ele>169</ele>
        <time>2017-08-01T13:15:08Z</time>
      </trkpt>
      <trkpt lat="45.93711" lon="4.76399">
        <ele>169</ele>
        <time>2017-08-01T13:15:10Z</time>
      </trkpt>
      <trkpt lat="45.93713" lon="4.76405">
        <ele>169</ele>
        <time>2017-08-01T13:15:11Z</time>
      </trkpt>
      <trkpt lat="45.93715" lon="4.7641">
        <ele>169</ele>
        <time>2017-08-01T13:15:12Z</time>
      </trkpt>
      <trkpt lat="45.93717" lon="4.76417">
        <ele>169</ele>
        <time>2017-08-01T13:15:13Z</time>
      </trkpt>
      <trkpt lat="45.9372" lon="4.76428">
        <ele>169</ele>
        <time>2017-08-01T13:15:15Z</time>
      </trkpt>
      <trkpt lat="45.93722" lon="4.76433">
        <ele>169</ele>
        <time>2017-08-01T13:15:16Z</time>
      </trkpt>
      <trkpt lat="45.93726" lon="4.76443">
        <ele>169</ele>
        <time>2017-08-01T13:15:18Z</time>
      </trkpt>
      <trkpt lat="45.93728" lon="4.76449">
        <ele>169</ele>
        <time>2017-08-01T13:15:19Z</time>
      </trkpt>
      <trkpt lat="45.93729" lon="4.76456">
        <ele>169</ele>
        <time>2017-08-01T13:15:20Z</time>
      </trkpt>
      <trkpt lat="45.93732" lon="4.76462">
        <ele>169</ele>
        <time>2017-08-01T13:15:21Z</time>
      </trkpt>
      <trkpt lat="45.93735" lon="4.76471">
        <ele>169</ele>
        <time>2017-08-01T13:15:22Z</time>
      </trkpt>
      <trkpt lat="45.93737" lon="4.76478">
        <ele>169</ele>
        <time>2017-08-01T13:15:23Z</time>
      </trkpt>
      <trkpt lat="45.93739" lon="4.76484">
        <ele>169</ele>
        <time>2017-08-01T13:15:24Z</time>
      </trkpt>
      <trkpt lat="45.93742" lon="4.76491">
        <ele>169</ele>
        <time>2017-08-01T13:15:25Z</time>
      </trkpt>
      <trkpt lat="45.93746" lon="4.76502">
        <ele>170</ele>
        <time>2017-08-01T13:15:27Z</time>
      </trkpt>
      <trkpt lat="45.93747" lon="4.76506">
        <ele>169</ele>
        <time>2017-08-01T13:15:28Z</time>
      </trkpt>
      <trkpt lat="45.9375" lon="4.76517">
        <ele>170</ele>
        <time>2017-08-01T13:15:30Z</time>
      </trkpt>
      <trkpt lat="45.93752" lon="4.76522">
        <ele>170</ele>
        <time>2017-08-01T13:15:31Z</time>
      </trkpt>
      <trkpt lat="45.93754" lon="4.76528">
        <ele>170</ele>
        <time>2017-08-01T13:15:32Z</time>
      </trkpt>
      <trkpt lat="45.93756" lon="4.76534">
        <ele>170</ele>
        <time>2017-08-01T13:15:33Z</time>
      </trkpt>
      <trkpt lat="45.93758" lon="4.76541">
        <ele>170</ele>
        <time>2017-08-01T13:15:34Z</time>
      </trkpt>
      <trkpt lat="45.93761" lon="4.76547">
        <ele>170</ele>
        <time>2017-08-01T13:15:35Z</time>
      </trkpt>
      <trkpt lat="45.93763" lon="4.76554">
        <ele>170</ele>
        <time>2017-08-01T13:15:36Z</time>
      </trkpt>
      <trkpt lat="45.93765" lon="4.76561">
        <ele>170</ele>
        <time>2017-08-01T13:15:37Z</time>
      </trkpt>
      <trkpt lat="45.93768" lon="4.76567">
        <ele>170</ele>
        <time>2017-08-01T13:15:38Z</time>
      </trkpt>
      <trkpt lat="45.9377" lon="4.76572">
        <ele>170</ele>
        <time>2017-08-01T13:15:39Z</time>
      </trkpt>
      <trkpt lat="45.93774" lon="4.76583">
        <ele>170</ele>
        <time>2017-08-01T13:15:41Z</time>
      </trkpt>
      <trkpt lat="45.93776" lon="4.76588">
        <ele>169</ele>
        <time>2017-08-01T13:15:42Z</time>
      </trkpt>
      <trkpt lat="45.9378" lon="4.76599">
        <ele>169</ele>
        <time>2017-08-01T13:15:44Z</time>
      </trkpt>
      <trkpt lat="45.93782" lon="4.76606">
        <ele>169</ele>
        <time>2017-08-01T13:15:45Z</time>
      </trkpt>
      <trkpt lat="45.93784" lon="4.76612">
        <ele>169</ele>
        <time>2017-08-01T13:15:46Z</time>
      </trkpt>
      <trkpt lat="45.93785" lon="4.76618">
        <ele>169</ele>
        <time>2017-08-01T13:15:47Z</time>
      </trkpt>
      <trkpt lat="45.93789" lon="4.76629">
        <ele>169</ele>
        <time>2017-08-01T13:15:49Z</time>
      </trkpt>
      <trkpt lat="45.93792" lon="4.76634">
        <ele>169</ele>
        <time>2017-08-01T13:15:50Z</time>
      </trkpt>
      <trkpt lat="45.93796" lon="4.76643">
        <ele>169</ele>
        <time>2017-08-01T13:15:52Z</time>
      </trkpt>
      <trkpt lat="45.93798" lon="4.76649">
        <ele>169</ele>
        <time>2017-08-01T13:15:53Z</time>
      </trkpt>
      <trkpt lat="45.93801" lon="4.76655">
        <ele>169</ele>
        <time>2017-08-01T13:15:54Z</time>
      </trkpt>
      <trkpt lat="45.93803" lon="4.76661">
        <ele>169</ele>
        <time>2017-08-01T13:15:55Z</time>
      </trkpt>
      <trkpt lat="45.93807" lon="4.76671">
        <ele>170</ele>
        <time>2017-08-01T13:15:57Z</time>
      </trkpt>
      <trkpt lat="45.9381" lon="4.76676">
        <ele>170</ele>
        <time>2017-08-01T13:15:58Z</time>
      </trkpt>
      <trkpt lat="45.93814" lon="4.76685">
        <ele>170</ele>
        <time>2017-08-01T13:16:00Z</time>
      </trkpt>
      <trkpt lat="45.93817" lon="4.76689">
        <ele>170</ele>
        <time>2017-08-01T13:16:01Z</time>
      </trkpt>
      <trkpt lat="45.93822" lon="4.76699">
        <ele>170</ele>
        <time>2017-08-01T13:16:03Z</time>
      </trkpt>
      <trkpt lat="45.93824" lon="4.76704">
        <ele>170</ele>
        <time>2017-08-01T13:16:04Z</time>
      </trkpt>
      <trkpt lat="45.93829" lon="4.76712">
        <ele>170</ele>
        <time>2017-08-01T13:16:06Z</time>
      </trkpt>
      <trkpt lat="45.93831" lon="4.76717">
        <ele>170</ele>
        <time>2017-08-01T13:16:07Z</time>
      </trkpt>
      <trkpt lat="45.93836" lon="4.76725">
        <ele>172</ele>
        <time>2017-08-01T13:16:09Z</time>
      </trkpt>
      <trkpt lat="45.93839" lon="4.76729">
        <ele>172</ele>
        <time>2017-08-01T13:16:10Z</time>
      </trkpt>
      <trkpt lat="45.93845" lon="4.76737">
        <ele>173</ele>
        <time>2017-08-01T13:16:12Z</time>
      </trkpt>
      <trkpt lat="45.93848" lon="4.76742">
        <ele>173</ele>
        <time>2017-08-01T13:16:13Z</time>
      </trkpt>
      <trkpt lat="45.93853" lon="4.7675">
        <ele>172</ele>
        <time>2017-08-01T13:16:15Z</time>
      </trkpt>
      <trkpt lat="45.93856" lon="4.76755">
        <ele>172</ele>
        <time>2017-08-01T13:16:16Z</time>
      </trkpt>
      <trkpt lat="45.93861" lon="4.76762">
        <ele>172</ele>
        <time>2017-08-01T13:16:18Z</time>
      </trkpt>
      <trkpt lat="45.93863" lon="4.76766">
        <ele>171</ele>
        <time>2017-08-01T13:16:19Z</time>
      </trkpt>
      <trkpt lat="45.93869" lon="4.76775">
        <ele>171</ele>
        <time>2017-08-01T13:16:21Z</time>
      </trkpt>
      <trkpt lat="45.93872" lon="4.7678">
        <ele>171</ele>
        <time>2017-08-01T13:16:22Z</time>
      </trkpt>
      <trkpt lat="45.93878" lon="4.76789">
        <ele>171</ele>
        <time>2017-08-01T13:16:24Z</time>
      </trkpt>
      <trkpt lat="45.9388" lon="4.76794">
        <ele>171</ele>
        <time>2017-08-01T13:16:25Z</time>
      </trkpt>
      <trkpt lat="45.93886" lon="4.76803">
        <ele>171</ele>
        <time>2017-08-01T13:16:27Z</time>
      </trkpt>
      <trkpt lat="45.93889" lon="4.76807">
        <ele>171</ele>
        <time>2017-08-01T13:16:28Z</time>
      </trkpt>
      <trkpt lat="45.93894" lon="4.76816">
        <ele>171</ele>
        <time>2017-08-01T13:16:30Z</time>
      </trkpt>
      <trkpt lat="45.93897" lon="4.76821">
        <ele>172</ele>
        <time>2017-08-01T13:16:31Z</time>
      </trkpt>
      <trkpt lat="45.93901" lon="4.76826">
        <ele>172</ele>
        <time>2017-08-01T13:16:32Z</time>
      </trkpt>
      <trkpt lat="45.93904" lon="4.76831">
        <ele>172</ele>
        <time>2017-08-01T13:16:33Z</time>
      </trkpt>
      <trkpt lat="45.93908" lon="4.7684">
        <ele>172</ele>
        <time>2017-08-01T13:16:35Z</time>
      </trkpt>
      <trkpt lat="45.9391" lon="4.76845">
        <ele>171</ele>
        <time>2017-08-01T13:16:36Z</time>
      </trkpt>
      <trkpt lat="45.93915" lon="4.76854">
        <ele>171</ele>
        <time>2017-08-01T13:16:38Z</time>
      </trkpt>
      <trkpt lat="45.93919" lon="4.76859">
        <ele>172</ele>
        <time>2017-08-01T13:16:39Z</time>
      </trkpt>
      <trkpt lat="45.93922" lon="4.76864">
        <ele>172</ele>
        <time>2017-08-01T13:16:40Z</time>
      </trkpt>
      <trkpt lat="45.93925" lon="4.76868">
        <ele>172</ele>
        <time>2017-08-01T13:16:41Z</time>
      </trkpt>
      <trkpt lat="45.93928" lon="4.76873">
        <ele>172</ele>
        <time>2017-08-01T13:16:42Z</time>
      </trkpt>
      <trkpt lat="45.93931" lon="4.76878">
        <ele>172</ele>
        <time>2017-08-01T13:16:43Z</time>
      </trkpt>
      <trkpt lat="45.93936" lon="4.76886">
        <ele>172</ele>
        <time>2017-08-01T13:16:45Z</time>
      </trkpt>
      <trkpt lat="45.93938" lon="4.7689">
        <ele>172</ele>
        <time>2017-08-01T13:16:46Z</time>
      </trkpt>
      <trkpt lat="45.93941" lon="4.76899">
        <ele>172</ele>
        <time>2017-08-01T13:16:48Z</time>
      </trkpt>
      <trkpt lat="45.93943" lon="4.76904">
        <ele>172</ele>
        <time>2017-08-01T13:16:49Z</time>
      </trkpt>
      <trkpt lat="45.93946" lon="4.76915">
        <ele>172</ele>
        <time>2017-08-01T13:16:51Z</time>
      </trkpt>
      <trkpt lat="45.93947" lon="4.76921">
        <ele>171</ele>
        <time>2017-08-01T13:16:52Z</time>
      </trkpt>
      <trkpt lat="45.9395" lon="4.76932">
        <ele>171</ele>
        <time>2017-08-01T13:16:54Z</time>
      </trkpt>
      <trkpt lat="45.93952" lon="4.76939">
        <ele>171</ele>
        <time>2017-08-01T13:16:55Z</time>
      </trkpt>
      <trkpt lat="45.93955" lon="4.7695">
        <ele>170</ele>
        <time>2017-08-01T13:16:57Z</time>
      </trkpt>
      <trkpt lat="45.93956" lon="4.76956">
        <ele>170</ele>
        <time>2017-08-01T13:16:58Z</time>
      </trkpt>
      <trkpt lat="45.93958" lon="4.76967">
        <ele>170</ele>
        <time>2017-08-01T13:17:00Z</time>
      </trkpt>
      <trkpt lat="45.93959" lon="4.76972">
        <ele>170</ele>
        <time>2017-08-01T13:17:01Z</time>
      </trkpt>
      <trkpt lat="45.93961" lon="4.7698">
        <ele>170</ele>
        <time>2017-08-01T13:17:03Z</time>
      </trkpt>
      <trkpt lat="45.93961" lon="4.76985">
        <ele>170</ele>
        <time>2017-08-01T13:17:04Z</time>
      </trkpt>
      <trkpt lat="45.93962" lon="4.76994">
        <ele>170</ele>
        <time>2017-08-01T13:17:06Z</time>
      </trkpt>
      <trkpt lat="45.93964" lon="4.76997">
        <ele>170</ele>
        <time>2017-08-01T13:17:07Z</time>
      </trkpt>
      <trkpt lat="45.93968" lon="4.77005">
        <ele>169</ele>
        <time>2017-08-01T13:17:09Z</time>
      </trkpt>
      <trkpt lat="45.93969" lon="4.77009">
        <ele>169</ele>
        <time>2017-08-01T13:17:10Z</time>
      </trkpt>
      <trkpt lat="45.93975" lon="4.77016">
        <ele>169</ele>
        <time>2017-08-01T13:17:12Z</time>
      </trkpt>
      <trkpt lat="45.93977" lon="4.77018">
        <ele>169</ele>
        <time>2017-08-01T13:17:13Z</time>
      </trkpt>
      <trkpt lat="45.93986" lon="4.77021">
        <ele>170</ele>
        <time>2017-08-01T13:17:16Z</time>
      </trkpt>
      <trkpt lat="45.93988" lon="4.77022">
        <ele>170</ele>
        <time>2017-08-01T13:17:17Z</time>
      </trkpt>
      <trkpt lat="45.93988" lon="4.77022">
        <ele>170</ele>
        <time>2017-08-01T13:17:18Z</time>
      </trkpt>
      <trkpt lat="45.9399" lon="4.77021">
        <ele>170</ele>
        <time>2017-08-01T13:17:44Z</time>
      </trkpt>
      <trkpt lat="45.93989" lon="4.77017">
        <ele>170</ele>
        <time>2017-08-01T13:17:45Z</time>
      </trkpt>
      <trkpt lat="45.93989" lon="4.77026">
        <ele>170</ele>
        <time>2017-08-01T13:27:13Z</time>
      </trkpt>
      <trkpt lat="45.9399" lon="4.77031">
        <ele>170</ele>
        <time>2017-08-01T13:27:14Z</time>
      </trkpt>
      <trkpt lat="45.9399" lon="4.7704">
        <ele>170</ele>
        <time>2017-08-01T13:27:16Z</time>
      </trkpt>
      <trkpt lat="45.9399" lon="4.77044">
        <ele>170</ele>
        <time>2017-08-01T13:27:17Z</time>
      </trkpt>
      <trkpt lat="45.93991" lon="4.77056">
        <ele>170</ele>
        <time>2017-08-01T13:27:20Z</time>
      </trkpt>
      <trkpt lat="45.93991" lon="4.77059">
        <ele>170</ele>
        <time>2017-08-01T13:27:21Z</time>
      </trkpt>
      <trkpt lat="45.93994" lon="4.77068">
        <ele>170</ele>
        <time>2017-08-01T13:27:24Z</time>
      </trkpt>
      <trkpt lat="45.93995" lon="4.77072">
        <ele>171</ele>
        <time>2017-08-01T13:27:25Z</time>
      </trkpt>
      <trkpt lat="45.93998" lon="4.77083">
        <ele>172</ele>
        <time>2017-08-01T13:27:28Z</time>
      </trkpt>
      <trkpt lat="45.93999" lon="4.77088">
        <ele>172</ele>
        <time>2017-08-01T13:27:29Z</time>
      </trkpt>
      <trkpt lat="45.93999" lon="4.77098">
        <ele>171</ele>
        <time>2017-08-01T13:27:31Z</time>
      </trkpt>
      <trkpt lat="45.93999" lon="4.77103">
        <ele>171</ele>
        <time>2017-08-01T13:27:32Z</time>
      </trkpt>
      <trkpt lat="45.93996" lon="4.77116">
        <ele>170</ele>
        <time>2017-08-01T13:27:35Z</time>
      </trkpt>
      <trkpt lat="45.93996" lon="4.77119">
        <ele>170</ele>
        <time>2017-08-01T13:27:36Z</time>
      </trkpt>
      <trkpt lat="45.93994" lon="4.77128">
        <ele>170</ele>
        <time>2017-08-01T13:27:38Z</time>
      </trkpt>
      <trkpt lat="45.93995" lon="4.77133">
        <ele>170</ele>
        <time>2017-08-01T13:27:39Z</time>
      </trkpt>
      <trkpt lat="45.93997" lon="4.77143">
        <ele>170</ele>
        <time>2017-08-01T13:27:41Z</time>
      </trkpt>
      <trkpt lat="45.93997" lon="4.77148">
        <ele>171</ele>
        <time>2017-08-01T13:27:42Z</time>
      </trkpt>
      <trkpt lat="45.93999" lon="4.77157">
        <ele>171</ele>
        <time>2017-08-01T13:27:44Z</time>
      </trkpt>
      <trkpt lat="45.93999" lon="4.77161">
        <ele>171</ele>
        <time>2017-08-01T13:27:45Z</time>
      </trkpt>
      <trkpt lat="45.93999" lon="4.77169">
        <ele>172</ele>
        <time>2017-08-01T13:27:47Z</time>
      </trkpt>
      <trkpt lat="45.94" lon="4.77174">
        <ele>171</ele>
        <time>2017-08-01T13:27:48Z</time>
      </trkpt>
      <trkpt lat="45.94" lon="4.77185">
        <ele>170</ele>
        <time>2017-08-01T13:27:50Z</time>
      </trkpt>
      <trkpt lat="45.94" lon="4.77191">
        <ele>170</ele>
        <time>2017-08-01T13:27:51Z</time>
      </trkpt>
      <trkpt lat="45.94" lon="4.77201">
        <ele>170</ele>
        <time>2017-08-01T13:27:53Z</time>
      </trkpt>
      <trkpt lat="45.94" lon="4.77206">
        <ele>170</ele>
        <time>2017-08-01T13:27:54Z</time>
      </trkpt>
      <trkpt lat="45.94" lon="4.77218">
        <ele>173</ele>
        <time>2017-08-01T13:27:57Z</time>
      </trkpt>
      <trkpt lat="45.94" lon="4.77223">
        <ele>173</ele>
        <time>2017-08-01T13:27:58Z</time>
      </trkpt>
      <trkpt lat="45.94003" lon="4.77233">
        <ele>173</ele>
        <time>2017-08-01T13:28:01Z</time>
      </trkpt>
      <trkpt lat="45.94006" lon="4.77234">
        <ele>173</ele>
        <time>2017-08-01T13:28:02Z</time>
      </trkpt>
      <trkpt lat="45.94008" lon="4.77223">
        <ele>173</ele>
        <time>2017-08-01T13:28:07Z</time>
      </trkpt>
      <trkpt lat="45.94008" lon="4.7722">
        <ele>174</ele>
        <time>2017-08-01T13:28:08Z</time>
      </trkpt>
      <trkpt lat="45.94016" lon="4.77221">
        <ele>174</ele>
        <time>2017-08-01T13:28:16Z</time>
      </trkpt>
      <trkpt lat="45.94017" lon="4.77225">
        <ele>174</ele>
        <time>2017-08-01T13:28:17Z</time>
      </trkpt>
      <trkpt lat="45.94017" lon="4.77236">
        <ele>173</ele>
        <time>2017-08-01T13:28:21Z</time>
      </trkpt>
      <trkpt lat="45.94016" lon="4.7724">
        <ele>173</ele>
        <time>2017-08-01T13:28:22Z</time>
      </trkpt>
      <trkpt lat="45.94015" lon="4.77252">
        <ele>173</ele>
        <time>2017-08-01T13:28:26Z</time>
      </trkpt>
      <trkpt lat="45.94013" lon="4.77254">
        <ele>173</ele>
        <time>2017-08-01T13:28:27Z</time>
      </trkpt>
      <trkpt lat="45.94006" lon="4.77254">
        <ele>172</ele>
        <time>2017-08-01T13:28:30Z</time>
      </trkpt>
      <trkpt lat="45.94004" lon="4.77253">
        <ele>171</ele>
        <time>2017-08-01T13:28:31Z</time>
      </trkpt>
      <trkpt lat="45.93997" lon="4.77252">
        <ele>170</ele>
        <time>2017-08-01T13:28:34Z</time>
      </trkpt>
      <trkpt lat="45.93994" lon="4.77251">
        <ele>170</ele>
        <time>2017-08-01T13:28:35Z</time>
      </trkpt>
      <trkpt lat="45.93988" lon="4.77249">
        <ele>169</ele>
        <time>2017-08-01T13:28:37Z</time>
      </trkpt>
      <trkpt lat="45.93985" lon="4.77249">
        <ele>169</ele>
        <time>2017-08-01T13:28:38Z</time>
      </trkpt>
      <trkpt lat="45.93977" lon="4.77247">
        <ele>169</ele>
        <time>2017-08-01T13:28:41Z</time>
      </trkpt>
      <trkpt lat="45.93974" lon="4.77247">
        <ele>169</ele>
        <time>2017-08-01T13:28:42Z</time>
      </trkpt>
      <trkpt lat="45.93968" lon="4.77245">
        <ele>169</ele>
        <time>2017-08-01T13:28:44Z</time>
      </trkpt>
      <trkpt lat="45.93965" lon="4.77244">
        <ele>169</ele>
        <time>2017-08-01T13:28:45Z</time>
      </trkpt>
      <trkpt lat="45.93956" lon="4.77242">
        <ele>168</ele>
        <time>2017-08-01T13:28:48Z</time>
      </trkpt>
      <trkpt lat="45.93953" lon="4.77241">
        <ele>168</ele>
        <time>2017-08-01T13:28:49Z</time>
      </trkpt>
      <trkpt lat="45.93945" lon="4.77239">
        <ele>168</ele>
        <time>2017-08-01T13:28:52Z</time>
      </trkpt>
      <trkpt lat="45.93942" lon="4.77239">
        <ele>168</ele>
        <time>2017-08-01T13:28:53Z</time>
      </trkpt>
      <trkpt lat="45.93934" lon="4.77238">
        <ele>167</ele>
        <time>2017-08-01T13:28:56Z</time>
      </trkpt>
      <trkpt lat="45.93932" lon="4.77238">
        <ele>167</ele>
        <time>2017-08-01T13:28:57Z</time>
      </trkpt>
      <trkpt lat="45.93924" lon="4.77236">
        <ele>167</ele>
        <time>2017-08-01T13:29:00Z</time>
      </trkpt>
      <trkpt lat="45.93922" lon="4.77235">
        <ele>167</ele>
        <time>2017-08-01T13:29:01Z</time>
      </trkpt>
      <trkpt lat="45.93916" lon="4.77232">
        <ele>167</ele>
        <time>2017-08-01T13:29:03Z</time>
      </trkpt>
      <trkpt lat="45.93913" lon="4.77231">
        <ele>167</ele>
        <time>2017-08-01T13:29:04Z</time>
      </trkpt>
      <trkpt lat="45.93905" lon="4.7723">
        <ele>167</ele>
        <time>2017-08-01T13:29:06Z</time>
      </trkpt>
      <trkpt lat="45.93902" lon="4.77229">
        <ele>167</ele>
        <time>2017-08-01T13:29:07Z</time>
      </trkpt>
      <trkpt lat="45.93898" lon="4.77228">
        <ele>167</ele>
        <time>2017-08-01T13:29:08Z</time>
      </trkpt>
      <trkpt lat="45.93893" lon="4.77227">
        <ele>167</ele>
        <time>2017-08-01T13:29:09Z</time>
      </trkpt>
      <trkpt lat="45.93888" lon="4.77226">
        <ele>167</ele>
        <time>2017-08-01T13:29:10Z</time>
      </trkpt>
      <trkpt lat="45.93883" lon="4.77225">
        <ele>168</ele>
        <time>2017-08-01T13:29:11Z</time>
      </trkpt>
      <trkpt lat="45.93877" lon="4.77224">
        <ele>168</ele>
        <time>2017-08-01T13:29:12Z</time>
      </trkpt>
      <trkpt lat="45.93872" lon="4.77223">
        <ele>168</ele>
        <time>2017-08-01T13:29:13Z</time>
      </trkpt>
      <trkpt lat="45.93864" lon="4.7722">
        <ele>168</ele>
        <time>2017-08-01T13:29:15Z</time>
      </trkpt>
      <trkpt lat="45.9386" lon="4.77219">
        <ele>168</ele>
        <time>2017-08-01T13:29:16Z</time>
      </trkpt>
      <trkpt lat="45.93852" lon="4.77218">
        <ele>168</ele>
        <time>2017-08-01T13:29:19Z</time>
      </trkpt>
      <trkpt lat="45.9385" lon="4.77217">
        <ele>168</ele>
        <time>2017-08-01T13:29:20Z</time>
      </trkpt>
      <trkpt lat="45.93843" lon="4.77215">
        <ele>168</ele>
        <time>2017-08-01T13:29:23Z</time>
      </trkpt>
      <trkpt lat="45.9384" lon="4.77214">
        <ele>168</ele>
        <time>2017-08-01T13:29:24Z</time>
      </trkpt>
      <trkpt lat="45.93836" lon="4.77213">
        <ele>168</ele>
        <time>2017-08-01T13:29:25Z</time>
      </trkpt>
      <trkpt lat="45.93831" lon="4.77213">
        <ele>170</ele>
        <time>2017-08-01T13:29:26Z</time>
      </trkpt>
      <trkpt lat="45.93825" lon="4.7721">
        <ele>170</ele>
        <time>2017-08-01T13:29:27Z</time>
      </trkpt>
      <trkpt lat="45.9382" lon="4.77206">
        <ele>170</ele>
        <time>2017-08-01T13:29:28Z</time>
      </trkpt>
      <trkpt lat="45.93817" lon="4.772">
        <ele>169</ele>
        <time>2017-08-01T13:29:29Z</time>
      </trkpt>
      <trkpt lat="45.93816" lon="4.77194">
        <ele>169</ele>
        <time>2017-08-01T13:29:30Z</time>
      </trkpt>
      <trkpt lat="45.93815" lon="4.77184">
        <ele>169</ele>
        <time>2017-08-01T13:29:32Z</time>
      </trkpt>
      <trkpt lat="45.93816" lon="4.77178">
        <ele>168</ele>
        <time>2017-08-01T13:29:33Z</time>
      </trkpt>
      <trkpt lat="45.93815" lon="4.77168">
        <ele>168</ele>
        <time>2017-08-01T13:29:35Z</time>
      </trkpt>
      <trkpt lat="45.93814" lon="4.77162">
        <ele>168</ele>
        <time>2017-08-01T13:29:36Z</time>
      </trkpt>
      <trkpt lat="45.93812" lon="4.7715">
        <ele>168</ele>
        <time>2017-08-01T13:29:38Z</time>
      </trkpt>
      <trkpt lat="45.9381" lon="4.77145">
        <ele>168</ele>
        <time>2017-08-01T13:29:39Z</time>
      </trkpt>
      <trkpt lat="45.93809" lon="4.77133">
        <ele>168</ele>
        <time>2017-08-01T13:29:41Z</time>
      </trkpt>
      <trkpt lat="45.93808" lon="4.77127">
        <ele>168</ele>
        <time>2017-08-01T13:29:42Z</time>
      </trkpt>
      <trkpt lat="45.93806" lon="4.77115">
        <ele>168</ele>
        <time>2017-08-01T13:29:44Z</time>
      </trkpt>
      <trkpt lat="45.93804" lon="4.77109">
        <ele>168</ele>
        <time>2017-08-01T13:29:45Z</time>
      </trkpt>
      <trkpt lat="45.93803" lon="4.77102">
        <ele>169</ele>
        <time>2017-08-01T13:29:46Z</time>
      </trkpt>
      <trkpt lat="45.938" lon="4.77096">
        <ele>169</ele>
        <time>2017-08-01T13:29:47Z</time>
      </trkpt>
      <trkpt lat="45.93798" lon="4.7709">
        <ele>169</ele>
        <time>2017-08-01T13:29:48Z</time>
      </trkpt>
      <trkpt lat="45.93795" lon="4.77082">
        <ele>168</ele>
        <time>2017-08-01T13:29:49Z</time>
      </trkpt>
      <trkpt lat="45.9379" lon="4.77075">
        <ele>169</ele>
        <time>2017-08-01T13:29:50Z</time>
      </trkpt>
      <trkpt lat="45.93787" lon="4.77068">
        <ele>169</ele>
        <time>2017-08-01T13:29:51Z</time>
      </trkpt>
      <trkpt lat="45.93784" lon="4.7706">
        <ele>169</ele>
        <time>2017-08-01T13:29:52Z</time>
      </trkpt>
      <trkpt lat="45.93781" lon="4.77054">
        <ele>169</ele>
        <time>2017-08-01T13:29:53Z</time>
      </trkpt>
      <trkpt lat="45.93779" lon="4.77048">
        <ele>169</ele>
        <time>2017-08-01T13:29:54Z</time>
      </trkpt>
      <trkpt lat="45.93777" lon="4.77041">
        <ele>169</ele>
        <time>2017-08-01T13:29:55Z</time>
      </trkpt>
      <trkpt lat="45.93776" lon="4.77034">
        <ele>169</ele>
        <time>2017-08-01T13:29:56Z</time>
      </trkpt>
      <trkpt lat="45.93775" lon="4.77027">
        <ele>169</ele>
        <time>2017-08-01T13:29:57Z</time>
      </trkpt>
      <trkpt lat="45.93773" lon="4.7702">
        <ele>169</ele>
        <time>2017-08-01T13:29:58Z</time>
      </trkpt>
      <trkpt lat="45.93771" lon="4.77015">
        <ele>169</ele>
        <time>2017-08-01T13:29:59Z</time>
      </trkpt>
      <trkpt lat="45.93767" lon="4.77006">
        <ele>169</ele>
        <time>2017-08-01T13:30:01Z</time>
      </trkpt>
      <trkpt lat="45.93766" lon="4.77001">
        <ele>169</ele>
        <time>2017-08-01T13:30:02Z</time>
      </trkpt>
      <trkpt lat="45.93762" lon="4.7699">
        <ele>168</ele>
        <time>2017-08-01T13:30:04Z</time>
      </trkpt>
      <trkpt lat="45.9376" lon="4.76985">
        <ele>168</ele>
        <time>2017-08-01T13:30:05Z</time>
      </trkpt>
      <trkpt lat="45.93755" lon="4.76975">
        <ele>168</ele>
        <time>2017-08-01T13:30:07Z</time>
      </trkpt>
      <trkpt lat="45.93754" lon="4.7697">
        <ele>168</ele>
        <time>2017-08-01T13:30:08Z</time>
      </trkpt>
      <trkpt lat="45.9375" lon="4.76962">
        <ele>169</ele>
        <time>2017-08-01T13:30:10Z</time>
      </trkpt>
      <trkpt lat="45.93747" lon="4.76958">
        <ele>169</ele>
        <time>2017-08-01T13:30:11Z</time>
      </trkpt>
      <trkpt lat="45.93743" lon="4.76949">
        <ele>169</ele>
        <time>2017-08-01T13:30:13Z</time>
      </trkpt>
      <trkpt lat="45.9374" lon="4.76945">
        <ele>169</ele>
        <time>2017-08-01T13:30:14Z</time>
      </trkpt>
      <trkpt lat="45.93736" lon="4.76934">
        <ele>169</ele>
        <time>2017-08-01T13:30:17Z</time>
      </trkpt>
      <trkpt lat="45.93734" lon="4.76931">
        <ele>169</ele>
        <time>2017-08-01T13:30:18Z</time>
      </trkpt>
      <trkpt lat="45.93731" lon="4.76923">
        <ele>169</ele>
        <time>2017-08-01T13:30:20Z</time>
      </trkpt>
      <trkpt lat="45.93729" lon="4.76919">
        <ele>169</ele>
        <time>2017-08-01T13:30:21Z</time>
      </trkpt>
      <trkpt lat="45.93725" lon="4.7691">
        <ele>168</ele>
        <time>2017-08-01T13:30:23Z</time>
      </trkpt>
      <trkpt lat="45.93722" lon="4.76906">
        <ele>168</ele>
        <time>2017-08-01T13:30:24Z</time>
      </trkpt>
      <trkpt lat="45.9372" lon="4.76901">
        <ele>168</ele>
        <time>2017-08-01T13:30:25Z</time>
      </trkpt>
      <trkpt lat="45.93718" lon="4.76894">
        <ele>168</ele>
        <time>2017-08-01T13:30:26Z</time>
      </trkpt>
      <trkpt lat="45.93715" lon="4.76889">
        <ele>167</ele>
        <time>2017-08-01T13:30:27Z</time>
      </trkpt>
      <trkpt lat="45.93712" lon="4.76884">
        <ele>167</ele>
        <time>2017-08-01T13:30:28Z</time>
      </trkpt>
      <trkpt lat="45.93707" lon="4.76876">
        <ele>167</ele>
        <time>2017-08-01T13:30:30Z</time>
      </trkpt>
      <trkpt lat="45.93704" lon="4.76873">
        <ele>167</ele>
        <time>2017-08-01T13:30:31Z</time>
      </trkpt>
      <trkpt lat="45.937" lon="4.76866">
        <ele>167</ele>
        <time>2017-08-01T13:30:33Z</time>
      </trkpt>
      <trkpt lat="45.93698" lon="4.76862">
        <ele>167</ele>
        <time>2017-08-01T13:30:34Z</time>
      </trkpt>
      <trkpt lat="45.93692" lon="4.76854">
        <ele>167</ele>
        <time>2017-08-01T13:30:36Z</time>
      </trkpt>
      <trkpt lat="45.93689" lon="4.76848">
        <ele>167</ele>
        <time>2017-08-01T13:30:37Z</time>
      </trkpt>
      <trkpt lat="45.93687" lon="4.76843">
        <ele>167</ele>
        <time>2017-08-01T13:30:38Z</time>
      </trkpt>
      <trkpt lat="45.93685" lon="4.76837">
        <ele>167</ele>
        <time>2017-08-01T13:30:39Z</time>
      </trkpt>
      <trkpt lat="45.9368" lon="4.76827">
        <ele>166</ele>
        <time>2017-08-01T13:30:41Z</time>
      </trkpt>
      <trkpt lat="45.93677" lon="4.76823">
        <ele>166</ele>
        <time>2017-08-01T13:30:42Z</time>
      </trkpt>
      <trkpt lat="45.9367" lon="4.76814">
        <ele>166</ele>
        <time>2017-08-01T13:30:44Z</time>
      </trkpt>
      <trkpt lat="45.93667" lon="4.76809">
        <ele>166</ele>
        <time>2017-08-01T13:30:45Z</time>
      </trkpt>
      <trkpt lat="45.93664" lon="4.76804">
        <ele>167</ele>
        <time>2017-08-01T13:30:46Z</time>
      </trkpt>
      <trkpt lat="45.93661" lon="4.76799">
        <ele>167</ele>
        <time>2017-08-01T13:30:47Z</time>
      </trkpt>
      <trkpt lat="45.93654" lon="4.76791">
        <ele>167</ele>
        <time>2017-08-01T13:30:49Z</time>
      </trkpt>
      <trkpt lat="45.93651" lon="4.76787">
        <ele>167</ele>
        <time>2017-08-01T13:30:50Z</time>
      </trkpt>
      <trkpt lat="45.93645" lon="4.76778">
        <ele>168</ele>
        <time>2017-08-01T13:30:52Z</time>
      </trkpt>
      <trkpt lat="45.93643" lon="4.76774">
        <ele>168</ele>
        <time>2017-08-01T13:30:53Z</time>
      </trkpt>
      <trkpt lat="45.9364" lon="4.76769">
        <ele>168</ele>
        <time>2017-08-01T13:30:54Z</time>
      </trkpt>
      <trkpt lat="45.93636" lon="4.76764">
        <ele>168</ele>
        <time>2017-08-01T13:30:55Z</time>
      </trkpt>
      <trkpt lat="45.93634" lon="4.76757">
        <ele>168</ele>
        <time>2017-08-01T13:30:56Z</time>
      </trkpt>
      <trkpt lat="45.93632" lon="4.76751">
        <ele>168</ele>
        <time>2017-08-01T13:30:57Z</time>
      </trkpt>
      <trkpt lat="45.93629" lon="4.76744">
        <ele>168</ele>
        <time>2017-08-01T13:30:58Z</time>
      </trkpt>
      <trkpt lat="45.93626" lon="4.7674">
        <ele>168</ele>
        <time>2017-08-01T13:30:59Z</time>
      </trkpt>
      <trkpt lat="45.93621" lon="4.76733">
        <ele>169</ele>
        <time>2017-08-01T13:31:01Z</time>
      </trkpt>
      <trkpt lat="45.93618" lon="4.76728">
        <ele>169</ele>
        <time>2017-08-01T13:31:02Z</time>
      </trkpt>
      <trkpt lat="45.93613" lon="4.7672">
        <ele>169</ele>
        <time>2017-08-01T13:31:04Z</time>
      </trkpt>
      <trkpt lat="45.93609" lon="4.76715">
        <ele>169</ele>
        <time>2017-08-01T13:31:05Z</time>
      </trkpt>
      <trkpt lat="45.93606" lon="4.76711">
        <ele>169</ele>
        <time>2017-08-01T13:31:06Z</time>
      </trkpt>
      <trkpt lat="45.93604" lon="4.76705">
        <ele>169</ele>
        <time>2017-08-01T13:31:07Z</time>
      </trkpt>
      <trkpt lat="45.93601" lon="4.767">
        <ele>169</ele>
        <time>2017-08-01T13:31:08Z</time>
      </trkpt>
      <trkpt lat="45.93598" lon="4.76695">
        <ele>169</ele>
        <time>2017-08-01T13:31:09Z</time>
      </trkpt>
      <trkpt lat="45.93593" lon="4.76685">
        <ele>170</ele>
        <time>2017-08-01T13:31:11Z</time>
      </trkpt>
      <trkpt lat="45.93591" lon="4.7668">
        <ele>170</ele>
        <time>2017-08-01T13:31:12Z</time>
      </trkpt>
      <trkpt lat="45.93588" lon="4.76672">
        <ele>170</ele>
        <time>2017-08-01T13:31:14Z</time>
      </trkpt>
      <trkpt lat="45.93586" lon="4.76668">
        <ele>171</ele>
        <time>2017-08-01T13:31:15Z</time>
      </trkpt>
      <trkpt lat="45.93581" lon="4.76661">
        <ele>171</ele>
        <time>2017-08-01T13:31:17Z</time>
      </trkpt>
      <trkpt lat="45.93578" lon="4.76657">
        <ele>170</ele>
        <time>2017-08-01T13:31:18Z</time>
      </trkpt>
      <trkpt lat="45.93573" lon="4.76648">
        <ele>170</ele>
        <time>2017-08-01T13:31:20Z</time>
      </trkpt>
      <trkpt lat="45.93571" lon="4.76645">
        <ele>170</ele>
        <time>2017-08-01T13:31:21Z</time>
      </trkpt>
      <trkpt lat="45.93568" lon="4.76637">
        <ele>170</ele>
        <time>2017-08-01T13:31:23Z</time>
      </trkpt>
      <trkpt lat="45.93566" lon="4.76633">
        <ele>169</ele>
        <time>2017-08-01T13:31:24Z</time>
      </trkpt>
      <trkpt lat="45.93562" lon="4.76624">
        <ele>169</ele>
        <time>2017-08-01T13:31:26Z</time>
      </trkpt>
      <trkpt lat="45.93561" lon="4.76618">
        <ele>169</ele>
        <time>2017-08-01T13:31:27Z</time>
      </trkpt>
      <trkpt lat="45.93555" lon="4.7661">
        <ele>169</ele>
        <time>2017-08-01T13:31:29Z</time>
      </trkpt>
      <trkpt lat="45.93552" lon="4.76605">
        <ele>169</ele>
        <time>2017-08-01T13:31:30Z</time>
      </trkpt>
      <trkpt lat="45.93546" lon="4.76598">
        <ele>169</ele>
        <time>2017-08-01T13:31:32Z</time>
      </trkpt>
      <trkpt lat="45.93544" lon="4.76594">
        <ele>169</ele>
        <time>2017-08-01T13:31:33Z</time>
      </trkpt>
      <trkpt lat="45.93538" lon="4.76586">
        <ele>169</ele>
        <time>2017-08-01T13:31:35Z</time>
      </trkpt>
      <trkpt lat="45.93534" lon="4.76582">
        <ele>168</ele>
        <time>2017-08-01T13:31:36Z</time>
      </trkpt>
      <trkpt lat="45.93527" lon="4.76576">
        <ele>168</ele>
        <time>2017-08-01T13:31:38Z</time>
      </trkpt>
      <trkpt lat="45.93525" lon="4.76573">
        <ele>168</ele>
        <time>2017-08-01T13:31:39Z</time>
      </trkpt>
      <trkpt lat="45.93518" lon="4.76565">
        <ele>168</ele>
        <time>2017-08-01T13:31:41Z</time>
      </trkpt>
      <trkpt lat="45.93515" lon="4.76561">
        <ele>168</ele>
        <time>2017-08-01T13:31:42Z</time>
      </trkpt>
      <trkpt lat="45.93511" lon="4.76556">
        <ele>168</ele>
        <time>2017-08-01T13:31:43Z</time>
      </trkpt>
      <trkpt lat="45.93507" lon="4.76552">
        <ele>168</ele>
        <time>2017-08-01T13:31:44Z</time>
      </trkpt>
      <trkpt lat="45.93501" lon="4.76545">
        <ele>167</ele>
        <time>2017-08-01T13:31:46Z</time>
      </trkpt>
      <trkpt lat="45.93498" lon="4.76542">
        <ele>168</ele>
        <time>2017-08-01T13:31:47Z</time>
      </trkpt>
      <trkpt lat="45.93491" lon="4.76535">
        <ele>168</ele>
        <time>2017-08-01T13:31:49Z</time>
      </trkpt>
      <trkpt lat="45.93489" lon="4.76532">
        <ele>168</ele>
        <time>2017-08-01T13:31:50Z</time>
      </trkpt>
      <trkpt lat="45.93482" lon="4.76526">
        <ele>168</ele>
        <time>2017-08-01T13:31:53Z</time>
      </trkpt>
      <trkpt lat="45.93479" lon="4.76525">
        <ele>168</ele>
        <time>2017-08-01T13:31:54Z</time>
      </trkpt>
      <trkpt lat="45.93473" lon="4.76518">
        <ele>168</ele>
        <time>2017-08-01T13:31:56Z</time>
      </trkpt>
      <trkpt lat="45.9347" lon="4.76515">
        <ele>168</ele>
        <time>2017-08-01T13:31:57Z</time>
      </trkpt>
      <trkpt lat="45.93463" lon="4.76507">
        <ele>168</ele>
        <time>2017-08-01T13:31:59Z</time>
      </trkpt>
      <trkpt lat="45.9346" lon="4.76502">
        <ele>168</ele>
        <time>2017-08-01T13:32:00Z</time>
      </trkpt>
      <trkpt lat="45.93457" lon="4.76497">
        <ele>167</ele>
        <time>2017-08-01T13:32:01Z</time>
      </trkpt>
      <trkpt lat="45.93454" lon="4.76493">
        <ele>167</ele>
        <time>2017-08-01T13:32:02Z</time>
      </trkpt>
      <trkpt lat="45.93447" lon="4.76485">
        <ele>167</ele>
        <time>2017-08-01T13:32:04Z</time>
      </trkpt>
      <trkpt lat="45.93444" lon="4.76481">
        <ele>167</ele>
        <time>2017-08-01T13:32:05Z</time>
      </trkpt>
      <trkpt lat="45.93438" lon="4.76472">
        <ele>167</ele>
        <time>2017-08-01T13:32:07Z</time>
      </trkpt>
      <trkpt lat="45.93435" lon="4.76466">
        <ele>167</ele>
        <time>2017-08-01T13:32:08Z</time>
      </trkpt>
      <trkpt lat="45.93432" lon="4.76461">
        <ele>167</ele>
        <time>2017-08-01T13:32:09Z</time>
      </trkpt>
      <trkpt lat="45.93429" lon="4.76455">
        <ele>167</ele>
        <time>2017-08-01T13:32:10Z</time>
      </trkpt>
      <trkpt lat="45.93426" lon="4.76449">
        <ele>167</ele>
        <time>2017-08-01T13:32:11Z</time>
      </trkpt>
      <trkpt lat="45.93423" lon="4.76443">
        <ele>167</ele>
        <time>2017-08-01T13:32:12Z</time>
      </trkpt>
      <trkpt lat="45.9342" lon="4.76438">
        <ele>167</ele>
        <time>2017-08-01T13:32:13Z</time>
      </trkpt>
      <trkpt lat="45.93416" lon="4.76434">
        <ele>167</ele>
        <time>2017-08-01T13:32:14Z</time>
      </trkpt>
      <trkpt lat="45.9341" lon="4.76425">
        <ele>167</ele>
        <time>2017-08-01T13:32:16Z</time>
      </trkpt>
      <trkpt lat="45.93408" lon="4.76421">
        <ele>167</ele>
        <time>2017-08-01T13:32:17Z</time>
      </trkpt>
      <trkpt lat="45.93402" lon="4.76413">
        <ele>167</ele>
        <time>2017-08-01T13:32:19Z</time>
      </trkpt>
      <trkpt lat="45.93398" lon="4.76409">
        <ele>167</ele>
        <time>2017-08-01T13:32:20Z</time>
      </trkpt>
      <trkpt lat="45.93395" lon="4.76405">
        <ele>167</ele>
        <time>2017-08-01T13:32:21Z</time>
      </trkpt>
      <trkpt lat="45.93391" lon="4.76401">
        <ele>167</ele>
        <time>2017-08-01T13:32:22Z</time>
      </trkpt>
      <trkpt lat="45.93387" lon="4.76396">
        <ele>167</ele>
        <time>2017-08-01T13:32:23Z</time>
      </trkpt>
      <trkpt lat="45.93381" lon="4.7639">
        <ele>168</ele>
        <time>2017-08-01T13:32:24Z</time>
      </trkpt>
      <trkpt lat="45.93377" lon="4.76385">
        <ele>168</ele>
        <time>2017-08-01T13:32:25Z</time>
      </trkpt>
      <trkpt lat="45.93374" lon="4.76379">
        <ele>168</ele>
        <time>2017-08-01T13:32:26Z</time>
      </trkpt>
      <trkpt lat="45.93371" lon="4.76374">
        <ele>168</ele>
        <time>2017-08-01T13:32:27Z</time>
      </trkpt>
      <trkpt lat="45.93368" lon="4.76369">
        <ele>168</ele>
        <time>2017-08-01T13:32:28Z</time>
      </trkpt>
      <trkpt lat="45.93362" lon="4.76361">
        <ele>168</ele>
        <time>2017-08-01T13:32:30Z</time>
      </trkpt>
      <trkpt lat="45.93359" lon="4.76357">
        <ele>168</ele>
        <time>2017-08-01T13:32:31Z</time>
      </trkpt>
      <trkpt lat="45.93356" lon="4.76352">
        <ele>168</ele>
        <time>2017-08-01T13:32:32Z</time>
      </trkpt>
      <trkpt lat="45.93352" lon="4.76348">
        <ele>168</ele>
        <time>2017-08-01T13:32:33Z</time>
      </trkpt>
      <trkpt lat="45.93348" lon="4.76342">
        <ele>168</ele>
        <time>2017-08-01T13:32:34Z</time>
      </trkpt>
      <trkpt lat="45.93346" lon="4.76337">
        <ele>168</ele>
        <time>2017-08-01T13:32:35Z</time>
      </trkpt>
      <trkpt lat="45.93343" lon="4.76332">
        <ele>169</ele>
        <time>2017-08-01T13:32:36Z</time>
      </trkpt>
      <trkpt lat="45.93339" lon="4.76327">
        <ele>169</ele>
        <time>2017-08-01T13:32:37Z</time>
      </trkpt>
      <trkpt lat="45.93336" lon="4.76323">
        <ele>169</ele>
        <time>2017-08-01T13:32:38Z</time>
      </trkpt>
      <trkpt lat="45.93332" lon="4.76319">
        <ele>169</ele>
        <time>2017-08-01T13:32:39Z</time>
      </trkpt>
      <trkpt lat="45.93327" lon="4.76316">
        <ele>168</ele>
        <time>2017-08-01T13:32:40Z</time>
      </trkpt>
      <trkpt lat="45.93323" lon="4.76314">
        <ele>168</ele>
        <time>2017-08-01T13:32:41Z</time>
      </trkpt>
      <trkpt lat="45.93314" lon="4.7631">
        <ele>168</ele>
        <time>2017-08-01T13:32:43Z</time>
      </trkpt>
      <trkpt lat="45.93311" lon="4.76308">
        <ele>168</ele>
        <time>2017-08-01T13:32:44Z</time>
      </trkpt>
      <trkpt lat="45.93305" lon="4.76306">
        <ele>168</ele>
        <time>2017-08-01T13:32:46Z</time>
      </trkpt>
      <trkpt lat="45.93302" lon="4.76306">
        <ele>168</ele>
        <time>2017-08-01T13:32:47Z</time>
      </trkpt>
      <trkpt lat="45.93294" lon="4.76304">
        <ele>168</ele>
        <time>2017-08-01T13:32:49Z</time>
      </trkpt>
      <trkpt lat="45.9329" lon="4.76303">
        <ele>168</ele>
        <time>2017-08-01T13:32:50Z</time>
      </trkpt>
      <trkpt lat="45.93282" lon="4.76302">
        <ele>168</ele>
        <time>2017-08-01T13:32:53Z</time>
      </trkpt>
      <trkpt lat="45.93279" lon="4.76301">
        <ele>168</ele>
        <time>2017-08-01T13:32:54Z</time>
      </trkpt>
      <trkpt lat="45.93273" lon="4.76296">
        <ele>168</ele>
        <time>2017-08-01T13:32:56Z</time>
      </trkpt>
      <trkpt lat="45.9327" lon="4.76296">
        <ele>168</ele>
        <time>2017-08-01T13:32:57Z</time>
      </trkpt>
      <trkpt lat="45.93261" lon="4.76296">
        <ele>168</ele>
        <time>2017-08-01T13:33:00Z</time>
      </trkpt>
      <trkpt lat="45.93257" lon="4.76296">
        <ele>168</ele>
        <time>2017-08-01T13:33:01Z</time>
      </trkpt>
      <trkpt lat="45.93253" lon="4.76294">
        <ele>169</ele>
        <time>2017-08-01T13:33:02Z</time>
      </trkpt>
      <trkpt lat="45.93248" lon="4.76293">
        <ele>169</ele>
        <time>2017-08-01T13:33:03Z</time>
      </trkpt>
      <trkpt lat="45.93243" lon="4.76296">
        <ele>169</ele>
        <time>2017-08-01T13:33:04Z</time>
      </trkpt>
      <trkpt lat="45.93239" lon="4.76301">
        <ele>169</ele>
        <time>2017-08-01T13:33:05Z</time>
      </trkpt>
      <trkpt lat="45.93236" lon="4.76307">
        <ele>169</ele>
        <time>2017-08-01T13:33:06Z</time>
      </trkpt>
      <trkpt lat="45.93234" lon="4.76313">
        <ele>169</ele>
        <time>2017-08-01T13:33:07Z</time>
      </trkpt>
      <trkpt lat="45.93231" lon="4.76324">
        <ele>168</ele>
        <time>2017-08-01T13:33:09Z</time>
      </trkpt>
      <trkpt lat="45.9323" lon="4.76329">
        <ele>168</ele>
        <time>2017-08-01T13:33:10Z</time>
      </trkpt>
      <trkpt lat="45.93228" lon="4.76339">
        <ele>168</ele>
        <time>2017-08-01T13:33:12Z</time>
      </trkpt>
      <trkpt lat="45.93228" lon="4.76345">
        <ele>168</ele>
        <time>2017-08-01T13:33:13Z</time>
      </trkpt>
      <trkpt lat="45.93227" lon="4.76352">
        <ele>168</ele>
        <time>2017-08-01T13:33:14Z</time>
      </trkpt>
      <trkpt lat="45.93227" lon="4.76358">
        <ele>168</ele>
        <time>2017-08-01T13:33:15Z</time>
      </trkpt>
      <trkpt lat="45.93226" lon="4.76365">
        <ele>168</ele>
        <time>2017-08-01T13:33:16Z</time>
      </trkpt>
      <trkpt lat="45.93226" lon="4.76373">
        <ele>168</ele>
        <time>2017-08-01T13:33:17Z</time>
      </trkpt>
      <trkpt lat="45.93226" lon="4.76379">
        <ele>168</ele>
        <time>2017-08-01T13:33:18Z</time>
      </trkpt>
      <trkpt lat="45.93226" lon="4.76386">
        <ele>168</ele>
        <time>2017-08-01T13:33:19Z</time>
      </trkpt>
      <trkpt lat="45.93225" lon="4.76397">
        <ele>168</ele>
        <time>2017-08-01T13:33:21Z</time>
      </trkpt>
      <trkpt lat="45.93225" lon="4.76403">
        <ele>168</ele>
        <time>2017-08-01T13:33:22Z</time>
      </trkpt>
      <trkpt lat="45.93224" lon="4.76415">
        <ele>168</ele>
        <time>2017-08-01T13:33:24Z</time>
      </trkpt>
      <trkpt lat="45.93224" lon="4.76422">
        <ele>168</ele>
        <time>2017-08-01T13:33:25Z</time>
      </trkpt>
      <trkpt lat="45.93223" lon="4.76429">
        <ele>168</ele>
        <time>2017-08-01T13:33:26Z</time>
      </trkpt>
      <trkpt lat="45.93222" lon="4.76436">
        <ele>168</ele>
        <time>2017-08-01T13:33:27Z</time>
      </trkpt>
      <trkpt lat="45.93222" lon="4.76443">
        <ele>168</ele>
        <time>2017-08-01T13:33:28Z</time>
      </trkpt>
      <trkpt lat="45.93221" lon="4.76449">
        <ele>168</ele>
        <time>2017-08-01T13:33:29Z</time>
      </trkpt>
      <trkpt lat="45.93221" lon="4.76456">
        <ele>168</ele>
        <time>2017-08-01T13:33:30Z</time>
      </trkpt>
      <trkpt lat="45.93221" lon="4.76463">
        <ele>169</ele>
        <time>2017-08-01T13:33:31Z</time>
      </trkpt>
      <trkpt lat="45.9322" lon="4.76474">
        <ele>169</ele>
        <time>2017-08-01T13:33:33Z</time>
      </trkpt>
      <trkpt lat="45.93219" lon="4.7648">
        <ele>169</ele>
        <time>2017-08-01T13:33:34Z</time>
      </trkpt>
      <trkpt lat="45.93218" lon="4.76491">
        <ele>169</ele>
        <time>2017-08-01T13:33:36Z</time>
      </trkpt>
      <trkpt lat="45.93217" lon="4.76496">
        <ele>169</ele>
        <time>2017-08-01T13:33:37Z</time>
      </trkpt>
      <trkpt lat="45.93216" lon="4.76503">
        <ele>169</ele>
        <time>2017-08-01T13:33:38Z</time>
      </trkpt>
      <trkpt lat="45.93216" lon="4.76509">
        <ele>169</ele>
        <time>2017-08-01T13:33:39Z</time>
      </trkpt>
      <trkpt lat="45.93215" lon="4.76516">
        <ele>169</ele>
        <time>2017-08-01T13:33:40Z</time>
      </trkpt>
      <trkpt lat="45.93214" lon="4.76523">
        <ele>169</ele>
        <time>2017-08-01T13:33:41Z</time>
      </trkpt>
      <trkpt lat="45.93213" lon="4.7653">
        <ele>169</ele>
        <time>2017-08-01T13:33:42Z</time>
      </trkpt>
      <trkpt lat="45.93212" lon="4.76537">
        <ele>169</ele>
        <time>2017-08-01T13:33:43Z</time>
      </trkpt>
      <trkpt lat="45.9321" lon="4.76549">
        <ele>169</ele>
        <time>2017-08-01T13:33:45Z</time>
      </trkpt>
      <trkpt lat="45.93209" lon="4.76555">
        <ele>169</ele>
        <time>2017-08-01T13:33:46Z</time>
      </trkpt>
      <trkpt lat="45.93207" lon="4.76566">
        <ele>169</ele>
        <time>2017-08-01T13:33:48Z</time>
      </trkpt>
      <trkpt lat="45.93206" lon="4.76571">
        <ele>169</ele>
        <time>2017-08-01T13:33:49Z</time>
      </trkpt>
      <trkpt lat="45.93201" lon="4.7658">
        <ele>169</ele>
        <time>2017-08-01T13:33:51Z</time>
      </trkpt>
      <trkpt lat="45.93199" lon="4.76584">
        <ele>170</ele>
        <time>2017-08-01T13:33:52Z</time>
      </trkpt>
      <trkpt lat="45.93192" lon="4.76592">
        <ele>170</ele>
        <time>2017-08-01T13:33:56Z</time>
      </trkpt>
      <trkpt lat="45.93189" lon="4.76591">
        <ele>170</ele>
        <time>2017-08-01T13:33:57Z</time>
      </trkpt>
      <trkpt lat="45.93184" lon="4.76586">
        <ele>171</ele>
        <time>2017-08-01T13:33:59Z</time>
      </trkpt>
      <trkpt lat="45.93181" lon="4.76582">
        <ele>170</ele>
        <time>2017-08-01T13:34:00Z</time>
      </trkpt>
      <trkpt lat="45.93176" lon="4.76576">
        <ele>170</ele>
        <time>2017-08-01T13:34:02Z</time>
      </trkpt>
      <trkpt lat="45.93172" lon="4.76572">
        <ele>170</ele>
        <time>2017-08-01T13:34:03Z</time>
      </trkpt>
      <trkpt lat="45.93169" lon="4.76568">
        <ele>170</ele>
        <time>2017-08-01T13:34:04Z</time>
      </trkpt>
      <trkpt lat="45.93165" lon="4.76564">
        <ele>170</ele>
        <time>2017-08-01T13:34:05Z</time>
      </trkpt>
      <trkpt lat="45.93161" lon="4.7656">
        <ele>170</ele>
        <time>2017-08-01T13:34:06Z</time>
      </trkpt>
      <trkpt lat="45.93157" lon="4.76556">
        <ele>170</ele>
        <time>2017-08-01T13:34:07Z</time>
      </trkpt>
      <trkpt lat="45.93152" lon="4.76552">
        <ele>170</ele>
        <time>2017-08-01T13:34:08Z</time>
      </trkpt>
      <trkpt lat="45.93148" lon="4.76548">
        <ele>170</ele>
        <time>2017-08-01T13:34:09Z</time>
      </trkpt>
      <trkpt lat="45.93144" lon="4.76544">
        <ele>170</ele>
        <time>2017-08-01T13:34:10Z</time>
      </trkpt>
      <trkpt lat="45.9314" lon="4.7654">
        <ele>170</ele>
        <time>2017-08-01T13:34:11Z</time>
      </trkpt>
      <trkpt lat="45.93137" lon="4.76535">
        <ele>170</ele>
        <time>2017-08-01T13:34:12Z</time>
      </trkpt>
      <trkpt lat="45.93133" lon="4.76531">
        <ele>170</ele>
        <time>2017-08-01T13:34:13Z</time>
      </trkpt>
      <trkpt lat="45.93129" lon="4.76526">
        <ele>170</ele>
        <time>2017-08-01T13:34:14Z</time>
      </trkpt>
      <trkpt lat="45.93125" lon="4.76522">
        <ele>170</ele>
        <time>2017-08-01T13:34:15Z</time>
      </trkpt>
      <trkpt lat="45.9312" lon="4.76517">
        <ele>170</ele>
        <time>2017-08-01T13:34:16Z</time>
      </trkpt>
      <trkpt lat="45.93115" lon="4.76513">
        <ele>170</ele>
        <time>2017-08-01T13:34:17Z</time>
      </trkpt>
      <trkpt lat="45.9311" lon="4.76509">
        <ele>170</ele>
        <time>2017-08-01T13:34:18Z</time>
      </trkpt>
      <trkpt lat="45.93106" lon="4.76505">
        <ele>170</ele>
        <time>2017-08-01T13:34:19Z</time>
      </trkpt>
      <trkpt lat="45.93098" lon="4.76499">
        <ele>170</ele>
        <time>2017-08-01T13:34:21Z</time>
      </trkpt>
      <trkpt lat="45.93093" lon="4.76496">
        <ele>170</ele>
        <time>2017-08-01T13:34:22Z</time>
      </trkpt>
      <trkpt lat="45.93085" lon="4.76489">
        <ele>170</ele>
        <time>2017-08-01T13:34:24Z</time>
      </trkpt>
      <trkpt lat="45.93082" lon="4.76486">
        <ele>170</ele>
        <time>2017-08-01T13:34:25Z</time>
      </trkpt>
      <trkpt lat="45.93078" lon="4.76481">
        <ele>169</ele>
        <time>2017-08-01T13:34:26Z</time>
      </trkpt>
      <trkpt lat="45.93074" lon="4.76477">
        <ele>169</ele>
        <time>2017-08-01T13:34:27Z</time>
      </trkpt>
      <trkpt lat="45.9307" lon="4.76471">
        <ele>169</ele>
        <time>2017-08-01T13:34:28Z</time>
      </trkpt>
      <trkpt lat="45.93066" lon="4.76465">
        <ele>169</ele>
        <time>2017-08-01T13:34:29Z</time>
      </trkpt>
      <trkpt lat="45.93062" lon="4.7646">
        <ele>169</ele>
        <time>2017-08-01T13:34:30Z</time>
      </trkpt>
      <trkpt lat="45.93057" lon="4.76457">
        <ele>169</ele>
        <time>2017-08-01T13:34:31Z</time>
      </trkpt>
      <trkpt lat="45.93052" lon="4.76454">
        <ele>169</ele>
        <time>2017-08-01T13:34:32Z</time>
      </trkpt>
      <trkpt lat="45.93049" lon="4.7645">
        <ele>169</ele>
        <time>2017-08-01T13:34:33Z</time>
      </trkpt>
      <trkpt lat="45.93045" lon="4.76447">
        <ele>169</ele>
        <time>2017-08-01T13:34:34Z</time>
      </trkpt>
      <trkpt lat="45.93041" lon="4.76443">
        <ele>169</ele>
        <time>2017-08-01T13:34:35Z</time>
      </trkpt>
      <trkpt lat="45.93037" lon="4.76438">
        <ele>169</ele>
        <time>2017-08-01T13:34:36Z</time>
      </trkpt>
      <trkpt lat="45.93033" lon="4.76434">
        <ele>169</ele>
        <time>2017-08-01T13:34:37Z</time>
      </trkpt>
      <trkpt lat="45.93029" lon="4.76429">
        <ele>169</ele>
        <time>2017-08-01T13:34:38Z</time>
      </trkpt>
      <trkpt lat="45.93023" lon="4.76425">
        <ele>169</ele>
        <time>2017-08-01T13:34:39Z</time>
      </trkpt>
      <trkpt lat="45.93019" lon="4.76421">
        <ele>169</ele>
        <time>2017-08-01T13:34:40Z</time>
      </trkpt>
      <trkpt lat="45.93015" lon="4.76418">
        <ele>169</ele>
        <time>2017-08-01T13:34:41Z</time>
      </trkpt>
      <trkpt lat="45.93008" lon="4.7641">
        <ele>169</ele>
        <time>2017-08-01T13:34:43Z</time>
      </trkpt>
      <trkpt lat="45.93004" lon="4.76407">
        <ele>169</ele>
        <time>2017-08-01T13:34:44Z</time>
      </trkpt>
      <trkpt lat="45.92997" lon="4.764">
        <ele>169</ele>
        <time>2017-08-01T13:34:46Z</time>
      </trkpt>
      <trkpt lat="45.92994" lon="4.76396">
        <ele>169</ele>
        <time>2017-08-01T13:34:47Z</time>
      </trkpt>
      <trkpt lat="45.92989" lon="4.76393">
        <ele>169</ele>
        <time>2017-08-01T13:34:48Z</time>
      </trkpt>
      <trkpt lat="45.92984" lon="4.76389">
        <ele>169</ele>
        <time>2017-08-01T13:34:49Z</time>
      </trkpt>
      <trkpt lat="45.92979" lon="4.76385">
        <ele>169</ele>
        <time>2017-08-01T13:34:50Z</time>
      </trkpt>
      <trkpt lat="45.92975" lon="4.7638">
        <ele>169</ele>
        <time>2017-08-01T13:34:51Z</time>
      </trkpt>
      <trkpt lat="45.9297" lon="4.76375">
        <ele>169</ele>
        <time>2017-08-01T13:34:52Z</time>
      </trkpt>
      <trkpt lat="45.92965" lon="4.7637">
        <ele>169</ele>
        <time>2017-08-01T13:34:53Z</time>
      </trkpt>
      <trkpt lat="45.9296" lon="4.76364">
        <ele>169</ele>
        <time>2017-08-01T13:34:54Z</time>
      </trkpt>
      <trkpt lat="45.92955" lon="4.76359">
        <ele>169</ele>
        <time>2017-08-01T13:34:55Z</time>
      </trkpt>
      <trkpt lat="45.92951" lon="4.76354">
        <ele>169</ele>
        <time>2017-08-01T13:34:56Z</time>
      </trkpt>
      <trkpt lat="45.92946" lon="4.76349">
        <ele>169</ele>
        <time>2017-08-01T13:34:57Z</time>
      </trkpt>
      <trkpt lat="45.92942" lon="4.76344">
        <ele>169</ele>
        <time>2017-08-01T13:34:58Z</time>
      </trkpt>
      <trkpt lat="45.92937" lon="4.76339">
        <ele>169</ele>
        <time>2017-08-01T13:34:59Z</time>
      </trkpt>
      <trkpt lat="45.92933" lon="4.76335">
        <ele>169</ele>
        <time>2017-08-01T13:35:00Z</time>
      </trkpt>
      <trkpt lat="45.92929" lon="4.76331">
        <ele>169</ele>
        <time>2017-08-01T13:35:01Z</time>
      </trkpt>
      <trkpt lat="45.92926" lon="4.76327">
        <ele>169</ele>
        <time>2017-08-01T13:35:02Z</time>
      </trkpt>
      <trkpt lat="45.92922" lon="4.76323">
        <ele>169</ele>
        <time>2017-08-01T13:35:03Z</time>
      </trkpt>
      <trkpt lat="45.92914" lon="4.76318">
        <ele>169</ele>
        <time>2017-08-01T13:35:05Z</time>
      </trkpt>
      <trkpt lat="45.9291" lon="4.76315">
        <ele>169</ele>
        <time>2017-08-01T13:35:06Z</time>
      </trkpt>
      <trkpt lat="45.92906" lon="4.76311">
        <ele>169</ele>
        <time>2017-08-01T13:35:07Z</time>
      </trkpt>
      <trkpt lat="45.92902" lon="4.76307">
        <ele>169</ele>
        <time>2017-08-01T13:35:08Z</time>
      </trkpt>
      <trkpt lat="45.92898" lon="4.76303">
        <ele>169</ele>
        <time>2017-08-01T13:35:09Z</time>
      </trkpt>
      <trkpt lat="45.92894" lon="4.76299">
        <ele>169</ele>
        <time>2017-08-01T13:35:10Z</time>
      </trkpt>
      <trkpt lat="45.92889" lon="4.76296">
        <ele>169</ele>
        <time>2017-08-01T13:35:11Z</time>
      </trkpt>
      <trkpt lat="45.92884" lon="4.76296">
        <ele>169</ele>
        <time>2017-08-01T13:35:12Z</time>
      </trkpt>
      <trkpt lat="45.92879" lon="4.76299">
        <ele>169</ele>
        <time>2017-08-01T13:35:13Z</time>
      </trkpt>
      <trkpt lat="45.92873" lon="4.76302">
        <ele>169</ele>
        <time>2017-08-01T13:35:14Z</time>
      </trkpt>
      <trkpt lat="45.92868" lon="4.76307">
        <ele>169</ele>
        <time>2017-08-01T13:35:15Z</time>
      </trkpt>
      <trkpt lat="45.92863" lon="4.76314">
        <ele>169</ele>
        <time>2017-08-01T13:35:16Z</time>
      </trkpt>
      <trkpt lat="45.92859" lon="4.76321">
        <ele>169</ele>
        <time>2017-08-01T13:35:17Z</time>
      </trkpt>
      <trkpt lat="45.92856" lon="4.76327">
        <ele>169</ele>
        <time>2017-08-01T13:35:18Z</time>
      </trkpt>
      <trkpt lat="45.92852" lon="4.76333">
        <ele>169</ele>
        <time>2017-08-01T13:35:19Z</time>
      </trkpt>
      <trkpt lat="45.92848" lon="4.76339">
        <ele>170</ele>
        <time>2017-08-01T13:35:20Z</time>
      </trkpt>
      <trkpt lat="45.92844" lon="4.76344">
        <ele>170</ele>
        <time>2017-08-01T13:35:21Z</time>
      </trkpt>
      <trkpt lat="45.9284" lon="4.7635">
        <ele>170</ele>
        <time>2017-08-01T13:35:22Z</time>
      </trkpt>
      <trkpt lat="45.92836" lon="4.76356">
        <ele>170</ele>
        <time>2017-08-01T13:35:23Z</time>
      </trkpt>
      <trkpt lat="45.92832" lon="4.76361">
        <ele>169</ele>
        <time>2017-08-01T13:35:24Z</time>
      </trkpt>
      <trkpt lat="45.92829" lon="4.76366">
        <ele>169</ele>
        <time>2017-08-01T13:35:25Z</time>
      </trkpt>
      <trkpt lat="45.92826" lon="4.7637">
        <ele>169</ele>
        <time>2017-08-01T13:35:26Z</time>
      </trkpt>
      <trkpt lat="45.92822" lon="4.76375">
        <ele>169</ele>
        <time>2017-08-01T13:35:27Z</time>
      </trkpt>
      <trkpt lat="45.92818" lon="4.76379">
        <ele>169</ele>
        <time>2017-08-01T13:35:28Z</time>
      </trkpt>
      <trkpt lat="45.92815" lon="4.76383">
        <ele>169</ele>
        <time>2017-08-01T13:35:29Z</time>
      </trkpt>
      <trkpt lat="45.92811" lon="4.76386">
        <ele>169</ele>
        <time>2017-08-01T13:35:30Z</time>
      </trkpt>
      <trkpt lat="45.92802" lon="4.76386">
        <ele>169</ele>
        <time>2017-08-01T13:35:32Z</time>
      </trkpt>
      <trkpt lat="45.92798" lon="4.76385">
        <ele>169</ele>
        <time>2017-08-01T13:35:33Z</time>
      </trkpt>
      <trkpt lat="45.92792" lon="4.76383">
        <ele>169</ele>
        <time>2017-08-01T13:35:34Z</time>
      </trkpt>
      <trkpt lat="45.92788" lon="4.76381">
        <ele>169</ele>
        <time>2017-08-01T13:35:35Z</time>
      </trkpt>
      <trkpt lat="45.92781" lon="4.76379">
        <ele>169</ele>
        <time>2017-08-01T13:35:36Z</time>
      </trkpt>
      <trkpt lat="45.92776" lon="4.76377">
        <ele>169</ele>
        <time>2017-08-01T13:35:37Z</time>
      </trkpt>
      <trkpt lat="45.9277" lon="4.76374">
        <ele>169</ele>
        <time>2017-08-01T13:35:38Z</time>
      </trkpt>
      <trkpt lat="45.92763" lon="4.76372">
        <ele>169</ele>
        <time>2017-08-01T13:35:39Z</time>
      </trkpt>
      <trkpt lat="45.92758" lon="4.7637">
        <ele>169</ele>
        <time>2017-08-01T13:35:40Z</time>
      </trkpt>
      <trkpt lat="45.92752" lon="4.76367">
        <ele>169</ele>
        <time>2017-08-01T13:35:41Z</time>
      </trkpt>
      <trkpt lat="45.92747" lon="4.76365">
        <ele>169</ele>
        <time>2017-08-01T13:35:42Z</time>
      </trkpt>
      <trkpt lat="45.92742" lon="4.76363">
        <ele>169</ele>
        <time>2017-08-01T13:35:43Z</time>
      </trkpt>
      <trkpt lat="45.92736" lon="4.76361">
        <ele>169</ele>
        <time>2017-08-01T13:35:44Z</time>
      </trkpt>
      <trkpt lat="45.92731" lon="4.76359">
        <ele>169</ele>
        <time>2017-08-01T13:35:45Z</time>
      </trkpt>
      <trkpt lat="45.92726" lon="4.76357">
        <ele>169</ele>
        <time>2017-08-01T13:35:46Z</time>
      </trkpt>
      <trkpt lat="45.92721" lon="4.76355">
        <ele>169</ele>
        <time>2017-08-01T13:35:47Z</time>
      </trkpt>
      <trkpt lat="45.92716" lon="4.76353">
        <ele>169</ele>
        <time>2017-08-01T13:35:48Z</time>
      </trkpt>
      <trkpt lat="45.9271" lon="4.76351">
        <ele>169</ele>
        <time>2017-08-01T13:35:49Z</time>
      </trkpt>
      <trkpt lat="45.92704" lon="4.76349">
        <ele>168</ele>
        <time>2017-08-01T13:35:50Z</time>
      </trkpt>
      <trkpt lat="45.92699" lon="4.76347">
        <ele>168</ele>
        <time>2017-08-01T13:35:51Z</time>
      </trkpt>
      <trkpt lat="45.92693" lon="4.76346">
        <ele>168</ele>
        <time>2017-08-01T13:35:52Z</time>
      </trkpt>
      <trkpt lat="45.92688" lon="4.76344">
        <ele>168</ele>
        <time>2017-08-01T13:35:53Z</time>
      </trkpt>
      <trkpt lat="45.92683" lon="4.76342">
        <ele>168</ele>
        <time>2017-08-01T13:35:54Z</time>
      </trkpt>
      <trkpt lat="45.92678" lon="4.7634">
        <ele>168</ele>
        <time>2017-08-01T13:35:55Z</time>
      </trkpt>
      <trkpt lat="45.92672" lon="4.76338">
        <ele>168</ele>
        <time>2017-08-01T13:35:56Z</time>
      </trkpt>
      <trkpt lat="45.92667" lon="4.76336">
        <ele>168</ele>
        <time>2017-08-01T13:35:57Z</time>
      </trkpt>
      <trkpt lat="45.92663" lon="4.76334">
        <ele>168</ele>
        <time>2017-08-01T13:35:58Z</time>
      </trkpt>
      <trkpt lat="45.92658" lon="4.76332">
        <ele>168</ele>
        <time>2017-08-01T13:35:59Z</time>
      </trkpt>
      <trkpt lat="45.92654" lon="4.7633">
        <ele>168</ele>
        <time>2017-08-01T13:36:00Z</time>
      </trkpt>
      <trkpt lat="45.92649" lon="4.76328">
        <ele>168</ele>
        <time>2017-08-01T13:36:01Z</time>
      </trkpt>
      <trkpt lat="45.92644" lon="4.76325">
        <ele>168</ele>
        <time>2017-08-01T13:36:02Z</time>
      </trkpt>
      <trkpt lat="45.9264" lon="4.76323">
        <ele>168</ele>
        <time>2017-08-01T13:36:03Z</time>
      </trkpt>
      <trkpt lat="45.92635" lon="4.7632">
        <ele>168</ele>
        <time>2017-08-01T13:36:04Z</time>
      </trkpt>
      <trkpt lat="45.92631" lon="4.76318">
        <ele>168</ele>
        <time>2017-08-01T13:36:05Z</time>
      </trkpt>
      <trkpt lat="45.92623" lon="4.76313">
        <ele>167</ele>
        <time>2017-08-01T13:36:07Z</time>
      </trkpt>
      <trkpt lat="45.92619" lon="4.76311">
        <ele>167</ele>
        <time>2017-08-01T13:36:08Z</time>
      </trkpt>
      <trkpt lat="45.92611" lon="4.76306">
        <ele>167</ele>
        <time>2017-08-01T13:36:10Z</time>
      </trkpt>
      <trkpt lat="45.92607" lon="4.76304">
        <ele>167</ele>
        <time>2017-08-01T13:36:11Z</time>
      </trkpt>
      <trkpt lat="45.92602" lon="4.76301">
        <ele>167</ele>
        <time>2017-08-01T13:36:12Z</time>
      </trkpt>
      <trkpt lat="45.92598" lon="4.76299">
        <ele>167</ele>
        <time>2017-08-01T13:36:13Z</time>
      </trkpt>
      <trkpt lat="45.9259" lon="4.76294">
        <ele>167</ele>
        <time>2017-08-01T13:36:15Z</time>
      </trkpt>
      <trkpt lat="45.92587" lon="4.76292">
        <ele>168</ele>
        <time>2017-08-01T13:36:16Z</time>
      </trkpt>
      <trkpt lat="45.92579" lon="4.76288">
        <ele>168</ele>
        <time>2017-08-01T13:36:18Z</time>
      </trkpt>
      <trkpt lat="45.92575" lon="4.76286">
        <ele>168</ele>
        <time>2017-08-01T13:36:19Z</time>
      </trkpt>
      <trkpt lat="45.92567" lon="4.76281">
        <ele>168</ele>
        <time>2017-08-01T13:36:21Z</time>
      </trkpt>
      <trkpt lat="45.92563" lon="4.76278">
        <ele>168</ele>
        <time>2017-08-01T13:36:22Z</time>
      </trkpt>
      <trkpt lat="45.92556" lon="4.76274">
        <ele>168</ele>
        <time>2017-08-01T13:36:24Z</time>
      </trkpt>
      <trkpt lat="45.92552" lon="4.76272">
        <ele>168</ele>
        <time>2017-08-01T13:36:25Z</time>
      </trkpt>
      <trkpt lat="45.92546" lon="4.76267">
        <ele>168</ele>
        <time>2017-08-01T13:36:27Z</time>
      </trkpt>
      <trkpt lat="45.92542" lon="4.76264">
        <ele>168</ele>
        <time>2017-08-01T13:36:28Z</time>
      </trkpt>
      <trkpt lat="45.92538" lon="4.76262">
        <ele>168</ele>
        <time>2017-08-01T13:36:29Z</time>
      </trkpt>
      <trkpt lat="45.92533" lon="4.76259">
        <ele>168</ele>
        <time>2017-08-01T13:36:30Z</time>
      </trkpt>
      <trkpt lat="45.92529" lon="4.76257">
        <ele>168</ele>
        <time>2017-08-01T13:36:31Z</time>
      </trkpt>
      <trkpt lat="45.92524" lon="4.76255">
        <ele>168</ele>
        <time>2017-08-01T13:36:32Z</time>
      </trkpt>
      <trkpt lat="45.92519" lon="4.76254">
        <ele>168</ele>
        <time>2017-08-01T13:36:33Z</time>
      </trkpt>
      <trkpt lat="45.92514" lon="4.76253">
        <ele>168</ele>
        <time>2017-08-01T13:36:34Z</time>
      </trkpt>
      <trkpt lat="45.92506" lon="4.76254">
        <ele>168</ele>
        <time>2017-08-01T13:36:36Z</time>
      </trkpt>
      <trkpt lat="45.92501" lon="4.76255">
        <ele>168</ele>
        <time>2017-08-01T13:36:37Z</time>
      </trkpt>
      <trkpt lat="45.92493" lon="4.76259">
        <ele>168</ele>
        <time>2017-08-01T13:36:39Z</time>
      </trkpt>
      <trkpt lat="45.92489" lon="4.76261">
        <ele>169</ele>
        <time>2017-08-01T13:36:40Z</time>
      </trkpt>
      <trkpt lat="45.92484" lon="4.76264">
        <ele>169</ele>
        <time>2017-08-01T13:36:41Z</time>
      </trkpt>
      <trkpt lat="45.9248" lon="4.76267">
        <ele>169</ele>
        <time>2017-08-01T13:36:42Z</time>
      </trkpt>
      <trkpt lat="45.92473" lon="4.76271">
        <ele>169</ele>
        <time>2017-08-01T13:36:44Z</time>
      </trkpt>
      <trkpt lat="45.92469" lon="4.76273">
        <ele>169</ele>
        <time>2017-08-01T13:36:45Z</time>
      </trkpt>
      <trkpt lat="45.92462" lon="4.76279">
        <ele>169</ele>
        <time>2017-08-01T13:36:47Z</time>
      </trkpt>
      <trkpt lat="45.92459" lon="4.76283">
        <ele>169</ele>
        <time>2017-08-01T13:36:48Z</time>
      </trkpt>
      <trkpt lat="45.92456" lon="4.76288">
        <ele>169</ele>
        <time>2017-08-01T13:36:49Z</time>
      </trkpt>
      <trkpt lat="45.92453" lon="4.76294">
        <ele>169</ele>
        <time>2017-08-01T13:36:50Z</time>
      </trkpt>
      <trkpt lat="45.9245" lon="4.763">
        <ele>169</ele>
        <time>2017-08-01T13:36:51Z</time>
      </trkpt>
      <trkpt lat="45.92447" lon="4.76306">
        <ele>169</ele>
        <time>2017-08-01T13:36:52Z</time>
      </trkpt>
      <trkpt lat="45.92445" lon="4.76312">
        <ele>169</ele>
        <time>2017-08-01T13:36:53Z</time>
      </trkpt>
      <trkpt lat="45.92442" lon="4.76318">
        <ele>170</ele>
        <time>2017-08-01T13:36:54Z</time>
      </trkpt>
      <trkpt lat="45.92438" lon="4.76329">
        <ele>170</ele>
        <time>2017-08-01T13:36:56Z</time>
      </trkpt>
      <trkpt lat="45.92435" lon="4.76334">
        <ele>170</ele>
        <time>2017-08-01T13:36:57Z</time>
      </trkpt>
      <trkpt lat="45.92431" lon="4.76344">
        <ele>170</ele>
        <time>2017-08-01T13:36:59Z</time>
      </trkpt>
      <trkpt lat="45.92429" lon="4.76349">
        <ele>170</ele>
        <time>2017-08-01T13:37:00Z</time>
      </trkpt>
      <trkpt lat="45.92425" lon="4.76359">
        <ele>170</ele>
        <time>2017-08-01T13:37:02Z</time>
      </trkpt>
      <trkpt lat="45.92423" lon="4.76363">
        <ele>170</ele>
        <time>2017-08-01T13:37:03Z</time>
      </trkpt>
      <trkpt lat="45.9242" lon="4.76372">
        <ele>170</ele>
        <time>2017-08-01T13:37:05Z</time>
      </trkpt>
      <trkpt lat="45.92418" lon="4.76375">
        <ele>170</ele>
        <time>2017-08-01T13:37:06Z</time>
      </trkpt>
      <trkpt lat="45.92411" lon="4.76381">
        <ele>169</ele>
        <time>2017-08-01T13:37:09Z</time>
      </trkpt>
      <trkpt lat="45.92408" lon="4.7638">
        <ele>169</ele>
        <time>2017-08-01T13:37:10Z</time>
      </trkpt>
      <trkpt lat="45.92402" lon="4.76376">
        <ele>169</ele>
        <time>2017-08-01T13:37:12Z</time>
      </trkpt>
      <trkpt lat="45.924" lon="4.76374">
        <ele>169</ele>
        <time>2017-08-01T13:37:13Z</time>
      </trkpt>
      <trkpt lat="45.92394" lon="4.7637">
        <ele>169</ele>
        <time>2017-08-01T13:37:15Z</time>
      </trkpt>
      <trkpt lat="45.92391" lon="4.76367">
        <ele>169</ele>
        <time>2017-08-01T13:37:16Z</time>
      </trkpt>
      <trkpt lat="45.92385" lon="4.76363">
        <ele>168</ele>
        <time>2017-08-01T13:37:18Z</time>
      </trkpt>
      <trkpt lat="45.92381" lon="4.76361">
        <ele>168</ele>
        <time>2017-08-01T13:37:19Z</time>
      </trkpt>
      <trkpt lat="45.92375" lon="4.76353">
        <ele>168</ele>
        <time>2017-08-01T13:37:22Z</time>
      </trkpt>
      <trkpt lat="45.92372" lon="4.76352">
        <ele>168</ele>
        <time>2017-08-01T13:37:23Z</time>
      </trkpt>
      <trkpt lat="45.92367" lon="4.76348">
        <ele>168</ele>
        <time>2017-08-01T13:37:25Z</time>
      </trkpt>
      <trkpt lat="45.92364" lon="4.76346">
        <ele>168</ele>
        <time>2017-08-01T13:37:26Z</time>
      </trkpt>
      <trkpt lat="45.92355" lon="4.76344">
        <ele>168</ele>
        <time>2017-08-01T13:37:28Z</time>
      </trkpt>
      <trkpt lat="45.92351" lon="4.76345">
        <ele>168</ele>
        <time>2017-08-01T13:37:29Z</time>
      </trkpt>
      <trkpt lat="45.92344" lon="4.7635">
        <ele>168</ele>
        <time>2017-08-01T13:37:31Z</time>
      </trkpt>
      <trkpt lat="45.92341" lon="4.76353">
        <ele>168</ele>
        <time>2017-08-01T13:37:32Z</time>
      </trkpt>
      <trkpt lat="45.92334" lon="4.76356">
        <ele>168</ele>
        <time>2017-08-01T13:37:34Z</time>
      </trkpt>
      <trkpt lat="45.92331" lon="4.76358">
        <ele>167</ele>
        <time>2017-08-01T13:37:35Z</time>
      </trkpt>
      <trkpt lat="45.92323" lon="4.76362">
        <ele>167</ele>
        <time>2017-08-01T13:37:37Z</time>
      </trkpt>
      <trkpt lat="45.9232" lon="4.76364">
        <ele>167</ele>
        <time>2017-08-01T13:37:38Z</time>
      </trkpt>
      <trkpt lat="45.92313" lon="4.76366">
        <ele>167</ele>
        <time>2017-08-01T13:37:40Z</time>
      </trkpt>
      <trkpt lat="45.92309" lon="4.76367">
        <ele>167</ele>
        <time>2017-08-01T13:37:41Z</time>
      </trkpt>
      <trkpt lat="45.92301" lon="4.7637">
        <ele>167</ele>
        <time>2017-08-01T13:37:43Z</time>
      </trkpt>
      <trkpt lat="45.92297" lon="4.76371">
        <ele>167</ele>
        <time>2017-08-01T13:37:44Z</time>
      </trkpt>
      <trkpt lat="45.9229" lon="4.76374">
        <ele>167</ele>
        <time>2017-08-01T13:37:46Z</time>
      </trkpt>
      <trkpt lat="45.92286" lon="4.76375">
        <ele>167</ele>
        <time>2017-08-01T13:37:47Z</time>
      </trkpt>
      <trkpt lat="45.92278" lon="4.76378">
        <ele>167</ele>
        <time>2017-08-01T13:37:49Z</time>
      </trkpt>
      <trkpt lat="45.92274" lon="4.7638">
        <ele>167</ele>
        <time>2017-08-01T13:37:50Z</time>
      </trkpt>
      <trkpt lat="45.92266" lon="4.76383">
        <ele>167</ele>
        <time>2017-08-01T13:37:52Z</time>
      </trkpt>
      <trkpt lat="45.92262" lon="4.76384">
        <ele>167</ele>
        <time>2017-08-01T13:37:53Z</time>
      </trkpt>
      <trkpt lat="45.92253" lon="4.76387">
        <ele>167</ele>
        <time>2017-08-01T13:37:55Z</time>
      </trkpt>
      <trkpt lat="45.92249" lon="4.76388">
        <ele>168</ele>
        <time>2017-08-01T13:37:56Z</time>
      </trkpt>
      <trkpt lat="45.92242" lon="4.76388">
        <ele>168</ele>
        <time>2017-08-01T13:37:58Z</time>
      </trkpt>
      <trkpt lat="45.92238" lon="4.76387">
        <ele>168</ele>
        <time>2017-08-01T13:37:59Z</time>
      </trkpt>
      <trkpt lat="45.92229" lon="4.76385">
        <ele>168</ele>
        <time>2017-08-01T13:38:01Z</time>
      </trkpt>
      <trkpt lat="45.92226" lon="4.76383">
        <ele>168</ele>
        <time>2017-08-01T13:38:02Z</time>
      </trkpt>
      <trkpt lat="45.92219" lon="4.76378">
        <ele>168</ele>
        <time>2017-08-01T13:38:04Z</time>
      </trkpt>
      <trkpt lat="45.92215" lon="4.76376">
        <ele>168</ele>
        <time>2017-08-01T13:38:05Z</time>
      </trkpt>
      <trkpt lat="45.92209" lon="4.76371">
        <ele>168</ele>
        <time>2017-08-01T13:38:07Z</time>
      </trkpt>
      <trkpt lat="45.92206" lon="4.76369">
        <ele>168</ele>
        <time>2017-08-01T13:38:08Z</time>
      </trkpt>
      <trkpt lat="45.92198" lon="4.76364">
        <ele>168</ele>
        <time>2017-08-01T13:38:10Z</time>
      </trkpt>
      <trkpt lat="45.92194" lon="4.76361">
        <ele>168</ele>
        <time>2017-08-01T13:38:11Z</time>
      </trkpt>
      <trkpt lat="45.92186" lon="4.76356">
        <ele>168</ele>
        <time>2017-08-01T13:38:13Z</time>
      </trkpt>
      <trkpt lat="45.92183" lon="4.76353">
        <ele>168</ele>
        <time>2017-08-01T13:38:14Z</time>
      </trkpt>
      <trkpt lat="45.92175" lon="4.76349">
        <ele>169</ele>
        <time>2017-08-01T13:38:16Z</time>
      </trkpt>
      <trkpt lat="45.92171" lon="4.76346">
        <ele>169</ele>
        <time>2017-08-01T13:38:17Z</time>
      </trkpt>
      <trkpt lat="45.92163" lon="4.76341">
        <ele>169</ele>
        <time>2017-08-01T13:38:19Z</time>
      </trkpt>
      <trkpt lat="45.92159" lon="4.76339">
        <ele>169</ele>
        <time>2017-08-01T13:38:20Z</time>
      </trkpt>
      <trkpt lat="45.92152" lon="4.76335">
        <ele>169</ele>
        <time>2017-08-01T13:38:22Z</time>
      </trkpt>
      <trkpt lat="45.92148" lon="4.76332">
        <ele>169</ele>
        <time>2017-08-01T13:38:23Z</time>
      </trkpt>
      <trkpt lat="45.92141" lon="4.76328">
        <ele>169</ele>
        <time>2017-08-01T13:38:25Z</time>
      </trkpt>
      <trkpt lat="45.92137" lon="4.76325">
        <ele>169</ele>
        <time>2017-08-01T13:38:26Z</time>
      </trkpt>
      <trkpt lat="45.92133" lon="4.76322">
        <ele>169</ele>
        <time>2017-08-01T13:38:27Z</time>
      </trkpt>
      <trkpt lat="45.92128" lon="4.76319">
        <ele>169</ele>
        <time>2017-08-01T13:38:28Z</time>
      </trkpt>
      <trkpt lat="45.92124" lon="4.76317">
        <ele>169</ele>
        <time>2017-08-01T13:38:29Z</time>
      </trkpt>
      <trkpt lat="45.92119" lon="4.76314">
        <ele>169</ele>
        <time>2017-08-01T13:38:30Z</time>
      </trkpt>
      <trkpt lat="45.92115" lon="4.76311">
        <ele>169</ele>
        <time>2017-08-01T13:38:31Z</time>
      </trkpt>
      <trkpt lat="45.92111" lon="4.76309">
        <ele>169</ele>
        <time>2017-08-01T13:38:32Z</time>
      </trkpt>
      <trkpt lat="45.92103" lon="4.76304">
        <ele>169</ele>
        <time>2017-08-01T13:38:34Z</time>
      </trkpt>
      <trkpt lat="45.92099" lon="4.76302">
        <ele>169</ele>
        <time>2017-08-01T13:38:35Z</time>
      </trkpt>
      <trkpt lat="45.92095" lon="4.76299">
        <ele>169</ele>
        <time>2017-08-01T13:38:36Z</time>
      </trkpt>
      <trkpt lat="45.92091" lon="4.76296">
        <ele>169</ele>
        <time>2017-08-01T13:38:37Z</time>
      </trkpt>
      <trkpt lat="45.92087" lon="4.76294">
        <ele>169</ele>
        <time>2017-08-01T13:38:38Z</time>
      </trkpt>
      <trkpt lat="45.92082" lon="4.76291">
        <ele>169</ele>
        <time>2017-08-01T13:38:39Z</time>
      </trkpt>
      <trkpt lat="45.92078" lon="4.76289">
        <ele>169</ele>
        <time>2017-08-01T13:38:40Z</time>
      </trkpt>
      <trkpt lat="45.92073" lon="4.76287">
        <ele>169</ele>
        <time>2017-08-01T13:38:41Z</time>
      </trkpt>
      <trkpt lat="45.92065" lon="4.76282">
        <ele>169</ele>
        <time>2017-08-01T13:38:43Z</time>
      </trkpt>
      <trkpt lat="45.92061" lon="4.76279">
        <ele>169</ele>
        <time>2017-08-01T13:38:44Z</time>
      </trkpt>
      <trkpt lat="45.92054" lon="4.76275">
        <ele>169</ele>
        <time>2017-08-01T13:38:46Z</time>
      </trkpt>
      <trkpt lat="45.9205" lon="4.76273">
        <ele>169</ele>
        <time>2017-08-01T13:38:47Z</time>
      </trkpt>
      <trkpt lat="45.92042" lon="4.76269">
        <ele>169</ele>
        <time>2017-08-01T13:38:49Z</time>
      </trkpt>
      <trkpt lat="45.92038" lon="4.76266">
        <ele>169</ele>
        <time>2017-08-01T13:38:50Z</time>
      </trkpt>
      <trkpt lat="45.92034" lon="4.76263">
        <ele>169</ele>
        <time>2017-08-01T13:38:51Z</time>
      </trkpt>
      <trkpt lat="45.9203" lon="4.76261">
        <ele>169</ele>
        <time>2017-08-01T13:38:52Z</time>
      </trkpt>
      <trkpt lat="45.92022" lon="4.76257">
        <ele>169</ele>
        <time>2017-08-01T13:38:54Z</time>
      </trkpt>
      <trkpt lat="45.92018" lon="4.76255">
        <ele>169</ele>
        <time>2017-08-01T13:38:55Z</time>
      </trkpt>
      <trkpt lat="45.92011" lon="4.76251">
        <ele>170</ele>
        <time>2017-08-01T13:38:57Z</time>
      </trkpt>
      <trkpt lat="45.92007" lon="4.76249">
        <ele>170</ele>
        <time>2017-08-01T13:38:58Z</time>
      </trkpt>
      <trkpt lat="45.91999" lon="4.76244">
        <ele>170</ele>
        <time>2017-08-01T13:39:00Z</time>
      </trkpt>
      <trkpt lat="45.91996" lon="4.76242">
        <ele>170</ele>
        <time>2017-08-01T13:39:01Z</time>
      </trkpt>
      <trkpt lat="45.91988" lon="4.76238">
        <ele>170</ele>
        <time>2017-08-01T13:39:03Z</time>
      </trkpt>
      <trkpt lat="45.91984" lon="4.76236">
        <ele>170</ele>
        <time>2017-08-01T13:39:04Z</time>
      </trkpt>
      <trkpt lat="45.91976" lon="4.76232">
        <ele>171</ele>
        <time>2017-08-01T13:39:06Z</time>
      </trkpt>
      <trkpt lat="45.91971" lon="4.7623">
        <ele>171</ele>
        <time>2017-08-01T13:39:07Z</time>
      </trkpt>
      <trkpt lat="45.91964" lon="4.76225">
        <ele>171</ele>
        <time>2017-08-01T13:39:09Z</time>
      </trkpt>
      <trkpt lat="45.9196" lon="4.76223">
        <ele>171</ele>
        <time>2017-08-01T13:39:10Z</time>
      </trkpt>
      <trkpt lat="45.91953" lon="4.7622">
        <ele>171</ele>
        <time>2017-08-01T13:39:12Z</time>
      </trkpt>
      <trkpt lat="45.91949" lon="4.76218">
        <ele>171</ele>
        <time>2017-08-01T13:39:13Z</time>
      </trkpt>
      <trkpt lat="45.91942" lon="4.76214">
        <ele>171</ele>
        <time>2017-08-01T13:39:15Z</time>
      </trkpt>
      <trkpt lat="45.91939" lon="4.76212">
        <ele>171</ele>
        <time>2017-08-01T13:39:16Z</time>
      </trkpt>
      <trkpt lat="45.91931" lon="4.76208">
        <ele>171</ele>
        <time>2017-08-01T13:39:18Z</time>
      </trkpt>
      <trkpt lat="45.91928" lon="4.76206">
        <ele>171</ele>
        <time>2017-08-01T13:39:19Z</time>
      </trkpt>
      <trkpt lat="45.9192" lon="4.76202">
        <ele>171</ele>
        <time>2017-08-01T13:39:21Z</time>
      </trkpt>
      <trkpt lat="45.91917" lon="4.762">
        <ele>172</ele>
        <time>2017-08-01T13:39:22Z</time>
      </trkpt>
      <trkpt lat="45.9191" lon="4.76196">
        <ele>172</ele>
        <time>2017-08-01T13:39:24Z</time>
      </trkpt>
      <trkpt lat="45.91907" lon="4.76194">
        <ele>172</ele>
        <time>2017-08-01T13:39:25Z</time>
      </trkpt>
      <trkpt lat="45.919" lon="4.76191">
        <ele>172</ele>
        <time>2017-08-01T13:39:27Z</time>
      </trkpt>
      <trkpt lat="45.91896" lon="4.76189">
        <ele>172</ele>
        <time>2017-08-01T13:39:28Z</time>
      </trkpt>
      <trkpt lat="45.91889" lon="4.76184">
        <ele>172</ele>
        <time>2017-08-01T13:39:30Z</time>
      </trkpt>
      <trkpt lat="45.91885" lon="4.76182">
        <ele>172</ele>
        <time>2017-08-01T13:39:31Z</time>
      </trkpt>
      <trkpt lat="45.91879" lon="4.76179">
        <ele>172</ele>
        <time>2017-08-01T13:39:33Z</time>
      </trkpt>
      <trkpt lat="45.91876" lon="4.76178">
        <ele>172</ele>
        <time>2017-08-01T13:39:34Z</time>
      </trkpt>
      <trkpt lat="45.9187" lon="4.76175">
        <ele>172</ele>
        <time>2017-08-01T13:39:36Z</time>
      </trkpt>
      <trkpt lat="45.91866" lon="4.76174">
        <ele>172</ele>
        <time>2017-08-01T13:39:37Z</time>
      </trkpt>
      <trkpt lat="45.91858" lon="4.76178">
        <ele>172</ele>
        <time>2017-08-01T13:39:40Z</time>
      </trkpt>
      <trkpt lat="45.91855" lon="4.76181">
        <ele>172</ele>
        <time>2017-08-01T13:39:41Z</time>
      </trkpt>
      <trkpt lat="45.91849" lon="4.7619">
        <ele>172</ele>
        <time>2017-08-01T13:39:43Z</time>
      </trkpt>
      <trkpt lat="45.91847" lon="4.76195">
        <ele>172</ele>
        <time>2017-08-01T13:39:44Z</time>
      </trkpt>
      <trkpt lat="45.91844" lon="4.76205">
        <ele>172</ele>
        <time>2017-08-01T13:39:46Z</time>
      </trkpt>
      <trkpt lat="45.91843" lon="4.76211">
        <ele>172</ele>
        <time>2017-08-01T13:39:47Z</time>
      </trkpt>
      <trkpt lat="45.9184" lon="4.76223">
        <ele>172</ele>
        <time>2017-08-01T13:39:49Z</time>
      </trkpt>
      <trkpt lat="45.91839" lon="4.76229">
        <ele>172</ele>
        <time>2017-08-01T13:39:50Z</time>
      </trkpt>
      <trkpt lat="45.91836" lon="4.76241">
        <ele>173</ele>
        <time>2017-08-01T13:39:52Z</time>
      </trkpt>
      <trkpt lat="45.91834" lon="4.76246">
        <ele>173</ele>
        <time>2017-08-01T13:39:53Z</time>
      </trkpt>
      <trkpt lat="45.91832" lon="4.76256">
        <ele>173</ele>
        <time>2017-08-01T13:39:55Z</time>
      </trkpt>
      <trkpt lat="45.9183" lon="4.76261">
        <ele>174</ele>
        <time>2017-08-01T13:39:56Z</time>
      </trkpt>
      <trkpt lat="45.91827" lon="4.76272">
        <ele>174</ele>
        <time>2017-08-01T13:39:58Z</time>
      </trkpt>
      <trkpt lat="45.91826" lon="4.76278">
        <ele>174</ele>
        <time>2017-08-01T13:39:59Z</time>
      </trkpt>
      <trkpt lat="45.91824" lon="4.76284">
        <ele>174</ele>
        <time>2017-08-01T13:40:00Z</time>
      </trkpt>
      <trkpt lat="45.91823" lon="4.7629">
        <ele>174</ele>
        <time>2017-08-01T13:40:01Z</time>
      </trkpt>
      <trkpt lat="45.9182" lon="4.76302">
        <ele>174</ele>
        <time>2017-08-01T13:40:03Z</time>
      </trkpt>
      <trkpt lat="45.91819" lon="4.76308">
        <ele>174</ele>
        <time>2017-08-01T13:40:04Z</time>
      </trkpt>
      <trkpt lat="45.91816" lon="4.76319">
        <ele>174</ele>
        <time>2017-08-01T13:40:06Z</time>
      </trkpt>
      <trkpt lat="45.91815" lon="4.76324">
        <ele>174</ele>
        <time>2017-08-01T13:40:07Z</time>
      </trkpt>
      <trkpt lat="45.91808" lon="4.76331">
        <ele>174</ele>
        <time>2017-08-01T13:40:10Z</time>
      </trkpt>
      <trkpt lat="45.91806" lon="4.76331">
        <ele>174</ele>
        <time>2017-08-01T13:40:11Z</time>
      </trkpt>
      <trkpt lat="45.91798" lon="4.76329">
        <ele>174</ele>
        <time>2017-08-01T13:40:16Z</time>
      </trkpt>
      <trkpt lat="45.91796" lon="4.76329">
        <ele>175</ele>
        <time>2017-08-01T13:40:17Z</time>
      </trkpt>
      <trkpt lat="45.91788" lon="4.76328">
        <ele>175</ele>
        <time>2017-08-01T13:40:22Z</time>
      </trkpt>
      <trkpt lat="45.91787" lon="4.76328">
        <ele>175</ele>
        <time>2017-08-01T13:40:23Z</time>
      </trkpt>
      <trkpt lat="45.9178" lon="4.76326">
        <ele>175</ele>
        <time>2017-08-01T13:40:28Z</time>
      </trkpt>
      <trkpt lat="45.91778" lon="4.76325">
        <ele>175</ele>
        <time>2017-08-01T13:40:29Z</time>
      </trkpt>
      <trkpt lat="45.9177" lon="4.76323">
        <ele>175</ele>
        <time>2017-08-01T13:40:34Z</time>
      </trkpt>
      <trkpt lat="45.91768" lon="4.76322">
        <ele>175</ele>
        <time>2017-08-01T13:40:35Z</time>
      </trkpt>
      <trkpt lat="45.91761" lon="4.76322">
        <ele>175</ele>
        <time>2017-08-01T13:40:39Z</time>
      </trkpt>
      <trkpt lat="45.91758" lon="4.7632">
        <ele>175</ele>
        <time>2017-08-01T13:40:40Z</time>
      </trkpt>
      <trkpt lat="45.91751" lon="4.7632">
        <ele>176</ele>
        <time>2017-08-01T13:40:43Z</time>
      </trkpt>
      <trkpt lat="45.91749" lon="4.7632">
        <ele>177</ele>
        <time>2017-08-01T13:40:44Z</time>
      </trkpt>
      <trkpt lat="45.91742" lon="4.76324">
        <ele>177</ele>
        <time>2017-08-01T13:40:48Z</time>
      </trkpt>
      <trkpt lat="45.9174" lon="4.76325">
        <ele>177</ele>
        <time>2017-08-01T13:40:49Z</time>
      </trkpt>
      <trkpt lat="45.91732" lon="4.76329">
        <ele>177</ele>
        <time>2017-08-01T13:40:54Z</time>
      </trkpt>
      <trkpt lat="45.91731" lon="4.7633">
        <ele>177</ele>
        <time>2017-08-01T13:40:55Z</time>
      </trkpt>
      <trkpt lat="45.91723" lon="4.76333">
        <ele>177</ele>
        <time>2017-08-01T13:40:59Z</time>
      </trkpt>
      <trkpt lat="45.91721" lon="4.76333">
        <ele>177</ele>
        <time>2017-08-01T13:41:00Z</time>
      </trkpt>
      <trkpt lat="45.91714" lon="4.76337">
        <ele>176</ele>
        <time>2017-08-01T13:41:04Z</time>
      </trkpt>
      <trkpt lat="45.91712" lon="4.76337">
        <ele>176</ele>
        <time>2017-08-01T13:41:05Z</time>
      </trkpt>
      <trkpt lat="45.91705" lon="4.76341">
        <ele>177</ele>
        <time>2017-08-01T13:41:09Z</time>
      </trkpt>
      <trkpt lat="45.91704" lon="4.76342">
        <ele>177</ele>
        <time>2017-08-01T13:41:10Z</time>
      </trkpt>
      <trkpt lat="45.91696" lon="4.76344">
        <ele>177</ele>
        <time>2017-08-01T13:41:14Z</time>
      </trkpt>
      <trkpt lat="45.91695" lon="4.76345">
        <ele>177</ele>
        <time>2017-08-01T13:41:15Z</time>
      </trkpt>
      <trkpt lat="45.91687" lon="4.76348">
        <ele>177</ele>
        <time>2017-08-01T13:41:20Z</time>
      </trkpt>
      <trkpt lat="45.91685" lon="4.76349">
        <ele>177</ele>
        <time>2017-08-01T13:41:21Z</time>
      </trkpt>
      <trkpt lat="45.91677" lon="4.76347">
        <ele>177</ele>
        <time>2017-08-01T13:41:26Z</time>
      </trkpt>
      <trkpt lat="45.91676" lon="4.76346">
        <ele>177</ele>
        <time>2017-08-01T13:41:27Z</time>
      </trkpt>
      <trkpt lat="45.91667" lon="4.76343">
        <ele>177</ele>
        <time>2017-08-01T13:41:33Z</time>
      </trkpt>
      <trkpt lat="45.91666" lon="4.76343">
        <ele>177</ele>
        <time>2017-08-01T13:41:34Z</time>
      </trkpt>
      <trkpt lat="45.91663" lon="4.76342">
        <ele>177</ele>
        <time>2017-08-01T13:41:36Z</time>
      </trkpt>
      <trkpt lat="45.91662" lon="4.76342">
        <ele>177</ele>
        <time>2017-08-01T13:41:37Z</time>
      </trkpt>
      <trkpt lat="45.91658" lon="4.76342">
        <ele>177</ele>
        <time>2017-08-01T13:42:14Z</time>
      </trkpt>
      <trkpt lat="45.91652" lon="4.76342">
        <ele>177</ele>
        <time>2017-08-01T13:42:15Z</time>
      </trkpt>
      <trkpt lat="45.91644" lon="4.7634">
        <ele>177</ele>
        <time>2017-08-01T13:42:18Z</time>
      </trkpt>
      <trkpt lat="45.91641" lon="4.7634">
        <ele>177</ele>
        <time>2017-08-01T13:42:19Z</time>
      </trkpt>
      <trkpt lat="45.91634" lon="4.76337">
        <ele>176</ele>
        <time>2017-08-01T13:42:22Z</time>
      </trkpt>
      <trkpt lat="45.91631" lon="4.76336">
        <ele>176</ele>
        <time>2017-08-01T13:42:23Z</time>
      </trkpt>
      <trkpt lat="45.91625" lon="4.76334">
        <ele>176</ele>
        <time>2017-08-01T13:42:26Z</time>
      </trkpt>
      <trkpt lat="45.91622" lon="4.76333">
        <ele>177</ele>
        <time>2017-08-01T13:42:27Z</time>
      </trkpt>
      <trkpt lat="45.91616" lon="4.76331">
        <ele>177</ele>
        <time>2017-08-01T13:42:30Z</time>
      </trkpt>
      <trkpt lat="45.91613" lon="4.7633">
        <ele>176</ele>
        <time>2017-08-01T13:42:31Z</time>
      </trkpt>
      <trkpt lat="45.91605" lon="4.76326">
        <ele>176</ele>
        <time>2017-08-01T13:42:35Z</time>
      </trkpt>
      <trkpt lat="45.91603" lon="4.76325">
        <ele>176</ele>
        <time>2017-08-01T13:42:36Z</time>
      </trkpt>
      <trkpt lat="45.91595" lon="4.76322">
        <ele>176</ele>
        <time>2017-08-01T13:42:42Z</time>
      </trkpt>
      <trkpt lat="45.91593" lon="4.76322">
        <ele>176</ele>
        <time>2017-08-01T13:42:43Z</time>
      </trkpt>
      <trkpt lat="45.91584" lon="4.7632">
        <ele>176</ele>
        <time>2017-08-01T13:42:48Z</time>
      </trkpt>
      <trkpt lat="45.91582" lon="4.7632">
        <ele>176</ele>
        <time>2017-08-01T13:42:49Z</time>
      </trkpt>
      <trkpt lat="45.91574" lon="4.76319">
        <ele>176</ele>
        <time>2017-08-01T13:42:53Z</time>
      </trkpt>
      <trkpt lat="45.91573" lon="4.76318">
        <ele>176</ele>
        <time>2017-08-01T13:42:54Z</time>
      </trkpt>
      <trkpt lat="45.91565" lon="4.76316">
        <ele>176</ele>
        <time>2017-08-01T13:42:58Z</time>
      </trkpt>
      <trkpt lat="45.91562" lon="4.76315">
        <ele>176</ele>
        <time>2017-08-01T13:42:59Z</time>
      </trkpt>
      <trkpt lat="45.91553" lon="4.76315">
        <ele>177</ele>
        <time>2017-08-01T13:43:02Z</time>
      </trkpt>
      <trkpt lat="45.91551" lon="4.76315">
        <ele>177</ele>
        <time>2017-08-01T13:43:03Z</time>
      </trkpt>
      <trkpt lat="45.91545" lon="4.76317">
        <ele>177</ele>
        <time>2017-08-01T13:43:06Z</time>
      </trkpt>
      <trkpt lat="45.91542" lon="4.76319">
        <ele>177</ele>
        <time>2017-08-01T13:43:07Z</time>
      </trkpt>
      <trkpt lat="45.91537" lon="4.76325">
        <ele>177</ele>
        <time>2017-08-01T13:43:10Z</time>
      </trkpt>
      <trkpt lat="45.91535" lon="4.76327">
        <ele>177</ele>
        <time>2017-08-01T13:43:11Z</time>
      </trkpt>
      <trkpt lat="45.91529" lon="4.76336">
        <ele>176</ele>
        <time>2017-08-01T13:43:14Z</time>
      </trkpt>
      <trkpt lat="45.91526" lon="4.76339">
        <ele>176</ele>
        <time>2017-08-01T13:43:15Z</time>
      </trkpt>
      <trkpt lat="45.9152" lon="4.76349">
        <ele>176</ele>
        <time>2017-08-01T13:43:18Z</time>
      </trkpt>
      <trkpt lat="45.91518" lon="4.76352">
        <ele>176</ele>
        <time>2017-08-01T13:43:19Z</time>
      </trkpt>
      <trkpt lat="45.91514" lon="4.7636">
        <ele>176</ele>
        <time>2017-08-01T13:43:21Z</time>
      </trkpt>
      <trkpt lat="45.91512" lon="4.76363">
        <ele>176</ele>
        <time>2017-08-01T13:43:22Z</time>
      </trkpt>
      <trkpt lat="45.91508" lon="4.7637">
        <ele>176</ele>
        <time>2017-08-01T13:43:24Z</time>
      </trkpt>
      <trkpt lat="45.91505" lon="4.76373">
        <ele>176</ele>
        <time>2017-08-01T13:43:25Z</time>
      </trkpt>
      <trkpt lat="45.91501" lon="4.76381">
        <ele>176</ele>
        <time>2017-08-01T13:43:27Z</time>
      </trkpt>
      <trkpt lat="45.91498" lon="4.76385">
        <ele>177</ele>
        <time>2017-08-01T13:43:28Z</time>
      </trkpt>
      <trkpt lat="45.91494" lon="4.76393">
        <ele>176</ele>
        <time>2017-08-01T13:43:30Z</time>
      </trkpt>
      <trkpt lat="45.91492" lon="4.76397">
        <ele>176</ele>
        <time>2017-08-01T13:43:31Z</time>
      </trkpt>
      <trkpt lat="45.91488" lon="4.76404">
        <ele>176</ele>
        <time>2017-08-01T13:43:33Z</time>
      </trkpt>
      <trkpt lat="45.91486" lon="4.76407">
        <ele>176</ele>
        <time>2017-08-01T13:43:34Z</time>
      </trkpt>
      <trkpt lat="45.91482" lon="4.76415">
        <ele>176</ele>
        <time>2017-08-01T13:43:36Z</time>
      </trkpt>
      <trkpt lat="45.9148" lon="4.76419">
        <ele>176</ele>
        <time>2017-08-01T13:43:37Z</time>
      </trkpt>
      <trkpt lat="45.91476" lon="4.76427">
        <ele>176</ele>
        <time>2017-08-01T13:43:39Z</time>
      </trkpt>
      <trkpt lat="45.91475" lon="4.7643">
        <ele>176</ele>
        <time>2017-08-01T13:43:40Z</time>
      </trkpt>
      <trkpt lat="45.91469" lon="4.7644">
        <ele>176</ele>
        <time>2017-08-01T13:43:43Z</time>
      </trkpt>
      <trkpt lat="45.91467" lon="4.76444">
        <ele>177</ele>
        <time>2017-08-01T13:43:44Z</time>
      </trkpt>
      <trkpt lat="45.91463" lon="4.76452">
        <ele>177</ele>
        <time>2017-08-01T13:43:46Z</time>
      </trkpt>
      <trkpt lat="45.9146" lon="4.76456">
        <ele>177</ele>
        <time>2017-08-01T13:43:47Z</time>
      </trkpt>
      <trkpt lat="45.91456" lon="4.76464">
        <ele>177</ele>
        <time>2017-08-01T13:43:49Z</time>
      </trkpt>
      <trkpt lat="45.91455" lon="4.76467">
        <ele>177</ele>
        <time>2017-08-01T13:43:50Z</time>
      </trkpt>
      <trkpt lat="45.91454" lon="4.76469">
        <ele>177</ele>
        <time>2017-08-01T13:43:51Z</time>
      </trkpt>
      <trkpt lat="45.91453" lon="4.76471">
        <ele>177</ele>
        <time>2017-08-01T13:43:52Z</time>
      </trkpt>
      <trkpt lat="45.91453" lon="4.76472">
        <ele>177</ele>
        <time>2017-08-01T13:44:05Z</time>
      </trkpt>
      <trkpt lat="45.91453" lon="4.76472">
        <ele>177</ele>
        <time>2017-08-01T13:44:06Z</time>
      </trkpt>
      <trkpt lat="45.91452" lon="4.76472">
        <ele>177</ele>
        <time>2017-08-01T13:44:12Z</time>
      </trkpt>
      <trkpt lat="45.91451" lon="4.76473">
        <ele>177</ele>
        <time>2017-08-01T13:44:13Z</time>
      </trkpt>
      <trkpt lat="45.9145" lon="4.76476">
        <ele>177</ele>
        <time>2017-08-01T13:44:14Z</time>
      </trkpt>
      <trkpt lat="45.91446" lon="4.76483">
        <ele>177</ele>
        <time>2017-08-01T13:44:16Z</time>
      </trkpt>
      <trkpt lat="45.91443" lon="4.76486">
        <ele>177</ele>
        <time>2017-08-01T13:44:17Z</time>
      </trkpt>
      <trkpt lat="45.91439" lon="4.76493">
        <ele>177</ele>
        <time>2017-08-01T13:44:19Z</time>
      </trkpt>
      <trkpt lat="45.91436" lon="4.76497">
        <ele>177</ele>
        <time>2017-08-01T13:44:20Z</time>
      </trkpt>
      <trkpt lat="45.91431" lon="4.76507">
        <ele>177</ele>
        <time>2017-08-01T13:44:22Z</time>
      </trkpt>
      <trkpt lat="45.9143" lon="4.76512">
        <ele>177</ele>
        <time>2017-08-01T13:44:23Z</time>
      </trkpt>
      <trkpt lat="45.91424" lon="4.76522">
        <ele>177</ele>
        <time>2017-08-01T13:44:25Z</time>
      </trkpt>
      <trkpt lat="45.91421" lon="4.76526">
        <ele>177</ele>
        <time>2017-08-01T13:44:26Z</time>
      </trkpt>
      <trkpt lat="45.91416" lon="4.76536">
        <ele>177</ele>
        <time>2017-08-01T13:44:28Z</time>
      </trkpt>
      <trkpt lat="45.91414" lon="4.7654">
        <ele>177</ele>
        <time>2017-08-01T13:44:29Z</time>
      </trkpt>
      <trkpt lat="45.9141" lon="4.76549">
        <ele>177</ele>
        <time>2017-08-01T13:44:31Z</time>
      </trkpt>
      <trkpt lat="45.91407" lon="4.76553">
        <ele>177</ele>
        <time>2017-08-01T13:44:32Z</time>
      </trkpt>
      <trkpt lat="45.91404" lon="4.76558">
        <ele>177</ele>
        <time>2017-08-01T13:44:33Z</time>
      </trkpt>
      <trkpt lat="45.91401" lon="4.76563">
        <ele>177</ele>
        <time>2017-08-01T13:44:34Z</time>
      </trkpt>
      <trkpt lat="45.91398" lon="4.76569">
        <ele>177</ele>
        <time>2017-08-01T13:44:35Z</time>
      </trkpt>
      <trkpt lat="45.91395" lon="4.76575">
        <ele>177</ele>
        <time>2017-08-01T13:44:36Z</time>
      </trkpt>
      <trkpt lat="45.91392" lon="4.7658">
        <ele>177</ele>
        <time>2017-08-01T13:44:37Z</time>
      </trkpt>
      <trkpt lat="45.91389" lon="4.76585">
        <ele>176</ele>
        <time>2017-08-01T13:44:38Z</time>
      </trkpt>
      <trkpt lat="45.91383" lon="4.76595">
        <ele>176</ele>
        <time>2017-08-01T13:44:40Z</time>
      </trkpt>
      <trkpt lat="45.91381" lon="4.766">
        <ele>176</ele>
        <time>2017-08-01T13:44:41Z</time>
      </trkpt>
      <trkpt lat="45.91375" lon="4.7661">
        <ele>176</ele>
        <time>2017-08-01T13:44:43Z</time>
      </trkpt>
      <trkpt lat="45.91373" lon="4.76614">
        <ele>176</ele>
        <time>2017-08-01T13:44:44Z</time>
      </trkpt>
      <trkpt lat="45.91368" lon="4.76624">
        <ele>176</ele>
        <time>2017-08-01T13:44:46Z</time>
      </trkpt>
      <trkpt lat="45.91365" lon="4.76628">
        <ele>176</ele>
        <time>2017-08-01T13:44:47Z</time>
      </trkpt>
      <trkpt lat="45.91362" lon="4.76634">
        <ele>176</ele>
        <time>2017-08-01T13:44:48Z</time>
      </trkpt>
      <trkpt lat="45.91359" lon="4.76639">
        <ele>176</ele>
        <time>2017-08-01T13:44:49Z</time>
      </trkpt>
      <trkpt lat="45.91356" lon="4.76645">
        <ele>176</ele>
        <time>2017-08-01T13:44:50Z</time>
      </trkpt>
      <trkpt lat="45.91353" lon="4.76651">
        <ele>176</ele>
        <time>2017-08-01T13:44:51Z</time>
      </trkpt>
      <trkpt lat="45.9135" lon="4.76656">
        <ele>176</ele>
        <time>2017-08-01T13:44:52Z</time>
      </trkpt>
      <trkpt lat="45.91347" lon="4.76662">
        <ele>176</ele>
        <time>2017-08-01T13:44:53Z</time>
      </trkpt>
      <trkpt lat="45.91342" lon="4.76672">
        <ele>176</ele>
        <time>2017-08-01T13:44:55Z</time>
      </trkpt>
      <trkpt lat="45.9134" lon="4.76676">
        <ele>176</ele>
        <time>2017-08-01T13:44:56Z</time>
      </trkpt>
      <trkpt lat="45.91335" lon="4.76686">
        <ele>176</ele>
        <time>2017-08-01T13:44:58Z</time>
      </trkpt>
      <trkpt lat="45.91332" lon="4.76691">
        <ele>176</ele>
        <time>2017-08-01T13:44:59Z</time>
      </trkpt>
      <trkpt lat="45.91328" lon="4.76702">
        <ele>176</ele>
        <time>2017-08-01T13:45:01Z</time>
      </trkpt>
      <trkpt lat="45.91326" lon="4.76707">
        <ele>176</ele>
        <time>2017-08-01T13:45:02Z</time>
      </trkpt>
      <trkpt lat="45.91324" lon="4.76713">
        <ele>176</ele>
        <time>2017-08-01T13:45:03Z</time>
      </trkpt>
      <trkpt lat="45.91324" lon="4.7672">
        <ele>176</ele>
        <time>2017-08-01T13:45:04Z</time>
      </trkpt>
      <trkpt lat="45.91324" lon="4.76727">
        <ele>176</ele>
        <time>2017-08-01T13:45:05Z</time>
      </trkpt>
      <trkpt lat="45.91324" lon="4.76734">
        <ele>176</ele>
        <time>2017-08-01T13:45:06Z</time>
      </trkpt>
      <trkpt lat="45.91324" lon="4.76741">
        <ele>176</ele>
        <time>2017-08-01T13:45:07Z</time>
      </trkpt>
      <trkpt lat="45.91324" lon="4.76748">
        <ele>176</ele>
        <time>2017-08-01T13:45:08Z</time>
      </trkpt>
      <trkpt lat="45.91324" lon="4.76755">
        <ele>176</ele>
        <time>2017-08-01T13:45:09Z</time>
      </trkpt>
      <trkpt lat="45.91324" lon="4.76763">
        <ele>176</ele>
        <time>2017-08-01T13:45:10Z</time>
      </trkpt>
      <trkpt lat="45.91324" lon="4.7677">
        <ele>176</ele>
        <time>2017-08-01T13:45:11Z</time>
      </trkpt>
      <trkpt lat="45.91324" lon="4.76778">
        <ele>176</ele>
        <time>2017-08-01T13:45:12Z</time>
      </trkpt>
      <trkpt lat="45.91324" lon="4.76785">
        <ele>175</ele>
        <time>2017-08-01T13:45:13Z</time>
      </trkpt>
      <trkpt lat="45.91324" lon="4.76793">
        <ele>175</ele>
        <time>2017-08-01T13:45:14Z</time>
      </trkpt>
      <trkpt lat="45.91323" lon="4.768">
        <ele>175</ele>
        <time>2017-08-01T13:45:15Z</time>
      </trkpt>
      <trkpt lat="45.91323" lon="4.76807">
        <ele>175</ele>
        <time>2017-08-01T13:45:16Z</time>
      </trkpt>
      <trkpt lat="45.91323" lon="4.76814">
        <ele>175</ele>
        <time>2017-08-01T13:45:17Z</time>
      </trkpt>
      <trkpt lat="45.91322" lon="4.7682">
        <ele>175</ele>
        <time>2017-08-01T13:45:18Z</time>
      </trkpt>
      <trkpt lat="45.91321" lon="4.76827">
        <ele>175</ele>
        <time>2017-08-01T13:45:19Z</time>
      </trkpt>
      <trkpt lat="45.91321" lon="4.76834">
        <ele>174</ele>
        <time>2017-08-01T13:45:20Z</time>
      </trkpt>
      <trkpt lat="45.91322" lon="4.76842">
        <ele>174</ele>
        <time>2017-08-01T13:45:21Z</time>
      </trkpt>
      <trkpt lat="45.91322" lon="4.76849">
        <ele>175</ele>
        <time>2017-08-01T13:45:22Z</time>
      </trkpt>
      <trkpt lat="45.91322" lon="4.76857">
        <ele>175</ele>
        <time>2017-08-01T13:45:23Z</time>
      </trkpt>
      <trkpt lat="45.91322" lon="4.76865">
        <ele>175</ele>
        <time>2017-08-01T13:45:24Z</time>
      </trkpt>
      <trkpt lat="45.91322" lon="4.76873">
        <ele>175</ele>
        <time>2017-08-01T13:45:25Z</time>
      </trkpt>
      <trkpt lat="45.91322" lon="4.76881">
        <ele>175</ele>
        <time>2017-08-01T13:45:26Z</time>
      </trkpt>
      <trkpt lat="45.91322" lon="4.76889">
        <ele>175</ele>
        <time>2017-08-01T13:45:27Z</time>
      </trkpt>
      <trkpt lat="45.91322" lon="4.76898">
        <ele>175</ele>
        <time>2017-08-01T13:45:28Z</time>
      </trkpt>
      <trkpt lat="45.91321" lon="4.76907">
        <ele>175</ele>
        <time>2017-08-01T13:45:29Z</time>
      </trkpt>
      <trkpt lat="45.91321" lon="4.76917">
        <ele>175</ele>
        <time>2017-08-01T13:45:30Z</time>
      </trkpt>
      <trkpt lat="45.9132" lon="4.76926">
        <ele>175</ele>
        <time>2017-08-01T13:45:31Z</time>
      </trkpt>
      <trkpt lat="45.91319" lon="4.76936">
        <ele>175</ele>
        <time>2017-08-01T13:45:32Z</time>
      </trkpt>
      <trkpt lat="45.91319" lon="4.76946">
        <ele>175</ele>
        <time>2017-08-01T13:45:33Z</time>
      </trkpt>
      <trkpt lat="45.91319" lon="4.76955">
        <ele>175</ele>
        <time>2017-08-01T13:45:34Z</time>
      </trkpt>
      <trkpt lat="45.91319" lon="4.76964">
        <ele>175</ele>
        <time>2017-08-01T13:45:35Z</time>
      </trkpt>
      <trkpt lat="45.91319" lon="4.76972">
        <ele>175</ele>
        <time>2017-08-01T13:45:36Z</time>
      </trkpt>
      <trkpt lat="45.91321" lon="4.7698">
        <ele>175</ele>
        <time>2017-08-01T13:45:37Z</time>
      </trkpt>
      <trkpt lat="45.91322" lon="4.76988">
        <ele>175</ele>
        <time>2017-08-01T13:45:38Z</time>
      </trkpt>
      <trkpt lat="45.91324" lon="4.76995">
        <ele>176</ele>
        <time>2017-08-01T13:45:39Z</time>
      </trkpt>
      <trkpt lat="45.91325" lon="4.77003">
        <ele>176</ele>
        <time>2017-08-01T13:45:40Z</time>
      </trkpt>
      <trkpt lat="45.91328" lon="4.77011">
        <ele>176</ele>
        <time>2017-08-01T13:45:41Z</time>
      </trkpt>
      <trkpt lat="45.9133" lon="4.77019">
        <ele>176</ele>
        <time>2017-08-01T13:45:42Z</time>
      </trkpt>
      <trkpt lat="45.91332" lon="4.77027">
        <ele>176</ele>
        <time>2017-08-01T13:45:43Z</time>
      </trkpt>
      <trkpt lat="45.91334" lon="4.77035">
        <ele>176</ele>
        <time>2017-08-01T13:45:44Z</time>
      </trkpt>
      <trkpt lat="45.91336" lon="4.77044">
        <ele>176</ele>
        <time>2017-08-01T13:45:45Z</time>
      </trkpt>
      <trkpt lat="45.91338" lon="4.77051">
        <ele>176</ele>
        <time>2017-08-01T13:45:46Z</time>
      </trkpt>
      <trkpt lat="45.9134" lon="4.77058">
        <ele>176</ele>
        <time>2017-08-01T13:45:47Z</time>
      </trkpt>
      <trkpt lat="45.91342" lon="4.77065">
        <ele>176</ele>
        <time>2017-08-01T13:45:48Z</time>
      </trkpt>
      <trkpt lat="45.91343" lon="4.77073">
        <ele>177</ele>
        <time>2017-08-01T13:45:49Z</time>
      </trkpt>
      <trkpt lat="45.91345" lon="4.7708">
        <ele>177</ele>
        <time>2017-08-01T13:45:50Z</time>
      </trkpt>
      <trkpt lat="45.91347" lon="4.77087">
        <ele>177</ele>
        <time>2017-08-01T13:45:51Z</time>
      </trkpt>
      <trkpt lat="45.91348" lon="4.77094">
        <ele>177</ele>
        <time>2017-08-01T13:45:52Z</time>
      </trkpt>
      <trkpt lat="45.91349" lon="4.77101">
        <ele>177</ele>
        <time>2017-08-01T13:45:53Z</time>
      </trkpt>
      <trkpt lat="45.9135" lon="4.77107">
        <ele>177</ele>
        <time>2017-08-01T13:45:54Z</time>
      </trkpt>
      <trkpt lat="45.9135" lon="4.77114">
        <ele>177</ele>
        <time>2017-08-01T13:45:55Z</time>
      </trkpt>
      <trkpt lat="45.91351" lon="4.7712">
        <ele>177</ele>
        <time>2017-08-01T13:45:56Z</time>
      </trkpt>
      <trkpt lat="45.91352" lon="4.77131">
        <ele>177</ele>
        <time>2017-08-01T13:45:58Z</time>
      </trkpt>
      <trkpt lat="45.91353" lon="4.77136">
        <ele>177</ele>
        <time>2017-08-01T13:45:59Z</time>
      </trkpt>
      <trkpt lat="45.91356" lon="4.77146">
        <ele>177</ele>
        <time>2017-08-01T13:46:01Z</time>
      </trkpt>
      <trkpt lat="45.91357" lon="4.77152">
        <ele>177</ele>
        <time>2017-08-01T13:46:02Z</time>
      </trkpt>
      <trkpt lat="45.91358" lon="4.77158">
        <ele>177</ele>
        <time>2017-08-01T13:46:03Z</time>
      </trkpt>
      <trkpt lat="45.9136" lon="4.77165">
        <ele>177</ele>
        <time>2017-08-01T13:46:04Z</time>
      </trkpt>
      <trkpt lat="45.91361" lon="4.77171">
        <ele>176</ele>
        <time>2017-08-01T13:46:05Z</time>
      </trkpt>
      <trkpt lat="45.91362" lon="4.77178">
        <ele>176</ele>
        <time>2017-08-01T13:46:06Z</time>
      </trkpt>
      <trkpt lat="45.91363" lon="4.77184">
        <ele>176</ele>
        <time>2017-08-01T13:46:07Z</time>
      </trkpt>
      <trkpt lat="45.91365" lon="4.77192">
        <ele>176</ele>
        <time>2017-08-01T13:46:08Z</time>
      </trkpt>
      <trkpt lat="45.91366" lon="4.77199">
        <ele>176</ele>
        <time>2017-08-01T13:46:09Z</time>
      </trkpt>
      <trkpt lat="45.91367" lon="4.77206">
        <ele>176</ele>
        <time>2017-08-01T13:46:10Z</time>
      </trkpt>
      <trkpt lat="45.91368" lon="4.77213">
        <ele>176</ele>
        <time>2017-08-01T13:46:11Z</time>
      </trkpt>
      <trkpt lat="45.91368" lon="4.7722">
        <ele>176</ele>
        <time>2017-08-01T13:46:12Z</time>
      </trkpt>
      <trkpt lat="45.9137" lon="4.77227">
        <ele>176</ele>
        <time>2017-08-01T13:46:13Z</time>
      </trkpt>
      <trkpt lat="45.91372" lon="4.77235">
        <ele>176</ele>
        <time>2017-08-01T13:46:14Z</time>
      </trkpt>
      <trkpt lat="45.91375" lon="4.77243">
        <ele>176</ele>
        <time>2017-08-01T13:46:15Z</time>
      </trkpt>
      <trkpt lat="45.91376" lon="4.77251">
        <ele>175</ele>
        <time>2017-08-01T13:46:16Z</time>
      </trkpt>
      <trkpt lat="45.91378" lon="4.77259">
        <ele>175</ele>
        <time>2017-08-01T13:46:17Z</time>
      </trkpt>
      <trkpt lat="45.91379" lon="4.77266">
        <ele>175</ele>
        <time>2017-08-01T13:46:18Z</time>
      </trkpt>
      <trkpt lat="45.9138" lon="4.77274">
        <ele>175</ele>
        <time>2017-08-01T13:46:19Z</time>
      </trkpt>
      <trkpt lat="45.91381" lon="4.77282">
        <ele>175</ele>
        <time>2017-08-01T13:46:20Z</time>
      </trkpt>
      <trkpt lat="45.91381" lon="4.77289">
        <ele>175</ele>
        <time>2017-08-01T13:46:21Z</time>
      </trkpt>
      <trkpt lat="45.91382" lon="4.77297">
        <ele>175</ele>
        <time>2017-08-01T13:46:22Z</time>
      </trkpt>
      <trkpt lat="45.91382" lon="4.77305">
        <ele>175</ele>
        <time>2017-08-01T13:46:23Z</time>
      </trkpt>
      <trkpt lat="45.91382" lon="4.77312">
        <ele>175</ele>
        <time>2017-08-01T13:46:24Z</time>
      </trkpt>
      <trkpt lat="45.91382" lon="4.7732">
        <ele>175</ele>
        <time>2017-08-01T13:46:25Z</time>
      </trkpt>
      <trkpt lat="45.91382" lon="4.77328">
        <ele>175</ele>
        <time>2017-08-01T13:46:26Z</time>
      </trkpt>
      <trkpt lat="45.91382" lon="4.77336">
        <ele>175</ele>
        <time>2017-08-01T13:46:27Z</time>
      </trkpt>
      <trkpt lat="45.91382" lon="4.77345">
        <ele>175</ele>
        <time>2017-08-01T13:46:28Z</time>
      </trkpt>
      <trkpt lat="45.91382" lon="4.77354">
        <ele>175</ele>
        <time>2017-08-01T13:46:29Z</time>
      </trkpt>
      <trkpt lat="45.91383" lon="4.77363">
        <ele>174</ele>
        <time>2017-08-01T13:46:30Z</time>
      </trkpt>
      <trkpt lat="45.91383" lon="4.77373">
        <ele>174</ele>
        <time>2017-08-01T13:46:31Z</time>
      </trkpt>
      <trkpt lat="45.91383" lon="4.77383">
        <ele>174</ele>
        <time>2017-08-01T13:46:32Z</time>
      </trkpt>
      <trkpt lat="45.91385" lon="4.77393">
        <ele>174</ele>
        <time>2017-08-01T13:46:33Z</time>
      </trkpt>
      <trkpt lat="45.91386" lon="4.77402">
        <ele>174</ele>
        <time>2017-08-01T13:46:34Z</time>
      </trkpt>
      <trkpt lat="45.91386" lon="4.77411">
        <ele>174</ele>
        <time>2017-08-01T13:46:35Z</time>
      </trkpt>
      <trkpt lat="45.91387" lon="4.7742">
        <ele>174</ele>
        <time>2017-08-01T13:46:36Z</time>
      </trkpt>
      <trkpt lat="45.91387" lon="4.7743">
        <ele>174</ele>
        <time>2017-08-01T13:46:37Z</time>
      </trkpt>
      <trkpt lat="45.91388" lon="4.77438">
        <ele>174</ele>
        <time>2017-08-01T13:46:38Z</time>
      </trkpt>
      <trkpt lat="45.91388" lon="4.77446">
        <ele>174</ele>
        <time>2017-08-01T13:46:39Z</time>
      </trkpt>
      <trkpt lat="45.91388" lon="4.77454">
        <ele>174</ele>
        <time>2017-08-01T13:46:40Z</time>
      </trkpt>
      <trkpt lat="45.91388" lon="4.77463">
        <ele>174</ele>
        <time>2017-08-01T13:46:41Z</time>
      </trkpt>
      <trkpt lat="45.91388" lon="4.77471">
        <ele>174</ele>
        <time>2017-08-01T13:46:42Z</time>
      </trkpt>
      <trkpt lat="45.91389" lon="4.77478">
        <ele>174</ele>
        <time>2017-08-01T13:46:43Z</time>
      </trkpt>
      <trkpt lat="45.91389" lon="4.77486">
        <ele>174</ele>
        <time>2017-08-01T13:46:44Z</time>
      </trkpt>
      <trkpt lat="45.9139" lon="4.77494">
        <ele>174</ele>
        <time>2017-08-01T13:46:45Z</time>
      </trkpt>
      <trkpt lat="45.9139" lon="4.77501">
        <ele>174</ele>
        <time>2017-08-01T13:46:46Z</time>
      </trkpt>
      <trkpt lat="45.91391" lon="4.7751">
        <ele>174</ele>
        <time>2017-08-01T13:46:47Z</time>
      </trkpt>
      <trkpt lat="45.91392" lon="4.77518">
        <ele>174</ele>
        <time>2017-08-01T13:46:48Z</time>
      </trkpt>
      <trkpt lat="45.91393" lon="4.77526">
        <ele>174</ele>
        <time>2017-08-01T13:46:49Z</time>
      </trkpt>
      <trkpt lat="45.91393" lon="4.77534">
        <ele>174</ele>
        <time>2017-08-01T13:46:50Z</time>
      </trkpt>
      <trkpt lat="45.91394" lon="4.77541">
        <ele>174</ele>
        <time>2017-08-01T13:46:51Z</time>
      </trkpt>
      <trkpt lat="45.91394" lon="4.77548">
        <ele>174</ele>
        <time>2017-08-01T13:46:52Z</time>
      </trkpt>
      <trkpt lat="45.91395" lon="4.77555">
        <ele>174</ele>
        <time>2017-08-01T13:46:53Z</time>
      </trkpt>
      <trkpt lat="45.91395" lon="4.77561">
        <ele>174</ele>
        <time>2017-08-01T13:46:54Z</time>
      </trkpt>
      <trkpt lat="45.91396" lon="4.77568">
        <ele>174</ele>
        <time>2017-08-01T13:46:55Z</time>
      </trkpt>
      <trkpt lat="45.91397" lon="4.77574">
        <ele>174</ele>
        <time>2017-08-01T13:46:56Z</time>
      </trkpt>
      <trkpt lat="45.91397" lon="4.77582">
        <ele>174</ele>
        <time>2017-08-01T13:46:57Z</time>
      </trkpt>
      <trkpt lat="45.91397" lon="4.77589">
        <ele>174</ele>
        <time>2017-08-01T13:46:58Z</time>
      </trkpt>
      <trkpt lat="45.91398" lon="4.77597">
        <ele>174</ele>
        <time>2017-08-01T13:46:59Z</time>
      </trkpt>
      <trkpt lat="45.91398" lon="4.77604">
        <ele>174</ele>
        <time>2017-08-01T13:47:00Z</time>
      </trkpt>
      <trkpt lat="45.91399" lon="4.77617">
        <ele>175</ele>
        <time>2017-08-01T13:47:02Z</time>
      </trkpt>
      <trkpt lat="45.914" lon="4.77623">
        <ele>175</ele>
        <time>2017-08-01T13:47:03Z</time>
      </trkpt>
      <trkpt lat="45.91401" lon="4.77634">
        <ele>175</ele>
        <time>2017-08-01T13:47:05Z</time>
      </trkpt>
      <trkpt lat="45.91403" lon="4.77639">
        <ele>175</ele>
        <time>2017-08-01T13:47:06Z</time>
      </trkpt>
      <trkpt lat="45.91404" lon="4.7765">
        <ele>175</ele>
        <time>2017-08-01T13:47:08Z</time>
      </trkpt>
      <trkpt lat="45.91404" lon="4.77655">
        <ele>175</ele>
        <time>2017-08-01T13:47:09Z</time>
      </trkpt>
      <trkpt lat="45.91406" lon="4.77664">
        <ele>175</ele>
        <time>2017-08-01T13:47:11Z</time>
      </trkpt>
      <trkpt lat="45.91407" lon="4.77668">
        <ele>176</ele>
        <time>2017-08-01T13:47:12Z</time>
      </trkpt>
      <trkpt lat="45.9141" lon="4.77677">
        <ele>176</ele>
        <time>2017-08-01T13:47:14Z</time>
      </trkpt>
      <trkpt lat="45.91411" lon="4.77682">
        <ele>176</ele>
        <time>2017-08-01T13:47:15Z</time>
      </trkpt>
      <trkpt lat="45.91413" lon="4.77693">
        <ele>176</ele>
        <time>2017-08-01T13:47:18Z</time>
      </trkpt>
      <trkpt lat="45.91413" lon="4.77697">
        <ele>176</ele>
        <time>2017-08-01T13:47:19Z</time>
      </trkpt>
      <trkpt lat="45.91409" lon="4.77705">
        <ele>176</ele>
        <time>2017-08-01T13:47:22Z</time>
      </trkpt>
      <trkpt lat="45.91407" lon="4.77707">
        <ele>176</ele>
        <time>2017-08-01T13:47:23Z</time>
      </trkpt>
      <trkpt lat="45.914" lon="4.7771">
        <ele>176</ele>
        <time>2017-08-01T13:47:26Z</time>
      </trkpt>
      <trkpt lat="45.91397" lon="4.77711">
        <ele>176</ele>
        <time>2017-08-01T13:47:27Z</time>
      </trkpt>
      <trkpt lat="45.9139" lon="4.77715">
        <ele>176</ele>
        <time>2017-08-01T13:47:29Z</time>
      </trkpt>
      <trkpt lat="45.91387" lon="4.77716">
        <ele>176</ele>
        <time>2017-08-01T13:47:30Z</time>
      </trkpt>
      <trkpt lat="45.9138" lon="4.77719">
        <ele>176</ele>
        <time>2017-08-01T13:47:32Z</time>
      </trkpt>
      <trkpt lat="45.91377" lon="4.77721">
        <ele>176</ele>
        <time>2017-08-01T13:47:33Z</time>
      </trkpt>
      <trkpt lat="45.9137" lon="4.77723">
        <ele>176</ele>
        <time>2017-08-01T13:47:35Z</time>
      </trkpt>
      <trkpt lat="45.91365" lon="4.77724">
        <ele>176</ele>
        <time>2017-08-01T13:47:36Z</time>
      </trkpt>
      <trkpt lat="45.91356" lon="4.77724">
        <ele>176</ele>
        <time>2017-08-01T13:47:38Z</time>
      </trkpt>
      <trkpt lat="45.91352" lon="4.77724">
        <ele>176</ele>
        <time>2017-08-01T13:47:39Z</time>
      </trkpt>
      <trkpt lat="45.91343" lon="4.77723">
        <ele>176</ele>
        <time>2017-08-01T13:47:41Z</time>
      </trkpt>
      <trkpt lat="45.91339" lon="4.77722">
        <ele>176</ele>
        <time>2017-08-01T13:47:42Z</time>
      </trkpt>
      <trkpt lat="45.9133" lon="4.7772">
        <ele>176</ele>
        <time>2017-08-01T13:47:44Z</time>
      </trkpt>
      <trkpt lat="45.91327" lon="4.77719">
        <ele>176</ele>
        <time>2017-08-01T13:47:45Z</time>
      </trkpt>
      <trkpt lat="45.91318" lon="4.77718">
        <ele>176</ele>
        <time>2017-08-01T13:47:47Z</time>
      </trkpt>
      <trkpt lat="45.91314" lon="4.77716">
        <ele>176</ele>
        <time>2017-08-01T13:47:48Z</time>
      </trkpt>
      <trkpt lat="45.9131" lon="4.77714">
        <ele>176</ele>
        <time>2017-08-01T13:47:49Z</time>
      </trkpt>
      <trkpt lat="45.91306" lon="4.77712">
        <ele>176</ele>
        <time>2017-08-01T13:47:50Z</time>
      </trkpt>
      <trkpt lat="45.91301" lon="4.77709">
        <ele>176</ele>
        <time>2017-08-01T13:47:51Z</time>
      </trkpt>
      <trkpt lat="45.91297" lon="4.77706">
        <ele>176</ele>
        <time>2017-08-01T13:47:52Z</time>
      </trkpt>
      <trkpt lat="45.91293" lon="4.77704">
        <ele>176</ele>
        <time>2017-08-01T13:47:53Z</time>
      </trkpt>
      <trkpt lat="45.91288" lon="4.77701">
        <ele>176</ele>
        <time>2017-08-01T13:47:54Z</time>
      </trkpt>
      <trkpt lat="45.91284" lon="4.77698">
        <ele>176</ele>
        <time>2017-08-01T13:47:55Z</time>
      </trkpt>
      <trkpt lat="45.9128" lon="4.77695">
        <ele>176</ele>
        <time>2017-08-01T13:47:56Z</time>
      </trkpt>
      <trkpt lat="45.91275" lon="4.77694">
        <ele>176</ele>
        <time>2017-08-01T13:47:57Z</time>
      </trkpt>
      <trkpt lat="45.9127" lon="4.77692">
        <ele>176</ele>
        <time>2017-08-01T13:47:58Z</time>
      </trkpt>
      <trkpt lat="45.91261" lon="4.77689">
        <ele>176</ele>
        <time>2017-08-01T13:48:00Z</time>
      </trkpt>
      <trkpt lat="45.91257" lon="4.77686">
        <ele>176</ele>
        <time>2017-08-01T13:48:01Z</time>
      </trkpt>
      <trkpt lat="45.91253" lon="4.77686">
        <ele>176</ele>
        <time>2017-08-01T13:48:02Z</time>
      </trkpt>
      <trkpt lat="45.91248" lon="4.77685">
        <ele>176</ele>
        <time>2017-08-01T13:48:03Z</time>
      </trkpt>
      <trkpt lat="45.91243" lon="4.77685">
        <ele>176</ele>
        <time>2017-08-01T13:48:04Z</time>
      </trkpt>
      <trkpt lat="45.91237" lon="4.77686">
        <ele>176</ele>
        <time>2017-08-01T13:48:05Z</time>
      </trkpt>
      <trkpt lat="45.91231" lon="4.77687">
        <ele>176</ele>
        <time>2017-08-01T13:48:06Z</time>
      </trkpt>
      <trkpt lat="45.91226" lon="4.77689">
        <ele>176</ele>
        <time>2017-08-01T13:48:07Z</time>
      </trkpt>
      <trkpt lat="45.91221" lon="4.7769">
        <ele>176</ele>
        <time>2017-08-01T13:48:08Z</time>
      </trkpt>
      <trkpt lat="45.91217" lon="4.77692">
        <ele>176</ele>
        <time>2017-08-01T13:48:09Z</time>
      </trkpt>
      <trkpt lat="45.91211" lon="4.77692">
        <ele>176</ele>
        <time>2017-08-01T13:48:10Z</time>
      </trkpt>
      <trkpt lat="45.91206" lon="4.77694">
        <ele>176</ele>
        <time>2017-08-01T13:48:11Z</time>
      </trkpt>
      <trkpt lat="45.91201" lon="4.77696">
        <ele>176</ele>
        <time>2017-08-01T13:48:12Z</time>
      </trkpt>
      <trkpt lat="45.91195" lon="4.77697">
        <ele>176</ele>
        <time>2017-08-01T13:48:13Z</time>
      </trkpt>
      <trkpt lat="45.91189" lon="4.77699">
        <ele>176</ele>
        <time>2017-08-01T13:48:14Z</time>
      </trkpt>
      <trkpt lat="45.91184" lon="4.77701">
        <ele>176</ele>
        <time>2017-08-01T13:48:15Z</time>
      </trkpt>
      <trkpt lat="45.91178" lon="4.77702">
        <ele>176</ele>
        <time>2017-08-01T13:48:16Z</time>
      </trkpt>
      <trkpt lat="45.91173" lon="4.77704">
        <ele>176</ele>
        <time>2017-08-01T13:48:17Z</time>
      </trkpt>
      <trkpt lat="45.91168" lon="4.77705">
        <ele>176</ele>
        <time>2017-08-01T13:48:18Z</time>
      </trkpt>
      <trkpt lat="45.91163" lon="4.77707">
        <ele>177</ele>
        <time>2017-08-01T13:48:19Z</time>
      </trkpt>
      <trkpt lat="45.91158" lon="4.77708">
        <ele>177</ele>
        <time>2017-08-01T13:48:20Z</time>
      </trkpt>
      <trkpt lat="45.91154" lon="4.7771">
        <ele>177</ele>
        <time>2017-08-01T13:48:21Z</time>
      </trkpt>
      <trkpt lat="45.9115" lon="4.77713">
        <ele>177</ele>
        <time>2017-08-01T13:48:22Z</time>
      </trkpt>
      <trkpt lat="45.91145" lon="4.77715">
        <ele>177</ele>
        <time>2017-08-01T13:48:23Z</time>
      </trkpt>
      <trkpt lat="45.9114" lon="4.77717">
        <ele>177</ele>
        <time>2017-08-01T13:48:24Z</time>
      </trkpt>
      <trkpt lat="45.91134" lon="4.77719">
        <ele>177</ele>
        <time>2017-08-01T13:48:25Z</time>
      </trkpt>
      <trkpt lat="45.91129" lon="4.77722">
        <ele>177</ele>
        <time>2017-08-01T13:48:26Z</time>
      </trkpt>
      <trkpt lat="45.91123" lon="4.77725">
        <ele>178</ele>
        <time>2017-08-01T13:48:27Z</time>
      </trkpt>
      <trkpt lat="45.91117" lon="4.77728">
        <ele>178</ele>
        <time>2017-08-01T13:48:28Z</time>
      </trkpt>
      <trkpt lat="45.91112" lon="4.77731">
        <ele>178</ele>
        <time>2017-08-01T13:48:29Z</time>
      </trkpt>
      <trkpt lat="45.91106" lon="4.77734">
        <ele>178</ele>
        <time>2017-08-01T13:48:30Z</time>
      </trkpt>
      <trkpt lat="45.911" lon="4.77739">
        <ele>178</ele>
        <time>2017-08-01T13:48:31Z</time>
      </trkpt>
      <trkpt lat="45.91094" lon="4.77742">
        <ele>178</ele>
        <time>2017-08-01T13:48:32Z</time>
      </trkpt>
      <trkpt lat="45.91089" lon="4.77746">
        <ele>179</ele>
        <time>2017-08-01T13:48:33Z</time>
      </trkpt>
      <trkpt lat="45.91083" lon="4.7775">
        <ele>179</ele>
        <time>2017-08-01T13:48:34Z</time>
      </trkpt>
      <trkpt lat="45.91077" lon="4.77754">
        <ele>179</ele>
        <time>2017-08-01T13:48:35Z</time>
      </trkpt>
      <trkpt lat="45.9107" lon="4.77757">
        <ele>179</ele>
        <time>2017-08-01T13:48:36Z</time>
      </trkpt>
      <trkpt lat="45.91064" lon="4.7776">
        <ele>178</ele>
        <time>2017-08-01T13:48:37Z</time>
      </trkpt>
      <trkpt lat="45.91059" lon="4.77763">
        <ele>178</ele>
        <time>2017-08-01T13:48:38Z</time>
      </trkpt>
      <trkpt lat="45.91054" lon="4.77765">
        <ele>178</ele>
        <time>2017-08-01T13:48:39Z</time>
      </trkpt>
      <trkpt lat="45.91048" lon="4.77768">
        <ele>178</ele>
        <time>2017-08-01T13:48:40Z</time>
      </trkpt>
      <trkpt lat="45.91042" lon="4.7777">
        <ele>178</ele>
        <time>2017-08-01T13:48:41Z</time>
      </trkpt>
      <trkpt lat="45.91037" lon="4.77772">
        <ele>178</ele>
        <time>2017-08-01T13:48:42Z</time>
      </trkpt>
      <trkpt lat="45.91032" lon="4.77774">
        <ele>178</ele>
        <time>2017-08-01T13:48:43Z</time>
      </trkpt>
      <trkpt lat="45.91027" lon="4.77776">
        <ele>178</ele>
        <time>2017-08-01T13:48:44Z</time>
      </trkpt>
      <trkpt lat="45.91023" lon="4.77777">
        <ele>178</ele>
        <time>2017-08-01T13:48:45Z</time>
      </trkpt>
      <trkpt lat="45.91015" lon="4.7778">
        <ele>178</ele>
        <time>2017-08-01T13:48:47Z</time>
      </trkpt>
      <trkpt lat="45.91011" lon="4.7778">
        <ele>178</ele>
        <time>2017-08-01T13:48:48Z</time>
      </trkpt>
      <trkpt lat="45.91004" lon="4.77783">
        <ele>178</ele>
        <time>2017-08-01T13:48:50Z</time>
      </trkpt>
      <trkpt lat="45.91" lon="4.77783">
        <ele>177</ele>
        <time>2017-08-01T13:48:51Z</time>
      </trkpt>
      <trkpt lat="45.90995" lon="4.77784">
        <ele>177</ele>
        <time>2017-08-01T13:48:52Z</time>
      </trkpt>
      <trkpt lat="45.90991" lon="4.77785">
        <ele>177</ele>
        <time>2017-08-01T13:48:53Z</time>
      </trkpt>
      <trkpt lat="45.90986" lon="4.77786">
        <ele>177</ele>
        <time>2017-08-01T13:48:54Z</time>
      </trkpt>
      <trkpt lat="45.90981" lon="4.77786">
        <ele>177</ele>
        <time>2017-08-01T13:48:55Z</time>
      </trkpt>
      <trkpt lat="45.90976" lon="4.77786">
        <ele>177</ele>
        <time>2017-08-01T13:48:56Z</time>
      </trkpt>
      <trkpt lat="45.90971" lon="4.77787">
        <ele>177</ele>
        <time>2017-08-01T13:48:57Z</time>
      </trkpt>
      <trkpt lat="45.90962" lon="4.77786">
        <ele>177</ele>
        <time>2017-08-01T13:48:59Z</time>
      </trkpt>
      <trkpt lat="45.90958" lon="4.77783">
        <ele>177</ele>
        <time>2017-08-01T13:49:00Z</time>
      </trkpt>
      <trkpt lat="45.90952" lon="4.77778">
        <ele>177</ele>
        <time>2017-08-01T13:49:02Z</time>
      </trkpt>
      <trkpt lat="45.90948" lon="4.77776">
        <ele>177</ele>
        <time>2017-08-01T13:49:03Z</time>
      </trkpt>
      <trkpt lat="45.90939" lon="4.77774">
        <ele>177</ele>
        <time>2017-08-01T13:49:05Z</time>
      </trkpt>
      <trkpt lat="45.90935" lon="4.77773">
        <ele>177</ele>
        <time>2017-08-01T13:49:06Z</time>
      </trkpt>
      <trkpt lat="45.90927" lon="4.77767">
        <ele>177</ele>
        <time>2017-08-01T13:49:08Z</time>
      </trkpt>
      <trkpt lat="45.90924" lon="4.77763">
        <ele>176</ele>
        <time>2017-08-01T13:49:09Z</time>
      </trkpt>
      <trkpt lat="45.9092" lon="4.77759">
        <ele>176</ele>
        <time>2017-08-01T13:49:10Z</time>
      </trkpt>
      <trkpt lat="45.90917" lon="4.77754">
        <ele>176</ele>
        <time>2017-08-01T13:49:11Z</time>
      </trkpt>
      <trkpt lat="45.90913" lon="4.7775">
        <ele>176</ele>
        <time>2017-08-01T13:49:12Z</time>
      </trkpt>
      <trkpt lat="45.90909" lon="4.77746">
        <ele>176</ele>
        <time>2017-08-01T13:49:13Z</time>
      </trkpt>
      <trkpt lat="45.90903" lon="4.77737">
        <ele>177</ele>
        <time>2017-08-01T13:49:15Z</time>
      </trkpt>
      <trkpt lat="45.90899" lon="4.77733">
        <ele>177</ele>
        <time>2017-08-01T13:49:16Z</time>
      </trkpt>
      <trkpt lat="45.90893" lon="4.77725">
        <ele>177</ele>
        <time>2017-08-01T13:49:18Z</time>
      </trkpt>
      <trkpt lat="45.90889" lon="4.77721">
        <ele>177</ele>
        <time>2017-08-01T13:49:19Z</time>
      </trkpt>
      <trkpt lat="45.90882" lon="4.77715">
        <ele>177</ele>
        <time>2017-08-01T13:49:21Z</time>
      </trkpt>
      <trkpt lat="45.90879" lon="4.77712">
        <ele>177</ele>
        <time>2017-08-01T13:49:22Z</time>
      </trkpt>
      <trkpt lat="45.90872" lon="4.77705">
        <ele>178</ele>
        <time>2017-08-01T13:49:24Z</time>
      </trkpt>
      <trkpt lat="45.90869" lon="4.77703">
        <ele>178</ele>
        <time>2017-08-01T13:49:25Z</time>
      </trkpt>
      <trkpt lat="45.90863" lon="4.77698">
        <ele>178</ele>
        <time>2017-08-01T13:49:27Z</time>
      </trkpt>
      <trkpt lat="45.90859" lon="4.77696">
        <ele>178</ele>
        <time>2017-08-01T13:49:28Z</time>
      </trkpt>
      <trkpt lat="45.90852" lon="4.77692">
        <ele>178</ele>
        <time>2017-08-01T13:49:30Z</time>
      </trkpt>
      <trkpt lat="45.90848" lon="4.7769">
        <ele>178</ele>
        <time>2017-08-01T13:49:31Z</time>
      </trkpt>
      <trkpt lat="45.90841" lon="4.77686">
        <ele>178</ele>
        <time>2017-08-01T13:49:33Z</time>
      </trkpt>
      <trkpt lat="45.90837" lon="4.77684">
        <ele>178</ele>
        <time>2017-08-01T13:49:34Z</time>
      </trkpt>
      <trkpt lat="45.9083" lon="4.7768">
        <ele>179</ele>
        <time>2017-08-01T13:49:36Z</time>
      </trkpt>
      <trkpt lat="45.90826" lon="4.77678">
        <ele>179</ele>
        <time>2017-08-01T13:49:37Z</time>
      </trkpt>
      <trkpt lat="45.90821" lon="4.77676">
        <ele>179</ele>
        <time>2017-08-01T13:49:38Z</time>
      </trkpt>
      <trkpt lat="45.90817" lon="4.77675">
        <ele>179</ele>
        <time>2017-08-01T13:49:39Z</time>
      </trkpt>
      <trkpt lat="45.90811" lon="4.77672">
        <ele>179</ele>
        <time>2017-08-01T13:49:40Z</time>
      </trkpt>
      <trkpt lat="45.90806" lon="4.7767">
        <ele>179</ele>
        <time>2017-08-01T13:49:41Z</time>
      </trkpt>
      <trkpt lat="45.90801" lon="4.77668">
        <ele>179</ele>
        <time>2017-08-01T13:49:42Z</time>
      </trkpt>
      <trkpt lat="45.90797" lon="4.77667">
        <ele>179</ele>
        <time>2017-08-01T13:49:43Z</time>
      </trkpt>
      <trkpt lat="45.90789" lon="4.77664">
        <ele>179</ele>
        <time>2017-08-01T13:49:45Z</time>
      </trkpt>
      <trkpt lat="45.90785" lon="4.77663">
        <ele>179</ele>
        <time>2017-08-01T13:49:46Z</time>
      </trkpt>
      <trkpt lat="45.90778" lon="4.77662">
        <ele>180</ele>
        <time>2017-08-01T13:49:48Z</time>
      </trkpt>
      <trkpt lat="45.90774" lon="4.7766">
        <ele>180</ele>
        <time>2017-08-01T13:49:49Z</time>
      </trkpt>
      <trkpt lat="45.90766" lon="4.77657">
        <ele>180</ele>
        <time>2017-08-01T13:49:51Z</time>
      </trkpt>
      <trkpt lat="45.90763" lon="4.77653">
        <ele>180</ele>
        <time>2017-08-01T13:49:52Z</time>
      </trkpt>
      <trkpt lat="45.9076" lon="4.77643">
        <ele>180</ele>
        <time>2017-08-01T13:49:54Z</time>
      </trkpt>
      <trkpt lat="45.9076" lon="4.77638">
        <ele>179</ele>
        <time>2017-08-01T13:49:55Z</time>
      </trkpt>
      <trkpt lat="45.90763" lon="4.77629">
        <ele>179</ele>
        <time>2017-08-01T13:49:57Z</time>
      </trkpt>
      <trkpt lat="45.90766" lon="4.77625">
        <ele>179</ele>
        <time>2017-08-01T13:49:58Z</time>
      </trkpt>
      <trkpt lat="45.90771" lon="4.77615">
        <ele>179</ele>
        <time>2017-08-01T13:50:00Z</time>
      </trkpt>
      <trkpt lat="45.90773" lon="4.7761">
        <ele>179</ele>
        <time>2017-08-01T13:50:01Z</time>
      </trkpt>
      <trkpt lat="45.90777" lon="4.77605">
        <ele>179</ele>
        <time>2017-08-01T13:50:02Z</time>
      </trkpt>
      <trkpt lat="45.9078" lon="4.77601">
        <ele>179</ele>
        <time>2017-08-01T13:50:03Z</time>
      </trkpt>
      <trkpt lat="45.90786" lon="4.77592">
        <ele>179</ele>
        <time>2017-08-01T13:50:05Z</time>
      </trkpt>
      <trkpt lat="45.9079" lon="4.77587">
        <ele>179</ele>
        <time>2017-08-01T13:50:06Z</time>
      </trkpt>
      <trkpt lat="45.90793" lon="4.77582">
        <ele>178</ele>
        <time>2017-08-01T13:50:07Z</time>
      </trkpt>
      <trkpt lat="45.90797" lon="4.77578">
        <ele>178</ele>
        <time>2017-08-01T13:50:08Z</time>
      </trkpt>
      <trkpt lat="45.90801" lon="4.77573">
        <ele>178</ele>
        <time>2017-08-01T13:50:09Z</time>
      </trkpt>
      <trkpt lat="45.90805" lon="4.77568">
        <ele>178</ele>
        <time>2017-08-01T13:50:10Z</time>
      </trkpt>
      <trkpt lat="45.90809" lon="4.77561">
        <ele>178</ele>
        <time>2017-08-01T13:50:11Z</time>
      </trkpt>
      <trkpt lat="45.90813" lon="4.77555">
        <ele>178</ele>
        <time>2017-08-01T13:50:12Z</time>
      </trkpt>
      <trkpt lat="45.90818" lon="4.77549">
        <ele>178</ele>
        <time>2017-08-01T13:50:13Z</time>
      </trkpt>
      <trkpt lat="45.90822" lon="4.77544">
        <ele>178</ele>
        <time>2017-08-01T13:50:14Z</time>
      </trkpt>
      <trkpt lat="45.90825" lon="4.77539">
        <ele>178</ele>
        <time>2017-08-01T13:50:15Z</time>
      </trkpt>
      <trkpt lat="45.90829" lon="4.77534">
        <ele>178</ele>
        <time>2017-08-01T13:50:16Z</time>
      </trkpt>
      <trkpt lat="45.90833" lon="4.77528">
        <ele>178</ele>
        <time>2017-08-01T13:50:17Z</time>
      </trkpt>
      <trkpt lat="45.90837" lon="4.77521">
        <ele>178</ele>
        <time>2017-08-01T13:50:18Z</time>
      </trkpt>
      <trkpt lat="45.90841" lon="4.77514">
        <ele>179</ele>
        <time>2017-08-01T13:50:19Z</time>
      </trkpt>
      <trkpt lat="45.90845" lon="4.77508">
        <ele>179</ele>
        <time>2017-08-01T13:50:20Z</time>
      </trkpt>
      <trkpt lat="45.90848" lon="4.77503">
        <ele>179</ele>
        <time>2017-08-01T13:50:21Z</time>
      </trkpt>
      <trkpt lat="45.90852" lon="4.77497">
        <ele>178</ele>
        <time>2017-08-01T13:50:22Z</time>
      </trkpt>
      <trkpt lat="45.90856" lon="4.7749">
        <ele>178</ele>
        <time>2017-08-01T13:50:23Z</time>
      </trkpt>
      <trkpt lat="45.90859" lon="4.77482">
        <ele>178</ele>
        <time>2017-08-01T13:50:24Z</time>
      </trkpt>
      <trkpt lat="45.90863" lon="4.77475">
        <ele>178</ele>
        <time>2017-08-01T13:50:25Z</time>
      </trkpt>
      <trkpt lat="45.90868" lon="4.77468">
        <ele>178</ele>
        <time>2017-08-01T13:50:26Z</time>
      </trkpt>
      <trkpt lat="45.90872" lon="4.77461">
        <ele>178</ele>
        <time>2017-08-01T13:50:27Z</time>
      </trkpt>
      <trkpt lat="45.90876" lon="4.77453">
        <ele>178</ele>
        <time>2017-08-01T13:50:28Z</time>
      </trkpt>
      <trkpt lat="45.9088" lon="4.77446">
        <ele>178</ele>
        <time>2017-08-01T13:50:29Z</time>
      </trkpt>
      <trkpt lat="45.90884" lon="4.77439">
        <ele>177</ele>
        <time>2017-08-01T13:50:30Z</time>
      </trkpt>
      <trkpt lat="45.90888" lon="4.77432">
        <ele>177</ele>
        <time>2017-08-01T13:50:31Z</time>
      </trkpt>
      <trkpt lat="45.90892" lon="4.77426">
        <ele>177</ele>
        <time>2017-08-01T13:50:32Z</time>
      </trkpt>
      <trkpt lat="45.90896" lon="4.77419">
        <ele>177</ele>
        <time>2017-08-01T13:50:33Z</time>
      </trkpt>
      <trkpt lat="45.909" lon="4.77413">
        <ele>177</ele>
        <time>2017-08-01T13:50:34Z</time>
      </trkpt>
      <trkpt lat="45.90903" lon="4.77407">
        <ele>177</ele>
        <time>2017-08-01T13:50:35Z</time>
      </trkpt>
      <trkpt lat="45.90906" lon="4.77401">
        <ele>177</ele>
        <time>2017-08-01T13:50:36Z</time>
      </trkpt>
      <trkpt lat="45.90909" lon="4.77396">
        <ele>177</ele>
        <time>2017-08-01T13:50:37Z</time>
      </trkpt>
      <trkpt lat="45.90912" lon="4.77391">
        <ele>177</ele>
        <time>2017-08-01T13:50:38Z</time>
      </trkpt>
      <trkpt lat="45.90915" lon="4.77386">
        <ele>177</ele>
        <time>2017-08-01T13:50:39Z</time>
      </trkpt>
      <trkpt lat="45.90918" lon="4.77381">
        <ele>176</ele>
        <time>2017-08-01T13:50:40Z</time>
      </trkpt>
      <trkpt lat="45.9092" lon="4.77375">
        <ele>177</ele>
        <time>2017-08-01T13:50:41Z</time>
      </trkpt>
      <trkpt lat="45.90924" lon="4.77369">
        <ele>177</ele>
        <time>2017-08-01T13:50:42Z</time>
      </trkpt>
      <trkpt lat="45.90927" lon="4.77363">
        <ele>177</ele>
        <time>2017-08-01T13:50:43Z</time>
      </trkpt>
      <trkpt lat="45.90931" lon="4.77357">
        <ele>177</ele>
        <time>2017-08-01T13:50:44Z</time>
      </trkpt>
      <trkpt lat="45.90934" lon="4.77351">
        <ele>177</ele>
        <time>2017-08-01T13:50:45Z</time>
      </trkpt>
      <trkpt lat="45.90937" lon="4.77345">
        <ele>177</ele>
        <time>2017-08-01T13:50:46Z</time>
      </trkpt>
      <trkpt lat="45.9094" lon="4.77339">
        <ele>177</ele>
        <time>2017-08-01T13:50:47Z</time>
      </trkpt>
      <trkpt lat="45.90943" lon="4.77333">
        <ele>177</ele>
        <time>2017-08-01T13:50:48Z</time>
      </trkpt>
      <trkpt lat="45.90947" lon="4.77328">
        <ele>178</ele>
        <time>2017-08-01T13:50:49Z</time>
      </trkpt>
      <trkpt lat="45.9095" lon="4.77322">
        <ele>178</ele>
        <time>2017-08-01T13:50:50Z</time>
      </trkpt>
      <trkpt lat="45.90954" lon="4.77315">
        <ele>178</ele>
        <time>2017-08-01T13:50:51Z</time>
      </trkpt>
      <trkpt lat="45.90957" lon="4.77309">
        <ele>178</ele>
        <time>2017-08-01T13:50:52Z</time>
      </trkpt>
      <trkpt lat="45.90961" lon="4.77302">
        <ele>178</ele>
        <time>2017-08-01T13:50:53Z</time>
      </trkpt>
      <trkpt lat="45.90964" lon="4.77297">
        <ele>178</ele>
        <time>2017-08-01T13:50:54Z</time>
      </trkpt>
      <trkpt lat="45.90968" lon="4.77291">
        <ele>178</ele>
        <time>2017-08-01T13:50:55Z</time>
      </trkpt>
      <trkpt lat="45.90971" lon="4.77285">
        <ele>178</ele>
        <time>2017-08-01T13:50:56Z</time>
      </trkpt>
      <trkpt lat="45.90974" lon="4.77279">
        <ele>178</ele>
        <time>2017-08-01T13:50:57Z</time>
      </trkpt>
      <trkpt lat="45.90977" lon="4.77273">
        <ele>178</ele>
        <time>2017-08-01T13:50:58Z</time>
      </trkpt>
      <trkpt lat="45.90978" lon="4.77267">
        <ele>178</ele>
        <time>2017-08-01T13:50:59Z</time>
      </trkpt>
      <trkpt lat="45.90979" lon="4.77261">
        <ele>178</ele>
        <time>2017-08-01T13:51:00Z</time>
      </trkpt>
      <trkpt lat="45.90979" lon="4.77254">
        <ele>178</ele>
        <time>2017-08-01T13:51:01Z</time>
      </trkpt>
      <trkpt lat="45.90978" lon="4.77246">
        <ele>178</ele>
        <time>2017-08-01T13:51:02Z</time>
      </trkpt>
      <trkpt lat="45.90976" lon="4.77239">
        <ele>178</ele>
        <time>2017-08-01T13:51:03Z</time>
      </trkpt>
      <trkpt lat="45.90974" lon="4.77233">
        <ele>177</ele>
        <time>2017-08-01T13:51:04Z</time>
      </trkpt>
      <trkpt lat="45.9097" lon="4.77228">
        <ele>177</ele>
        <time>2017-08-01T13:51:05Z</time>
      </trkpt>
      <trkpt lat="45.90967" lon="4.77223">
        <ele>177</ele>
        <time>2017-08-01T13:51:06Z</time>
      </trkpt>
      <trkpt lat="45.90963" lon="4.77218">
        <ele>177</ele>
        <time>2017-08-01T13:51:07Z</time>
      </trkpt>
      <trkpt lat="45.9096" lon="4.77213">
        <ele>177</ele>
        <time>2017-08-01T13:51:08Z</time>
      </trkpt>
      <trkpt lat="45.90956" lon="4.77209">
        <ele>177</ele>
        <time>2017-08-01T13:51:09Z</time>
      </trkpt>
      <trkpt lat="45.90953" lon="4.77202">
        <ele>177</ele>
        <time>2017-08-01T13:51:10Z</time>
      </trkpt>
      <trkpt lat="45.90949" lon="4.77196">
        <ele>176</ele>
        <time>2017-08-01T13:51:11Z</time>
      </trkpt>
      <trkpt lat="45.90945" lon="4.77189">
        <ele>176</ele>
        <time>2017-08-01T13:51:12Z</time>
      </trkpt>
      <trkpt lat="45.90941" lon="4.77182">
        <ele>176</ele>
        <time>2017-08-01T13:51:13Z</time>
      </trkpt>
      <trkpt lat="45.90936" lon="4.77175">
        <ele>176</ele>
        <time>2017-08-01T13:51:14Z</time>
      </trkpt>
      <trkpt lat="45.90932" lon="4.77168">
        <ele>176</ele>
        <time>2017-08-01T13:51:15Z</time>
      </trkpt>
      <trkpt lat="45.90928" lon="4.77162">
        <ele>175</ele>
        <time>2017-08-01T13:51:16Z</time>
      </trkpt>
      <trkpt lat="45.90923" lon="4.77157">
        <ele>175</ele>
        <time>2017-08-01T13:51:17Z</time>
      </trkpt>
      <trkpt lat="45.90919" lon="4.77151">
        <ele>176</ele>
        <time>2017-08-01T13:51:18Z</time>
      </trkpt>
      <trkpt lat="45.90915" lon="4.77146">
        <ele>176</ele>
        <time>2017-08-01T13:51:19Z</time>
      </trkpt>
      <trkpt lat="45.90911" lon="4.77141">
        <ele>176</ele>
        <time>2017-08-01T13:51:20Z</time>
      </trkpt>
      <trkpt lat="45.90908" lon="4.77136">
        <ele>176</ele>
        <time>2017-08-01T13:51:21Z</time>
      </trkpt>
      <trkpt lat="45.90904" lon="4.7713">
        <ele>176</ele>
        <time>2017-08-01T13:51:22Z</time>
      </trkpt>
      <trkpt lat="45.909" lon="4.77124">
        <ele>176</ele>
        <time>2017-08-01T13:51:23Z</time>
      </trkpt>
      <trkpt lat="45.90896" lon="4.77119">
        <ele>176</ele>
        <time>2017-08-01T13:51:24Z</time>
      </trkpt>
      <trkpt lat="45.90891" lon="4.77113">
        <ele>176</ele>
        <time>2017-08-01T13:51:25Z</time>
      </trkpt>
      <trkpt lat="45.90887" lon="4.77107">
        <ele>176</ele>
        <time>2017-08-01T13:51:26Z</time>
      </trkpt>
      <trkpt lat="45.90882" lon="4.77102">
        <ele>176</ele>
        <time>2017-08-01T13:51:27Z</time>
      </trkpt>
      <trkpt lat="45.90877" lon="4.77096">
        <ele>176</ele>
        <time>2017-08-01T13:51:28Z</time>
      </trkpt>
      <trkpt lat="45.90872" lon="4.77091">
        <ele>176</ele>
        <time>2017-08-01T13:51:29Z</time>
      </trkpt>
      <trkpt lat="45.90867" lon="4.77086">
        <ele>176</ele>
        <time>2017-08-01T13:51:30Z</time>
      </trkpt>
      <trkpt lat="45.90862" lon="4.77081">
        <ele>177</ele>
        <time>2017-08-01T13:51:31Z</time>
      </trkpt>
      <trkpt lat="45.90858" lon="4.77077">
        <ele>177</ele>
        <time>2017-08-01T13:51:32Z</time>
      </trkpt>
      <trkpt lat="45.90854" lon="4.77072">
        <ele>177</ele>
        <time>2017-08-01T13:51:33Z</time>
      </trkpt>
      <trkpt lat="45.9085" lon="4.77068">
        <ele>177</ele>
        <time>2017-08-01T13:51:34Z</time>
      </trkpt>
      <trkpt lat="45.90846" lon="4.77063">
        <ele>177</ele>
        <time>2017-08-01T13:51:35Z</time>
      </trkpt>
      <trkpt lat="45.90842" lon="4.77059">
        <ele>177</ele>
        <time>2017-08-01T13:51:36Z</time>
      </trkpt>
      <trkpt lat="45.90839" lon="4.77054">
        <ele>177</ele>
        <time>2017-08-01T13:51:37Z</time>
      </trkpt>
      <trkpt lat="45.90835" lon="4.7705">
        <ele>177</ele>
        <time>2017-08-01T13:51:38Z</time>
      </trkpt>
      <trkpt lat="45.90831" lon="4.77045">
        <ele>177</ele>
        <time>2017-08-01T13:51:39Z</time>
      </trkpt>
      <trkpt lat="45.90826" lon="4.77041">
        <ele>177</ele>
        <time>2017-08-01T13:51:40Z</time>
      </trkpt>
      <trkpt lat="45.90821" lon="4.77037">
        <ele>177</ele>
        <time>2017-08-01T13:51:41Z</time>
      </trkpt>
      <trkpt lat="45.90816" lon="4.77032">
        <ele>177</ele>
        <time>2017-08-01T13:51:42Z</time>
      </trkpt>
      <trkpt lat="45.90812" lon="4.77028">
        <ele>177</ele>
        <time>2017-08-01T13:51:43Z</time>
      </trkpt>
      <trkpt lat="45.90807" lon="4.77023">
        <ele>177</ele>
        <time>2017-08-01T13:51:44Z</time>
      </trkpt>
      <trkpt lat="45.90802" lon="4.77018">
        <ele>177</ele>
        <time>2017-08-01T13:51:45Z</time>
      </trkpt>
      <trkpt lat="45.90798" lon="4.77013">
        <ele>177</ele>
        <time>2017-08-01T13:51:46Z</time>
      </trkpt>
      <trkpt lat="45.90793" lon="4.77008">
        <ele>177</ele>
        <time>2017-08-01T13:51:47Z</time>
      </trkpt>
      <trkpt lat="45.90788" lon="4.77004">
        <ele>178</ele>
        <time>2017-08-01T13:51:48Z</time>
      </trkpt>
      <trkpt lat="45.90784" lon="4.76999">
        <ele>178</ele>
        <time>2017-08-01T13:51:49Z</time>
      </trkpt>
      <trkpt lat="45.9078" lon="4.76995">
        <ele>178</ele>
        <time>2017-08-01T13:51:50Z</time>
      </trkpt>
      <trkpt lat="45.90775" lon="4.76991">
        <ele>178</ele>
        <time>2017-08-01T13:51:51Z</time>
      </trkpt>
      <trkpt lat="45.90771" lon="4.76987">
        <ele>178</ele>
        <time>2017-08-01T13:51:52Z</time>
      </trkpt>
      <trkpt lat="45.90767" lon="4.76984">
        <ele>178</ele>
        <time>2017-08-01T13:51:53Z</time>
      </trkpt>
      <trkpt lat="45.90762" lon="4.76981">
        <ele>178</ele>
        <time>2017-08-01T13:51:54Z</time>
      </trkpt>
      <trkpt lat="45.90757" lon="4.76978">
        <ele>178</ele>
        <time>2017-08-01T13:51:55Z</time>
      </trkpt>
      <trkpt lat="45.90752" lon="4.76975">
        <ele>178</ele>
        <time>2017-08-01T13:51:56Z</time>
      </trkpt>
      <trkpt lat="45.90747" lon="4.76973">
        <ele>179</ele>
        <time>2017-08-01T13:51:57Z</time>
      </trkpt>
      <trkpt lat="45.90743" lon="4.7697">
        <ele>179</ele>
        <time>2017-08-01T13:51:58Z</time>
      </trkpt>
      <trkpt lat="45.90738" lon="4.76968">
        <ele>179</ele>
        <time>2017-08-01T13:51:59Z</time>
      </trkpt>
      <trkpt lat="45.90734" lon="4.76966">
        <ele>179</ele>
        <time>2017-08-01T13:52:00Z</time>
      </trkpt>
      <trkpt lat="45.90726" lon="4.76961">
        <ele>179</ele>
        <time>2017-08-01T13:52:02Z</time>
      </trkpt>
      <trkpt lat="45.90722" lon="4.76959">
        <ele>179</ele>
        <time>2017-08-01T13:52:03Z</time>
      </trkpt>
      <trkpt lat="45.90715" lon="4.76955">
        <ele>179</ele>
        <time>2017-08-01T13:52:05Z</time>
      </trkpt>
      <trkpt lat="45.90711" lon="4.76953">
        <ele>179</ele>
        <time>2017-08-01T13:52:06Z</time>
      </trkpt>
      <trkpt lat="45.90707" lon="4.76951">
        <ele>179</ele>
        <time>2017-08-01T13:52:07Z</time>
      </trkpt>
      <trkpt lat="45.90702" lon="4.76949">
        <ele>179</ele>
        <time>2017-08-01T13:52:08Z</time>
      </trkpt>
      <trkpt lat="45.90698" lon="4.76947">
        <ele>179</ele>
        <time>2017-08-01T13:52:09Z</time>
      </trkpt>
      <trkpt lat="45.90693" lon="4.76945">
        <ele>179</ele>
        <time>2017-08-01T13:52:10Z</time>
      </trkpt>
      <trkpt lat="45.90689" lon="4.76943">
        <ele>179</ele>
        <time>2017-08-01T13:52:11Z</time>
      </trkpt>
      <trkpt lat="45.90684" lon="4.7694">
        <ele>179</ele>
        <time>2017-08-01T13:52:12Z</time>
      </trkpt>
      <trkpt lat="45.9068" lon="4.76938">
        <ele>179</ele>
        <time>2017-08-01T13:52:13Z</time>
      </trkpt>
      <trkpt lat="45.90676" lon="4.76936">
        <ele>179</ele>
        <time>2017-08-01T13:52:14Z</time>
      </trkpt>
      <trkpt lat="45.90668" lon="4.76932">
        <ele>179</ele>
        <time>2017-08-01T13:52:16Z</time>
      </trkpt>
      <trkpt lat="45.90664" lon="4.76931">
        <ele>179</ele>
        <time>2017-08-01T13:52:17Z</time>
      </trkpt>
      <trkpt lat="45.90656" lon="4.76927">
        <ele>179</ele>
        <time>2017-08-01T13:52:19Z</time>
      </trkpt>
      <trkpt lat="45.90651" lon="4.76926">
        <ele>179</ele>
        <time>2017-08-01T13:52:20Z</time>
      </trkpt>
      <trkpt lat="45.90647" lon="4.76925">
        <ele>179</ele>
        <time>2017-08-01T13:52:21Z</time>
      </trkpt>
      <trkpt lat="45.90642" lon="4.76924">
        <ele>180</ele>
        <time>2017-08-01T13:52:22Z</time>
      </trkpt>
      <trkpt lat="45.90633" lon="4.76922">
        <ele>180</ele>
        <time>2017-08-01T13:52:24Z</time>
      </trkpt>
      <trkpt lat="45.90629" lon="4.76921">
        <ele>180</ele>
        <time>2017-08-01T13:52:25Z</time>
      </trkpt>
      <trkpt lat="45.90622" lon="4.76919">
        <ele>180</ele>
        <time>2017-08-01T13:52:27Z</time>
      </trkpt>
      <trkpt lat="45.90618" lon="4.76918">
        <ele>180</ele>
        <time>2017-08-01T13:52:28Z</time>
      </trkpt>
      <trkpt lat="45.9061" lon="4.76916">
        <ele>179</ele>
        <time>2017-08-01T13:52:30Z</time>
      </trkpt>
      <trkpt lat="45.90606" lon="4.76914">
        <ele>179</ele>
        <time>2017-08-01T13:52:31Z</time>
      </trkpt>
      <trkpt lat="45.90601" lon="4.76913">
        <ele>179</ele>
        <time>2017-08-01T13:52:32Z</time>
      </trkpt>
      <trkpt lat="45.90596" lon="4.76912">
        <ele>180</ele>
        <time>2017-08-01T13:52:33Z</time>
      </trkpt>
      <trkpt lat="45.90591" lon="4.7691">
        <ele>180</ele>
        <time>2017-08-01T13:52:34Z</time>
      </trkpt>
      <trkpt lat="45.90586" lon="4.76908">
        <ele>180</ele>
        <time>2017-08-01T13:52:35Z</time>
      </trkpt>
      <trkpt lat="45.90581" lon="4.76907">
        <ele>180</ele>
        <time>2017-08-01T13:52:36Z</time>
      </trkpt>
      <trkpt lat="45.90577" lon="4.76906">
        <ele>180</ele>
        <time>2017-08-01T13:52:37Z</time>
      </trkpt>
      <trkpt lat="45.90568" lon="4.76904">
        <ele>180</ele>
        <time>2017-08-01T13:52:39Z</time>
      </trkpt>
      <trkpt lat="45.90564" lon="4.76903">
        <ele>180</ele>
        <time>2017-08-01T13:52:40Z</time>
      </trkpt>
      <trkpt lat="45.90557" lon="4.76901">
        <ele>180</ele>
        <time>2017-08-01T13:52:42Z</time>
      </trkpt>
      <trkpt lat="45.90553" lon="4.769">
        <ele>180</ele>
        <time>2017-08-01T13:52:43Z</time>
      </trkpt>
      <trkpt lat="45.90544" lon="4.76897">
        <ele>180</ele>
        <time>2017-08-01T13:52:45Z</time>
      </trkpt>
      <trkpt lat="45.9054" lon="4.76896">
        <ele>180</ele>
        <time>2017-08-01T13:52:46Z</time>
      </trkpt>
      <trkpt lat="45.90535" lon="4.76894">
        <ele>180</ele>
        <time>2017-08-01T13:52:47Z</time>
      </trkpt>
      <trkpt lat="45.9053" lon="4.76893">
        <ele>180</ele>
        <time>2017-08-01T13:52:48Z</time>
      </trkpt>
      <trkpt lat="45.90525" lon="4.76891">
        <ele>180</ele>
        <time>2017-08-01T13:52:49Z</time>
      </trkpt>
      <trkpt lat="45.9052" lon="4.7689">
        <ele>180</ele>
        <time>2017-08-01T13:52:50Z</time>
      </trkpt>
      <trkpt lat="45.90515" lon="4.76888">
        <ele>180</ele>
        <time>2017-08-01T13:52:51Z</time>
      </trkpt>
      <trkpt lat="45.90511" lon="4.76887">
        <ele>180</ele>
        <time>2017-08-01T13:52:52Z</time>
      </trkpt>
      <trkpt lat="45.90502" lon="4.76885">
        <ele>180</ele>
        <time>2017-08-01T13:52:54Z</time>
      </trkpt>
      <trkpt lat="45.90498" lon="4.76883">
        <ele>181</ele>
        <time>2017-08-01T13:52:55Z</time>
      </trkpt>
      <trkpt lat="45.9049" lon="4.76881">
        <ele>181</ele>
        <time>2017-08-01T13:52:57Z</time>
      </trkpt>
      <trkpt lat="45.90486" lon="4.7688">
        <ele>181</ele>
        <time>2017-08-01T13:52:58Z</time>
      </trkpt>
      <trkpt lat="45.90481" lon="4.76878">
        <ele>181</ele>
        <time>2017-08-01T13:52:59Z</time>
      </trkpt>
      <trkpt lat="45.90476" lon="4.76877">
        <ele>181</ele>
        <time>2017-08-01T13:53:00Z</time>
      </trkpt>
      <trkpt lat="45.90468" lon="4.76875">
        <ele>181</ele>
        <time>2017-08-01T13:53:02Z</time>
      </trkpt>
      <trkpt lat="45.90464" lon="4.76874">
        <ele>181</ele>
        <time>2017-08-01T13:53:03Z</time>
      </trkpt>
      <trkpt lat="45.90456" lon="4.76873">
        <ele>181</ele>
        <time>2017-08-01T13:53:05Z</time>
      </trkpt>
      <trkpt lat="45.90452" lon="4.76872">
        <ele>181</ele>
        <time>2017-08-01T13:53:06Z</time>
      </trkpt>
      <trkpt lat="45.90447" lon="4.76871">
        <ele>181</ele>
        <time>2017-08-01T13:53:07Z</time>
      </trkpt>
      <trkpt lat="45.90443" lon="4.7687">
        <ele>181</ele>
        <time>2017-08-01T13:53:08Z</time>
      </trkpt>
      <trkpt lat="45.90437" lon="4.76869">
        <ele>181</ele>
        <time>2017-08-01T13:53:09Z</time>
      </trkpt>
      <trkpt lat="45.90432" lon="4.76868">
        <ele>181</ele>
        <time>2017-08-01T13:53:10Z</time>
      </trkpt>
      <trkpt lat="45.90428" lon="4.76867">
        <ele>181</ele>
        <time>2017-08-01T13:53:11Z</time>
      </trkpt>
      <trkpt lat="45.90423" lon="4.76866">
        <ele>181</ele>
        <time>2017-08-01T13:53:12Z</time>
      </trkpt>
      <trkpt lat="45.90414" lon="4.76865">
        <ele>182</ele>
        <time>2017-08-01T13:53:14Z</time>
      </trkpt>
      <trkpt lat="45.9041" lon="4.76865">
        <ele>182</ele>
        <time>2017-08-01T13:53:15Z</time>
      </trkpt>
      <trkpt lat="45.90401" lon="4.76864">
        <ele>182</ele>
        <time>2017-08-01T13:53:17Z</time>
      </trkpt>
      <trkpt lat="45.90396" lon="4.76863">
        <ele>182</ele>
        <time>2017-08-01T13:53:18Z</time>
      </trkpt>
      <trkpt lat="45.90391" lon="4.76863">
        <ele>182</ele>
        <time>2017-08-01T13:53:19Z</time>
      </trkpt>
      <trkpt lat="45.90386" lon="4.76862">
        <ele>182</ele>
        <time>2017-08-01T13:53:20Z</time>
      </trkpt>
      <trkpt lat="45.90381" lon="4.76862">
        <ele>182</ele>
        <time>2017-08-01T13:53:21Z</time>
      </trkpt>
      <trkpt lat="45.90377" lon="4.76862">
        <ele>182</ele>
        <time>2017-08-01T13:53:22Z</time>
      </trkpt>
      <trkpt lat="45.90368" lon="4.76862">
        <ele>182</ele>
        <time>2017-08-01T13:53:24Z</time>
      </trkpt>
      <trkpt lat="45.90364" lon="4.76862">
        <ele>182</ele>
        <time>2017-08-01T13:53:25Z</time>
      </trkpt>
      <trkpt lat="45.90357" lon="4.76861">
        <ele>182</ele>
        <time>2017-08-01T13:53:27Z</time>
      </trkpt>
      <trkpt lat="45.90353" lon="4.76861">
        <ele>182</ele>
        <time>2017-08-01T13:53:28Z</time>
      </trkpt>
      <trkpt lat="45.90345" lon="4.76861">
        <ele>182</ele>
        <time>2017-08-01T13:53:30Z</time>
      </trkpt>
      <trkpt lat="45.90341" lon="4.7686">
        <ele>182</ele>
        <time>2017-08-01T13:53:31Z</time>
      </trkpt>
      <trkpt lat="45.90335" lon="4.76854">
        <ele>182</ele>
        <time>2017-08-01T13:53:33Z</time>
      </trkpt>
      <trkpt lat="45.90334" lon="4.7685">
        <ele>182</ele>
        <time>2017-08-01T13:53:34Z</time>
      </trkpt>
      <trkpt lat="45.90332" lon="4.76839">
        <ele>182</ele>
        <time>2017-08-01T13:53:36Z</time>
      </trkpt>
      <trkpt lat="45.90333" lon="4.76833">
        <ele>182</ele>
        <time>2017-08-01T13:53:37Z</time>
      </trkpt>
      <trkpt lat="45.90334" lon="4.76821">
        <ele>182</ele>
        <time>2017-08-01T13:53:39Z</time>
      </trkpt>
      <trkpt lat="45.90335" lon="4.76815">
        <ele>182</ele>
        <time>2017-08-01T13:53:40Z</time>
      </trkpt>
      <trkpt lat="45.90336" lon="4.76803">
        <ele>182</ele>
        <time>2017-08-01T13:53:42Z</time>
      </trkpt>
      <trkpt lat="45.90336" lon="4.76798">
        <ele>182</ele>
        <time>2017-08-01T13:53:43Z</time>
      </trkpt>
      <trkpt lat="45.90338" lon="4.76785">
        <ele>182</ele>
        <time>2017-08-01T13:53:45Z</time>
      </trkpt>
      <trkpt lat="45.90338" lon="4.76779">
        <ele>182</ele>
        <time>2017-08-01T13:53:46Z</time>
      </trkpt>
      <trkpt lat="45.90338" lon="4.76772">
        <ele>182</ele>
        <time>2017-08-01T13:53:47Z</time>
      </trkpt>
      <trkpt lat="45.90338" lon="4.76765">
        <ele>182</ele>
        <time>2017-08-01T13:53:48Z</time>
      </trkpt>
      <trkpt lat="45.90339" lon="4.76753">
        <ele>183</ele>
        <time>2017-08-01T13:53:50Z</time>
      </trkpt>
      <trkpt lat="45.90339" lon="4.76747">
        <ele>183</ele>
        <time>2017-08-01T13:53:51Z</time>
      </trkpt>
      <trkpt lat="45.90339" lon="4.7674">
        <ele>183</ele>
        <time>2017-08-01T13:53:52Z</time>
      </trkpt>
      <trkpt lat="45.90339" lon="4.76734">
        <ele>183</ele>
        <time>2017-08-01T13:53:53Z</time>
      </trkpt>
      <trkpt lat="45.90339" lon="4.76727">
        <ele>183</ele>
        <time>2017-08-01T13:53:54Z</time>
      </trkpt>
      <trkpt lat="45.90339" lon="4.7672">
        <ele>183</ele>
        <time>2017-08-01T13:53:55Z</time>
      </trkpt>
      <trkpt lat="45.90339" lon="4.76709">
        <ele>183</ele>
        <time>2017-08-01T13:53:57Z</time>
      </trkpt>
      <trkpt lat="45.90339" lon="4.76703">
        <ele>183</ele>
        <time>2017-08-01T13:53:58Z</time>
      </trkpt>
      <trkpt lat="45.90339" lon="4.76692">
        <ele>183</ele>
        <time>2017-08-01T13:54:00Z</time>
      </trkpt>
      <trkpt lat="45.90339" lon="4.76687">
        <ele>183</ele>
        <time>2017-08-01T13:54:01Z</time>
      </trkpt>
      <trkpt lat="45.90339" lon="4.7668">
        <ele>183</ele>
        <time>2017-08-01T13:54:02Z</time>
      </trkpt>
      <trkpt lat="45.90339" lon="4.76674">
        <ele>184</ele>
        <time>2017-08-01T13:54:03Z</time>
      </trkpt>
      <trkpt lat="45.90339" lon="4.76667">
        <ele>184</ele>
        <time>2017-08-01T13:54:04Z</time>
      </trkpt>
      <trkpt lat="45.90339" lon="4.76661">
        <ele>184</ele>
        <time>2017-08-01T13:54:05Z</time>
      </trkpt>
      <trkpt lat="45.90339" lon="4.76648">
        <ele>184</ele>
        <time>2017-08-01T13:54:07Z</time>
      </trkpt>
      <trkpt lat="45.90339" lon="4.76642">
        <ele>184</ele>
        <time>2017-08-01T13:54:08Z</time>
      </trkpt>
      <trkpt lat="45.90338" lon="4.7663">
        <ele>184</ele>
        <time>2017-08-01T13:54:10Z</time>
      </trkpt>
      <trkpt lat="45.90338" lon="4.76624">
        <ele>184</ele>
        <time>2017-08-01T13:54:11Z</time>
      </trkpt>
      <trkpt lat="45.90339" lon="4.76614">
        <ele>184</ele>
        <time>2017-08-01T13:54:13Z</time>
      </trkpt>
      <trkpt lat="45.90339" lon="4.76609">
        <ele>184</ele>
        <time>2017-08-01T13:54:14Z</time>
      </trkpt>
      <trkpt lat="45.90339" lon="4.766">
        <ele>184</ele>
        <time>2017-08-01T13:54:16Z</time>
      </trkpt>
      <trkpt lat="45.90339" lon="4.76596">
        <ele>184</ele>
        <time>2017-08-01T13:54:17Z</time>
      </trkpt>
      <trkpt lat="45.9034" lon="4.76583">
        <ele>185</ele>
        <time>2017-08-01T13:54:20Z</time>
      </trkpt>
      <trkpt lat="45.9034" lon="4.76579">
        <ele>185</ele>
        <time>2017-08-01T13:54:21Z</time>
      </trkpt>
      <trkpt lat="45.9034" lon="4.76567">
        <ele>185</ele>
        <time>2017-08-01T13:54:24Z</time>
      </trkpt>
      <trkpt lat="45.9034" lon="4.76562">
        <ele>185</ele>
        <time>2017-08-01T13:54:25Z</time>
      </trkpt>
      <trkpt lat="45.9034" lon="4.7655">
        <ele>185</ele>
        <time>2017-08-01T13:54:28Z</time>
      </trkpt>
      <trkpt lat="45.9034" lon="4.76546">
        <ele>186</ele>
        <time>2017-08-01T13:54:29Z</time>
      </trkpt>
      <trkpt lat="45.90341" lon="4.76537">
        <ele>186</ele>
        <time>2017-08-01T13:54:31Z</time>
      </trkpt>
      <trkpt lat="45.90341" lon="4.76532">
        <ele>186</ele>
        <time>2017-08-01T13:54:32Z</time>
      </trkpt>
      <trkpt lat="45.90343" lon="4.76523">
        <ele>186</ele>
        <time>2017-08-01T13:54:34Z</time>
      </trkpt>
      <trkpt lat="45.90345" lon="4.76519">
        <ele>186</ele>
        <time>2017-08-01T13:54:35Z</time>
      </trkpt>
      <trkpt lat="45.90349" lon="4.76511">
        <ele>187</ele>
        <time>2017-08-01T13:54:37Z</time>
      </trkpt>
      <trkpt lat="45.90351" lon="4.76508">
        <ele>187</ele>
        <time>2017-08-01T13:54:38Z</time>
      </trkpt>
      <trkpt lat="45.90356" lon="4.76501">
        <ele>186</ele>
        <time>2017-08-01T13:54:40Z</time>
      </trkpt>
      <trkpt lat="45.90358" lon="4.76498">
        <ele>188</ele>
        <time>2017-08-01T13:54:41Z</time>
      </trkpt>
      <trkpt lat="45.90363" lon="4.7649">
        <ele>188</ele>
        <time>2017-08-01T13:54:43Z</time>
      </trkpt>
      <trkpt lat="45.90366" lon="4.76488">
        <ele>188</ele>
        <time>2017-08-01T13:54:44Z</time>
      </trkpt>
      <trkpt lat="45.90372" lon="4.76481">
        <ele>188</ele>
        <time>2017-08-01T13:54:47Z</time>
      </trkpt>
      <trkpt lat="45.90375" lon="4.7648">
        <ele>188</ele>
        <time>2017-08-01T13:54:48Z</time>
      </trkpt>
      <trkpt lat="45.90382" lon="4.76475">
        <ele>188</ele>
        <time>2017-08-01T13:54:51Z</time>
      </trkpt>
      <trkpt lat="45.90385" lon="4.76475">
        <ele>188</ele>
        <time>2017-08-01T13:54:52Z</time>
      </trkpt>
      <trkpt lat="45.90392" lon="4.76475">
        <ele>188</ele>
        <time>2017-08-01T13:54:55Z</time>
      </trkpt>
      <trkpt lat="45.90395" lon="4.76475">
        <ele>188</ele>
        <time>2017-08-01T13:54:56Z</time>
      </trkpt>
      <trkpt lat="45.90403" lon="4.76475">
        <ele>188</ele>
        <time>2017-08-01T13:54:59Z</time>
      </trkpt>
      <trkpt lat="45.90406" lon="4.76474">
        <ele>188</ele>
        <time>2017-08-01T13:55:00Z</time>
      </trkpt>
      <trkpt lat="45.90412" lon="4.76471">
        <ele>188</ele>
        <time>2017-08-01T13:55:02Z</time>
      </trkpt>
      <trkpt lat="45.90415" lon="4.76469">
        <ele>188</ele>
        <time>2017-08-01T13:55:03Z</time>
      </trkpt>
      <trkpt lat="45.9042" lon="4.76461">
        <ele>186</ele>
        <time>2017-08-01T13:55:06Z</time>
      </trkpt>
      <trkpt lat="45.90421" lon="4.76459">
        <ele>186</ele>
        <time>2017-08-01T13:55:07Z</time>
      </trkpt>
      <trkpt lat="45.90425" lon="4.76448">
        <ele>186</ele>
        <time>2017-08-01T13:55:10Z</time>
      </trkpt>
      <trkpt lat="45.90427" lon="4.76444">
        <ele>186</ele>
        <time>2017-08-01T13:55:11Z</time>
      </trkpt>
      <trkpt lat="45.9043" lon="4.76437">
        <ele>187</ele>
        <time>2017-08-01T13:55:13Z</time>
      </trkpt>
      <trkpt lat="45.90431" lon="4.76433">
        <ele>187</ele>
        <time>2017-08-01T13:55:14Z</time>
      </trkpt>
      <trkpt lat="45.90435" lon="4.76425">
        <ele>187</ele>
        <time>2017-08-01T13:55:16Z</time>
      </trkpt>
      <trkpt lat="45.90436" lon="4.76421">
        <ele>187</ele>
        <time>2017-08-01T13:55:17Z</time>
      </trkpt>
      <trkpt lat="45.9044" lon="4.76413">
        <ele>187</ele>
        <time>2017-08-01T13:55:19Z</time>
      </trkpt>
      <trkpt lat="45.90442" lon="4.76408">
        <ele>187</ele>
        <time>2017-08-01T13:55:20Z</time>
      </trkpt>
      <trkpt lat="45.90445" lon="4.764">
        <ele>187</ele>
        <time>2017-08-01T13:55:22Z</time>
      </trkpt>
      <trkpt lat="45.90446" lon="4.76397">
        <ele>187</ele>
        <time>2017-08-01T13:55:23Z</time>
      </trkpt>
      <trkpt lat="45.9045" lon="4.76385">
        <ele>186</ele>
        <time>2017-08-01T13:55:26Z</time>
      </trkpt>
      <trkpt lat="45.90452" lon="4.76381">
        <ele>186</ele>
        <time>2017-08-01T13:55:27Z</time>
      </trkpt>
      <trkpt lat="45.90455" lon="4.76371">
        <ele>186</ele>
        <time>2017-08-01T13:55:29Z</time>
      </trkpt>
      <trkpt lat="45.90456" lon="4.76366">
        <ele>186</ele>
        <time>2017-08-01T13:55:30Z</time>
      </trkpt>
      <trkpt lat="45.90459" lon="4.76357">
        <ele>186</ele>
        <time>2017-08-01T13:55:32Z</time>
      </trkpt>
      <trkpt lat="45.90461" lon="4.76353">
        <ele>186</ele>
        <time>2017-08-01T13:55:33Z</time>
      </trkpt>
      <trkpt lat="45.90464" lon="4.76343">
        <ele>186</ele>
        <time>2017-08-01T13:55:35Z</time>
      </trkpt>
      <trkpt lat="45.90465" lon="4.76338">
        <ele>186</ele>
        <time>2017-08-01T13:55:36Z</time>
      </trkpt>
      <trkpt lat="45.90468" lon="4.76329">
        <ele>186</ele>
        <time>2017-08-01T13:55:38Z</time>
      </trkpt>
      <trkpt lat="45.90469" lon="4.76324">
        <ele>186</ele>
        <time>2017-08-01T13:55:39Z</time>
      </trkpt>
      <trkpt lat="45.90472" lon="4.76316">
        <ele>186</ele>
        <time>2017-08-01T13:55:41Z</time>
      </trkpt>
      <trkpt lat="45.90473" lon="4.76312">
        <ele>186</ele>
        <time>2017-08-01T13:55:42Z</time>
      </trkpt>
      <trkpt lat="45.90476" lon="4.76303">
        <ele>186</ele>
        <time>2017-08-01T13:55:44Z</time>
      </trkpt>
      <trkpt lat="45.90478" lon="4.76298">
        <ele>186</ele>
        <time>2017-08-01T13:55:45Z</time>
      </trkpt>
      <trkpt lat="45.90481" lon="4.76288">
        <ele>186</ele>
        <time>2017-08-01T13:55:47Z</time>
      </trkpt>
      <trkpt lat="45.90483" lon="4.76283">
        <ele>186</ele>
        <time>2017-08-01T13:55:48Z</time>
      </trkpt>
      <trkpt lat="45.90487" lon="4.76273">
        <ele>186</ele>
        <time>2017-08-01T13:55:50Z</time>
      </trkpt>
      <trkpt lat="45.90488" lon="4.76269">
        <ele>186</ele>
        <time>2017-08-01T13:55:51Z</time>
      </trkpt>
      <trkpt lat="45.9049" lon="4.76259">
        <ele>185</ele>
        <time>2017-08-01T13:55:53Z</time>
      </trkpt>
      <trkpt lat="45.90491" lon="4.76254">
        <ele>185</ele>
        <time>2017-08-01T13:55:54Z</time>
      </trkpt>
      <trkpt lat="45.9049" lon="4.76245">
        <ele>185</ele>
        <time>2017-08-01T13:55:56Z</time>
      </trkpt>
      <trkpt lat="45.90489" lon="4.76241">
        <ele>185</ele>
        <time>2017-08-01T13:55:57Z</time>
      </trkpt>
      <trkpt lat="45.90483" lon="4.76235">
        <ele>185</ele>
        <time>2017-08-01T13:55:59Z</time>
      </trkpt>
      <trkpt lat="45.90479" lon="4.76232">
        <ele>185</ele>
        <time>2017-08-01T13:56:00Z</time>
      </trkpt>
      <trkpt lat="45.90472" lon="4.76228">
        <ele>185</ele>
        <time>2017-08-01T13:56:02Z</time>
      </trkpt>
      <trkpt lat="45.90469" lon="4.76226">
        <ele>185</ele>
        <time>2017-08-01T13:56:03Z</time>
      </trkpt>
      <trkpt lat="45.90462" lon="4.76222">
        <ele>185</ele>
        <time>2017-08-01T13:56:05Z</time>
      </trkpt>
      <trkpt lat="45.90459" lon="4.7622">
        <ele>185</ele>
        <time>2017-08-01T13:56:06Z</time>
      </trkpt>
      <trkpt lat="45.90453" lon="4.76216">
        <ele>186</ele>
        <time>2017-08-01T13:56:08Z</time>
      </trkpt>
      <trkpt lat="45.9045" lon="4.76214">
        <ele>186</ele>
        <time>2017-08-01T13:56:09Z</time>
      </trkpt>
      <trkpt lat="45.90444" lon="4.7621">
        <ele>186</ele>
        <time>2017-08-01T13:56:11Z</time>
      </trkpt>
      <trkpt lat="45.90441" lon="4.76209">
        <ele>186</ele>
        <time>2017-08-01T13:56:12Z</time>
      </trkpt>
      <trkpt lat="45.90433" lon="4.76204">
        <ele>186</ele>
        <time>2017-08-01T13:56:15Z</time>
      </trkpt>
      <trkpt lat="45.90431" lon="4.76203">
        <ele>186</ele>
        <time>2017-08-01T13:56:16Z</time>
      </trkpt>
      <trkpt lat="45.90422" lon="4.76201">
        <ele>186</ele>
        <time>2017-08-01T13:56:22Z</time>
      </trkpt>
      <trkpt lat="45.90421" lon="4.76199">
        <ele>186</ele>
        <time>2017-08-01T13:56:23Z</time>
      </trkpt>
      <trkpt lat="45.90418" lon="4.76188">
        <ele>186</ele>
        <time>2017-08-01T13:56:26Z</time>
      </trkpt>
      <trkpt lat="45.90419" lon="4.76184">
        <ele>186</ele>
        <time>2017-08-01T13:56:27Z</time>
      </trkpt>
      <trkpt lat="45.90425" lon="4.76177">
        <ele>186</ele>
        <time>2017-08-01T13:56:29Z</time>
      </trkpt>
      <trkpt lat="45.90429" lon="4.76174">
        <ele>186</ele>
        <time>2017-08-01T13:56:30Z</time>
      </trkpt>
      <trkpt lat="45.90433" lon="4.7617">
        <ele>186</ele>
        <time>2017-08-01T13:56:31Z</time>
      </trkpt>
      <trkpt lat="45.90437" lon="4.76166">
        <ele>186</ele>
        <time>2017-08-01T13:56:32Z</time>
      </trkpt>
      <trkpt lat="45.90441" lon="4.76162">
        <ele>186</ele>
        <time>2017-08-01T13:56:33Z</time>
      </trkpt>
      <trkpt lat="45.90445" lon="4.76159">
        <ele>186</ele>
        <time>2017-08-01T13:56:34Z</time>
      </trkpt>
      <trkpt lat="45.90452" lon="4.76152">
        <ele>186</ele>
        <time>2017-08-01T13:56:36Z</time>
      </trkpt>
      <trkpt lat="45.90455" lon="4.76149">
        <ele>186</ele>
        <time>2017-08-01T13:56:37Z</time>
      </trkpt>
      <trkpt lat="45.90461" lon="4.76141">
        <ele>185</ele>
        <time>2017-08-01T13:56:39Z</time>
      </trkpt>
      <trkpt lat="45.90464" lon="4.76136">
        <ele>185</ele>
        <time>2017-08-01T13:56:40Z</time>
      </trkpt>
      <trkpt lat="45.90468" lon="4.7613">
        <ele>185</ele>
        <time>2017-08-01T13:56:41Z</time>
      </trkpt>
      <trkpt lat="45.90472" lon="4.76124">
        <ele>185</ele>
        <time>2017-08-01T13:56:42Z</time>
      </trkpt>
      <trkpt lat="45.90475" lon="4.76119">
        <ele>185</ele>
        <time>2017-08-01T13:56:43Z</time>
      </trkpt>
      <trkpt lat="45.90478" lon="4.76113">
        <ele>185</ele>
        <time>2017-08-01T13:56:44Z</time>
      </trkpt>
      <trkpt lat="45.90481" lon="4.76107">
        <ele>185</ele>
        <time>2017-08-01T13:56:45Z</time>
      </trkpt>
      <trkpt lat="45.90484" lon="4.76102">
        <ele>185</ele>
        <time>2017-08-01T13:56:46Z</time>
      </trkpt>
      <trkpt lat="45.90486" lon="4.76097">
        <ele>185</ele>
        <time>2017-08-01T13:56:47Z</time>
      </trkpt>
      <trkpt lat="45.90489" lon="4.76091">
        <ele>185</ele>
        <time>2017-08-01T13:56:48Z</time>
      </trkpt>
      <trkpt lat="45.90494" lon="4.76081">
        <ele>185</ele>
        <time>2017-08-01T13:56:50Z</time>
      </trkpt>
      <trkpt lat="45.90497" lon="4.76075">
        <ele>185</ele>
        <time>2017-08-01T13:56:51Z</time>
      </trkpt>
      <trkpt lat="45.905" lon="4.76068">
        <ele>185</ele>
        <time>2017-08-01T13:56:52Z</time>
      </trkpt>
      <trkpt lat="45.90502" lon="4.76061">
        <ele>185</ele>
        <time>2017-08-01T13:56:53Z</time>
      </trkpt>
      <trkpt lat="45.90505" lon="4.76054">
        <ele>185</ele>
        <time>2017-08-01T13:56:54Z</time>
      </trkpt>
      <trkpt lat="45.90506" lon="4.76046">
        <ele>185</ele>
        <time>2017-08-01T13:56:55Z</time>
      </trkpt>
      <trkpt lat="45.90508" lon="4.76039">
        <ele>185</ele>
        <time>2017-08-01T13:56:56Z</time>
      </trkpt>
      <trkpt lat="45.90509" lon="4.76032">
        <ele>185</ele>
        <time>2017-08-01T13:56:57Z</time>
      </trkpt>
      <trkpt lat="45.9051" lon="4.76024">
        <ele>186</ele>
        <time>2017-08-01T13:56:58Z</time>
      </trkpt>
      <trkpt lat="45.90511" lon="4.76017">
        <ele>186</ele>
        <time>2017-08-01T13:56:59Z</time>
      </trkpt>
      <trkpt lat="45.90512" lon="4.7601">
        <ele>186</ele>
        <time>2017-08-01T13:57:00Z</time>
      </trkpt>
      <trkpt lat="45.90513" lon="4.76003">
        <ele>186</ele>
        <time>2017-08-01T13:57:01Z</time>
      </trkpt>
      <trkpt lat="45.90515" lon="4.75992">
        <ele>186</ele>
        <time>2017-08-01T13:57:03Z</time>
      </trkpt>
      <trkpt lat="45.90516" lon="4.75986">
        <ele>186</ele>
        <time>2017-08-01T13:57:04Z</time>
      </trkpt>
      <trkpt lat="45.90518" lon="4.7598">
        <ele>186</ele>
        <time>2017-08-01T13:57:05Z</time>
      </trkpt>
      <trkpt lat="45.9052" lon="4.75974">
        <ele>186</ele>
        <time>2017-08-01T13:57:06Z</time>
      </trkpt>
      <trkpt lat="45.90526" lon="4.75964">
        <ele>186</ele>
        <time>2017-08-01T13:57:08Z</time>
      </trkpt>
      <trkpt lat="45.90529" lon="4.7596">
        <ele>186</ele>
        <time>2017-08-01T13:57:09Z</time>
      </trkpt>
      <trkpt lat="45.90533" lon="4.75957">
        <ele>186</ele>
        <time>2017-08-01T13:57:10Z</time>
      </trkpt>
      <trkpt lat="45.90538" lon="4.75954">
        <ele>186</ele>
        <time>2017-08-01T13:57:11Z</time>
      </trkpt>
      <trkpt lat="45.90542" lon="4.75952">
        <ele>186</ele>
        <time>2017-08-01T13:57:12Z</time>
      </trkpt>
      <trkpt lat="45.90547" lon="4.75952">
        <ele>186</ele>
        <time>2017-08-01T13:57:13Z</time>
      </trkpt>
      <trkpt lat="45.90555" lon="4.75953">
        <ele>186</ele>
        <time>2017-08-01T13:57:15Z</time>
      </trkpt>
      <trkpt lat="45.90559" lon="4.75955">
        <ele>186</ele>
        <time>2017-08-01T13:57:16Z</time>
      </trkpt>
      <trkpt lat="45.90566" lon="4.75961">
        <ele>186</ele>
        <time>2017-08-01T13:57:18Z</time>
      </trkpt>
      <trkpt lat="45.9057" lon="4.75965">
        <ele>186</ele>
        <time>2017-08-01T13:57:19Z</time>
      </trkpt>
      <trkpt lat="45.90576" lon="4.75973">
        <ele>186</ele>
        <time>2017-08-01T13:57:21Z</time>
      </trkpt>
      <trkpt lat="45.90579" lon="4.75976">
        <ele>186</ele>
        <time>2017-08-01T13:57:22Z</time>
      </trkpt>
      <trkpt lat="45.90586" lon="4.75983">
        <ele>186</ele>
        <time>2017-08-01T13:57:24Z</time>
      </trkpt>
      <trkpt lat="45.90589" lon="4.75985">
        <ele>186</ele>
        <time>2017-08-01T13:57:25Z</time>
      </trkpt>
      <trkpt lat="45.90597" lon="4.75983">
        <ele>186</ele>
        <time>2017-08-01T13:57:27Z</time>
      </trkpt>
      <trkpt lat="45.90601" lon="4.75977">
        <ele>186</ele>
        <time>2017-08-01T13:57:28Z</time>
      </trkpt>
      <trkpt lat="45.90604" lon="4.75971">
        <ele>186</ele>
        <time>2017-08-01T13:57:29Z</time>
      </trkpt>
      <trkpt lat="45.90608" lon="4.75966">
        <ele>186</ele>
        <time>2017-08-01T13:57:30Z</time>
      </trkpt>
      <trkpt lat="45.90613" lon="4.7596">
        <ele>186</ele>
        <time>2017-08-01T13:57:31Z</time>
      </trkpt>
      <trkpt lat="45.90616" lon="4.75955">
        <ele>186</ele>
        <time>2017-08-01T13:57:32Z</time>
      </trkpt>
      <trkpt lat="45.9062" lon="4.7595">
        <ele>186</ele>
        <time>2017-08-01T13:57:33Z</time>
      </trkpt>
      <trkpt lat="45.90623" lon="4.75945">
        <ele>186</ele>
        <time>2017-08-01T13:57:34Z</time>
      </trkpt>
      <trkpt lat="45.90627" lon="4.7594">
        <ele>186</ele>
        <time>2017-08-01T13:57:35Z</time>
      </trkpt>
      <trkpt lat="45.9063" lon="4.75934">
        <ele>186</ele>
        <time>2017-08-01T13:57:36Z</time>
      </trkpt>
      <trkpt lat="45.90634" lon="4.75929">
        <ele>186</ele>
        <time>2017-08-01T13:57:37Z</time>
      </trkpt>
      <trkpt lat="45.90637" lon="4.75924">
        <ele>186</ele>
        <time>2017-08-01T13:57:38Z</time>
      </trkpt>
      <trkpt lat="45.90641" lon="4.75919">
        <ele>186</ele>
        <time>2017-08-01T13:57:39Z</time>
      </trkpt>
      <trkpt lat="45.90644" lon="4.75915">
        <ele>187</ele>
        <time>2017-08-01T13:57:40Z</time>
      </trkpt>
      <trkpt lat="45.9065" lon="4.75906">
        <ele>187</ele>
        <time>2017-08-01T13:57:42Z</time>
      </trkpt>
      <trkpt lat="45.90653" lon="4.75901">
        <ele>187</ele>
        <time>2017-08-01T13:57:43Z</time>
      </trkpt>
      <trkpt lat="45.90656" lon="4.75896">
        <ele>187</ele>
        <time>2017-08-01T13:57:44Z</time>
      </trkpt>
      <trkpt lat="45.90659" lon="4.75891">
        <ele>187</ele>
        <time>2017-08-01T13:57:45Z</time>
      </trkpt>
      <trkpt lat="45.90662" lon="4.75886">
        <ele>187</ele>
        <time>2017-08-01T13:57:46Z</time>
      </trkpt>
      <trkpt lat="45.90666" lon="4.7588">
        <ele>187</ele>
        <time>2017-08-01T13:57:47Z</time>
      </trkpt>
      <trkpt lat="45.90671" lon="4.75871">
        <ele>187</ele>
        <time>2017-08-01T13:57:48Z</time>
      </trkpt>
      <trkpt lat="45.90676" lon="4.75867">
        <ele>187</ele>
        <time>2017-08-01T13:57:49Z</time>
      </trkpt>
      <trkpt lat="45.90681" lon="4.75863">
        <ele>187</ele>
        <time>2017-08-01T13:57:50Z</time>
      </trkpt>
      <trkpt lat="45.90686" lon="4.7586">
        <ele>187</ele>
        <time>2017-08-01T13:57:51Z</time>
      </trkpt>
      <trkpt lat="45.9069" lon="4.75858">
        <ele>187</ele>
        <time>2017-08-01T13:57:52Z</time>
      </trkpt>
      <trkpt lat="45.90695" lon="4.75856">
        <ele>187</ele>
        <time>2017-08-01T13:57:53Z</time>
      </trkpt>
      <trkpt lat="45.90699" lon="4.75855">
        <ele>187</ele>
        <time>2017-08-01T13:57:54Z</time>
      </trkpt>
      <trkpt lat="45.90704" lon="4.75854">
        <ele>187</ele>
        <time>2017-08-01T13:57:55Z</time>
      </trkpt>
      <trkpt lat="45.90712" lon="4.75852">
        <ele>187</ele>
        <time>2017-08-01T13:57:57Z</time>
      </trkpt>
      <trkpt lat="45.90716" lon="4.75851">
        <ele>187</ele>
        <time>2017-08-01T13:57:58Z</time>
      </trkpt>
      <trkpt lat="45.90724" lon="4.7585">
        <ele>186</ele>
        <time>2017-08-01T13:58:00Z</time>
      </trkpt>
      <trkpt lat="45.90728" lon="4.75851">
        <ele>186</ele>
        <time>2017-08-01T13:58:01Z</time>
      </trkpt>
      <trkpt lat="45.90734" lon="4.75853">
        <ele>186</ele>
        <time>2017-08-01T13:58:02Z</time>
      </trkpt>
      <trkpt lat="45.9074" lon="4.75855">
        <ele>186</ele>
        <time>2017-08-01T13:58:03Z</time>
      </trkpt>
      <trkpt lat="45.90746" lon="4.75858">
        <ele>186</ele>
        <time>2017-08-01T13:58:04Z</time>
      </trkpt>
      <trkpt lat="45.90751" lon="4.75859">
        <ele>186</ele>
        <time>2017-08-01T13:58:05Z</time>
      </trkpt>
      <trkpt lat="45.90757" lon="4.7586">
        <ele>186</ele>
        <time>2017-08-01T13:58:06Z</time>
      </trkpt>
      <trkpt lat="45.90763" lon="4.75859">
        <ele>185</ele>
        <time>2017-08-01T13:58:07Z</time>
      </trkpt>
      <trkpt lat="45.90769" lon="4.7586">
        <ele>185</ele>
        <time>2017-08-01T13:58:08Z</time>
      </trkpt>
      <trkpt lat="45.90774" lon="4.75861">
        <ele>185</ele>
        <time>2017-08-01T13:58:09Z</time>
      </trkpt>
      <trkpt lat="45.90779" lon="4.75861">
        <ele>185</ele>
        <time>2017-08-01T13:58:10Z</time>
      </trkpt>
      <trkpt lat="45.90784" lon="4.75861">
        <ele>185</ele>
        <time>2017-08-01T13:58:11Z</time>
      </trkpt>
      <trkpt lat="45.90793" lon="4.75863">
        <ele>185</ele>
        <time>2017-08-01T13:58:13Z</time>
      </trkpt>
      <trkpt lat="45.90797" lon="4.75864">
        <ele>185</ele>
        <time>2017-08-01T13:58:14Z</time>
      </trkpt>
      <trkpt lat="45.90801" lon="4.75865">
        <ele>185</ele>
        <time>2017-08-01T13:58:15Z</time>
      </trkpt>
      <trkpt lat="45.90806" lon="4.75866">
        <ele>185</ele>
        <time>2017-08-01T13:58:16Z</time>
      </trkpt>
      <trkpt lat="45.90812" lon="4.75866">
        <ele>185</ele>
        <time>2017-08-01T13:58:17Z</time>
      </trkpt>
      <trkpt lat="45.90817" lon="4.75866">
        <ele>185</ele>
        <time>2017-08-01T13:58:18Z</time>
      </trkpt>
      <trkpt lat="45.90822" lon="4.75866">
        <ele>185</ele>
        <time>2017-08-01T13:58:19Z</time>
      </trkpt>
      <trkpt lat="45.90827" lon="4.75865">
        <ele>185</ele>
        <time>2017-08-01T13:58:20Z</time>
      </trkpt>
      <trkpt lat="45.90832" lon="4.75865">
        <ele>185</ele>
        <time>2017-08-01T13:58:21Z</time>
      </trkpt>
      <trkpt lat="45.90838" lon="4.75867">
        <ele>184</ele>
        <time>2017-08-01T13:58:22Z</time>
      </trkpt>
      <trkpt lat="45.90844" lon="4.75871">
        <ele>184</ele>
        <time>2017-08-01T13:58:23Z</time>
      </trkpt>
      <trkpt lat="45.90849" lon="4.75872">
        <ele>184</ele>
        <time>2017-08-01T13:58:24Z</time>
      </trkpt>
      <trkpt lat="45.90853" lon="4.75873">
        <ele>184</ele>
        <time>2017-08-01T13:58:25Z</time>
      </trkpt>
      <trkpt lat="45.90858" lon="4.75873">
        <ele>184</ele>
        <time>2017-08-01T13:58:26Z</time>
      </trkpt>
      <trkpt lat="45.90863" lon="4.75873">
        <ele>184</ele>
        <time>2017-08-01T13:58:27Z</time>
      </trkpt>
      <trkpt lat="45.90867" lon="4.75873">
        <ele>184</ele>
        <time>2017-08-01T13:58:28Z</time>
      </trkpt>
      <trkpt lat="45.90876" lon="4.75872">
        <ele>184</ele>
        <time>2017-08-01T13:58:30Z</time>
      </trkpt>
      <trkpt lat="45.9088" lon="4.75872">
        <ele>184</ele>
        <time>2017-08-01T13:58:31Z</time>
      </trkpt>
      <trkpt lat="45.90885" lon="4.75867">
        <ele>184</ele>
        <time>2017-08-01T13:58:33Z</time>
      </trkpt>
      <trkpt lat="45.90887" lon="4.75863">
        <ele>184</ele>
        <time>2017-08-01T13:58:34Z</time>
      </trkpt>
      <trkpt lat="45.90888" lon="4.75852">
        <ele>184</ele>
        <time>2017-08-01T13:58:36Z</time>
      </trkpt>
      <trkpt lat="45.90888" lon="4.75846">
        <ele>184</ele>
        <time>2017-08-01T13:58:37Z</time>
      </trkpt>
      <trkpt lat="45.90889" lon="4.75834">
        <ele>184</ele>
        <time>2017-08-01T13:58:39Z</time>
      </trkpt>
      <trkpt lat="45.90889" lon="4.75829">
        <ele>184</ele>
        <time>2017-08-01T13:58:40Z</time>
      </trkpt>
      <trkpt lat="45.9089" lon="4.75817">
        <ele>184</ele>
        <time>2017-08-01T13:58:42Z</time>
      </trkpt>
      <trkpt lat="45.9089" lon="4.75811">
        <ele>184</ele>
        <time>2017-08-01T13:58:43Z</time>
      </trkpt>
      <trkpt lat="45.90891" lon="4.75798">
        <ele>184</ele>
        <time>2017-08-01T13:58:45Z</time>
      </trkpt>
      <trkpt lat="45.9089" lon="4.75792">
        <ele>185</ele>
        <time>2017-08-01T13:58:46Z</time>
      </trkpt>
      <trkpt lat="45.90891" lon="4.75781">
        <ele>185</ele>
        <time>2017-08-01T13:58:48Z</time>
      </trkpt>
      <trkpt lat="45.90891" lon="4.75776">
        <ele>185</ele>
        <time>2017-08-01T13:58:49Z</time>
      </trkpt>
      <trkpt lat="45.90893" lon="4.75764">
        <ele>185</ele>
        <time>2017-08-01T13:58:51Z</time>
      </trkpt>
      <trkpt lat="45.90894" lon="4.75758">
        <ele>185</ele>
        <time>2017-08-01T13:58:52Z</time>
      </trkpt>
      <trkpt lat="45.90895" lon="4.75746">
        <ele>184</ele>
        <time>2017-08-01T13:58:54Z</time>
      </trkpt>
      <trkpt lat="45.90896" lon="4.7574">
        <ele>184</ele>
        <time>2017-08-01T13:58:55Z</time>
      </trkpt>
      <trkpt lat="45.90895" lon="4.7573">
        <ele>185</ele>
        <time>2017-08-01T13:58:57Z</time>
      </trkpt>
      <trkpt lat="45.90895" lon="4.75725">
        <ele>185</ele>
        <time>2017-08-01T13:58:58Z</time>
      </trkpt>
      <trkpt lat="45.90895" lon="4.75713">
        <ele>184</ele>
        <time>2017-08-01T13:59:00Z</time>
      </trkpt>
      <trkpt lat="45.90896" lon="4.75709">
        <ele>184</ele>
        <time>2017-08-01T13:59:01Z</time>
      </trkpt>
      <trkpt lat="45.90897" lon="4.75696">
        <ele>184</ele>
        <time>2017-08-01T13:59:04Z</time>
      </trkpt>
      <trkpt lat="45.90897" lon="4.75692">
        <ele>184</ele>
        <time>2017-08-01T13:59:05Z</time>
      </trkpt>
      <trkpt lat="45.90898" lon="4.7568">
        <ele>184</ele>
        <time>2017-08-01T13:59:07Z</time>
      </trkpt>
      <trkpt lat="45.90899" lon="4.75674">
        <ele>184</ele>
        <time>2017-08-01T13:59:08Z</time>
      </trkpt>
      <trkpt lat="45.90899" lon="4.75664">
        <ele>184</ele>
        <time>2017-08-01T13:59:10Z</time>
      </trkpt>
      <trkpt lat="45.90899" lon="4.7566">
        <ele>184</ele>
        <time>2017-08-01T13:59:11Z</time>
      </trkpt>
      <trkpt lat="45.90898" lon="4.75652">
        <ele>184</ele>
        <time>2017-08-01T13:59:13Z</time>
      </trkpt>
      <trkpt lat="45.90897" lon="4.75647">
        <ele>185</ele>
        <time>2017-08-01T13:59:14Z</time>
      </trkpt>
      <trkpt lat="45.90896" lon="4.75636">
        <ele>185</ele>
        <time>2017-08-01T13:59:16Z</time>
      </trkpt>
      <trkpt lat="45.90896" lon="4.7563">
        <ele>185</ele>
        <time>2017-08-01T13:59:17Z</time>
      </trkpt>
      <trkpt lat="45.90896" lon="4.75623">
        <ele>185</ele>
        <time>2017-08-01T13:59:18Z</time>
      </trkpt>
      <trkpt lat="45.90897" lon="4.75617">
        <ele>185</ele>
        <time>2017-08-01T13:59:19Z</time>
      </trkpt>
      <trkpt lat="45.90897" lon="4.7561">
        <ele>185</ele>
        <time>2017-08-01T13:59:20Z</time>
      </trkpt>
      <trkpt lat="45.90898" lon="4.75604">
        <ele>185</ele>
        <time>2017-08-01T13:59:21Z</time>
      </trkpt>
      <trkpt lat="45.90898" lon="4.75593">
        <ele>185</ele>
        <time>2017-08-01T13:59:23Z</time>
      </trkpt>
      <trkpt lat="45.90898" lon="4.75589">
        <ele>185</ele>
        <time>2017-08-01T13:59:24Z</time>
      </trkpt>
      <trkpt lat="45.909" lon="4.75578">
        <ele>186</ele>
        <time>2017-08-01T13:59:26Z</time>
      </trkpt>
      <trkpt lat="45.909" lon="4.75572">
        <ele>186</ele>
        <time>2017-08-01T13:59:27Z</time>
      </trkpt>
      <trkpt lat="45.90902" lon="4.75559">
        <ele>186</ele>
        <time>2017-08-01T13:59:29Z</time>
      </trkpt>
      <trkpt lat="45.90902" lon="4.75553">
        <ele>186</ele>
        <time>2017-08-01T13:59:30Z</time>
      </trkpt>
      <trkpt lat="45.90904" lon="4.75542">
        <ele>186</ele>
        <time>2017-08-01T13:59:32Z</time>
      </trkpt>
      <trkpt lat="45.90905" lon="4.75537">
        <ele>186</ele>
        <time>2017-08-01T13:59:33Z</time>
      </trkpt>
      <trkpt lat="45.90906" lon="4.75526">
        <ele>186</ele>
        <time>2017-08-01T13:59:35Z</time>
      </trkpt>
      <trkpt lat="45.90906" lon="4.7552">
        <ele>186</ele>
        <time>2017-08-01T13:59:36Z</time>
      </trkpt>
      <trkpt lat="45.90907" lon="4.75509">
        <ele>186</ele>
        <time>2017-08-01T13:59:38Z</time>
      </trkpt>
      <trkpt lat="45.90908" lon="4.75503">
        <ele>186</ele>
        <time>2017-08-01T13:59:39Z</time>
      </trkpt>
      <trkpt lat="45.90909" lon="4.75493">
        <ele>186</ele>
        <time>2017-08-01T13:59:41Z</time>
      </trkpt>
      <trkpt lat="45.9091" lon="4.75489">
        <ele>186</ele>
        <time>2017-08-01T13:59:42Z</time>
      </trkpt>
      <trkpt lat="45.90911" lon="4.75479">
        <ele>186</ele>
        <time>2017-08-01T13:59:44Z</time>
      </trkpt>
      <trkpt lat="45.90912" lon="4.75473">
        <ele>186</ele>
        <time>2017-08-01T13:59:45Z</time>
      </trkpt>
      <trkpt lat="45.90914" lon="4.75463">
        <ele>186</ele>
        <time>2017-08-01T13:59:47Z</time>
      </trkpt>
      <trkpt lat="45.90915" lon="4.75458">
        <ele>186</ele>
        <time>2017-08-01T13:59:48Z</time>
      </trkpt>
      <trkpt lat="45.90915" lon="4.7545">
        <ele>186</ele>
        <time>2017-08-01T13:59:50Z</time>
      </trkpt>
      <trkpt lat="45.90916" lon="4.75445">
        <ele>186</ele>
        <time>2017-08-01T13:59:51Z</time>
      </trkpt>
      <trkpt lat="45.90917" lon="4.75434">
        <ele>185</ele>
        <time>2017-08-01T13:59:53Z</time>
      </trkpt>
      <trkpt lat="45.90917" lon="4.75429">
        <ele>185</ele>
        <time>2017-08-01T13:59:54Z</time>
      </trkpt>
      <trkpt lat="45.90918" lon="4.75419">
        <ele>185</ele>
        <time>2017-08-01T13:59:56Z</time>
      </trkpt>
      <trkpt lat="45.90918" lon="4.75414">
        <ele>185</ele>
        <time>2017-08-01T13:59:57Z</time>
      </trkpt>
      <trkpt lat="45.90919" lon="4.75404">
        <ele>185</ele>
        <time>2017-08-01T13:59:59Z</time>
      </trkpt>
      <trkpt lat="45.9092" lon="4.754">
        <ele>185</ele>
        <time>2017-08-01T14:00:00Z</time>
      </trkpt>
      <trkpt lat="45.90921" lon="4.7539">
        <ele>185</ele>
        <time>2017-08-01T14:00:02Z</time>
      </trkpt>
      <trkpt lat="45.90922" lon="4.75385">
        <ele>185</ele>
        <time>2017-08-01T14:00:03Z</time>
      </trkpt>
      <trkpt lat="45.90923" lon="4.75373">
        <ele>185</ele>
        <time>2017-08-01T14:00:05Z</time>
      </trkpt>
      <trkpt lat="45.90924" lon="4.75368">
        <ele>185</ele>
        <time>2017-08-01T14:00:06Z</time>
      </trkpt>
      <trkpt lat="45.90925" lon="4.75357">
        <ele>185</ele>
        <time>2017-08-01T14:00:08Z</time>
      </trkpt>
      <trkpt lat="45.90925" lon="4.75352">
        <ele>185</ele>
        <time>2017-08-01T14:00:09Z</time>
      </trkpt>
      <trkpt lat="45.90927" lon="4.75341">
        <ele>186</ele>
        <time>2017-08-01T14:00:11Z</time>
      </trkpt>
      <trkpt lat="45.90927" lon="4.75335">
        <ele>186</ele>
        <time>2017-08-01T14:00:12Z</time>
      </trkpt>
      <trkpt lat="45.90928" lon="4.75324">
        <ele>185</ele>
        <time>2017-08-01T14:00:14Z</time>
      </trkpt>
      <trkpt lat="45.90929" lon="4.75318">
        <ele>185</ele>
        <time>2017-08-01T14:00:15Z</time>
      </trkpt>
      <trkpt lat="45.9093" lon="4.75308">
        <ele>185</ele>
        <time>2017-08-01T14:00:17Z</time>
      </trkpt>
      <trkpt lat="45.9093" lon="4.75303">
        <ele>185</ele>
        <time>2017-08-01T14:00:18Z</time>
      </trkpt>
      <trkpt lat="45.90931" lon="4.75293">
        <ele>185</ele>
        <time>2017-08-01T14:00:20Z</time>
      </trkpt>
      <trkpt lat="45.90931" lon="4.75288">
        <ele>185</ele>
        <time>2017-08-01T14:00:21Z</time>
      </trkpt>
      <trkpt lat="45.90932" lon="4.75279">
        <ele>185</ele>
        <time>2017-08-01T14:00:23Z</time>
      </trkpt>
      <trkpt lat="45.90933" lon="4.75274">
        <ele>185</ele>
        <time>2017-08-01T14:00:24Z</time>
      </trkpt>
      <trkpt lat="45.90933" lon="4.75265">
        <ele>185</ele>
        <time>2017-08-01T14:00:26Z</time>
      </trkpt>
      <trkpt lat="45.90934" lon="4.7526">
        <ele>185</ele>
        <time>2017-08-01T14:00:27Z</time>
      </trkpt>
      <trkpt lat="45.90935" lon="4.7525">
        <ele>185</ele>
        <time>2017-08-01T14:00:29Z</time>
      </trkpt>
      <trkpt lat="45.90936" lon="4.75245">
        <ele>184</ele>
        <time>2017-08-01T14:00:30Z</time>
      </trkpt>
      <trkpt lat="45.90937" lon="4.75235">
        <ele>184</ele>
        <time>2017-08-01T14:00:32Z</time>
      </trkpt>
      <trkpt lat="45.90937" lon="4.75231">
        <ele>184</ele>
        <time>2017-08-01T14:00:33Z</time>
      </trkpt>
      <trkpt lat="45.90938" lon="4.75222">
        <ele>184</ele>
        <time>2017-08-01T14:00:35Z</time>
      </trkpt>
      <trkpt lat="45.90938" lon="4.75218">
        <ele>184</ele>
        <time>2017-08-01T14:00:36Z</time>
      </trkpt>
      <trkpt lat="45.90939" lon="4.75209">
        <ele>184</ele>
        <time>2017-08-01T14:00:38Z</time>
      </trkpt>
      <trkpt lat="45.9094" lon="4.75203">
        <ele>184</ele>
        <time>2017-08-01T14:00:39Z</time>
      </trkpt>
      <trkpt lat="45.90941" lon="4.75192">
        <ele>183</ele>
        <time>2017-08-01T14:00:41Z</time>
      </trkpt>
      <trkpt lat="45.90941" lon="4.75186">
        <ele>183</ele>
        <time>2017-08-01T14:00:42Z</time>
      </trkpt>
      <trkpt lat="45.90942" lon="4.75173">
        <ele>183</ele>
        <time>2017-08-01T14:00:44Z</time>
      </trkpt>
      <trkpt lat="45.90943" lon="4.75167">
        <ele>183</ele>
        <time>2017-08-01T14:00:45Z</time>
      </trkpt>
      <trkpt lat="45.90944" lon="4.75155">
        <ele>182</ele>
        <time>2017-08-01T14:00:47Z</time>
      </trkpt>
      <trkpt lat="45.90945" lon="4.75149">
        <ele>182</ele>
        <time>2017-08-01T14:00:48Z</time>
      </trkpt>
      <trkpt lat="45.90946" lon="4.75136">
        <ele>182</ele>
        <time>2017-08-01T14:00:50Z</time>
      </trkpt>
      <trkpt lat="45.90947" lon="4.75129">
        <ele>181</ele>
        <time>2017-08-01T14:00:51Z</time>
      </trkpt>
      <trkpt lat="45.90948" lon="4.75123">
        <ele>181</ele>
        <time>2017-08-01T14:00:52Z</time>
      </trkpt>
      <trkpt lat="45.90948" lon="4.75116">
        <ele>181</ele>
        <time>2017-08-01T14:00:53Z</time>
      </trkpt>
      <trkpt lat="45.90949" lon="4.75109">
        <ele>181</ele>
        <time>2017-08-01T14:00:54Z</time>
      </trkpt>
      <trkpt lat="45.9095" lon="4.75103">
        <ele>181</ele>
        <time>2017-08-01T14:00:55Z</time>
      </trkpt>
      <trkpt lat="45.90951" lon="4.75096">
        <ele>181</ele>
        <time>2017-08-01T14:00:56Z</time>
      </trkpt>
      <trkpt lat="45.90952" lon="4.75089">
        <ele>181</ele>
        <time>2017-08-01T14:00:57Z</time>
      </trkpt>
      <trkpt lat="45.90953" lon="4.75083">
        <ele>179</ele>
        <time>2017-08-01T14:00:58Z</time>
      </trkpt>
      <trkpt lat="45.90953" lon="4.75076">
        <ele>179</ele>
        <time>2017-08-01T14:00:59Z</time>
      </trkpt>
      <trkpt lat="45.90955" lon="4.75063">
        <ele>179</ele>
        <time>2017-08-01T14:01:01Z</time>
      </trkpt>
      <trkpt lat="45.90955" lon="4.75058">
        <ele>179</ele>
        <time>2017-08-01T14:01:02Z</time>
      </trkpt>
      <trkpt lat="45.90957" lon="4.75045">
        <ele>179</ele>
        <time>2017-08-01T14:01:05Z</time>
      </trkpt>
      <trkpt lat="45.90958" lon="4.75042">
        <ele>179</ele>
        <time>2017-08-01T14:01:06Z</time>
      </trkpt>
      <trkpt lat="45.90963" lon="4.75036">
        <ele>179</ele>
        <time>2017-08-01T14:01:08Z</time>
      </trkpt>
      <trkpt lat="45.90967" lon="4.75035">
        <ele>179</ele>
        <time>2017-08-01T14:01:09Z</time>
      </trkpt>
      <trkpt lat="45.90975" lon="4.75038">
        <ele>179</ele>
        <time>2017-08-01T14:01:11Z</time>
      </trkpt>
      <trkpt lat="45.90979" lon="4.75039">
        <ele>179</ele>
        <time>2017-08-01T14:01:12Z</time>
      </trkpt>
      <trkpt lat="45.90984" lon="4.75041">
        <ele>179</ele>
        <time>2017-08-01T14:01:13Z</time>
      </trkpt>
      <trkpt lat="45.90988" lon="4.75043">
        <ele>179</ele>
        <time>2017-08-01T14:01:14Z</time>
      </trkpt>
      <trkpt lat="45.90993" lon="4.75044">
        <ele>179</ele>
        <time>2017-08-01T14:01:15Z</time>
      </trkpt>
      <trkpt lat="45.90997" lon="4.75046">
        <ele>179</ele>
        <time>2017-08-01T14:01:16Z</time>
      </trkpt>
      <trkpt lat="45.91006" lon="4.75049">
        <ele>178</ele>
        <time>2017-08-01T14:01:18Z</time>
      </trkpt>
      <trkpt lat="45.91009" lon="4.7505">
        <ele>178</ele>
        <time>2017-08-01T14:01:19Z</time>
      </trkpt>
      <trkpt lat="45.91017" lon="4.75052">
        <ele>179</ele>
        <time>2017-08-01T14:01:21Z</time>
      </trkpt>
      <trkpt lat="45.91022" lon="4.75053">
        <ele>179</ele>
        <time>2017-08-01T14:01:22Z</time>
      </trkpt>
      <trkpt lat="45.91026" lon="4.75055">
        <ele>179</ele>
        <time>2017-08-01T14:01:23Z</time>
      </trkpt>
      <trkpt lat="45.91031" lon="4.75057">
        <ele>179</ele>
        <time>2017-08-01T14:01:24Z</time>
      </trkpt>
      <trkpt lat="45.91036" lon="4.75058">
        <ele>179</ele>
        <time>2017-08-01T14:01:25Z</time>
      </trkpt>
      <trkpt lat="45.91041" lon="4.7506">
        <ele>179</ele>
        <time>2017-08-01T14:01:26Z</time>
      </trkpt>
      <trkpt lat="45.91045" lon="4.75062">
        <ele>179</ele>
        <time>2017-08-01T14:01:27Z</time>
      </trkpt>
      <trkpt lat="45.9105" lon="4.75063">
        <ele>179</ele>
        <time>2017-08-01T14:01:28Z</time>
      </trkpt>
      <trkpt lat="45.91055" lon="4.75065">
        <ele>179</ele>
        <time>2017-08-01T14:01:29Z</time>
      </trkpt>
      <trkpt lat="45.9106" lon="4.75067">
        <ele>179</ele>
        <time>2017-08-01T14:01:30Z</time>
      </trkpt>
      <trkpt lat="45.91065" lon="4.75069">
        <ele>179</ele>
        <time>2017-08-01T14:01:31Z</time>
      </trkpt>
      <trkpt lat="45.9107" lon="4.75071">
        <ele>179</ele>
        <time>2017-08-01T14:01:32Z</time>
      </trkpt>
      <trkpt lat="45.91075" lon="4.75074">
        <ele>179</ele>
        <time>2017-08-01T14:01:33Z</time>
      </trkpt>
      <trkpt lat="45.91079" lon="4.75076">
        <ele>180</ele>
        <time>2017-08-01T14:01:34Z</time>
      </trkpt>
      <trkpt lat="45.91084" lon="4.75079">
        <ele>180</ele>
        <time>2017-08-01T14:01:35Z</time>
      </trkpt>
      <trkpt lat="45.9109" lon="4.75081">
        <ele>180</ele>
        <time>2017-08-01T14:01:36Z</time>
      </trkpt>
      <trkpt lat="45.91095" lon="4.75083">
        <ele>179</ele>
        <time>2017-08-01T14:01:37Z</time>
      </trkpt>
      <trkpt lat="45.911" lon="4.75085">
        <ele>180</ele>
        <time>2017-08-01T14:01:38Z</time>
      </trkpt>
      <trkpt lat="45.91106" lon="4.75087">
        <ele>180</ele>
        <time>2017-08-01T14:01:39Z</time>
      </trkpt>
      <trkpt lat="45.91112" lon="4.75089">
        <ele>179</ele>
        <time>2017-08-01T14:01:40Z</time>
      </trkpt>
      <trkpt lat="45.91118" lon="4.75092">
        <ele>179</ele>
        <time>2017-08-01T14:01:41Z</time>
      </trkpt>
      <trkpt lat="45.91124" lon="4.75094">
        <ele>179</ele>
        <time>2017-08-01T14:01:42Z</time>
      </trkpt>
      <trkpt lat="45.9113" lon="4.75096">
        <ele>179</ele>
        <time>2017-08-01T14:01:43Z</time>
      </trkpt>
      <trkpt lat="45.91136" lon="4.75098">
        <ele>179</ele>
        <time>2017-08-01T14:01:44Z</time>
      </trkpt>
      <trkpt lat="45.91142" lon="4.751">
        <ele>179</ele>
        <time>2017-08-01T14:01:45Z</time>
      </trkpt>
      <trkpt lat="45.91147" lon="4.75102">
        <ele>179</ele>
        <time>2017-08-01T14:01:46Z</time>
      </trkpt>
      <trkpt lat="45.91153" lon="4.75103">
        <ele>179</ele>
        <time>2017-08-01T14:01:47Z</time>
      </trkpt>
      <trkpt lat="45.91158" lon="4.75105">
        <ele>179</ele>
        <time>2017-08-01T14:01:48Z</time>
      </trkpt>
      <trkpt lat="45.91163" lon="4.75106">
        <ele>179</ele>
        <time>2017-08-01T14:01:49Z</time>
      </trkpt>
      <trkpt lat="45.91168" lon="4.75107">
        <ele>178</ele>
        <time>2017-08-01T14:01:50Z</time>
      </trkpt>
      <trkpt lat="45.91173" lon="4.75109">
        <ele>178</ele>
        <time>2017-08-01T14:01:51Z</time>
      </trkpt>
      <trkpt lat="45.91178" lon="4.7511">
        <ele>178</ele>
        <time>2017-08-01T14:01:52Z</time>
      </trkpt>
      <trkpt lat="45.91183" lon="4.75111">
        <ele>178</ele>
        <time>2017-08-01T14:01:53Z</time>
      </trkpt>
      <trkpt lat="45.91189" lon="4.75113">
        <ele>178</ele>
        <time>2017-08-01T14:01:54Z</time>
      </trkpt>
      <trkpt lat="45.91194" lon="4.75114">
        <ele>178</ele>
        <time>2017-08-01T14:01:55Z</time>
      </trkpt>
      <trkpt lat="45.912" lon="4.75115">
        <ele>178</ele>
        <time>2017-08-01T14:01:56Z</time>
      </trkpt>
      <trkpt lat="45.91205" lon="4.75116">
        <ele>178</ele>
        <time>2017-08-01T14:01:57Z</time>
      </trkpt>
      <trkpt lat="45.9121" lon="4.75118">
        <ele>177</ele>
        <time>2017-08-01T14:01:58Z</time>
      </trkpt>
      <trkpt lat="45.91214" lon="4.75119">
        <ele>177</ele>
        <time>2017-08-01T14:01:59Z</time>
      </trkpt>
      <trkpt lat="45.91219" lon="4.7512">
        <ele>177</ele>
        <time>2017-08-01T14:02:00Z</time>
      </trkpt>
      <trkpt lat="45.91224" lon="4.75122">
        <ele>177</ele>
        <time>2017-08-01T14:02:01Z</time>
      </trkpt>
      <trkpt lat="45.91228" lon="4.75124">
        <ele>177</ele>
        <time>2017-08-01T14:02:02Z</time>
      </trkpt>
      <trkpt lat="45.91233" lon="4.75126">
        <ele>177</ele>
        <time>2017-08-01T14:02:03Z</time>
      </trkpt>
      <trkpt lat="45.91238" lon="4.75128">
        <ele>177</ele>
        <time>2017-08-01T14:02:04Z</time>
      </trkpt>
      <trkpt lat="45.91244" lon="4.7513">
        <ele>177</ele>
        <time>2017-08-01T14:02:05Z</time>
      </trkpt>
      <trkpt lat="45.91249" lon="4.75133">
        <ele>177</ele>
        <time>2017-08-01T14:02:06Z</time>
      </trkpt>
      <trkpt lat="45.91254" lon="4.75135">
        <ele>177</ele>
        <time>2017-08-01T14:02:07Z</time>
      </trkpt>
      <trkpt lat="45.91259" lon="4.75138">
        <ele>177</ele>
        <time>2017-08-01T14:02:08Z</time>
      </trkpt>
      <trkpt lat="45.91263" lon="4.75141">
        <ele>177</ele>
        <time>2017-08-01T14:02:09Z</time>
      </trkpt>
      <trkpt lat="45.91268" lon="4.75143">
        <ele>177</ele>
        <time>2017-08-01T14:02:10Z</time>
      </trkpt>
      <trkpt lat="45.91276" lon="4.75147">
        <ele>177</ele>
        <time>2017-08-01T14:02:12Z</time>
      </trkpt>
      <trkpt lat="45.91279" lon="4.75149">
        <ele>177</ele>
        <time>2017-08-01T14:02:13Z</time>
      </trkpt>
      <trkpt lat="45.91288" lon="4.75152">
        <ele>177</ele>
        <time>2017-08-01T14:02:15Z</time>
      </trkpt>
      <trkpt lat="45.91291" lon="4.75154">
        <ele>177</ele>
        <time>2017-08-01T14:02:16Z</time>
      </trkpt>
      <trkpt lat="45.91298" lon="4.75157">
        <ele>177</ele>
        <time>2017-08-01T14:02:18Z</time>
      </trkpt>
      <trkpt lat="45.913" lon="4.75158">
        <ele>177</ele>
        <time>2017-08-01T14:02:19Z</time>
      </trkpt>
      <trkpt lat="45.91307" lon="4.75155">
        <ele>177</ele>
        <time>2017-08-01T14:02:22Z</time>
      </trkpt>
      <trkpt lat="45.91309" lon="4.75152">
        <ele>177</ele>
        <time>2017-08-01T14:02:23Z</time>
      </trkpt>
      <trkpt lat="45.91309" lon="4.75141">
        <ele>177</ele>
        <time>2017-08-01T14:02:25Z</time>
      </trkpt>
      <trkpt lat="45.91308" lon="4.75134">
        <ele>177</ele>
        <time>2017-08-01T14:02:26Z</time>
      </trkpt>
      <trkpt lat="45.91307" lon="4.75127">
        <ele>177</ele>
        <time>2017-08-01T14:02:27Z</time>
      </trkpt>
      <trkpt lat="45.91306" lon="4.7512">
        <ele>177</ele>
        <time>2017-08-01T14:02:28Z</time>
      </trkpt>
      <trkpt lat="45.91306" lon="4.75113">
        <ele>177</ele>
        <time>2017-08-01T14:02:29Z</time>
      </trkpt>
      <trkpt lat="45.91305" lon="4.75105">
        <ele>177</ele>
        <time>2017-08-01T14:02:30Z</time>
      </trkpt>
      <trkpt lat="45.91304" lon="4.75098">
        <ele>177</ele>
        <time>2017-08-01T14:02:31Z</time>
      </trkpt>
      <trkpt lat="45.91304" lon="4.75092">
        <ele>177</ele>
        <time>2017-08-01T14:02:32Z</time>
      </trkpt>
      <trkpt lat="45.91303" lon="4.75085">
        <ele>177</ele>
        <time>2017-08-01T14:02:33Z</time>
      </trkpt>
      <trkpt lat="45.91303" lon="4.75078">
        <ele>177</ele>
        <time>2017-08-01T14:02:34Z</time>
      </trkpt>
      <trkpt lat="45.91302" lon="4.75066">
        <ele>177</ele>
        <time>2017-08-01T14:02:36Z</time>
      </trkpt>
      <trkpt lat="45.91302" lon="4.7506">
        <ele>177</ele>
        <time>2017-08-01T14:02:37Z</time>
      </trkpt>
      <trkpt lat="45.91302" lon="4.75048">
        <ele>177</ele>
        <time>2017-08-01T14:02:39Z</time>
      </trkpt>
      <trkpt lat="45.91301" lon="4.75041">
        <ele>177</ele>
        <time>2017-08-01T14:02:40Z</time>
      </trkpt>
      <trkpt lat="45.91301" lon="4.75033">
        <ele>177</ele>
        <time>2017-08-01T14:02:41Z</time>
      </trkpt>
      <trkpt lat="45.91301" lon="4.75026">
        <ele>177</ele>
        <time>2017-08-01T14:02:42Z</time>
      </trkpt>
      <trkpt lat="45.91301" lon="4.75019">
        <ele>177</ele>
        <time>2017-08-01T14:02:43Z</time>
      </trkpt>
      <trkpt lat="45.91301" lon="4.75011">
        <ele>177</ele>
        <time>2017-08-01T14:02:44Z</time>
      </trkpt>
      <trkpt lat="45.91301" lon="4.75005">
        <ele>177</ele>
        <time>2017-08-01T14:02:45Z</time>
      </trkpt>
      <trkpt lat="45.91302" lon="4.74998">
        <ele>177</ele>
        <time>2017-08-01T14:02:46Z</time>
      </trkpt>
      <trkpt lat="45.91303" lon="4.74991">
        <ele>177</ele>
        <time>2017-08-01T14:02:47Z</time>
      </trkpt>
      <trkpt lat="45.91303" lon="4.74985">
        <ele>177</ele>
        <time>2017-08-01T14:02:48Z</time>
      </trkpt>
      <trkpt lat="45.91304" lon="4.74972">
        <ele>177</ele>
        <time>2017-08-01T14:02:50Z</time>
      </trkpt>
      <trkpt lat="45.91304" lon="4.74966">
        <ele>177</ele>
        <time>2017-08-01T14:02:51Z</time>
      </trkpt>
      <trkpt lat="45.91305" lon="4.74958">
        <ele>177</ele>
        <time>2017-08-01T14:02:52Z</time>
      </trkpt>
      <trkpt lat="45.91306" lon="4.74951">
        <ele>177</ele>
        <time>2017-08-01T14:02:53Z</time>
      </trkpt>
      <trkpt lat="45.91306" lon="4.74943">
        <ele>177</ele>
        <time>2017-08-01T14:02:54Z</time>
      </trkpt>
      <trkpt lat="45.91307" lon="4.74937">
        <ele>177</ele>
        <time>2017-08-01T14:02:55Z</time>
      </trkpt>
      <trkpt lat="45.91307" lon="4.74929">
        <ele>177</ele>
        <time>2017-08-01T14:02:56Z</time>
      </trkpt>
      <trkpt lat="45.91308" lon="4.74921">
        <ele>177</ele>
        <time>2017-08-01T14:02:57Z</time>
      </trkpt>
      <trkpt lat="45.91308" lon="4.74911">
        <ele>176</ele>
        <time>2017-08-01T14:02:58Z</time>
      </trkpt>
      <trkpt lat="45.91308" lon="4.74903">
        <ele>176</ele>
        <time>2017-08-01T14:02:59Z</time>
      </trkpt>
      <trkpt lat="45.91309" lon="4.74894">
        <ele>176</ele>
        <time>2017-08-01T14:03:00Z</time>
      </trkpt>
      <trkpt lat="45.9131" lon="4.74886">
        <ele>176</ele>
        <time>2017-08-01T14:03:01Z</time>
      </trkpt>
      <trkpt lat="45.9131" lon="4.74878">
        <ele>176</ele>
        <time>2017-08-01T14:03:02Z</time>
      </trkpt>
      <trkpt lat="45.91311" lon="4.74871">
        <ele>176</ele>
        <time>2017-08-01T14:03:03Z</time>
      </trkpt>
      <trkpt lat="45.91311" lon="4.74864">
        <ele>176</ele>
        <time>2017-08-01T14:03:04Z</time>
      </trkpt>
      <trkpt lat="45.91311" lon="4.74855">
        <ele>176</ele>
        <time>2017-08-01T14:03:05Z</time>
      </trkpt>
      <trkpt lat="45.91311" lon="4.74848">
        <ele>176</ele>
        <time>2017-08-01T14:03:06Z</time>
      </trkpt>
      <trkpt lat="45.91311" lon="4.7484">
        <ele>176</ele>
        <time>2017-08-01T14:03:07Z</time>
      </trkpt>
      <trkpt lat="45.91311" lon="4.74833">
        <ele>175</ele>
        <time>2017-08-01T14:03:08Z</time>
      </trkpt>
      <trkpt lat="45.91312" lon="4.74825">
        <ele>175</ele>
        <time>2017-08-01T14:03:09Z</time>
      </trkpt>
      <trkpt lat="45.91313" lon="4.74818">
        <ele>175</ele>
        <time>2017-08-01T14:03:10Z</time>
      </trkpt>
      <trkpt lat="45.91313" lon="4.7481">
        <ele>175</ele>
        <time>2017-08-01T14:03:11Z</time>
      </trkpt>
      <trkpt lat="45.91314" lon="4.74802">
        <ele>175</ele>
        <time>2017-08-01T14:03:12Z</time>
      </trkpt>
      <trkpt lat="45.91315" lon="4.74794">
        <ele>174</ele>
        <time>2017-08-01T14:03:13Z</time>
      </trkpt>
      <trkpt lat="45.91316" lon="4.74786">
        <ele>174</ele>
        <time>2017-08-01T14:03:14Z</time>
      </trkpt>
      <trkpt lat="45.91318" lon="4.74778">
        <ele>174</ele>
        <time>2017-08-01T14:03:15Z</time>
      </trkpt>
      <trkpt lat="45.91321" lon="4.7477">
        <ele>174</ele>
        <time>2017-08-01T14:03:16Z</time>
      </trkpt>
      <trkpt lat="45.91322" lon="4.74761">
        <ele>174</ele>
        <time>2017-08-01T14:03:17Z</time>
      </trkpt>
      <trkpt lat="45.91324" lon="4.74753">
        <ele>173</ele>
        <time>2017-08-01T14:03:18Z</time>
      </trkpt>
      <trkpt lat="45.91325" lon="4.74746">
        <ele>173</ele>
        <time>2017-08-01T14:03:19Z</time>
      </trkpt>
      <trkpt lat="45.91327" lon="4.74739">
        <ele>173</ele>
        <time>2017-08-01T14:03:20Z</time>
      </trkpt>
      <trkpt lat="45.91328" lon="4.74732">
        <ele>173</ele>
        <time>2017-08-01T14:03:21Z</time>
      </trkpt>
      <trkpt lat="45.91329" lon="4.74725">
        <ele>173</ele>
        <time>2017-08-01T14:03:22Z</time>
      </trkpt>
      <trkpt lat="45.91329" lon="4.74718">
        <ele>173</ele>
        <time>2017-08-01T14:03:23Z</time>
      </trkpt>
      <trkpt lat="45.91329" lon="4.74711">
        <ele>173</ele>
        <time>2017-08-01T14:03:24Z</time>
      </trkpt>
      <trkpt lat="45.91329" lon="4.74704">
        <ele>173</ele>
        <time>2017-08-01T14:03:25Z</time>
      </trkpt>
      <trkpt lat="45.91328" lon="4.74697">
        <ele>173</ele>
        <time>2017-08-01T14:03:26Z</time>
      </trkpt>
      <trkpt lat="45.91327" lon="4.74689">
        <ele>173</ele>
        <time>2017-08-01T14:03:27Z</time>
      </trkpt>
      <trkpt lat="45.91324" lon="4.74682">
        <ele>173</ele>
        <time>2017-08-01T14:03:28Z</time>
      </trkpt>
      <trkpt lat="45.91322" lon="4.74674">
        <ele>173</ele>
        <time>2017-08-01T14:03:29Z</time>
      </trkpt>
      <trkpt lat="45.91319" lon="4.74667">
        <ele>173</ele>
        <time>2017-08-01T14:03:30Z</time>
      </trkpt>
      <trkpt lat="45.91317" lon="4.7466">
        <ele>173</ele>
        <time>2017-08-01T14:03:31Z</time>
      </trkpt>
      <trkpt lat="45.91314" lon="4.74652">
        <ele>173</ele>
        <time>2017-08-01T14:03:32Z</time>
      </trkpt>
      <trkpt lat="45.9131" lon="4.74645">
        <ele>173</ele>
        <time>2017-08-01T14:03:33Z</time>
      </trkpt>
      <trkpt lat="45.91307" lon="4.74637">
        <ele>173</ele>
        <time>2017-08-01T14:03:34Z</time>
      </trkpt>
      <trkpt lat="45.91304" lon="4.74629">
        <ele>173</ele>
        <time>2017-08-01T14:03:35Z</time>
      </trkpt>
      <trkpt lat="45.91301" lon="4.74622">
        <ele>173</ele>
        <time>2017-08-01T14:03:36Z</time>
      </trkpt>
      <trkpt lat="45.91299" lon="4.74615">
        <ele>173</ele>
        <time>2017-08-01T14:03:37Z</time>
      </trkpt>
      <trkpt lat="45.91296" lon="4.74607">
        <ele>173</ele>
        <time>2017-08-01T14:03:38Z</time>
      </trkpt>
      <trkpt lat="45.91293" lon="4.746">
        <ele>173</ele>
        <time>2017-08-01T14:03:39Z</time>
      </trkpt>
      <trkpt lat="45.9129" lon="4.74594">
        <ele>173</ele>
        <time>2017-08-01T14:03:40Z</time>
      </trkpt>
      <trkpt lat="45.91287" lon="4.74587">
        <ele>173</ele>
        <time>2017-08-01T14:03:41Z</time>
      </trkpt>
      <trkpt lat="45.91285" lon="4.7458">
        <ele>173</ele>
        <time>2017-08-01T14:03:42Z</time>
      </trkpt>
      <trkpt lat="45.91282" lon="4.74574">
        <ele>173</ele>
        <time>2017-08-01T14:03:43Z</time>
      </trkpt>
      <trkpt lat="45.9128" lon="4.74568">
        <ele>173</ele>
        <time>2017-08-01T14:03:44Z</time>
      </trkpt>
      <trkpt lat="45.91277" lon="4.74562">
        <ele>173</ele>
        <time>2017-08-01T14:03:45Z</time>
      </trkpt>
      <trkpt lat="45.91274" lon="4.74555">
        <ele>173</ele>
        <time>2017-08-01T14:03:46Z</time>
      </trkpt>
      <trkpt lat="45.91271" lon="4.74548">
        <ele>173</ele>
        <time>2017-08-01T14:03:47Z</time>
      </trkpt>
      <trkpt lat="45.91268" lon="4.7454">
        <ele>173</ele>
        <time>2017-08-01T14:03:48Z</time>
      </trkpt>
      <trkpt lat="45.91265" lon="4.74532">
        <ele>173</ele>
        <time>2017-08-01T14:03:49Z</time>
      </trkpt>
      <trkpt lat="45.91263" lon="4.74524">
        <ele>173</ele>
        <time>2017-08-01T14:03:50Z</time>
      </trkpt>
      <trkpt lat="45.9126" lon="4.74516">
        <ele>174</ele>
        <time>2017-08-01T14:03:51Z</time>
      </trkpt>
      <trkpt lat="45.91258" lon="4.74509">
        <ele>174</ele>
        <time>2017-08-01T14:03:52Z</time>
      </trkpt>
      <trkpt lat="45.91256" lon="4.74501">
        <ele>174</ele>
        <time>2017-08-01T14:03:53Z</time>
      </trkpt>
      <trkpt lat="45.91254" lon="4.74493">
        <ele>174</ele>
        <time>2017-08-01T14:03:54Z</time>
      </trkpt>
      <trkpt lat="45.91252" lon="4.74486">
        <ele>174</ele>
        <time>2017-08-01T14:03:55Z</time>
      </trkpt>
      <trkpt lat="45.9125" lon="4.74479">
        <ele>174</ele>
        <time>2017-08-01T14:03:56Z</time>
      </trkpt>
      <trkpt lat="45.91247" lon="4.74472">
        <ele>174</ele>
        <time>2017-08-01T14:03:57Z</time>
      </trkpt>
      <trkpt lat="45.91245" lon="4.74465">
        <ele>174</ele>
        <time>2017-08-01T14:03:58Z</time>
      </trkpt>
      <trkpt lat="45.91243" lon="4.74457">
        <ele>174</ele>
        <time>2017-08-01T14:03:59Z</time>
      </trkpt>
      <trkpt lat="45.91241" lon="4.74449">
        <ele>174</ele>
        <time>2017-08-01T14:04:00Z</time>
      </trkpt>
      <trkpt lat="45.91239" lon="4.74441">
        <ele>174</ele>
        <time>2017-08-01T14:04:01Z</time>
      </trkpt>
      <trkpt lat="45.91236" lon="4.74433">
        <ele>174</ele>
        <time>2017-08-01T14:04:02Z</time>
      </trkpt>
      <trkpt lat="45.91234" lon="4.74424">
        <ele>174</ele>
        <time>2017-08-01T14:04:03Z</time>
      </trkpt>
      <trkpt lat="45.91232" lon="4.74416">
        <ele>174</ele>
        <time>2017-08-01T14:04:04Z</time>
      </trkpt>
      <trkpt lat="45.9123" lon="4.74408">
        <ele>174</ele>
        <time>2017-08-01T14:04:05Z</time>
      </trkpt>
      <trkpt lat="45.91228" lon="4.74401">
        <ele>174</ele>
        <time>2017-08-01T14:04:06Z</time>
      </trkpt>
      <trkpt lat="45.91226" lon="4.74394">
        <ele>174</ele>
        <time>2017-08-01T14:04:07Z</time>
      </trkpt>
      <trkpt lat="45.91224" lon="4.74387">
        <ele>174</ele>
        <time>2017-08-01T14:04:08Z</time>
      </trkpt>
      <trkpt lat="45.91222" lon="4.74381">
        <ele>174</ele>
        <time>2017-08-01T14:04:09Z</time>
      </trkpt>
      <trkpt lat="45.9122" lon="4.74374">
        <ele>174</ele>
        <time>2017-08-01T14:04:10Z</time>
      </trkpt>
      <trkpt lat="45.91218" lon="4.74367">
        <ele>174</ele>
        <time>2017-08-01T14:04:11Z</time>
      </trkpt>
      <trkpt lat="45.91216" lon="4.74361">
        <ele>174</ele>
        <time>2017-08-01T14:04:12Z</time>
      </trkpt>
      <trkpt lat="45.91214" lon="4.74354">
        <ele>175</ele>
        <time>2017-08-01T14:04:13Z</time>
      </trkpt>
      <trkpt lat="45.91213" lon="4.74347">
        <ele>175</ele>
        <time>2017-08-01T14:04:14Z</time>
      </trkpt>
      <trkpt lat="45.91211" lon="4.7434">
        <ele>175</ele>
        <time>2017-08-01T14:04:15Z</time>
      </trkpt>
      <trkpt lat="45.9121" lon="4.74334">
        <ele>175</ele>
        <time>2017-08-01T14:04:16Z</time>
      </trkpt>
      <trkpt lat="45.91208" lon="4.74328">
        <ele>175</ele>
        <time>2017-08-01T14:04:17Z</time>
      </trkpt>
      <trkpt lat="45.91206" lon="4.74322">
        <ele>175</ele>
        <time>2017-08-01T14:04:18Z</time>
      </trkpt>
      <trkpt lat="45.91205" lon="4.74315">
        <ele>175</ele>
        <time>2017-08-01T14:04:19Z</time>
      </trkpt>
      <trkpt lat="45.91203" lon="4.74309">
        <ele>175</ele>
        <time>2017-08-01T14:04:20Z</time>
      </trkpt>
      <trkpt lat="45.91202" lon="4.74303">
        <ele>175</ele>
        <time>2017-08-01T14:04:21Z</time>
      </trkpt>
      <trkpt lat="45.912" lon="4.74296">
        <ele>175</ele>
        <time>2017-08-01T14:04:22Z</time>
      </trkpt>
      <trkpt lat="45.91198" lon="4.7429">
        <ele>175</ele>
        <time>2017-08-01T14:04:23Z</time>
      </trkpt>
      <trkpt lat="45.91197" lon="4.74284">
        <ele>175</ele>
        <time>2017-08-01T14:04:24Z</time>
      </trkpt>
      <trkpt lat="45.91195" lon="4.74278">
        <ele>175</ele>
        <time>2017-08-01T14:04:25Z</time>
      </trkpt>
      <trkpt lat="45.91193" lon="4.74265">
        <ele>175</ele>
        <time>2017-08-01T14:04:27Z</time>
      </trkpt>
      <trkpt lat="45.91191" lon="4.74259">
        <ele>175</ele>
        <time>2017-08-01T14:04:28Z</time>
      </trkpt>
      <trkpt lat="45.9119" lon="4.74252">
        <ele>175</ele>
        <time>2017-08-01T14:04:29Z</time>
      </trkpt>
      <trkpt lat="45.9119" lon="4.74246">
        <ele>175</ele>
        <time>2017-08-01T14:04:30Z</time>
      </trkpt>
      <trkpt lat="45.91188" lon="4.74233">
        <ele>175</ele>
        <time>2017-08-01T14:04:32Z</time>
      </trkpt>
      <trkpt lat="45.91187" lon="4.74227">
        <ele>175</ele>
        <time>2017-08-01T14:04:33Z</time>
      </trkpt>
      <trkpt lat="45.91187" lon="4.74215">
        <ele>175</ele>
        <time>2017-08-01T14:04:35Z</time>
      </trkpt>
      <trkpt lat="45.91187" lon="4.74209">
        <ele>175</ele>
        <time>2017-08-01T14:04:36Z</time>
      </trkpt>
      <trkpt lat="45.91187" lon="4.74196">
        <ele>175</ele>
        <time>2017-08-01T14:04:38Z</time>
      </trkpt>
      <trkpt lat="45.91188" lon="4.7419">
        <ele>175</ele>
        <time>2017-08-01T14:04:39Z</time>
      </trkpt>
      <trkpt lat="45.91188" lon="4.74178">
        <ele>174</ele>
        <time>2017-08-01T14:04:41Z</time>
      </trkpt>
      <trkpt lat="45.91189" lon="4.74172">
        <ele>174</ele>
        <time>2017-08-01T14:04:42Z</time>
      </trkpt>
      <trkpt lat="45.91191" lon="4.7416">
        <ele>174</ele>
        <time>2017-08-01T14:04:44Z</time>
      </trkpt>
      <trkpt lat="45.91193" lon="4.74154">
        <ele>174</ele>
        <time>2017-08-01T14:04:45Z</time>
      </trkpt>
      <trkpt lat="45.91194" lon="4.74147">
        <ele>174</ele>
        <time>2017-08-01T14:04:46Z</time>
      </trkpt>
      <trkpt lat="45.91195" lon="4.74141">
        <ele>174</ele>
        <time>2017-08-01T14:04:47Z</time>
      </trkpt>
      <trkpt lat="45.91198" lon="4.74129">
        <ele>174</ele>
        <time>2017-08-01T14:04:49Z</time>
      </trkpt>
      <trkpt lat="45.91199" lon="4.74123">
        <ele>174</ele>
        <time>2017-08-01T14:04:50Z</time>
      </trkpt>
      <trkpt lat="45.912" lon="4.74116">
        <ele>174</ele>
        <time>2017-08-01T14:04:51Z</time>
      </trkpt>
      <trkpt lat="45.91202" lon="4.7411">
        <ele>173</ele>
        <time>2017-08-01T14:04:52Z</time>
      </trkpt>
      <trkpt lat="45.91203" lon="4.74104">
        <ele>173</ele>
        <time>2017-08-01T14:04:53Z</time>
      </trkpt>
      <trkpt lat="45.91204" lon="4.74097">
        <ele>173</ele>
        <time>2017-08-01T14:04:54Z</time>
      </trkpt>
      <trkpt lat="45.91207" lon="4.74086">
        <ele>173</ele>
        <time>2017-08-01T14:04:56Z</time>
      </trkpt>
      <trkpt lat="45.91208" lon="4.7408">
        <ele>173</ele>
        <time>2017-08-01T14:04:57Z</time>
      </trkpt>
      <trkpt lat="45.9121" lon="4.74069">
        <ele>173</ele>
        <time>2017-08-01T14:04:59Z</time>
      </trkpt>
      <trkpt lat="45.91211" lon="4.74064">
        <ele>173</ele>
        <time>2017-08-01T14:05:00Z</time>
      </trkpt>
      <trkpt lat="45.91212" lon="4.74058">
        <ele>173</ele>
        <time>2017-08-01T14:05:01Z</time>
      </trkpt>
      <trkpt lat="45.91214" lon="4.74051">
        <ele>173</ele>
        <time>2017-08-01T14:05:02Z</time>
      </trkpt>
      <trkpt lat="45.91216" lon="4.74044">
        <ele>173</ele>
        <time>2017-08-01T14:05:03Z</time>
      </trkpt>
      <trkpt lat="45.91217" lon="4.74037">
        <ele>173</ele>
        <time>2017-08-01T14:05:04Z</time>
      </trkpt>
      <trkpt lat="45.91218" lon="4.7403">
        <ele>173</ele>
        <time>2017-08-01T14:05:05Z</time>
      </trkpt>
      <trkpt lat="45.9122" lon="4.74024">
        <ele>173</ele>
        <time>2017-08-01T14:05:06Z</time>
      </trkpt>
      <trkpt lat="45.91221" lon="4.74018">
        <ele>173</ele>
        <time>2017-08-01T14:05:07Z</time>
      </trkpt>
      <trkpt lat="45.91223" lon="4.74011">
        <ele>173</ele>
        <time>2017-08-01T14:05:08Z</time>
      </trkpt>
      <trkpt lat="45.91224" lon="4.74005">
        <ele>173</ele>
        <time>2017-08-01T14:05:09Z</time>
      </trkpt>
      <trkpt lat="45.91225" lon="4.73999">
        <ele>173</ele>
        <time>2017-08-01T14:05:10Z</time>
      </trkpt>
      <trkpt lat="45.91226" lon="4.73992">
        <ele>173</ele>
        <time>2017-08-01T14:05:11Z</time>
      </trkpt>
      <trkpt lat="45.91227" lon="4.73986">
        <ele>173</ele>
        <time>2017-08-01T14:05:12Z</time>
      </trkpt>
      <trkpt lat="45.91228" lon="4.73979">
        <ele>173</ele>
        <time>2017-08-01T14:05:13Z</time>
      </trkpt>
      <trkpt lat="45.91229" lon="4.73972">
        <ele>173</ele>
        <time>2017-08-01T14:05:14Z</time>
      </trkpt>
      <trkpt lat="45.91229" lon="4.73965">
        <ele>173</ele>
        <time>2017-08-01T14:05:15Z</time>
      </trkpt>
      <trkpt lat="45.91229" lon="4.73958">
        <ele>173</ele>
        <time>2017-08-01T14:05:16Z</time>
      </trkpt>
      <trkpt lat="45.91229" lon="4.73951">
        <ele>173</ele>
        <time>2017-08-01T14:05:17Z</time>
      </trkpt>
      <trkpt lat="45.9123" lon="4.73943">
        <ele>173</ele>
        <time>2017-08-01T14:05:18Z</time>
      </trkpt>
      <trkpt lat="45.91229" lon="4.73936">
        <ele>173</ele>
        <time>2017-08-01T14:05:19Z</time>
      </trkpt>
      <trkpt lat="45.91229" lon="4.73928">
        <ele>173</ele>
        <time>2017-08-01T14:05:20Z</time>
      </trkpt>
      <trkpt lat="45.91228" lon="4.73919">
        <ele>173</ele>
        <time>2017-08-01T14:05:21Z</time>
      </trkpt>
      <trkpt lat="45.91227" lon="4.73911">
        <ele>174</ele>
        <time>2017-08-01T14:05:22Z</time>
      </trkpt>
      <trkpt lat="45.91225" lon="4.73902">
        <ele>174</ele>
        <time>2017-08-01T14:05:23Z</time>
      </trkpt>
      <trkpt lat="45.91224" lon="4.73893">
        <ele>174</ele>
        <time>2017-08-01T14:05:24Z</time>
      </trkpt>
      <trkpt lat="45.91222" lon="4.73885">
        <ele>174</ele>
        <time>2017-08-01T14:05:25Z</time>
      </trkpt>
      <trkpt lat="45.91219" lon="4.73876">
        <ele>174</ele>
        <time>2017-08-01T14:05:26Z</time>
      </trkpt>
      <trkpt lat="45.91216" lon="4.73868">
        <ele>174</ele>
        <time>2017-08-01T14:05:27Z</time>
      </trkpt>
      <trkpt lat="45.91213" lon="4.73859">
        <ele>174</ele>
        <time>2017-08-01T14:05:28Z</time>
      </trkpt>
      <trkpt lat="45.91209" lon="4.7385">
        <ele>174</ele>
        <time>2017-08-01T14:05:29Z</time>
      </trkpt>
      <trkpt lat="45.91206" lon="4.73841">
        <ele>174</ele>
        <time>2017-08-01T14:05:30Z</time>
      </trkpt>
      <trkpt lat="45.91202" lon="4.73832">
        <ele>175</ele>
        <time>2017-08-01T14:05:31Z</time>
      </trkpt>
      <trkpt lat="45.91198" lon="4.73823">
        <ele>175</ele>
        <time>2017-08-01T14:05:32Z</time>
      </trkpt>
      <trkpt lat="45.91193" lon="4.73814">
        <ele>175</ele>
        <time>2017-08-01T14:05:33Z</time>
      </trkpt>
      <trkpt lat="45.91189" lon="4.73805">
        <ele>175</ele>
        <time>2017-08-01T14:05:34Z</time>
      </trkpt>
      <trkpt lat="45.91184" lon="4.73796">
        <ele>175</ele>
        <time>2017-08-01T14:05:35Z</time>
      </trkpt>
      <trkpt lat="45.9118" lon="4.73787">
        <ele>175</ele>
        <time>2017-08-01T14:05:36Z</time>
      </trkpt>
      <trkpt lat="45.91176" lon="4.73779">
        <ele>175</ele>
        <time>2017-08-01T14:05:37Z</time>
      </trkpt>
      <trkpt lat="45.91172" lon="4.73771">
        <ele>175</ele>
        <time>2017-08-01T14:05:38Z</time>
      </trkpt>
      <trkpt lat="45.91168" lon="4.73763">
        <ele>175</ele>
        <time>2017-08-01T14:05:39Z</time>
      </trkpt>
      <trkpt lat="45.91165" lon="4.73756">
        <ele>175</ele>
        <time>2017-08-01T14:05:40Z</time>
      </trkpt>
      <trkpt lat="45.91163" lon="4.73749">
        <ele>175</ele>
        <time>2017-08-01T14:05:41Z</time>
      </trkpt>
      <trkpt lat="45.91164" lon="4.73741">
        <ele>175</ele>
        <time>2017-08-01T14:05:42Z</time>
      </trkpt>
      <trkpt lat="45.91166" lon="4.73735">
        <ele>175</ele>
        <time>2017-08-01T14:05:43Z</time>
      </trkpt>
      <trkpt lat="45.9117" lon="4.73731">
        <ele>175</ele>
        <time>2017-08-01T14:05:44Z</time>
      </trkpt>
      <trkpt lat="45.91175" lon="4.73729">
        <ele>175</ele>
        <time>2017-08-01T14:05:45Z</time>
      </trkpt>
      <trkpt lat="45.91179" lon="4.7373">
        <ele>175</ele>
        <time>2017-08-01T14:05:46Z</time>
      </trkpt>
      <trkpt lat="45.91184" lon="4.73731">
        <ele>175</ele>
        <time>2017-08-01T14:05:47Z</time>
      </trkpt>
      <trkpt lat="45.91188" lon="4.73733">
        <ele>175</ele>
        <time>2017-08-01T14:05:48Z</time>
      </trkpt>
      <trkpt lat="45.91193" lon="4.73735">
        <ele>175</ele>
        <time>2017-08-01T14:05:49Z</time>
      </trkpt>
      <trkpt lat="45.91198" lon="4.73736">
        <ele>175</ele>
        <time>2017-08-01T14:05:50Z</time>
      </trkpt>
      <trkpt lat="45.91206" lon="4.73738">
        <ele>175</ele>
        <time>2017-08-01T14:05:52Z</time>
      </trkpt>
      <trkpt lat="45.9121" lon="4.73738">
        <ele>175</ele>
        <time>2017-08-01T14:05:53Z</time>
      </trkpt>
      <trkpt lat="45.91215" lon="4.73738">
        <ele>175</ele>
        <time>2017-08-01T14:05:54Z</time>
      </trkpt>
      <trkpt lat="45.9122" lon="4.73738">
        <ele>175</ele>
        <time>2017-08-01T14:05:55Z</time>
      </trkpt>
      <trkpt lat="45.91224" lon="4.73738">
        <ele>175</ele>
        <time>2017-08-01T14:05:56Z</time>
      </trkpt>
      <trkpt lat="45.91229" lon="4.73738">
        <ele>175</ele>
        <time>2017-08-01T14:05:57Z</time>
      </trkpt>
      <trkpt lat="45.91234" lon="4.73738">
        <ele>175</ele>
        <time>2017-08-01T14:05:58Z</time>
      </trkpt>
      <trkpt lat="45.91239" lon="4.73738">
        <ele>175</ele>
        <time>2017-08-01T14:05:59Z</time>
      </trkpt>
      <trkpt lat="45.91248" lon="4.73738">
        <ele>175</ele>
        <time>2017-08-01T14:06:01Z</time>
      </trkpt>
      <trkpt lat="45.91252" lon="4.73738">
        <ele>175</ele>
        <time>2017-08-01T14:06:02Z</time>
      </trkpt>
      <trkpt lat="45.91256" lon="4.73738">
        <ele>175</ele>
        <time>2017-08-01T14:06:03Z</time>
      </trkpt>
      <trkpt lat="45.91261" lon="4.73738">
        <ele>174</ele>
        <time>2017-08-01T14:06:04Z</time>
      </trkpt>
      <trkpt lat="45.91266" lon="4.73738">
        <ele>174</ele>
        <time>2017-08-01T14:06:05Z</time>
      </trkpt>
      <trkpt lat="45.9127" lon="4.73737">
        <ele>174</ele>
        <time>2017-08-01T14:06:06Z</time>
      </trkpt>
      <trkpt lat="45.91275" lon="4.73737">
        <ele>174</ele>
        <time>2017-08-01T14:06:07Z</time>
      </trkpt>
      <trkpt lat="45.91281" lon="4.73737">
        <ele>174</ele>
        <time>2017-08-01T14:06:08Z</time>
      </trkpt>
      <trkpt lat="45.91286" lon="4.73737">
        <ele>174</ele>
        <time>2017-08-01T14:06:09Z</time>
      </trkpt>
      <trkpt lat="45.91292" lon="4.73737">
        <ele>174</ele>
        <time>2017-08-01T14:06:10Z</time>
      </trkpt>
      <trkpt lat="45.91297" lon="4.73737">
        <ele>174</ele>
        <time>2017-08-01T14:06:11Z</time>
      </trkpt>
      <trkpt lat="45.91301" lon="4.73737">
        <ele>174</ele>
        <time>2017-08-01T14:06:12Z</time>
      </trkpt>
      <trkpt lat="45.9131" lon="4.73737">
        <ele>174</ele>
        <time>2017-08-01T14:06:14Z</time>
      </trkpt>
      <trkpt lat="45.91314" lon="4.73736">
        <ele>174</ele>
        <time>2017-08-01T14:06:15Z</time>
      </trkpt>
      <trkpt lat="45.91322" lon="4.73736">
        <ele>174</ele>
        <time>2017-08-01T14:06:17Z</time>
      </trkpt>
      <trkpt lat="45.91327" lon="4.73737">
        <ele>173</ele>
        <time>2017-08-01T14:06:18Z</time>
      </trkpt>
      <trkpt lat="45.91335" lon="4.73737">
        <ele>173</ele>
        <time>2017-08-01T14:06:20Z</time>
      </trkpt>
      <trkpt lat="45.91339" lon="4.73737">
        <ele>173</ele>
        <time>2017-08-01T14:06:21Z</time>
      </trkpt>
      <trkpt lat="45.91347" lon="4.73736">
        <ele>173</ele>
        <time>2017-08-01T14:06:23Z</time>
      </trkpt>
      <trkpt lat="45.91351" lon="4.73736">
        <ele>173</ele>
        <time>2017-08-01T14:06:24Z</time>
      </trkpt>
      <trkpt lat="45.91359" lon="4.73736">
        <ele>173</ele>
        <time>2017-08-01T14:06:26Z</time>
      </trkpt>
      <trkpt lat="45.91362" lon="4.73736">
        <ele>173</ele>
        <time>2017-08-01T14:06:27Z</time>
      </trkpt>
      <trkpt lat="45.9137" lon="4.73736">
        <ele>173</ele>
        <time>2017-08-01T14:06:29Z</time>
      </trkpt>
      <trkpt lat="45.91374" lon="4.73736">
        <ele>173</ele>
        <time>2017-08-01T14:06:30Z</time>
      </trkpt>
      <trkpt lat="45.91379" lon="4.73736">
        <ele>173</ele>
        <time>2017-08-01T14:06:31Z</time>
      </trkpt>
      <trkpt lat="45.91384" lon="4.73737">
        <ele>173</ele>
        <time>2017-08-01T14:06:32Z</time>
      </trkpt>
      <trkpt lat="45.91389" lon="4.73737">
        <ele>173</ele>
        <time>2017-08-01T14:06:33Z</time>
      </trkpt>
      <trkpt lat="45.91394" lon="4.73737">
        <ele>173</ele>
        <time>2017-08-01T14:06:34Z</time>
      </trkpt>
      <trkpt lat="45.91403" lon="4.73737">
        <ele>173</ele>
        <time>2017-08-01T14:06:36Z</time>
      </trkpt>
      <trkpt lat="45.91407" lon="4.73736">
        <ele>173</ele>
        <time>2017-08-01T14:06:37Z</time>
      </trkpt>
      <trkpt lat="45.91415" lon="4.73736">
        <ele>173</ele>
        <time>2017-08-01T14:06:39Z</time>
      </trkpt>
      <trkpt lat="45.91419" lon="4.73736">
        <ele>173</ele>
        <time>2017-08-01T14:06:40Z</time>
      </trkpt>
      <trkpt lat="45.91424" lon="4.73736">
        <ele>173</ele>
        <time>2017-08-01T14:06:41Z</time>
      </trkpt>
      <trkpt lat="45.9143" lon="4.73736">
        <ele>173</ele>
        <time>2017-08-01T14:06:42Z</time>
      </trkpt>
      <trkpt lat="45.91435" lon="4.73736">
        <ele>173</ele>
        <time>2017-08-01T14:06:43Z</time>
      </trkpt>
      <trkpt lat="45.9144" lon="4.73736">
        <ele>173</ele>
        <time>2017-08-01T14:06:44Z</time>
      </trkpt>
      <trkpt lat="45.91445" lon="4.73736">
        <ele>173</ele>
        <time>2017-08-01T14:06:45Z</time>
      </trkpt>
      <trkpt lat="45.9145" lon="4.73736">
        <ele>173</ele>
        <time>2017-08-01T14:06:46Z</time>
      </trkpt>
      <trkpt lat="45.91455" lon="4.73736">
        <ele>173</ele>
        <time>2017-08-01T14:06:47Z</time>
      </trkpt>
      <trkpt lat="45.9146" lon="4.73735">
        <ele>174</ele>
        <time>2017-08-01T14:06:48Z</time>
      </trkpt>
      <trkpt lat="45.91467" lon="4.7373">
        <ele>174</ele>
        <time>2017-08-01T14:06:50Z</time>
      </trkpt>
      <trkpt lat="45.9147" lon="4.73726">
        <ele>174</ele>
        <time>2017-08-01T14:06:51Z</time>
      </trkpt>
      <trkpt lat="45.91471" lon="4.73715">
        <ele>174</ele>
        <time>2017-08-01T14:06:53Z</time>
      </trkpt>
      <trkpt lat="45.9147" lon="4.7371">
        <ele>174</ele>
        <time>2017-08-01T14:06:54Z</time>
      </trkpt>
      <trkpt lat="45.91467" lon="4.73701">
        <ele>174</ele>
        <time>2017-08-01T14:06:56Z</time>
      </trkpt>
      <trkpt lat="45.91465" lon="4.73696">
        <ele>174</ele>
        <time>2017-08-01T14:06:57Z</time>
      </trkpt>
      <trkpt lat="45.91461" lon="4.73685">
        <ele>174</ele>
        <time>2017-08-01T14:06:59Z</time>
      </trkpt>
      <trkpt lat="45.91458" lon="4.73679">
        <ele>174</ele>
        <time>2017-08-01T14:07:00Z</time>
      </trkpt>
      <trkpt lat="45.91453" lon="4.73669">
        <ele>174</ele>
        <time>2017-08-01T14:07:02Z</time>
      </trkpt>
      <trkpt lat="45.91451" lon="4.73664">
        <ele>174</ele>
        <time>2017-08-01T14:07:03Z</time>
      </trkpt>
      <trkpt lat="45.91447" lon="4.73655">
        <ele>174</ele>
        <time>2017-08-01T14:07:05Z</time>
      </trkpt>
      <trkpt lat="45.91446" lon="4.73651">
        <ele>174</ele>
        <time>2017-08-01T14:07:06Z</time>
      </trkpt>
      <trkpt lat="45.91442" lon="4.73642">
        <ele>174</ele>
        <time>2017-08-01T14:07:08Z</time>
      </trkpt>
      <trkpt lat="45.9144" lon="4.73636">
        <ele>174</ele>
        <time>2017-08-01T14:07:09Z</time>
      </trkpt>
      <trkpt lat="45.91437" lon="4.73625">
        <ele>175</ele>
        <time>2017-08-01T14:07:11Z</time>
      </trkpt>
      <trkpt lat="45.91436" lon="4.7362">
        <ele>175</ele>
        <time>2017-08-01T14:07:12Z</time>
      </trkpt>
      <trkpt lat="45.91434" lon="4.73612">
        <ele>175</ele>
        <time>2017-08-01T14:07:14Z</time>
      </trkpt>
      <trkpt lat="45.91433" lon="4.73607">
        <ele>175</ele>
        <time>2017-08-01T14:07:15Z</time>
      </trkpt>
      <trkpt lat="45.91431" lon="4.73596">
        <ele>175</ele>
        <time>2017-08-01T14:07:17Z</time>
      </trkpt>
      <trkpt lat="45.91429" lon="4.73591">
        <ele>175</ele>
        <time>2017-08-01T14:07:18Z</time>
      </trkpt>
      <trkpt lat="45.91428" lon="4.73579">
        <ele>175</ele>
        <time>2017-08-01T14:07:20Z</time>
      </trkpt>
      <trkpt lat="45.91428" lon="4.73573">
        <ele>175</ele>
        <time>2017-08-01T14:07:21Z</time>
      </trkpt>
      <trkpt lat="45.91427" lon="4.73563">
        <ele>175</ele>
        <time>2017-08-01T14:07:23Z</time>
      </trkpt>
      <trkpt lat="45.91426" lon="4.73558">
        <ele>174</ele>
        <time>2017-08-01T14:07:24Z</time>
      </trkpt>
      <trkpt lat="45.91426" lon="4.73552">
        <ele>174</ele>
        <time>2017-08-01T14:07:25Z</time>
      </trkpt>
      <trkpt lat="45.91426" lon="4.73545">
        <ele>174</ele>
        <time>2017-08-01T14:07:26Z</time>
      </trkpt>
      <trkpt lat="45.91426" lon="4.73538">
        <ele>174</ele>
        <time>2017-08-01T14:07:27Z</time>
      </trkpt>
      <trkpt lat="45.91425" lon="4.73532">
        <ele>174</ele>
        <time>2017-08-01T14:07:28Z</time>
      </trkpt>
      <trkpt lat="45.91426" lon="4.7352">
        <ele>174</ele>
        <time>2017-08-01T14:07:30Z</time>
      </trkpt>
      <trkpt lat="45.91426" lon="4.73514">
        <ele>174</ele>
        <time>2017-08-01T14:07:31Z</time>
      </trkpt>
      <trkpt lat="45.91427" lon="4.73503">
        <ele>174</ele>
        <time>2017-08-01T14:07:33Z</time>
      </trkpt>
      <trkpt lat="45.91427" lon="4.73499">
        <ele>174</ele>
        <time>2017-08-01T14:07:34Z</time>
      </trkpt>
      <trkpt lat="45.91426" lon="4.7349">
        <ele>174</ele>
        <time>2017-08-01T14:07:36Z</time>
      </trkpt>
      <trkpt lat="45.91426" lon="4.73486">
        <ele>174</ele>
        <time>2017-08-01T14:07:37Z</time>
      </trkpt>
      <trkpt lat="45.91426" lon="4.73474">
        <ele>174</ele>
        <time>2017-08-01T14:07:40Z</time>
      </trkpt>
      <trkpt lat="45.91426" lon="4.7347">
        <ele>174</ele>
        <time>2017-08-01T14:07:41Z</time>
      </trkpt>
      <trkpt lat="45.91425" lon="4.73461">
        <ele>174</ele>
        <time>2017-08-01T14:07:43Z</time>
      </trkpt>
      <trkpt lat="45.91425" lon="4.73457">
        <ele>174</ele>
        <time>2017-08-01T14:07:44Z</time>
      </trkpt>
      <trkpt lat="45.91423" lon="4.73447">
        <ele>174</ele>
        <time>2017-08-01T14:07:47Z</time>
      </trkpt>
      <trkpt lat="45.91423" lon="4.73443">
        <ele>174</ele>
        <time>2017-08-01T14:07:48Z</time>
      </trkpt>
      <trkpt lat="45.91422" lon="4.73434">
        <ele>174</ele>
        <time>2017-08-01T14:07:51Z</time>
      </trkpt>
      <trkpt lat="45.91422" lon="4.7343">
        <ele>174</ele>
        <time>2017-08-01T14:07:52Z</time>
      </trkpt>
      <trkpt lat="45.91421" lon="4.73419">
        <ele>174</ele>
        <time>2017-08-01T14:07:55Z</time>
      </trkpt>
      <trkpt lat="45.91421" lon="4.73416">
        <ele>174</ele>
        <time>2017-08-01T14:07:56Z</time>
      </trkpt>
      <trkpt lat="45.9142" lon="4.73405">
        <ele>174</ele>
        <time>2017-08-01T14:07:59Z</time>
      </trkpt>
      <trkpt lat="45.9142" lon="4.73402">
        <ele>174</ele>
        <time>2017-08-01T14:08:00Z</time>
      </trkpt>
      <trkpt lat="45.91421" lon="4.73392">
        <ele>174</ele>
        <time>2017-08-01T14:08:03Z</time>
      </trkpt>
      <trkpt lat="45.91423" lon="4.73389">
        <ele>174</ele>
        <time>2017-08-01T14:08:04Z</time>
      </trkpt>
      <trkpt lat="45.91428" lon="4.73382">
        <ele>174</ele>
        <time>2017-08-01T14:08:06Z</time>
      </trkpt>
      <trkpt lat="45.91431" lon="4.7338">
        <ele>174</ele>
        <time>2017-08-01T14:08:07Z</time>
      </trkpt>
      <trkpt lat="45.91437" lon="4.73377">
        <ele>174</ele>
        <time>2017-08-01T14:08:09Z</time>
      </trkpt>
      <trkpt lat="45.9144" lon="4.73376">
        <ele>174</ele>
        <time>2017-08-01T14:08:10Z</time>
      </trkpt>
      <trkpt lat="45.91447" lon="4.73374">
        <ele>174</ele>
        <time>2017-08-01T14:08:12Z</time>
      </trkpt>
      <trkpt lat="45.9145" lon="4.73372">
        <ele>174</ele>
        <time>2017-08-01T14:08:13Z</time>
      </trkpt>
      <trkpt lat="45.91457" lon="4.7337">
        <ele>174</ele>
        <time>2017-08-01T14:08:16Z</time>
      </trkpt>
      <trkpt lat="45.91461" lon="4.73369">
        <ele>174</ele>
        <time>2017-08-01T14:08:17Z</time>
      </trkpt>
      <trkpt lat="45.91467" lon="4.73369">
        <ele>174</ele>
        <time>2017-08-01T14:08:19Z</time>
      </trkpt>
      <trkpt lat="45.9147" lon="4.73368">
        <ele>174</ele>
        <time>2017-08-01T14:08:20Z</time>
      </trkpt>
      <trkpt lat="45.91479" lon="4.73367">
        <ele>174</ele>
        <time>2017-08-01T14:08:23Z</time>
      </trkpt>
      <trkpt lat="45.91482" lon="4.73365">
        <ele>174</ele>
        <time>2017-08-01T14:08:24Z</time>
      </trkpt>
      <trkpt lat="45.9149" lon="4.73364">
        <ele>174</ele>
        <time>2017-08-01T14:08:27Z</time>
      </trkpt>
      <trkpt lat="45.91493" lon="4.73363">
        <ele>174</ele>
        <time>2017-08-01T14:08:28Z</time>
      </trkpt>
      <trkpt lat="45.91499" lon="4.73362">
        <ele>174</ele>
        <time>2017-08-01T14:08:30Z</time>
      </trkpt>
      <trkpt lat="45.91503" lon="4.73361">
        <ele>174</ele>
        <time>2017-08-01T14:08:31Z</time>
      </trkpt>
      <trkpt lat="45.9151" lon="4.73361">
        <ele>174</ele>
        <time>2017-08-01T14:08:33Z</time>
      </trkpt>
      <trkpt lat="45.91513" lon="4.73362">
        <ele>174</ele>
        <time>2017-08-01T14:08:34Z</time>
      </trkpt>
      <trkpt lat="45.91519" lon="4.73369">
        <ele>174</ele>
        <time>2017-08-01T14:08:38Z</time>
      </trkpt>
      <trkpt lat="45.9152" lon="4.73371">
        <ele>174</ele>
        <time>2017-08-01T14:08:39Z</time>
      </trkpt>
      <trkpt lat="45.91523" lon="4.73381">
        <ele>174</ele>
        <time>2017-08-01T14:08:44Z</time>
      </trkpt>
      <trkpt lat="45.91525" lon="4.73382">
        <ele>174</ele>
        <time>2017-08-01T14:08:45Z</time>
      </trkpt>
      <trkpt lat="45.91533" lon="4.73384">
        <ele>174</ele>
        <time>2017-08-01T14:08:48Z</time>
      </trkpt>
      <trkpt lat="45.91536" lon="4.73383">
        <ele>174</ele>
        <time>2017-08-01T14:08:49Z</time>
      </trkpt>
      <trkpt lat="45.91544" lon="4.73382">
        <ele>174</ele>
        <time>2017-08-01T14:08:52Z</time>
      </trkpt>
      <trkpt lat="45.91547" lon="4.73382">
        <ele>174</ele>
        <time>2017-08-01T14:08:53Z</time>
      </trkpt>
      <trkpt lat="45.91554" lon="4.73381">
        <ele>174</ele>
        <time>2017-08-01T14:08:55Z</time>
      </trkpt>
      <trkpt lat="45.91557" lon="4.73381">
        <ele>174</ele>
        <time>2017-08-01T14:08:56Z</time>
      </trkpt>
      <trkpt lat="45.91564" lon="4.7338">
        <ele>174</ele>
        <time>2017-08-01T14:08:59Z</time>
      </trkpt>
      <trkpt lat="45.91566" lon="4.73379">
        <ele>174</ele>
        <time>2017-08-01T14:09:00Z</time>
      </trkpt>
      <trkpt lat="45.91572" lon="4.73378">
        <ele>174</ele>
        <time>2017-08-01T14:09:02Z</time>
      </trkpt>
      <trkpt lat="45.91575" lon="4.73377">
        <ele>174</ele>
        <time>2017-08-01T14:09:03Z</time>
      </trkpt>
      <trkpt lat="45.91583" lon="4.73375">
        <ele>174</ele>
        <time>2017-08-01T14:09:06Z</time>
      </trkpt>
      <trkpt lat="45.91585" lon="4.73374">
        <ele>173</ele>
        <time>2017-08-01T14:09:07Z</time>
      </trkpt>
      <trkpt lat="45.91592" lon="4.73373">
        <ele>173</ele>
        <time>2017-08-01T14:09:09Z</time>
      </trkpt>
      <trkpt lat="45.91597" lon="4.73372">
        <ele>173</ele>
        <time>2017-08-01T14:09:10Z</time>
      </trkpt>
      <trkpt lat="45.91604" lon="4.73371">
        <ele>173</ele>
        <time>2017-08-01T14:09:12Z</time>
      </trkpt>
      <trkpt lat="45.91607" lon="4.73371">
        <ele>173</ele>
        <time>2017-08-01T14:09:13Z</time>
      </trkpt>
      <trkpt lat="45.91613" lon="4.73371">
        <ele>173</ele>
        <time>2017-08-01T14:09:15Z</time>
      </trkpt>
      <trkpt lat="45.91617" lon="4.73371">
        <ele>173</ele>
        <time>2017-08-01T14:09:16Z</time>
      </trkpt>
      <trkpt lat="45.91624" lon="4.7337">
        <ele>173</ele>
        <time>2017-08-01T14:09:18Z</time>
      </trkpt>
      <trkpt lat="45.91627" lon="4.73369">
        <ele>173</ele>
        <time>2017-08-01T14:09:19Z</time>
      </trkpt>
      <trkpt lat="45.91636" lon="4.73367">
        <ele>173</ele>
        <time>2017-08-01T14:09:22Z</time>
      </trkpt>
      <trkpt lat="45.91638" lon="4.73367">
        <ele>173</ele>
        <time>2017-08-01T14:09:23Z</time>
      </trkpt>
      <trkpt lat="45.91644" lon="4.73374">
        <ele>173</ele>
        <time>2017-08-01T14:09:27Z</time>
      </trkpt>
      <trkpt lat="45.91645" lon="4.73376">
        <ele>173</ele>
        <time>2017-08-01T14:09:28Z</time>
      </trkpt>
      <trkpt lat="45.91651" lon="4.73385">
        <ele>173</ele>
        <time>2017-08-01T14:09:33Z</time>
      </trkpt>
      <trkpt lat="45.91652" lon="4.73387">
        <ele>173</ele>
        <time>2017-08-01T14:09:34Z</time>
      </trkpt>
      <trkpt lat="45.91657" lon="4.73395">
        <ele>173</ele>
        <time>2017-08-01T14:09:37Z</time>
      </trkpt>
      <trkpt lat="45.91659" lon="4.73398">
        <ele>173</ele>
        <time>2017-08-01T14:09:38Z</time>
      </trkpt>
      <trkpt lat="45.91665" lon="4.73407">
        <ele>173</ele>
        <time>2017-08-01T14:09:41Z</time>
      </trkpt>
      <trkpt lat="45.91666" lon="4.73411">
        <ele>173</ele>
        <time>2017-08-01T14:09:42Z</time>
      </trkpt>
      <trkpt lat="45.91673" lon="4.7342">
        <ele>173</ele>
        <time>2017-08-01T14:09:45Z</time>
      </trkpt>
      <trkpt lat="45.91674" lon="4.73422">
        <ele>173</ele>
        <time>2017-08-01T14:09:46Z</time>
      </trkpt>
      <trkpt lat="45.91679" lon="4.73429">
        <ele>173</ele>
        <time>2017-08-01T14:09:49Z</time>
      </trkpt>
      <trkpt lat="45.91681" lon="4.73432">
        <ele>173</ele>
        <time>2017-08-01T14:09:50Z</time>
      </trkpt>
      <trkpt lat="45.91683" lon="4.7344">
        <ele>173</ele>
        <time>2017-08-01T14:09:52Z</time>
      </trkpt>
      <trkpt lat="45.91684" lon="4.73445">
        <ele>173</ele>
        <time>2017-08-01T14:09:53Z</time>
      </trkpt>
      <trkpt lat="45.91687" lon="4.73455">
        <ele>173</ele>
        <time>2017-08-01T14:09:56Z</time>
      </trkpt>
      <trkpt lat="45.91689" lon="4.73457">
        <ele>173</ele>
        <time>2017-08-01T14:09:57Z</time>
      </trkpt>
      <trkpt lat="45.91697" lon="4.7346">
        <ele>173</ele>
        <time>2017-08-01T14:10:00Z</time>
      </trkpt>
      <trkpt lat="45.917" lon="4.73459">
        <ele>173</ele>
        <time>2017-08-01T14:10:01Z</time>
      </trkpt>
      <trkpt lat="45.91705" lon="4.73453">
        <ele>173</ele>
        <time>2017-08-01T14:10:03Z</time>
      </trkpt>
      <trkpt lat="45.91707" lon="4.7345">
        <ele>173</ele>
        <time>2017-08-01T14:10:04Z</time>
      </trkpt>
      <trkpt lat="45.91714" lon="4.73446">
        <ele>174</ele>
        <time>2017-08-01T14:10:07Z</time>
      </trkpt>
      <trkpt lat="45.91716" lon="4.73444">
        <ele>174</ele>
        <time>2017-08-01T14:10:08Z</time>
      </trkpt>
      <trkpt lat="45.91724" lon="4.7344">
        <ele>174</ele>
        <time>2017-08-01T14:10:11Z</time>
      </trkpt>
      <trkpt lat="45.91726" lon="4.73439">
        <ele>174</ele>
        <time>2017-08-01T14:10:12Z</time>
      </trkpt>
      <trkpt lat="45.91733" lon="4.73436">
        <ele>174</ele>
        <time>2017-08-01T14:10:15Z</time>
      </trkpt>
      <trkpt lat="45.91736" lon="4.73436">
        <ele>174</ele>
        <time>2017-08-01T14:10:16Z</time>
      </trkpt>
      <trkpt lat="45.91744" lon="4.73434">
        <ele>174</ele>
        <time>2017-08-01T14:10:19Z</time>
      </trkpt>
      <trkpt lat="45.91747" lon="4.73434">
        <ele>174</ele>
        <time>2017-08-01T14:10:20Z</time>
      </trkpt>
      <trkpt lat="45.91756" lon="4.73434">
        <ele>174</ele>
        <time>2017-08-01T14:10:23Z</time>
      </trkpt>
      <trkpt lat="45.91758" lon="4.73434">
        <ele>174</ele>
        <time>2017-08-01T14:10:24Z</time>
      </trkpt>
      <trkpt lat="45.91766" lon="4.73436">
        <ele>174</ele>
        <time>2017-08-01T14:10:27Z</time>
      </trkpt>
      <trkpt lat="45.91769" lon="4.73436">
        <ele>174</ele>
        <time>2017-08-01T14:10:28Z</time>
      </trkpt>
      <trkpt lat="45.91775" lon="4.73438">
        <ele>174</ele>
        <time>2017-08-01T14:10:30Z</time>
      </trkpt>
      <trkpt lat="45.91778" lon="4.73439">
        <ele>174</ele>
        <time>2017-08-01T14:10:31Z</time>
      </trkpt>
      <trkpt lat="45.91786" lon="4.7344">
        <ele>174</ele>
        <time>2017-08-01T14:10:33Z</time>
      </trkpt>
      <trkpt lat="45.91789" lon="4.73441">
        <ele>174</ele>
        <time>2017-08-01T14:10:34Z</time>
      </trkpt>
      <trkpt lat="45.91797" lon="4.73446">
        <ele>173</ele>
        <time>2017-08-01T14:10:37Z</time>
      </trkpt>
      <trkpt lat="45.918" lon="4.73447">
        <ele>173</ele>
        <time>2017-08-01T14:10:38Z</time>
      </trkpt>
      <trkpt lat="45.91806" lon="4.73451">
        <ele>173</ele>
        <time>2017-08-01T14:10:40Z</time>
      </trkpt>
      <trkpt lat="45.91809" lon="4.73453">
        <ele>173</ele>
        <time>2017-08-01T14:10:41Z</time>
      </trkpt>
      <trkpt lat="45.91815" lon="4.73458">
        <ele>173</ele>
        <time>2017-08-01T14:10:43Z</time>
      </trkpt>
      <trkpt lat="45.91818" lon="4.7346">
        <ele>173</ele>
        <time>2017-08-01T14:10:44Z</time>
      </trkpt>
      <trkpt lat="45.91824" lon="4.73469">
        <ele>173</ele>
        <time>2017-08-01T14:10:47Z</time>
      </trkpt>
      <trkpt lat="45.91826" lon="4.73472">
        <ele>173</ele>
        <time>2017-08-01T14:10:48Z</time>
      </trkpt>
      <trkpt lat="45.91831" lon="4.73479">
        <ele>173</ele>
        <time>2017-08-01T14:10:50Z</time>
      </trkpt>
      <trkpt lat="45.91834" lon="4.73483">
        <ele>173</ele>
        <time>2017-08-01T14:10:51Z</time>
      </trkpt>
      <trkpt lat="45.91839" lon="4.73489">
        <ele>173</ele>
        <time>2017-08-01T14:10:53Z</time>
      </trkpt>
      <trkpt lat="45.91842" lon="4.73493">
        <ele>173</ele>
        <time>2017-08-01T14:10:54Z</time>
      </trkpt>
      <trkpt lat="45.91848" lon="4.735">
        <ele>173</ele>
        <time>2017-08-01T14:10:56Z</time>
      </trkpt>
      <trkpt lat="45.9185" lon="4.73504">
        <ele>173</ele>
        <time>2017-08-01T14:10:57Z</time>
      </trkpt>
      <trkpt lat="45.91855" lon="4.73511">
        <ele>173</ele>
        <time>2017-08-01T14:10:59Z</time>
      </trkpt>
      <trkpt lat="45.91858" lon="4.73515">
        <ele>173</ele>
        <time>2017-08-01T14:11:00Z</time>
      </trkpt>
      <trkpt lat="45.91862" lon="4.73523">
        <ele>173</ele>
        <time>2017-08-01T14:11:02Z</time>
      </trkpt>
      <trkpt lat="45.91864" lon="4.73526">
        <ele>173</ele>
        <time>2017-08-01T14:11:03Z</time>
      </trkpt>
      <trkpt lat="45.91868" lon="4.73534">
        <ele>173</ele>
        <time>2017-08-01T14:11:05Z</time>
      </trkpt>
      <trkpt lat="45.91869" lon="4.73537">
        <ele>173</ele>
        <time>2017-08-01T14:11:06Z</time>
      </trkpt>
      <trkpt lat="45.91874" lon="4.73546">
        <ele>173</ele>
        <time>2017-08-01T14:11:09Z</time>
      </trkpt>
      <trkpt lat="45.91875" lon="4.7355">
        <ele>173</ele>
        <time>2017-08-01T14:11:10Z</time>
      </trkpt>
      <trkpt lat="45.91879" lon="4.73558">
        <ele>173</ele>
        <time>2017-08-01T14:11:12Z</time>
      </trkpt>
      <trkpt lat="45.91881" lon="4.73562">
        <ele>173</ele>
        <time>2017-08-01T14:11:13Z</time>
      </trkpt>
      <trkpt lat="45.91884" lon="4.73571">
        <ele>173</ele>
        <time>2017-08-01T14:11:15Z</time>
      </trkpt>
      <trkpt lat="45.91885" lon="4.73575">
        <ele>173</ele>
        <time>2017-08-01T14:11:16Z</time>
      </trkpt>
      <trkpt lat="45.91889" lon="4.73583">
        <ele>173</ele>
        <time>2017-08-01T14:11:18Z</time>
      </trkpt>
      <trkpt lat="45.9189" lon="4.73587">
        <ele>173</ele>
        <time>2017-08-01T14:11:19Z</time>
      </trkpt>
      <trkpt lat="45.91894" lon="4.73595">
        <ele>173</ele>
        <time>2017-08-01T14:11:21Z</time>
      </trkpt>
      <trkpt lat="45.91896" lon="4.73599">
        <ele>173</ele>
        <time>2017-08-01T14:11:22Z</time>
      </trkpt>
      <trkpt lat="45.919" lon="4.73607">
        <ele>172</ele>
        <time>2017-08-01T14:11:24Z</time>
      </trkpt>
      <trkpt lat="45.91902" lon="4.73611">
        <ele>172</ele>
        <time>2017-08-01T14:11:25Z</time>
      </trkpt>
      <trkpt lat="45.91907" lon="4.73621">
        <ele>172</ele>
        <time>2017-08-01T14:11:28Z</time>
      </trkpt>
      <trkpt lat="45.91909" lon="4.73624">
        <ele>172</ele>
        <time>2017-08-01T14:11:29Z</time>
      </trkpt>
      <trkpt lat="45.91913" lon="4.73632">
        <ele>172</ele>
        <time>2017-08-01T14:11:31Z</time>
      </trkpt>
      <trkpt lat="45.91916" lon="4.73635">
        <ele>172</ele>
        <time>2017-08-01T14:11:32Z</time>
      </trkpt>
      <trkpt lat="45.91922" lon="4.73642">
        <ele>171</ele>
        <time>2017-08-01T14:11:34Z</time>
      </trkpt>
      <trkpt lat="45.91924" lon="4.73644">
        <ele>171</ele>
        <time>2017-08-01T14:11:35Z</time>
      </trkpt>
      <trkpt lat="45.91932" lon="4.7365">
        <ele>171</ele>
        <time>2017-08-01T14:11:38Z</time>
      </trkpt>
      <trkpt lat="45.91934" lon="4.73652">
        <ele>171</ele>
        <time>2017-08-01T14:11:39Z</time>
      </trkpt>
      <trkpt lat="45.9194" lon="4.73655">
        <ele>171</ele>
        <time>2017-08-01T14:11:41Z</time>
      </trkpt>
      <trkpt lat="45.91943" lon="4.73657">
        <ele>171</ele>
        <time>2017-08-01T14:11:42Z</time>
      </trkpt>
      <trkpt lat="45.91949" lon="4.7366">
        <ele>171</ele>
        <time>2017-08-01T14:11:44Z</time>
      </trkpt>
      <trkpt lat="45.91953" lon="4.73661">
        <ele>171</ele>
        <time>2017-08-01T14:11:45Z</time>
      </trkpt>
      <trkpt lat="45.91959" lon="4.73665">
        <ele>171</ele>
        <time>2017-08-01T14:11:47Z</time>
      </trkpt>
      <trkpt lat="45.91962" lon="4.73666">
        <ele>171</ele>
        <time>2017-08-01T14:11:48Z</time>
      </trkpt>
      <trkpt lat="45.91971" lon="4.73669">
        <ele>170</ele>
        <time>2017-08-01T14:11:51Z</time>
      </trkpt>
      <trkpt lat="45.91974" lon="4.7367">
        <ele>170</ele>
        <time>2017-08-01T14:11:52Z</time>
      </trkpt>
      <trkpt lat="45.91981" lon="4.73671">
        <ele>170</ele>
        <time>2017-08-01T14:11:54Z</time>
      </trkpt>
      <trkpt lat="45.91984" lon="4.73671">
        <ele>170</ele>
        <time>2017-08-01T14:11:55Z</time>
      </trkpt>
      <trkpt lat="45.91993" lon="4.7367">
        <ele>170</ele>
        <time>2017-08-01T14:11:58Z</time>
      </trkpt>
      <trkpt lat="45.91996" lon="4.7367">
        <ele>170</ele>
        <time>2017-08-01T14:11:59Z</time>
      </trkpt>
      <trkpt lat="45.92003" lon="4.73669">
        <ele>170</ele>
        <time>2017-08-01T14:12:01Z</time>
      </trkpt>
      <trkpt lat="45.92006" lon="4.73668">
        <ele>170</ele>
        <time>2017-08-01T14:12:02Z</time>
      </trkpt>
      <trkpt lat="45.92013" lon="4.73667">
        <ele>170</ele>
        <time>2017-08-01T14:12:04Z</time>
      </trkpt>
      <trkpt lat="45.92017" lon="4.73666">
        <ele>170</ele>
        <time>2017-08-01T14:12:05Z</time>
      </trkpt>
      <trkpt lat="45.92024" lon="4.73663">
        <ele>170</ele>
        <time>2017-08-01T14:12:07Z</time>
      </trkpt>
      <trkpt lat="45.92028" lon="4.73661">
        <ele>170</ele>
        <time>2017-08-01T14:12:08Z</time>
      </trkpt>
      <trkpt lat="45.92035" lon="4.73655">
        <ele>170</ele>
        <time>2017-08-01T14:12:10Z</time>
      </trkpt>
      <trkpt lat="45.92038" lon="4.73652">
        <ele>170</ele>
        <time>2017-08-01T14:12:11Z</time>
      </trkpt>
      <trkpt lat="45.92044" lon="4.73647">
        <ele>170</ele>
        <time>2017-08-01T14:12:13Z</time>
      </trkpt>
      <trkpt lat="45.92047" lon="4.73645">
        <ele>170</ele>
        <time>2017-08-01T14:12:14Z</time>
      </trkpt>
      <trkpt lat="45.92053" lon="4.73639">
        <ele>170</ele>
        <time>2017-08-01T14:12:16Z</time>
      </trkpt>
      <trkpt lat="45.92056" lon="4.73636">
        <ele>170</ele>
        <time>2017-08-01T14:12:17Z</time>
      </trkpt>
      <trkpt lat="45.92061" lon="4.73631">
        <ele>170</ele>
        <time>2017-08-01T14:12:19Z</time>
      </trkpt>
      <trkpt lat="45.92063" lon="4.73629">
        <ele>170</ele>
        <time>2017-08-01T14:12:20Z</time>
      </trkpt>
      <trkpt lat="45.92071" lon="4.73623">
        <ele>170</ele>
        <time>2017-08-01T14:12:23Z</time>
      </trkpt>
      <trkpt lat="45.92074" lon="4.73621">
        <ele>170</ele>
        <time>2017-08-01T14:12:24Z</time>
      </trkpt>
      <trkpt lat="45.9208" lon="4.73616">
        <ele>170</ele>
        <time>2017-08-01T14:12:26Z</time>
      </trkpt>
      <trkpt lat="45.92084" lon="4.73614">
        <ele>171</ele>
        <time>2017-08-01T14:12:27Z</time>
      </trkpt>
      <trkpt lat="45.92091" lon="4.7361">
        <ele>171</ele>
        <time>2017-08-01T14:12:29Z</time>
      </trkpt>
      <trkpt lat="45.92093" lon="4.73608">
        <ele>171</ele>
        <time>2017-08-01T14:12:30Z</time>
      </trkpt>
      <trkpt lat="45.92099" lon="4.73605">
        <ele>171</ele>
        <time>2017-08-01T14:12:32Z</time>
      </trkpt>
      <trkpt lat="45.92102" lon="4.73603">
        <ele>171</ele>
        <time>2017-08-01T14:12:33Z</time>
      </trkpt>
      <trkpt lat="45.92109" lon="4.736">
        <ele>171</ele>
        <time>2017-08-01T14:12:35Z</time>
      </trkpt>
      <trkpt lat="45.92112" lon="4.73599">
        <ele>171</ele>
        <time>2017-08-01T14:12:36Z</time>
      </trkpt>
      <trkpt lat="45.92118" lon="4.73596">
        <ele>171</ele>
        <time>2017-08-01T14:12:38Z</time>
      </trkpt>
      <trkpt lat="45.92121" lon="4.73595">
        <ele>171</ele>
        <time>2017-08-01T14:12:39Z</time>
      </trkpt>
      <trkpt lat="45.92126" lon="4.73592">
        <ele>171</ele>
        <time>2017-08-01T14:12:41Z</time>
      </trkpt>
      <trkpt lat="45.9213" lon="4.7359">
        <ele>171</ele>
        <time>2017-08-01T14:12:42Z</time>
      </trkpt>
      <trkpt lat="45.92137" lon="4.73587">
        <ele>171</ele>
        <time>2017-08-01T14:12:44Z</time>
      </trkpt>
      <trkpt lat="45.92141" lon="4.73585">
        <ele>171</ele>
        <time>2017-08-01T14:12:45Z</time>
      </trkpt>
      <trkpt lat="45.92148" lon="4.73581">
        <ele>171</ele>
        <time>2017-08-01T14:12:47Z</time>
      </trkpt>
      <trkpt lat="45.92152" lon="4.7358">
        <ele>171</ele>
        <time>2017-08-01T14:12:48Z</time>
      </trkpt>
      <trkpt lat="45.92158" lon="4.73577">
        <ele>171</ele>
        <time>2017-08-01T14:12:50Z</time>
      </trkpt>
      <trkpt lat="45.92161" lon="4.73576">
        <ele>171</ele>
        <time>2017-08-01T14:12:51Z</time>
      </trkpt>
      <trkpt lat="45.92167" lon="4.73573">
        <ele>171</ele>
        <time>2017-08-01T14:12:53Z</time>
      </trkpt>
      <trkpt lat="45.9217" lon="4.73571">
        <ele>171</ele>
        <time>2017-08-01T14:12:54Z</time>
      </trkpt>
      <trkpt lat="45.92178" lon="4.73568">
        <ele>171</ele>
        <time>2017-08-01T14:12:56Z</time>
      </trkpt>
      <trkpt lat="45.92181" lon="4.73566">
        <ele>171</ele>
        <time>2017-08-01T14:12:57Z</time>
      </trkpt>
      <trkpt lat="45.92189" lon="4.73563">
        <ele>171</ele>
        <time>2017-08-01T14:13:00Z</time>
      </trkpt>
      <trkpt lat="45.92192" lon="4.73561">
        <ele>171</ele>
        <time>2017-08-01T14:13:01Z</time>
      </trkpt>
      <trkpt lat="45.92199" lon="4.73558">
        <ele>171</ele>
        <time>2017-08-01T14:13:03Z</time>
      </trkpt>
      <trkpt lat="45.92202" lon="4.73556">
        <ele>171</ele>
        <time>2017-08-01T14:13:04Z</time>
      </trkpt>
      <trkpt lat="45.92211" lon="4.73553">
        <ele>171</ele>
        <time>2017-08-01T14:13:06Z</time>
      </trkpt>
      <trkpt lat="45.92215" lon="4.7355">
        <ele>171</ele>
        <time>2017-08-01T14:13:07Z</time>
      </trkpt>
      <trkpt lat="45.92223" lon="4.73546">
        <ele>171</ele>
        <time>2017-08-01T14:13:09Z</time>
      </trkpt>
      <trkpt lat="45.92226" lon="4.73544">
        <ele>171</ele>
        <time>2017-08-01T14:13:10Z</time>
      </trkpt>
      <trkpt lat="45.92233" lon="4.7354">
        <ele>171</ele>
        <time>2017-08-01T14:13:12Z</time>
      </trkpt>
      <trkpt lat="45.92236" lon="4.73539">
        <ele>171</ele>
        <time>2017-08-01T14:13:13Z</time>
      </trkpt>
      <trkpt lat="45.92241" lon="4.73536">
        <ele>171</ele>
        <time>2017-08-01T14:13:15Z</time>
      </trkpt>
      <trkpt lat="45.92245" lon="4.73534">
        <ele>171</ele>
        <time>2017-08-01T14:13:16Z</time>
      </trkpt>
      <trkpt lat="45.92251" lon="4.73531">
        <ele>171</ele>
        <time>2017-08-01T14:13:18Z</time>
      </trkpt>
      <trkpt lat="45.92254" lon="4.73529">
        <ele>171</ele>
        <time>2017-08-01T14:13:19Z</time>
      </trkpt>
      <trkpt lat="45.92259" lon="4.73527">
        <ele>171</ele>
        <time>2017-08-01T14:13:21Z</time>
      </trkpt>
      <trkpt lat="45.92262" lon="4.73526">
        <ele>171</ele>
        <time>2017-08-01T14:13:22Z</time>
      </trkpt>
      <trkpt lat="45.92269" lon="4.73522">
        <ele>171</ele>
        <time>2017-08-01T14:13:24Z</time>
      </trkpt>
      <trkpt lat="45.92272" lon="4.7352">
        <ele>171</ele>
        <time>2017-08-01T14:13:25Z</time>
      </trkpt>
      <trkpt lat="45.92278" lon="4.73515">
        <ele>171</ele>
        <time>2017-08-01T14:13:27Z</time>
      </trkpt>
      <trkpt lat="45.92281" lon="4.73513">
        <ele>171</ele>
        <time>2017-08-01T14:13:28Z</time>
      </trkpt>
      <trkpt lat="45.92287" lon="4.73509">
        <ele>171</ele>
        <time>2017-08-01T14:13:30Z</time>
      </trkpt>
      <trkpt lat="45.9229" lon="4.73507">
        <ele>171</ele>
        <time>2017-08-01T14:13:31Z</time>
      </trkpt>
      <trkpt lat="45.92296" lon="4.73504">
        <ele>171</ele>
        <time>2017-08-01T14:13:33Z</time>
      </trkpt>
      <trkpt lat="45.92299" lon="4.73503">
        <ele>171</ele>
        <time>2017-08-01T14:13:34Z</time>
      </trkpt>
      <trkpt lat="45.92305" lon="4.735">
        <ele>171</ele>
        <time>2017-08-01T14:13:36Z</time>
      </trkpt>
      <trkpt lat="45.92309" lon="4.73498">
        <ele>171</ele>
        <time>2017-08-01T14:13:37Z</time>
      </trkpt>
      <trkpt lat="45.92317" lon="4.73495">
        <ele>171</ele>
        <time>2017-08-01T14:13:39Z</time>
      </trkpt>
      <trkpt lat="45.9232" lon="4.73493">
        <ele>171</ele>
        <time>2017-08-01T14:13:40Z</time>
      </trkpt>
      <trkpt lat="45.92328" lon="4.73489">
        <ele>171</ele>
        <time>2017-08-01T14:13:42Z</time>
      </trkpt>
      <trkpt lat="45.92331" lon="4.73487">
        <ele>171</ele>
        <time>2017-08-01T14:13:43Z</time>
      </trkpt>
      <trkpt lat="45.92338" lon="4.73483">
        <ele>171</ele>
        <time>2017-08-01T14:13:45Z</time>
      </trkpt>
      <trkpt lat="45.92341" lon="4.73481">
        <ele>171</ele>
        <time>2017-08-01T14:13:46Z</time>
      </trkpt>
      <trkpt lat="45.92347" lon="4.73477">
        <ele>171</ele>
        <time>2017-08-01T14:13:48Z</time>
      </trkpt>
      <trkpt lat="45.92349" lon="4.73475">
        <ele>172</ele>
        <time>2017-08-01T14:13:49Z</time>
      </trkpt>
      <trkpt lat="45.92357" lon="4.73469">
        <ele>172</ele>
        <time>2017-08-01T14:13:52Z</time>
      </trkpt>
      <trkpt lat="45.9236" lon="4.73467">
        <ele>172</ele>
        <time>2017-08-01T14:13:53Z</time>
      </trkpt>
      <trkpt lat="45.92367" lon="4.73462">
        <ele>172</ele>
        <time>2017-08-01T14:13:55Z</time>
      </trkpt>
      <trkpt lat="45.9237" lon="4.7346">
        <ele>172</ele>
        <time>2017-08-01T14:13:56Z</time>
      </trkpt>
      <trkpt lat="45.92376" lon="4.73455">
        <ele>172</ele>
        <time>2017-08-01T14:13:58Z</time>
      </trkpt>
      <trkpt lat="45.92379" lon="4.73453">
        <ele>172</ele>
        <time>2017-08-01T14:13:59Z</time>
      </trkpt>
      <trkpt lat="45.92384" lon="4.73449">
        <ele>172</ele>
        <time>2017-08-01T14:14:01Z</time>
      </trkpt>
      <trkpt lat="45.92387" lon="4.73447">
        <ele>172</ele>
        <time>2017-08-01T14:14:02Z</time>
      </trkpt>
      <trkpt lat="45.92392" lon="4.73444">
        <ele>172</ele>
        <time>2017-08-01T14:14:04Z</time>
      </trkpt>
      <trkpt lat="45.92396" lon="4.73442">
        <ele>172</ele>
        <time>2017-08-01T14:14:05Z</time>
      </trkpt>
      <trkpt lat="45.92403" lon="4.73438">
        <ele>172</ele>
        <time>2017-08-01T14:14:07Z</time>
      </trkpt>
      <trkpt lat="45.92407" lon="4.73436">
        <ele>172</ele>
        <time>2017-08-01T14:14:08Z</time>
      </trkpt>
      <trkpt lat="45.92415" lon="4.73431">
        <ele>172</ele>
        <time>2017-08-01T14:14:11Z</time>
      </trkpt>
      <trkpt lat="45.92418" lon="4.73429">
        <ele>172</ele>
        <time>2017-08-01T14:14:12Z</time>
      </trkpt>
      <trkpt lat="45.92424" lon="4.73425">
        <ele>172</ele>
        <time>2017-08-01T14:14:14Z</time>
      </trkpt>
      <trkpt lat="45.92426" lon="4.73423">
        <ele>172</ele>
        <time>2017-08-01T14:14:15Z</time>
      </trkpt>
      <trkpt lat="45.92434" lon="4.73417">
        <ele>172</ele>
        <time>2017-08-01T14:14:18Z</time>
      </trkpt>
      <trkpt lat="45.92437" lon="4.73416">
        <ele>172</ele>
        <time>2017-08-01T14:14:19Z</time>
      </trkpt>
      <trkpt lat="45.92445" lon="4.73415">
        <ele>172</ele>
        <time>2017-08-01T14:14:22Z</time>
      </trkpt>
      <trkpt lat="45.92448" lon="4.73417">
        <ele>173</ele>
        <time>2017-08-01T14:14:23Z</time>
      </trkpt>
      <trkpt lat="45.92455" lon="4.73424">
        <ele>173</ele>
        <time>2017-08-01T14:14:26Z</time>
      </trkpt>
      <trkpt lat="45.92457" lon="4.73426">
        <ele>173</ele>
        <time>2017-08-01T14:14:27Z</time>
      </trkpt>
      <trkpt lat="45.92462" lon="4.73434">
        <ele>173</ele>
        <time>2017-08-01T14:14:29Z</time>
      </trkpt>
      <trkpt lat="45.92464" lon="4.73439">
        <ele>173</ele>
        <time>2017-08-01T14:14:30Z</time>
      </trkpt>
      <trkpt lat="45.92465" lon="4.73448">
        <ele>173</ele>
        <time>2017-08-01T14:14:32Z</time>
      </trkpt>
      <trkpt lat="45.92466" lon="4.73452">
        <ele>173</ele>
        <time>2017-08-01T14:14:33Z</time>
      </trkpt>
      <trkpt lat="45.92468" lon="4.73464">
        <ele>173</ele>
        <time>2017-08-01T14:14:36Z</time>
      </trkpt>
      <trkpt lat="45.92468" lon="4.73469">
        <ele>173</ele>
        <time>2017-08-01T14:14:37Z</time>
      </trkpt>
      <trkpt lat="45.92468" lon="4.7348">
        <ele>173</ele>
        <time>2017-08-01T14:14:39Z</time>
      </trkpt>
      <trkpt lat="45.92468" lon="4.73485">
        <ele>173</ele>
        <time>2017-08-01T14:14:40Z</time>
      </trkpt>
      <trkpt lat="45.92468" lon="4.73495">
        <ele>173</ele>
        <time>2017-08-01T14:14:42Z</time>
      </trkpt>
      <trkpt lat="45.92468" lon="4.735">
        <ele>173</ele>
        <time>2017-08-01T14:14:43Z</time>
      </trkpt>
      <trkpt lat="45.92468" lon="4.73512">
        <ele>174</ele>
        <time>2017-08-01T14:14:46Z</time>
      </trkpt>
      <trkpt lat="45.92468" lon="4.73516">
        <ele>174</ele>
        <time>2017-08-01T14:14:47Z</time>
      </trkpt>
      <trkpt lat="45.92468" lon="4.73525">
        <ele>174</ele>
        <time>2017-08-01T14:14:49Z</time>
      </trkpt>
      <trkpt lat="45.92467" lon="4.73529">
        <ele>174</ele>
        <time>2017-08-01T14:14:50Z</time>
      </trkpt>
      <trkpt lat="45.92468" lon="4.73541">
        <ele>174</ele>
        <time>2017-08-01T14:14:53Z</time>
      </trkpt>
      <trkpt lat="45.92468" lon="4.73545">
        <ele>173</ele>
        <time>2017-08-01T14:14:54Z</time>
      </trkpt>
      <trkpt lat="45.92468" lon="4.73554">
        <ele>173</ele>
        <time>2017-08-01T14:14:56Z</time>
      </trkpt>
      <trkpt lat="45.92469" lon="4.7356">
        <ele>173</ele>
        <time>2017-08-01T14:14:57Z</time>
      </trkpt>
      <trkpt lat="45.92469" lon="4.73572">
        <ele>173</ele>
        <time>2017-08-01T14:14:59Z</time>
      </trkpt>
      <trkpt lat="45.92469" lon="4.73578">
        <ele>173</ele>
        <time>2017-08-01T14:15:00Z</time>
      </trkpt>
      <trkpt lat="45.92469" lon="4.73591">
        <ele>174</ele>
        <time>2017-08-01T14:15:02Z</time>
      </trkpt>
      <trkpt lat="45.92469" lon="4.73597">
        <ele>174</ele>
        <time>2017-08-01T14:15:03Z</time>
      </trkpt>
      <trkpt lat="45.92469" lon="4.73609">
        <ele>174</ele>
        <time>2017-08-01T14:15:05Z</time>
      </trkpt>
      <trkpt lat="45.92469" lon="4.73615">
        <ele>174</ele>
        <time>2017-08-01T14:15:06Z</time>
      </trkpt>
      <trkpt lat="45.92469" lon="4.73626">
        <ele>174</ele>
        <time>2017-08-01T14:15:08Z</time>
      </trkpt>
      <trkpt lat="45.92469" lon="4.73632">
        <ele>174</ele>
        <time>2017-08-01T14:15:09Z</time>
      </trkpt>
      <trkpt lat="45.92468" lon="4.73642">
        <ele>174</ele>
        <time>2017-08-01T14:15:11Z</time>
      </trkpt>
      <trkpt lat="45.92467" lon="4.73647">
        <ele>174</ele>
        <time>2017-08-01T14:15:12Z</time>
      </trkpt>
      <trkpt lat="45.92467" lon="4.7366">
        <ele>174</ele>
        <time>2017-08-01T14:15:15Z</time>
      </trkpt>
      <trkpt lat="45.92466" lon="4.73663">
        <ele>174</ele>
        <time>2017-08-01T14:15:16Z</time>
      </trkpt>
      <trkpt lat="45.92464" lon="4.73675">
        <ele>174</ele>
        <time>2017-08-01T14:15:19Z</time>
      </trkpt>
      <trkpt lat="45.92464" lon="4.73678">
        <ele>174</ele>
        <time>2017-08-01T14:15:20Z</time>
      </trkpt>
      <trkpt lat="45.92463" lon="4.7369">
        <ele>174</ele>
        <time>2017-08-01T14:15:23Z</time>
      </trkpt>
      <trkpt lat="45.92463" lon="4.73694">
        <ele>174</ele>
        <time>2017-08-01T14:15:24Z</time>
      </trkpt>
      <trkpt lat="45.92463" lon="4.737">
        <ele>174</ele>
        <time>2017-08-01T14:15:26Z</time>
      </trkpt>
      <trkpt lat="45.92463" lon="4.73703">
        <ele>174</ele>
        <time>2017-08-01T14:15:27Z</time>
      </trkpt>
      <trkpt lat="45.92464" lon="4.73707">
        <ele>174</ele>
        <time>2017-08-01T14:15:37Z</time>
      </trkpt>
      <trkpt lat="45.92464" lon="4.73707">
        <ele>174</ele>
        <time>2017-08-01T14:15:38Z</time>
      </trkpt>
      <trkpt lat="45.92458" lon="4.73709">
        <ele>174</ele>
        <time>2017-08-01T14:17:14.287Z</time>
      </trkpt>
    </trkseg>
  </trk>
</gpx>